# Wetter Temperatur Luftdruck Luftfeuchtigkeit Sichtweite Windgeschwindigkeit Windrichtung Zeit
1 Clouds 19 1014 100 6000 1 130 07:38 14.07.2020
2 Clouds 19 1014 100 5000 1.5 130 07:18 14.07.2020
3 Clouds 20 1014 94 5000 1.5 130 06:47 14.07.2020
4 Clear 22 1014 94 6000 1.5 130 06:24 14.07.2020
5 Clear 22 1014 100 6000 1.5 70 05:36 14.07.2020
6 Clouds 22 1015 94 6000 2.1 60 04:38 14.07.2020
7 Clouds 22 1015 94 9000 2.6 20 03:48 14.07.2020
8 Clouds 22 1016 94 9000 3.1 20 03:18 14.07.2020
9 Clouds 22 1016 94 8000 2.1 30 02:26 14.07.2020
10 Clouds 22 1016 94 9000 2.6 30 01:38 14.07.2020
11 Clouds 22 1016 88 8000 2.1 20 00:56 14.07.2020
12 Clouds 22 1016 94 8000 2.6 20 00:37 14.07.2020
13 Clouds 22 1016 94 8000 2.6 20 00:19 14.07.2020
14 Clouds 23 1016 88 10000 3.1 40 23:38 13.07.2020
15 Clouds 23 1016 88 10000 3.1 40 23:19 13.07.2020
16 Clouds 22 1015 94 10000 3.1 10 22:43 13.07.2020
17 Clouds 23 1014 83 10000 6.2 360 22:22 13.07.2020
18 Clouds 23 1014 83 10000 6.2 360 21:59 13.07.2020
19 Clouds 23 1014 83 10000 6.2 360 21:41 13.07.2020
20 Clouds 24 1014 83 10000 6.2 360 21:21 13.07.2020
21 Clouds 24 1014 83 10000 6.2 360 21:21 13.07.2020
22 Clouds 24 1014 78 10000 7.2 360 20:58 13.07.2020
23 Clouds 24 1014 78 10000 7.2 360 20:40 13.07.2020
24 Clouds 25 1014 78 10000 7.2 360 20:22 13.07.2020
25 Clouds 24 1014 83 10000 6.2 20 19:57 13.07.2020
26 Clouds 24 1014 83 10000 6.2 20 19:38 13.07.2020
27 Clouds 25 1014 83 10000 6.2 20 19:19 13.07.2020
28 Clouds 26 1014 73 10000 7.2 340 18:42 13.07.2020
29 Clouds 26 1014 73 10000 7.2 340 18:24 13.07.2020
30 Clouds 27 1015 74 10000 6.2 320 17:58 13.07.2020
31 Clouds 27 1015 74 10000 6.2 320 17:40 13.07.2020
32 Clouds 27 1015 74 10000 6.2 320 17:21 13.07.2020
33 Clouds 27 1015 69 10000 8.2 340 16:58 13.07.2020
34 Clouds 27 1015 69 10000 8.2 340 16:40 13.07.2020
35 Clouds 27 1015 69 10000 8.2 340 16:20 13.07.2020
36 Clouds 28 1016 65 10000 7.2 340 15:57 13.07.2020
37 Clouds 28 1016 65 10000 7.2 340 15:38 13.07.2020
38 Clouds 28 1016 65 10000 7.2 340 15:19 13.07.2020
39 Clouds 27 1016 65 10000 5.1 20 14:56 13.07.2020
40 Clouds 27 1016 65 10000 5.1 20 14:38 13.07.2020
41 Clouds 27 1016 65 10000 5.1 20 14:19 13.07.2020
42 Clouds 27 1016 65 10000 5.1 20 13:43 13.07.2020
43 Clouds 27 1016 65 10000 5.1 20 13:22 13.07.2020
44 Clouds 26 1016 69 10000 4.1 340 12:56 13.07.2020
45 Clouds 26 1016 69 10000 4.1 340 12:38 13.07.2020
46 Clouds 26 1016 69 10000 4.1 340 12:18 13.07.2020
47 Clouds 26 1016 65 10000 3.1 340 11:41 13.07.2020
48 Clouds 26 1016 65 10000 3.1 340 11:23 13.07.2020
49 Clouds 24 1016 65 10000 2.1 40 10:47 13.07.2020
50 Clouds 24 1016 65 10000 2.1 40 10:22 13.07.2020
51 Clouds 23 1016 73 10000 2.1 60 09:59 13.07.2020
52 Clouds 23 1016 73 10000 2.1 60 09:40 13.07.2020
53 Clouds 22 1016 73 10000 2.1 60 09:21 13.07.2020
54 Clouds 22 1016 78 10000 2.1 60 08:49 13.07.2020
55 Clouds 21 1016 88 10000 2.1 20 08:31 13.07.2020
56 Clouds 21 1016 88 10000 3.1 10 07:31 13.07.2020
57 Clouds 21 1016 88 10000 2.1 10 06:54 13.07.2020
58 Clouds 21 1016 88 10000 2.1 10 06:54 13.07.2020
59 Clouds 21 1016 94 10000 2.1 360 06:36 13.07.2020
60 Clouds 23 1016 88 10000 2.1 350 05:59 13.07.2020
61 Clouds 23 1016 88 10000 2.1 50 04:30 13.07.2020
62 Clouds 23 1017 94 10000 1 0 01:49 13.07.2020
63 Clouds 23 1017 94 10000 2.1 360 01:25 13.07.2020
64 Clouds 23 1017 94 10000 2.6 10 00:46 13.07.2020
65 Clouds 23 1017 94 10000 2.6 10 00:24 13.07.2020
66 Clouds 23 1017 94 10000 3.1 350 23:56 12.07.2020
67 Clouds 23 1016 94 10000 2.6 20 23:38 12.07.2020
68 Clouds 23 1016 94 10000 2.6 20 23:19 12.07.2020
69 Clouds 24 1014 78 6000 6.2 360 22:37 12.07.2020
70 Clouds 24 1014 78 6000 6.2 360 22:19 12.07.2020
71 Clouds 24 1014 78 6000 6.2 360 21:57 12.07.2020
72 Clouds 24 1014 78 6000 6.2 360 21:39 12.07.2020
73 Clouds 24 1014 78 6000 6.2 360 21:39 12.07.2020
74 Clouds 24 1014 78 6000 6.2 360 21:20 12.07.2020
75 Clouds 24 1014 78 6000 4.1 20 20:58 12.07.2020
76 Clouds 24 1014 78 6000 4.1 20 20:39 12.07.2020
77 Clouds 24 1014 78 6000 4.1 20 20:19 12.07.2020
78 Clouds 24 1014 78 6000 6.2 340 19:54 12.07.2020
79 Clouds 25 1014 78 6000 6.2 340 19:36 12.07.2020
80 Clouds 26 1014 73 6000 6.2 20 19:18 12.07.2020
81 Clear 27 1014 58 10000 5.7 350 18:40 12.07.2020
82 Clouds 26 1014 73 6000 8.2 360 18:19 12.07.2020
83 Clouds 26 1014 73 6000 8.2 360 17:41 12.07.2020
84 Clouds 26 1014 73 6000 8.2 360 17:22 12.07.2020
85 Clouds 26 1014 73 6000 7.2 320 16:58 12.07.2020
86 Clouds 26 1014 73 6000 7.2 320 16:40 12.07.2020
87 Clouds 26 1014 73 6000 7.2 320 16:18 12.07.2020
88 Clear 27 1014 51 10000 4.6 360 15:43 12.07.2020
89 Clouds 27 1014 69 8000 6.2 360 15:23 12.07.2020
90 Clouds 27 1014 69 8000 6.2 360 14:43 12.07.2020
91 Clouds 27 1014 69 8000 6.2 360 14:25 12.07.2020
92 Clear 27 1014 58 10000 4.6 340 13:41 12.07.2020
93 Clouds 27 1010 69 8000 5.1 360 13:22 12.07.2020
94 Clouds 27 1010 69 8000 5.1 360 12:59 12.07.2020
95 Clouds 26 1010 69 8000 5.1 360 12:41 12.07.2020
96 Clouds 26 1010 69 8000 5.1 360 12:20 12.07.2020
97 Clouds 26 1014 69 6000 3.1 360 11:58 12.07.2020
98 Clouds 26 1014 69 6000 3.1 360 11:40 12.07.2020
99 Clouds 25 1014 69 6000 3.1 360 11:18 12.07.2020
100 Clouds 24 1013 78 6000 2.1 300 10:41 12.07.2020
101 Clouds 24 1013 78 6000 2.1 300 10:20 12.07.2020
102 Clouds 23 1013 83 6000 3.1 280 09:43 12.07.2020
103 Clouds 23 1013 83 6000 3.1 280 09:22 12.07.2020
104 Clouds 23 1013 83 6000 3.1 280 09:22 12.07.2020
105 Clouds 22 1012 83 6000 3.1 300 08:58 12.07.2020
106 Clouds 22 1012 83 6000 3.1 300 08:39 12.07.2020
107 Clouds 22 1012 83 6000 3.1 300 08:21 12.07.2020
108 Clouds 22 1013 88 10000 3.6 10 07:50 12.07.2020
109 Clouds 22 1013 88 10000 3.6 10 07:31 12.07.2020
110 Clouds 21 1013 94 10000 3.1 330 06:56 12.07.2020
111 Clouds 22 1013 94 10000 2.1 330 06:38 12.07.2020
112 Clouds 21 1013 100 10000 1.5 310 06:19 12.07.2020
113 Clouds 21 1013 100 10000 1.5 310 06:19 12.07.2020
114 Clouds 22 1013 94 10000 2.6 290 04:59 12.07.2020
115 Clouds 22 1013 94 10000 2.1 300 04:29 12.07.2020
116 Clouds 22 1013 94 10000 2.6 290 03:45 12.07.2020
117 Clouds 24 1013 94 10000 2.6 290 03:25 12.07.2020
118 Clouds 23 1012 94 10000 4.1 320 02:26 12.07.2020
119 Clouds 23 1013 94 10000 2.6 310 01:29 12.07.2020
120 Clouds 23 1013 94 10000 2.6 310 01:29 12.07.2020
121 Clouds 24 1013 83 10000 2.1 260 00:39 12.07.2020
122 Clouds 24 1013 83 10000 2.1 260 00:21 12.07.2020
123 Clouds 24 1013 83 10000 2.6 280 23:41 11.07.2020
124 Clouds 24 1013 83 10000 2.6 280 23:22 11.07.2020
125 Clouds 25 1012 73 10000 2.6 330 23:00 11.07.2020
126 Clouds 26 1012 65 10000 2.1 350 22:41 11.07.2020
127 Clouds 26 1010 69 6000 3.6 340 22:23 11.07.2020
128 Clouds 26 1010 69 6000 3.6 340 21:56 11.07.2020
129 Clouds 27 1010 69 6000 3.6 340 21:37 11.07.2020
130 Clouds 27 1010 69 6000 3.6 340 21:19 11.07.2020
131 Clouds 26 1010 73 6000 3.6 340 20:54 11.07.2020
132 Clouds 26 1010 73 6000 3.6 340 20:36 11.07.2020
133 Clouds 26 1010 73 6000 3.6 340 20:18 11.07.2020
134 Clouds 27 1010 69 6000 3.6 360 19:46 11.07.2020
135 Clouds 27 1010 69 6000 3.6 360 19:27 11.07.2020
136 Clear 27 1010 65 6000 5.7 340 18:58 11.07.2020
137 Clear 28 1010 65 6000 5.7 340 18:39 11.07.2020
138 Clear 28 1010 65 6000 5.7 340 18:20 11.07.2020
139 Clear 28 1010 65 6000 6.7 340 17:56 11.07.2020
140 Clear 28 1010 65 6000 6.7 340 17:38 11.07.2020
141 Clear 27 1010 65 6000 6.7 340 17:19 11.07.2020
142 Clear 27 1010 69 6000 7.7 320 16:44 11.07.2020
143 Clear 27 1010 69 6000 7.7 320 16:25 11.07.2020
144 Clear 27 1010 69 6000 7.7 320 15:59 11.07.2020
145 Clear 27 1010 69 6000 7.7 320 15:41 11.07.2020
146 Clear 27 1010 69 6000 7.7 320 15:20 11.07.2020
147 Clear 27 1011 69 6000 7.7 340 14:58 11.07.2020
148 Clear 27 1011 69 6000 7.7 340 14:38 11.07.2020
149 Clear 27 1011 69 6000 7.7 340 14:20 11.07.2020
150 Clear 26 1011 73 8000 6.7 320 13:43 11.07.2020
151 Clear 27 1011 73 8000 6.7 320 13:22 11.07.2020
152 Clear 27 1011 73 8000 2.6 320 12:58 11.07.2020
153 Clear 26 1011 73 8000 2.6 320 12:40 11.07.2020
154 Clouds 25 1011 78 8000 1.5 320 12:20 11.07.2020
155 Clouds 24 1011 78 8000 1.5 320 11:55 11.07.2020
156 Clouds 24 1011 78 8000 1.5 320 11:36 11.07.2020
157 Clouds 24 1011 78 8000 1.5 320 11:18 11.07.2020
158 Clouds 23 1010 88 6000 2.6 340 10:40 11.07.2020
159 Clouds 23 1010 88 6000 2.6 340 10:22 11.07.2020
160 Clouds 21 1010 94 6000 2.6 360 09:44 11.07.2020
161 Clouds 21 1010 94 6000 2.6 360 09:20 11.07.2020
162 Clouds 21 1010 88 6000 1 120 08:49 11.07.2020
163 Clouds 20 1010 88 6000 1 120 08:31 11.07.2020
164 Fog 19 1011 100 800 2.6 20 07:59 11.07.2020
165 Clouds 19 1011 100 0 2.6 20 07:40 11.07.2020
166 Mist 19 1011 100 4800 1.5 70 07:19 11.07.2020
167 Mist 19 1011 100 4800 1.5 70 06:51 11.07.2020
168 Mist 21 1011 100 4800 1.5 80 06:20 11.07.2020
169 Mist 22 1011 100 4600 2.1 40 05:20 11.07.2020
170 Mist 22 1011 100 4600 2.1 40 04:54 11.07.2020
171 Mist 22 1011 100 4600 2.1 30 04:31 11.07.2020
172 Mist 22 1012 94 3700 2.6 20 02:58 11.07.2020
173 Mist 22 1012 94 3700 2.1 20 02:36 11.07.2020
174 Clear 22 1012 94 8000 2.1 10 01:27 11.07.2020
175 Clear 22 1012 94 10000 2.1 20 00:59 11.07.2020
176 Clear 22 1012 94 10000 2.6 20 00:38 11.07.2020
177 Clear 22 1012 94 10000 2.6 20 00:19 11.07.2020
178 Clear 22 1012 88 10000 2.6 20 23:56 10.07.2020
179 Clear 22 1012 88 10000 3.1 20 23:38 10.07.2020
180 Clear 22 1012 88 10000 3.1 20 23:18 10.07.2020
181 Clear 23 1012 83 10000 3.1 10 22:42 10.07.2020
182 Clouds 23 1010 78 10000 6.2 340 22:19 10.07.2020
183 Clouds 23 1010 78 10000 6.2 340 21:40 10.07.2020
184 Clouds 23 1010 78 10000 6.2 340 21:21 10.07.2020
185 Clear 23 1010 78 10000 7.2 360 20:59 10.07.2020
186 Clear 24 1010 78 10000 7.2 360 20:40 10.07.2020
187 Clear 25 1010 78 10000 7.2 360 20:21 10.07.2020
188 Clear 25 1011 61 10000 7.7 10 19:57 10.07.2020
189 Clear 26 1011 69 10000 7.2 360 19:39 10.07.2020
190 Clear 26 1011 69 10000 7.2 360 19:19 10.07.2020
191 Clear 26 1011 69 10000 7.2 360 18:41 10.07.2020
192 Clear 26 1011 69 10000 7.2 360 18:20 10.07.2020
193 Clear 27 1011 48 10000 8.2 360 17:57 10.07.2020
194 Clear 27 1011 48 10000 8.2 360 17:57 10.07.2020
195 Clear 27 1011 42 10000 8.2 360 17:38 10.07.2020
196 Clear 27 1011 42 10000 8.2 360 17:20 10.07.2020
197 Clear 27 1012 37 10000 6.7 10 16:42 10.07.2020
198 Clear 27 1012 61 10000 6.2 40 16:20 10.07.2020
199 Clear 27 1012 61 10000 6.2 40 15:45 10.07.2020
200 Clear 27 1012 61 10000 6.2 40 15:25 10.07.2020
201 Clear 26 1013 61 10000 5.1 20 14:55 10.07.2020
202 Clear 26 1013 61 10000 5.1 20 14:37 10.07.2020
203 Clear 26 1013 61 10000 5.1 20 14:19 10.07.2020
204 Clear 27 1013 45 10000 4.1 30 13:57 10.07.2020
205 Clear 26 1013 61 10000 4.1 40 13:38 10.07.2020
206 Clear 26 1013 61 10000 4.1 40 13:20 10.07.2020
207 Clear 25 1013 61 10000 4.1 40 12:44 10.07.2020
208 Clear 25 1013 61 10000 4.1 40 12:25 10.07.2020
209 Clear 24 1014 64 10000 4.1 40 11:59 10.07.2020
210 Clear 24 1014 64 10000 4.1 40 11:38 10.07.2020
211 Clouds 23 1014 69 10000 4.1 20 11:19 10.07.2020
212 Clouds 22 1014 69 10000 4.1 20 10:55 10.07.2020
213 Clouds 22 1014 69 10000 4.1 20 10:36 10.07.2020
214 Clouds 21 1014 77 10000 4.1 20 10:18 10.07.2020
215 Clouds 21 1014 77 10000 4.1 20 09:38 10.07.2020
216 Clouds 20 1014 77 10000 4.1 20 09:20 10.07.2020
217 Clouds 20 1014 77 10000 4.1 360 08:58 10.07.2020
218 Clouds 20 1014 88 10000 2.1 40 08:39 10.07.2020
219 Clouds 19 1014 88 10000 2.1 40 08:21 10.07.2020
220 Clouds 19 1014 88 10000 2.6 50 07:42 10.07.2020
221 Clouds 19 1014 88 10000 2.6 50 07:22 10.07.2020
222 Clouds 19 1014 88 10000 2.6 60 06:51 10.07.2020
223 Clouds 21 1014 88 10000 2.6 60 06:24 10.07.2020
224 Clouds 21 1015 88 10000 2.6 40 04:43 10.07.2020
225 Clouds 21 1016 88 10000 3.1 30 03:39 10.07.2020
226 Clouds 21 1016 93 10000 3.1 20 02:53 10.07.2020
227 Clouds 21 1016 88 10000 3.1 20 01:50 10.07.2020
228 Clouds 21 1017 88 10000 3.1 20 00:49 10.07.2020
229 Clouds 21 1016 83 10000 3.1 30 00:21 10.07.2020
230 Clouds 21 1016 83 10000 3.1 30 23:49 09.07.2020
231 Clear 21 1016 83 10000 3.1 30 23:24 09.07.2020
232 Clouds 21 1016 83 10000 3.6 20 22:59 09.07.2020
233 Clouds 21 1016 83 10000 3.6 20 22:41 09.07.2020
234 Clouds 22 1015 68 10000 7.2 20 22:21 09.07.2020
235 Clouds 22 1015 68 10000 7.2 20 21:57 09.07.2020
236 Clouds 22 1015 68 10000 7.2 20 21:38 09.07.2020
237 Clouds 22 1015 68 10000 7.2 20 21:38 09.07.2020
238 Clouds 22 1015 68 10000 7.2 20 21:19 09.07.2020
239 Clouds 23 1015 69 10000 7.2 20 20:45 09.07.2020
240 Clouds 23 1015 69 10000 7.2 20 20:26 09.07.2020
241 Clouds 24 1015 60 10000 7.2 20 19:58 09.07.2020
242 Clouds 24 1015 60 10000 7.2 20 19:40 09.07.2020
243 Clouds 24 1015 60 10000 7.2 20 19:21 09.07.2020
244 Clear 24 1015 60 10000 8.2 360 18:43 09.07.2020
245 Clear 24 1015 60 10000 8.2 360 18:22 09.07.2020
246 Clear 24 1015 60 10000 8.2 360 17:56 09.07.2020
247 Clear 25 1015 60 10000 8.2 360 17:38 09.07.2020
248 Clear 25 1015 60 10000 8.2 360 17:19 09.07.2020
249 Clear 25 1016 60 10000 4.1 360 16:55 09.07.2020
250 Clear 25 1016 60 10000 4.1 360 16:37 09.07.2020
251 Clear 25 1016 60 10000 4.1 360 16:19 09.07.2020
252 Clear 26 1016 57 10000 6.2 40 15:54 09.07.2020
253 Clear 26 1016 57 10000 6.2 40 15:36 09.07.2020
254 Clear 26 1016 57 10000 6.2 40 15:18 09.07.2020
255 Clear 26 1017 53 10000 4.1 40 14:54 09.07.2020
256 Clear 25 1017 53 10000 4.1 40 14:36 09.07.2020
257 Clouds 25 1017 53 10000 4.1 40 14:18 09.07.2020
258 Clouds 24 1017 57 10000 5.1 40 13:41 09.07.2020
259 Clouds 24 1017 57 10000 5.1 40 13:21 09.07.2020
260 Clouds 23 1017 64 10000 6.2 360 12:58 09.07.2020
261 Clouds 23 1017 64 10000 6.2 360 12:39 09.07.2020
262 Clouds 23 1017 60 10000 4.1 360 12:20 09.07.2020
263 Clouds 23 1017 60 10000 4.1 360 11:55 09.07.2020
264 Clouds 23 1017 60 10000 4.1 360 11:36 09.07.2020
265 Clouds 23 1017 60 10000 4.1 360 11:18 09.07.2020
266 Clouds 21 1017 68 10000 5.1 20 10:42 09.07.2020
267 Clouds 21 1017 68 10000 5.1 20 10:23 09.07.2020
268 Clouds 21 1017 73 10000 3.1 360 09:58 09.07.2020
269 Clouds 21 1017 73 10000 3.1 360 09:40 09.07.2020
270 Clouds 21 1017 73 10000 3.1 360 09:40 09.07.2020
271 Clouds 21 1017 73 10000 3.1 360 09:21 09.07.2020
272 Clouds 20 1017 88 10000 2.6 30 08:44 09.07.2020
273 Clouds 20 1017 88 10000 2.6 30 08:25 09.07.2020
274 Clouds 19 1017 88 10000 2.6 30 07:47 09.07.2020
275 Clouds 19 1017 88 10000 2.6 30 07:24 09.07.2020
276 Clouds 19 1017 88 8000 2.6 30 06:54 09.07.2020
277 Clouds 21 1017 88 10000 3.1 10 06:20 09.07.2020
278 Clouds 21 1017 82 10000 2.1 10 05:26 09.07.2020
279 Clouds 21 1017 82 10000 3.1 350 04:28 09.07.2020
280 Clouds 21 1018 88 10000 2.1 10 02:21 09.07.2020
281 Clouds 21 1018 88 10000 2.6 30 01:37 09.07.2020
282 Clouds 21 1018 94 10000 2.6 10 00:49 09.07.2020
283 Clouds 21 1018 94 10000 3.1 20 00:24 09.07.2020
284 Clear 21 1017 88 10000 3.1 10 23:46 08.07.2020
285 Clear 21 1017 88 10000 3.1 10 23:28 08.07.2020
286 Clear 21 1017 88 10000 3.6 360 22:58 08.07.2020
287 Clear 22 1017 83 10000 4.6 360 22:40 08.07.2020
288 Clouds 22 1016 78 10000 5.1 340 22:22 08.07.2020
289 Clouds 22 1016 78 10000 5.1 340 21:58 08.07.2020
290 Clouds 22 1016 78 10000 5.1 340 21:38 08.07.2020
291 Clouds 22 1016 78 10000 5.1 340 21:20 08.07.2020
292 Clouds 23 1016 73 10000 4.1 340 20:54 08.07.2020
293 Clouds 23 1016 73 10000 4.1 340 20:54 08.07.2020
294 Clouds 23 1016 73 10000 4.1 340 20:36 08.07.2020
295 Clouds 24 1016 73 10000 4.1 340 20:18 08.07.2020
296 Clouds 24 1016 69 10000 6.2 340 19:42 08.07.2020
297 Clouds 24 1016 69 10000 6.2 340 19:22 08.07.2020
298 Clouds 24 1016 69 10000 6.2 340 19:22 08.07.2020
299 Clouds 26 1016 65 10000 6.2 340 18:57 08.07.2020
300 Clouds 26 1016 65 10000 6.2 340 18:39 08.07.2020
301 Clouds 26 1016 65 10000 6.2 340 18:19 08.07.2020
302 Clouds 26 1016 65 10000 7.2 340 17:55 08.07.2020
303 Clouds 26 1016 65 10000 7.2 340 17:37 08.07.2020
304 Clouds 26 1016 65 10000 7.2 340 17:19 08.07.2020
305 Clouds 26 1016 69 10000 7.2 340 16:40 08.07.2020
306 Clouds 26 1016 69 10000 7.2 340 16:22 08.07.2020
307 Clouds 26 1016 69 10000 6.2 340 15:59 08.07.2020
308 Clouds 26 1016 69 10000 6.2 340 15:41 08.07.2020
309 Clouds 26 1016 69 10000 6.2 340 15:20 08.07.2020
310 Clouds 26 1016 69 10000 8.2 340 14:57 08.07.2020
311 Clouds 26 1016 69 10000 8.2 340 14:39 08.07.2020
312 Clouds 26 1016 69 10000 8.2 340 14:18 08.07.2020
313 Clouds 26 1016 69 10000 7.2 300 13:42 08.07.2020
314 Clouds 26 1016 69 10000 7.2 300 13:23 08.07.2020
315 Clouds 26 1015 69 10000 6.2 360 12:46 08.07.2020
316 Clouds 26 1016 69 10000 3.1 20 12:21 08.07.2020
317 Clouds 25 1016 69 10000 3.1 20 11:59 08.07.2020
318 Clouds 25 1015 78 8000 2.1 260 11:38 08.07.2020
319 Clouds 25 1015 78 8000 2.1 260 11:20 08.07.2020
320 Clouds 24 1015 78 8000 2.1 260 10:45 08.07.2020
321 Clouds 24 1015 78 8000 2.1 260 10:26 08.07.2020
322 Clouds 23 1015 94 10000 0.5 0 09:59 08.07.2020
323 Clouds 22 1015 94 10000 1.5 300 09:40 08.07.2020
324 Clouds 22 1015 94 10000 1.5 300 09:20 08.07.2020
325 Clouds 23 1013 75 0 0.89 255 08:42 08.07.2020
326 Clouds 22 1014 100 10000 1.5 340 08:24 08.07.2020
327 Clouds 22 1014 100 10000 1.5 340 07:47 08.07.2020
328 Clouds 22 1014 100 10000 1.5 340 07:23 08.07.2020
329 Clouds 23 1013 94 10000 3.1 330 06:55 08.07.2020
330 Clouds 23 1013 94 10000 3.1 330 06:35 08.07.2020
331 Clouds 23 1013 94 10000 1.5 330 05:55 08.07.2020
332 Clouds 23 1013 94 10000 2.6 340 05:20 08.07.2020
333 Clouds 24 1013 88 10000 4.1 330 04:32 08.07.2020
334 Clouds 29 1013 47 10000 3.6 350 02:22 08.07.2020
335 Clouds 30 1013 37 10000 1.5 330 01:45 08.07.2020
336 Clear 30 1013 37 10000 1.5 330 01:19 08.07.2020
337 Clear 31 1013 27 10000 1 0 00:25 08.07.2020
338 Clear 31 1012 27 10000 2.1 20 23:55 07.07.2020
339 Clear 32 1012 21 10000 2.1 340 23:37 07.07.2020
340 Clear 32 1012 21 10000 2.1 340 23:18 07.07.2020
341 Clear 33 1011 15 10000 4.6 40 22:41 07.07.2020
342 Clear 32 1010 31 10000 5.1 60 22:22 07.07.2020
343 Clear 32 1010 31 10000 5.1 60 21:59 07.07.2020
344 Clear 33 1010 31 10000 5.1 60 21:39 07.07.2020
345 Clear 33 1010 31 10000 5.1 60 21:21 07.07.2020
346 Clear 34 1010 38 10000 4.1 60 20:57 07.07.2020
347 Clear 34 1010 38 10000 4.1 60 20:38 07.07.2020
348 Clear 34 1010 38 10000 4.1 60 20:20 07.07.2020
349 Clear 34 1010 38 10000 4.1 60 20:20 07.07.2020
350 Clear 36 1010 30 10000 5.1 40 19:40 07.07.2020
351 Clear 36 1010 30 10000 4.1 40 19:21 07.07.2020
352 Clear 36 1010 30 10000 4.1 40 18:57 07.07.2020
353 Clear 36 1010 30 10000 4.1 40 18:38 07.07.2020
354 Clear 36 1010 30 10000 4.1 40 18:38 07.07.2020
355 Clear 36 1010 30 10000 4.1 40 18:20 07.07.2020
356 Clear 37 1010 28 10000 4.1 40 17:58 07.07.2020
357 Clear 37 1010 28 10000 4.1 40 17:38 07.07.2020
358 Clear 37 1010 28 10000 4.1 40 17:20 07.07.2020
359 Clear 35 1011 33 10000 5.1 40 16:43 07.07.2020
360 Clear 35 1011 33 10000 5.1 40 16:24 07.07.2020
361 Clear 33 1012 52 10000 6.2 20 15:58 07.07.2020
362 Clear 33 1012 52 10000 6.2 20 15:39 07.07.2020
363 Clear 33 1012 52 10000 6.2 20 15:20 07.07.2020
364 Clear 34 1012 62 10000 6.2 40 14:47 07.07.2020
365 Clear 34 1012 62 10000 6.2 40 14:25 07.07.2020
366 Clear 35 1012 55 6000 6.2 360 13:57 07.07.2020
367 Clear 35 1012 55 6000 6.2 360 13:38 07.07.2020
368 Clear 37 1011 49 6000 4.1 360 13:18 07.07.2020
369 Clear 35 1011 49 6000 4.1 360 12:40 07.07.2020
370 Clear 35 1011 49 6000 4.1 360 12:22 07.07.2020
371 Clear 35 1011 49 6000 4.1 360 12:22 07.07.2020
372 Clear 32 1011 48 6000 3.1 100 11:50 07.07.2020
373 Clear 32 1011 48 6000 3.1 100 11:26 07.07.2020
374 Clear 28 1012 78 8000 1 60 10:59 07.07.2020
375 Clear 27 1012 78 8000 1 60 10:41 07.07.2020
376 Clear 26 1012 78 8000 1 60 10:22 07.07.2020
377 Clear 25 1012 94 8000 1 120 09:56 07.07.2020
378 Clear 23 1012 94 8000 1 120 09:38 07.07.2020
379 Clouds 23 1012 94 8000 1 120 09:19 07.07.2020
380 Clouds 21 1012 94 8000 1 60 08:42 07.07.2020
381 Clear 21 1012 94 8000 1 60 08:23 07.07.2020
382 Clear 21 1012 68 10000 2.1 120 07:43 07.07.2020
383 Clear 21 1012 68 10000 2.1 120 07:22 07.07.2020
384 Clear 21 1012 73 10000 2.6 130 06:49 07.07.2020
385 Clear 25 1012 73 10000 3.1 360 06:29 07.07.2020
386 Clear 25 1012 73 10000 3.1 360 05:53 07.07.2020
387 Clear 25 1013 64 10000 1 0 05:22 07.07.2020
388 Clear 25 1013 64 10000 2.1 230 04:38 07.07.2020
389 Clear 26 1013 57 10000 1.5 320 03:35 07.07.2020
390 Clear 26 1014 64 10000 0.5 0 02:21 07.07.2020
391 Clear 26 1014 57 10000 2.6 80 01:22 07.07.2020
392 Clear 27 1014 61 10000 2.6 40 00:43 07.07.2020
393 Clear 27 1014 61 10000 2.6 40 00:24 07.07.2020
394 Clear 27 1014 65 10000 2.6 10 23:55 06.07.2020
395 Clear 27 1014 65 10000 3.1 360 23:37 06.07.2020
396 Clear 27 1014 65 10000 3.1 360 23:18 06.07.2020
397 Clear 29 1013 35 10000 2.6 360 22:41 06.07.2020
398 Clear 29 1012 61 10000 6.2 60 22:20 06.07.2020
399 Clear 30 1012 61 10000 6.2 60 21:57 06.07.2020
400 Clear 29 1012 61 10000 6.2 60 21:39 06.07.2020
401 Clear 29 1012 61 10000 6.2 60 21:39 06.07.2020
402 Clear 30 1012 61 10000 6.2 60 21:19 06.07.2020
403 Clear 31 1012 61 10000 5.1 40 20:59 06.07.2020
404 Clear 32 1012 61 10000 5.1 40 20:38 06.07.2020
405 Clear 32 1012 61 10000 5.1 40 20:20 06.07.2020
406 Clear 26 1012 100 10000 5.1 60 19:56 06.07.2020
407 Clear 27 1012 100 10000 5.1 60 19:38 06.07.2020
408 Clear 27 1012 100 10000 5.1 60 19:20 06.07.2020
409 Clear 33 1013 62 10000 4.6 40 18:41 06.07.2020
410 Clear 33 1013 62 10000 4.6 40 18:23 06.07.2020
411 Clear 34 1013 62 10000 8.2 360 17:59 06.07.2020
412 Clear 34 1013 62 10000 8.2 360 17:41 06.07.2020
413 Clear 34 1013 62 10000 8.2 360 17:21 06.07.2020
414 Clear 34 1013 62 10000 6.2 20 16:55 06.07.2020
415 Clear 34 1013 62 10000 6.2 20 16:37 06.07.2020
416 Clear 34 1013 62 10000 6.2 20 16:18 06.07.2020
417 Clear 34 1013 62 10000 6.2 20 16:18 06.07.2020
418 Clear 40 1014 16 10000 6.2 30 15:42 06.07.2020
419 Clear 34 1013 66 10000 4.1 40 15:24 06.07.2020
420 Clear 33 1013 66 10000 4.1 40 14:56 06.07.2020
421 Clear 33 1013 66 10000 4.1 40 14:37 06.07.2020
422 Clear 31 1013 66 10000 4.1 40 14:19 06.07.2020
423 Clear 30 1014 65 10000 4.1 40 13:46 06.07.2020
424 Clear 30 1014 65 10000 4.1 40 13:27 06.07.2020
425 Clear 30 1013 65 10000 4.1 20 12:56 06.07.2020
426 Clear 29 1013 61 8000 3.1 120 12:38 06.07.2020
427 Clear 29 1013 61 8000 3.1 120 12:18 06.07.2020
428 Clear 29 1013 61 8000 3.1 120 11:57 06.07.2020
429 Clear 29 1013 61 8000 3.1 120 11:36 06.07.2020
430 Clear 29 1013 61 8000 3.1 120 11:18 06.07.2020
431 Clouds 25 1014 78 6000 2.1 60 10:41 06.07.2020
432 Clouds 24 1014 78 6000 2.1 60 10:21 06.07.2020
433 Clouds 22 1014 88 6000 2.6 80 09:56 06.07.2020
434 Clouds 22 1014 88 6000 2.6 80 09:37 06.07.2020
435 Clouds 22 1014 88 6000 2.6 80 09:19 06.07.2020
436 Clouds 22 1014 88 6000 2.6 80 09:19 06.07.2020
437 Clouds 21 1014 94 6000 2.6 20 08:41 06.07.2020
438 Clouds 21 1014 94 6000 2.6 20 08:22 06.07.2020
439 Mist 20 1014 94 1000 2.6 50 07:54 06.07.2020
440 Mist 21 1014 94 2000 2.1 30 07:35 06.07.2020
441 Mist 21 1014 94 2000 2.6 30 06:57 06.07.2020
442 Mist 21 1014 94 3000 2.6 20 06:38 06.07.2020
443 Mist 23 1014 94 4000 2.6 20 05:56 06.07.2020
444 Clouds 24 1014 88 6000 2.1 40 05:29 06.07.2020
445 Clear 24 1015 83 10000 1.5 20 04:33 06.07.2020
446 Clear 25 1015 69 10000 2.1 20 02:50 06.07.2020
447 Clear 25 1016 69 10000 1 0 02:19 06.07.2020
448 Clear 25 1016 73 10000 2.1 120 00:52 06.07.2020
449 Clear 25 1016 61 10000 2.1 90 00:28 06.07.2020
450 Clear 25 1016 57 10000 2.1 60 23:58 05.07.2020
451 Clear 25 1016 57 10000 1.5 50 23:40 05.07.2020
452 Clear 25 1016 57 10000 1.5 50 23:21 05.07.2020
453 Clear 25 1016 61 10000 2.1 40 22:58 05.07.2020
454 Clear 26 1014 69 10000 2.6 60 22:37 05.07.2020
455 Clear 26 1014 69 10000 2.6 60 22:19 05.07.2020
456 Clear 26 1014 69 10000 2.6 60 21:56 05.07.2020
457 Clear 26 1014 69 10000 2.6 60 21:37 05.07.2020
458 Clear 26 1014 69 10000 2.6 60 21:37 05.07.2020
459 Clear 26 1014 69 10000 2.6 60 21:18 05.07.2020
460 Clouds 26 1014 78 10000 3.1 20 20:41 05.07.2020
461 Clouds 27 1014 78 10000 3.1 20 20:23 05.07.2020
462 Clouds 22 1014 72 10000 5.1 40 19:58 05.07.2020
463 Clouds 23 1014 72 10000 5.1 40 19:40 05.07.2020
464 Clouds 23 1014 72 10000 5.1 40 19:20 05.07.2020
465 Clouds 27 1014 74 10000 6.2 20 18:55 05.07.2020
466 Clouds 27 1014 74 10000 6.2 20 18:36 05.07.2020
467 Clear 29 1014 69 10000 6.2 360 18:18 05.07.2020
468 Clear 28 1014 69 10000 6.2 360 17:41 05.07.2020
469 Clear 28 1014 69 10000 6.2 360 17:19 05.07.2020
470 Clear 28 1014 65 10000 6.2 360 16:45 05.07.2020
471 Clear 28 1014 65 10000 6.2 360 16:45 05.07.2020
472 Clear 29 1014 65 10000 6.2 360 16:25 05.07.2020
473 Clear 29 1015 69 10000 5.1 340 15:59 05.07.2020
474 Clear 30 1015 69 10000 5.1 340 15:39 05.07.2020
475 Clear 29 1015 69 10000 5.1 340 15:19 05.07.2020
476 Clear 29 1015 65 10000 6.2 340 14:42 05.07.2020
477 Clear 29 1015 65 10000 6.2 340 14:23 05.07.2020
478 Clear 29 1015 58 10000 6.2 20 13:58 05.07.2020
479 Clear 29 1015 58 10000 6.2 20 13:40 05.07.2020
480 Clear 29 1015 58 10000 6.2 20 13:20 05.07.2020
481 Clear 27 1015 65 8000 2.1 360 12:42 05.07.2020
482 Clear 27 1015 65 8000 2.1 360 12:20 05.07.2020
483 Clear 25 1016 61 10000 2.1 360 11:55 05.07.2020
484 Clear 24 1015 78 8000 2.1 80 11:37 05.07.2020
485 Clear 24 1015 78 8000 2.1 80 11:18 05.07.2020
486 Clear 24 1015 78 8000 2.1 80 10:42 05.07.2020
487 Clear 24 1015 78 8000 2.1 80 10:21 05.07.2020
488 Clouds 22 1016 88 10000 1.5 70 09:59 05.07.2020
489 Clouds 21 1016 94 10000 2.1 40 09:41 05.07.2020
490 Clouds 22 1015 83 10000 3.1 20 09:20 05.07.2020
491 Clouds 21 1015 83 10000 3.1 20 08:55 05.07.2020
492 Clouds 21 1015 83 10000 3.1 20 08:37 05.07.2020
493 Clouds 19 1016 93 6000 1.5 70 07:56 05.07.2020
494 Clouds 20 1016 94 10000 2.1 40 07:30 05.07.2020
495 Clouds 20 1016 100 8000 2.1 50 06:55 05.07.2020
496 Clouds 20 1016 100 7000 2.6 30 06:25 05.07.2020
497 Clouds 21 1017 94 10000 3.6 20 03:57 05.07.2020
498 Clouds 23 1017 94 10000 2.1 30 02:59 05.07.2020
499 Clear 22 1018 94 10000 3.1 350 02:36 05.07.2020
500 Clear 23 1018 77 10000 3.1 350 01:43 05.07.2020
501 Clear 23 1018 77 10000 3.1 350 01:22 05.07.2020
502 Clear 23 1018 78 10000 2.1 20 00:50 05.07.2020
503 Clear 23 1017 68 10000 2.1 20 00:28 05.07.2020
504 Clear 24 1017 60 10000 2.6 360 23:55 04.07.2020
505 Clear 24 1017 60 10000 2.6 360 23:32 04.07.2020
506 Clear 24 1017 57 10000 2.6 20 22:59 04.07.2020
507 Clear 24 1017 57 10000 2.6 10 22:40 04.07.2020
508 Clear 24 1016 69 8000 4.6 20 22:22 04.07.2020
509 Clear 24 1016 69 8000 4.6 20 21:58 04.07.2020
510 Clear 24 1016 69 8000 4.6 20 21:40 04.07.2020
511 Clear 24 1016 69 8000 4.6 20 21:21 04.07.2020
512 Clear 25 1015 61 8000 6.2 20 20:42 04.07.2020
513 Clear 26 1015 61 8000 6.2 20 20:21 04.07.2020
514 Clear 26 1015 57 8000 7.2 20 19:56 04.07.2020
515 Clear 26 1015 57 8000 7.2 20 19:38 04.07.2020
516 Clear 26 1015 57 8000 7.2 20 19:20 04.07.2020
517 Clear 26 1016 61 8000 8.2 340 18:43 04.07.2020
518 Clear 26 1016 61 8000 8.2 340 18:23 04.07.2020
519 Clear 26 1017 65 8000 7.2 360 17:46 04.07.2020
520 Clear 26 1017 65 8000 7.2 360 17:28 04.07.2020
521 Clear 27 1017 61 8000 7.7 360 16:59 04.07.2020
522 Clear 27 1017 61 8000 7.7 360 16:40 04.07.2020
523 Clear 27 1017 61 8000 7.7 360 16:21 04.07.2020
524 Clear 27 1017 61 8000 7.2 360 15:58 04.07.2020
525 Clear 27 1017 61 8000 7.2 360 15:40 04.07.2020
526 Clear 27 1017 61 8000 7.2 360 15:21 04.07.2020
527 Clear 26 1018 61 8000 6.2 340 14:57 04.07.2020
528 Clear 26 1018 61 8000 6.2 340 14:37 04.07.2020
529 Clear 26 1018 61 8000 6.2 340 14:18 04.07.2020
530 Clear 26 1018 65 6000 4.6 320 13:41 04.07.2020
531 Clear 26 1018 65 6000 4.6 320 13:19 04.07.2020
532 Clear 25 1018 64 6000 4.6 340 12:56 04.07.2020
533 Clear 24 1018 64 6000 4.6 340 12:38 04.07.2020
534 Clear 24 1018 64 6000 4.6 340 12:18 04.07.2020
535 Clear 24 1018 60 6000 3.1 20 11:43 04.07.2020
536 Clear 24 1018 60 6000 3.1 20 11:23 04.07.2020
537 Clear 22 1018 73 6000 3.1 360 10:56 04.07.2020
538 Clear 22 1018 73 6000 3.1 360 10:37 04.07.2020
539 Clear 22 1018 73 6000 3.1 360 10:18 04.07.2020
540 Clouds 20 1018 77 6000 2.6 20 09:41 04.07.2020
541 Clouds 20 1018 77 6000 2.6 20 09:22 04.07.2020
542 Clouds 19 1018 82 6000 1.5 360 08:58 04.07.2020
543 Clouds 19 1018 82 6000 1.5 360 08:39 04.07.2020
544 Clouds 19 1018 82 6000 1.5 360 08:20 04.07.2020
545 Clouds 19 1018 93 10000 2.1 40 07:40 04.07.2020
546 Clouds 19 1018 93 10000 2.1 30 07:18 04.07.2020
547 Clear 19 1018 93 10000 2.1 30 06:38 04.07.2020
548 Clouds 21 1018 93 10000 2.1 30 06:18 04.07.2020
549 Clear 21 1019 93 10000 2.1 20 05:28 04.07.2020
550 Clouds 21 1019 93 10000 2.1 30 03:56 04.07.2020
551 Clouds 21 1020 93 10000 2.6 20 02:41 04.07.2020
552 Clouds 21 1020 88 10000 3.1 20 01:40 04.07.2020
553 Clouds 21 1020 88 10000 2.6 30 00:49 04.07.2020
554 Clouds 21 1020 88 10000 3.1 20 00:30 04.07.2020
555 Clouds 21 1020 88 10000 4.1 20 23:59 03.07.2020
556 Clouds 21 1020 88 10000 4.1 20 23:39 03.07.2020
557 Clouds 21 1020 88 10000 4.1 20 23:18 03.07.2020
558 Clouds 21 1019 83 10000 4.6 10 22:41 03.07.2020
559 Clouds 22 1018 73 6000 7.7 20 22:23 03.07.2020
560 Clouds 22 1018 73 6000 7.7 20 21:59 03.07.2020
561 Clouds 22 1018 73 6000 7.7 20 21:38 03.07.2020
562 Clouds 22 1018 73 6000 7.7 20 21:19 03.07.2020
563 Clouds 23 1018 69 6000 9.8 20 20:43 03.07.2020
564 Clouds 23 1018 69 6000 9.8 20 20:25 03.07.2020
565 Clouds 23 1018 69 6000 7.7 20 19:56 03.07.2020
566 Clouds 24 1018 69 6000 7.7 20 19:38 03.07.2020
567 Clouds 24 1018 69 6000 9.3 20 19:18 03.07.2020
568 Clouds 25 1018 69 6000 9.3 20 18:42 03.07.2020
569 Clouds 25 1018 69 6000 9.3 20 18:23 03.07.2020
570 Clouds 26 1018 69 8000 8.2 20 17:56 03.07.2020
571 Clouds 26 1018 69 8000 8.2 20 17:37 03.07.2020
572 Clouds 26 1018 69 8000 8.2 20 17:19 03.07.2020
573 Clouds 26 1018 65 8000 7.7 20 16:40 03.07.2020
574 Clouds 26 1018 65 8000 7.7 20 16:20 03.07.2020
575 Clouds 26 1019 65 8000 7.7 20 15:44 03.07.2020
576 Clouds 26 1019 65 8000 7.7 20 15:23 03.07.2020
577 Clouds 26 1019 65 8000 7.7 360 14:56 03.07.2020
578 Clouds 26 1019 65 8000 7.7 360 14:37 03.07.2020
579 Clouds 26 1019 65 8000 7.7 360 14:19 03.07.2020
580 Clouds 25 1019 65 8000 5.7 20 13:43 03.07.2020
581 Clouds 26 1019 65 8000 5.7 20 13:24 03.07.2020
582 Clouds 24 1019 69 8000 5.7 40 12:45 03.07.2020
583 Clouds 24 1019 69 8000 5.7 40 12:24 03.07.2020
584 Clouds 24 1019 69 8000 3.6 20 11:58 03.07.2020
585 Clouds 24 1019 69 8000 3.6 20 11:40 03.07.2020
586 Clouds 24 1019 69 8000 3.6 20 11:21 03.07.2020
587 Clouds 23 1019 73 6000 4.6 20 10:55 03.07.2020
588 Clouds 23 1019 73 6000 4.6 20 10:36 03.07.2020
589 Clouds 23 1019 73 6000 4.6 20 10:18 03.07.2020
590 Clouds 21 1019 73 6000 4.6 20 09:40 03.07.2020
591 Clouds 21 1019 73 6000 4.6 20 09:22 03.07.2020
592 Clouds 21 1019 83 6000 2.6 20 08:58 03.07.2020
593 Clouds 21 1019 83 6000 2.6 20 08:38 03.07.2020
594 Clouds 21 1019 83 6000 2.6 20 08:18 03.07.2020
595 Clouds 20 1019 94 10000 2.6 40 07:47 03.07.2020
596 Clouds 20 1019 94 10000 2.6 40 07:23 03.07.2020
597 Clear 20 1019 94 10000 2.6 30 06:40 03.07.2020
598 Clear 22 1019 94 10000 2.6 40 05:56 03.07.2020
599 Clear 22 1019 94 10000 3.1 20 04:28 03.07.2020
600 Clouds 22 1020 88 10000 3.1 30 02:57 03.07.2020
601 Clouds 22 1020 94 10000 4.6 20 02:32 03.07.2020
602 Clouds 22 1020 94 10000 3.6 40 01:54 03.07.2020
603 Clouds 22 1020 94 10000 3.6 30 01:22 03.07.2020
604 Clouds 22 1020 94 10000 3.6 20 00:42 03.07.2020
605 Clouds 22 1020 94 10000 3.6 20 00:18 03.07.2020
606 Clouds 22 1019 88 10000 4.6 20 23:43 02.07.2020
607 Clouds 22 1019 88 10000 4.6 20 23:20 02.07.2020
608 Clouds 22 1019 88 10000 4.1 20 22:57 02.07.2020
609 Clouds 23 1018 78 10000 7.2 20 22:38 02.07.2020
610 Clouds 23 1018 78 10000 7.2 20 22:20 02.07.2020
611 Clouds 23 1018 78 10000 7.2 20 21:54 02.07.2020
612 Clouds 23 1018 78 10000 7.2 20 21:36 02.07.2020
613 Clouds 23 1018 78 10000 7.2 20 21:18 02.07.2020
614 Clouds 23 1018 78 10000 6.2 20 20:42 02.07.2020
615 Clouds 23 1018 78 10000 6.2 20 20:20 02.07.2020
616 Clouds 24 1018 73 10000 7.2 20 19:57 02.07.2020
617 Clouds 24 1018 73 10000 7.2 20 19:38 02.07.2020
618 Clouds 25 1017 69 10000 6.2 360 19:20 02.07.2020
619 Clouds 26 1017 69 10000 6.2 360 18:57 02.07.2020
620 Clouds 26 1017 69 10000 6.2 360 18:38 02.07.2020
621 Clouds 26 1017 69 10000 6.2 360 18:20 02.07.2020
622 Clouds 26 1018 65 10000 6.2 360 17:39 02.07.2020
623 Clouds 26 1018 65 10000 6.2 360 17:20 02.07.2020
624 Clouds 26 1018 65 10000 6.2 360 16:56 02.07.2020
625 Clouds 26 1018 65 10000 6.2 360 16:38 02.07.2020
626 Clouds 26 1018 65 10000 6.2 360 16:19 02.07.2020
627 Clouds 25 1018 65 10000 5.1 20 15:41 02.07.2020
628 Clouds 25 1018 65 10000 5.1 20 15:21 02.07.2020
629 Clouds 25 1019 65 10000 8.2 360 14:54 02.07.2020
630 Clouds 26 1019 65 10000 8.2 360 14:36 02.07.2020
631 Clouds 26 1019 65 10000 8.2 360 14:18 02.07.2020
632 Clouds 25 1019 64 10000 5.1 340 13:40 02.07.2020
633 Clouds 25 1019 64 10000 5.1 340 13:21 02.07.2020
634 Clouds 24 1019 69 10000 6.2 340 12:59 02.07.2020
635 Clouds 24 1019 69 10000 6.2 340 12:39 02.07.2020
636 Clouds 24 1019 69 10000 6.2 340 12:21 02.07.2020
637 Clouds 23 1018 73 10000 5.1 20 11:44 02.07.2020
638 Clouds 23 1018 73 10000 5.1 20 11:26 02.07.2020
639 Clouds 23 1018 73 10000 5.1 20 10:55 02.07.2020
640 Clouds 23 1018 73 10000 5.1 20 10:37 02.07.2020
641 Clouds 23 1018 73 10000 5.1 20 10:19 02.07.2020
642 Clouds 21 1017 83 10000 3.1 360 09:42 02.07.2020
643 Clouds 21 1017 83 10000 3.1 360 09:21 02.07.2020
644 Clouds 21 1017 77 10000 3.1 20 08:57 02.07.2020
645 Clouds 21 1018 88 10000 3.1 20 08:38 02.07.2020
646 Clouds 21 1018 88 10000 3.1 20 08:18 02.07.2020
647 Clouds 21 1018 88 10000 2.6 340 07:41 02.07.2020
648 Clouds 21 1018 88 10000 2.6 340 07:20 02.07.2020
649 Clouds 20 1017 94 10000 2.1 10 06:41 02.07.2020
650 Clouds 20 1017 94 10000 2.1 10 06:20 02.07.2020
651 Clouds 20 1017 94 10000 2.6 360 05:46 02.07.2020
652 Clouds 20 1017 94 10000 2.1 40 04:49 02.07.2020
653 Clouds 20 1017 94 10000 3.6 350 03:33 02.07.2020
654 Clouds 20 1017 94 10000 3.6 350 01:48 02.07.2020
655 Clouds 21 1017 88 10000 3.1 360 00:27 02.07.2020
656 Clouds 21 1017 88 10000 3.1 360 23:55 01.07.2020
657 Clouds 22 1017 83 10000 3.1 350 23:37 01.07.2020
658 Clouds 22 1017 83 10000 3.1 350 23:18 01.07.2020
659 Clouds 22 1016 83 10000 2.6 350 22:54 01.07.2020
660 Clouds 20 1025 72 5000 2.1 140 22:36 01.07.2020
661 Clouds 20 1025 72 5000 2.1 140 22:18 01.07.2020
662 Clouds 19 1025 72 5000 2.1 140 21:54 01.07.2020
663 Clouds 19 1025 72 5000 2.1 140 21:36 01.07.2020
664 Clouds 19 1025 72 5000 2.1 140 21:18 01.07.2020
665 Clouds 23 1015 73 10000 6.2 20 20:43 01.07.2020
666 Clouds 23 1015 73 10000 6.2 20 20:25 01.07.2020
667 Clouds 24 1015 73 10000 7.2 20 19:56 01.07.2020
668 Clouds 24 1015 73 10000 7.2 20 19:56 01.07.2020
669 Clouds 24 1015 73 10000 7.2 20 19:38 01.07.2020
670 Clouds 24 1015 73 10000 7.2 20 19:19 01.07.2020
671 Clouds 25 1015 69 10000 5.26 344 18:42 01.07.2020
672 Clouds 25 1015 69 10000 5.6 0 18:21 01.07.2020
673 Clouds 26 1015 65 10000 5.7 20 17:59 01.07.2020
674 Clouds 26 1015 65 10000 5.7 20 17:40 01.07.2020
675 Clouds 26 1015 65 10000 5.7 20 17:19 01.07.2020
676 Clouds 25 1015 69 10000 7.2 360 16:47 01.07.2020
677 Clouds 25 1015 69 10000 7.2 360 16:29 01.07.2020
678 Clouds 26 1015 65 10000 7.2 340 15:57 01.07.2020
679 Clouds 26 1015 65 10000 7.2 340 15:39 01.07.2020
680 Clouds 26 1015 65 10000 7.2 340 15:20 01.07.2020
681 Clear 25 1015 65 0 7.15 360 14:44 01.07.2020
682 Clear 24 1015 73 10000 7.2 360 14:22 01.07.2020
683 Clear 24 1015 73 10000 7.2 360 13:59 01.07.2020
684 Clear 24 1015 73 10000 7.2 360 13:39 01.07.2020
685 Clear 24 1015 73 10000 7.2 360 13:20 01.07.2020
686 Clear 25 1015 69 10000 5.1 20 12:57 01.07.2020
687 Clear 24 1015 69 10000 5.1 20 12:38 01.07.2020
688 Clouds 24 1015 73 10000 5.1 340 12:20 01.07.2020
689 Clouds 23 1015 73 10000 5.1 340 11:44 01.07.2020
690 Clouds 23 1015 73 10000 5.1 340 11:24 01.07.2020
691 Clouds 22 1015 78 10000 4.1 60 10:58 01.07.2020
692 Clouds 22 1015 78 10000 4.1 60 10:40 01.07.2020
693 Clouds 22 1015 78 10000 4.1 60 10:21 01.07.2020
694 Clouds 21 1015 77 10000 3.1 40 09:54 01.07.2020
695 Clouds 21 1015 77 10000 3.1 40 09:36 01.07.2020
696 Clouds 21 1015 77 10000 3.1 40 09:18 01.07.2020
697 Clouds 20 1015 82 10000 3.1 20 08:41 01.07.2020
698 Clouds 20 1015 82 10000 3.1 20 08:21 01.07.2020
699 Clouds 19 1015 93 7000 2.1 20 07:54 01.07.2020
700 Clouds 19 1015 93 7000 2.6 40 07:36 01.07.2020
701 Clouds 19 1015 93 7000 3.1 40 07:18 01.07.2020
702 Clouds 19 1015 100 7000 3.1 40 06:48 01.07.2020
703 Clouds 21 1015 100 7000 3.1 40 06:25 01.07.2020
704 Clear 21 1015 100 10000 2.6 10 04:30 01.07.2020
705 Clear 21 1016 100 10000 2.6 350 03:45 01.07.2020
706 Clear 21 1016 100 10000 2.6 350 03:26 01.07.2020
707 Clear 21 1016 94 10000 1.5 40 02:35 01.07.2020
708 Clear 21 1016 94 10000 2.6 340 01:26 01.07.2020
709 Clear 21 1016 88 10000 2.1 20 00:40 01.07.2020
710 Clear 21 1016 88 10000 2.1 20 00:21 01.07.2020
711 Clear 21 1016 88 10000 2.1 30 23:40 30.06.2020
712 Clear 21 1016 88 10000 2.1 30 23:21 30.06.2020
713 Clear 22 1015 83 10000 4.1 350 22:43 30.06.2020
714 Clouds 22 1014 78 8000 5.7 360 22:20 30.06.2020
715 Clouds 22 1014 78 8000 5.7 360 21:55 30.06.2020
716 Clouds 22 1014 78 8000 5.7 360 21:37 30.06.2020
717 Clouds 22 1014 78 8000 5.7 360 21:19 30.06.2020
718 Clouds 24 1013 73 8000 4.6 320 20:43 30.06.2020
719 Clouds 24 1013 73 8000 4.6 320 20:21 30.06.2020
720 Clouds 24 1013 73 8000 5.7 320 19:47 30.06.2020
721 Clouds 24 1013 73 8000 5.7 320 19:22 30.06.2020
722 Clouds 25 1013 69 8000 7.7 360 18:59 30.06.2020
723 Clouds 25 1013 69 8000 7.7 360 18:41 30.06.2020
724 Clouds 25 1013 69 8000 7.7 360 18:20 30.06.2020
725 Clouds 26 1013 65 8000 5.1 340 17:40 30.06.2020
726 Clouds 26 1013 65 8000 5.1 340 17:21 30.06.2020
727 Clear 26 1013 65 8000 5.1 340 16:59 30.06.2020
728 Clear 26 1014 54 10000 4.6 340 16:40 30.06.2020
729 Clear 25 1014 69 8000 5.7 340 16:21 30.06.2020
730 Clear 25 1014 69 8000 5.7 340 16:21 30.06.2020
731 Clear 25 1014 69 8000 5.7 340 15:56 30.06.2020
732 Clear 25 1014 69 8000 5.7 340 15:38 30.06.2020
733 Clear 25 1014 69 8000 5.7 340 15:19 30.06.2020
734 Clear 26 1014 65 8000 9.3 300 14:43 30.06.2020
735 Clear 26 1014 65 8000 9.3 300 14:22 30.06.2020
736 Clouds 26 1014 65 8000 5.7 300 13:58 30.06.2020
737 Clouds 26 1014 65 8000 5.7 300 13:37 30.06.2020
738 Clouds 26 1014 65 8000 5.7 300 13:19 30.06.2020
739 Clouds 26 1014 65 8000 5.7 300 13:19 30.06.2020
740 Clear 25 1014 69 6000 5.7 320 12:56 30.06.2020
741 Clear 24 1014 69 6000 5.7 320 12:38 30.06.2020
742 Clear 24 1014 69 6000 5.7 320 12:19 30.06.2020
743 Clear 24 1014 69 6000 5.7 320 12:19 30.06.2020
744 Clear 24 1014 64 6000 5.7 320 11:56 30.06.2020
745 Clear 24 1014 64 6000 5.7 320 11:38 30.06.2020
746 Clear 23 1014 64 6000 5.7 320 11:18 30.06.2020
747 Clouds 26 1017 69 10000 9.8 360 16:48 28.06.2020
748 Clouds 26 1017 69 10000 9.8 360 16:28 28.06.2020
749 Clouds 26 1017 65 10000 8.2 360 15:59 28.06.2020
750 Clouds 26 1017 65 10000 8.2 360 15:41 28.06.2020
751 Clouds 26 1017 65 10000 8.2 360 15:20 28.06.2020
752 Clouds 26 1017 65 10000 6.7 360 14:58 28.06.2020
753 Clouds 26 1017 65 10000 6.7 360 14:39 28.06.2020
754 Clouds 26 1017 65 10000 6.7 360 14:21 28.06.2020
755 Clouds 26 1018 65 10000 6.2 340 13:40 28.06.2020
756 Clouds 26 1018 65 10000 6.2 340 13:21 28.06.2020
757 Clouds 24 1017 64 10000 5.1 360 12:58 28.06.2020
758 Clouds 24 1017 64 10000 5.1 360 12:38 28.06.2020
759 Clouds 24 1017 64 10000 5.1 360 12:38 28.06.2020
760 Clouds 24 1017 64 10000 5.1 360 12:19 28.06.2020
761 Clouds 24 1018 64 10000 5.1 340 11:59 28.06.2020
762 Clouds 24 1018 64 10000 5.1 340 11:40 28.06.2020
763 Clouds 24 1018 64 10000 5.1 340 11:20 28.06.2020
764 Clouds 23 1018 69 10000 2.1 360 10:58 28.06.2020
765 Clouds 23 1018 69 10000 2.1 360 10:39 28.06.2020
766 Clouds 23 1018 69 10000 2.1 360 10:21 28.06.2020
767 Clouds 23 1018 69 10000 2.1 360 10:21 28.06.2020
768 Clouds 21 1017 77 10000 3.1 20 09:41 28.06.2020
769 Clouds 21 1017 77 10000 3.1 20 09:22 28.06.2020
770 Clouds 20 1017 73 10000 2.1 40 08:55 28.06.2020
771 Clouds 20 1017 73 10000 2.1 40 08:36 28.06.2020
772 Clouds 20 1017 73 10000 2.1 40 08:18 28.06.2020
773 Clouds 19 1017 88 10000 3.1 70 07:33 28.06.2020
774 Clouds 19 1016 69 0 2.61 51 06:56 28.06.2020
775 Clouds 19 1016 69 0 2.61 51 06:32 28.06.2020
776 Clouds 21 1018 93 10000 4.1 40 05:45 28.06.2020
777 Clear 21 1018 93 10000 3.1 20 04:24 28.06.2020
778 Clear 21 1018 93 10000 3.6 30 02:56 28.06.2020
779 Clear 21 1018 93 10000 3.6 30 02:19 28.06.2020
780 Clear 21 1019 88 10000 4.1 40 01:27 28.06.2020
781 Clear 21 1019 88 10000 3.1 30 00:53 28.06.2020
782 Clear 21 1019 93 10000 3.1 20 00:29 28.06.2020
783 Clear 21 1018 88 10000 4.6 20 23:46 27.06.2020
784 Clear 21 1018 88 10000 4.6 20 23:24 27.06.2020
785 Clear 21 1018 88 10000 5.1 10 22:59 27.06.2020
786 Clear 21 1018 88 10000 5.1 10 22:59 27.06.2020
787 Clear 21 1017 83 10000 5.1 20 22:41 27.06.2020
788 Clouds 22 1017 68 10000 6.2 40 22:23 27.06.2020
789 Clouds 22 1017 68 10000 6.2 40 21:57 27.06.2020
790 Clouds 22 1017 68 10000 6.2 40 21:39 27.06.2020
791 Clouds 22 1017 68 10000 6.2 40 21:20 27.06.2020
792 Clouds 22 1017 68 10000 6.2 40 21:20 27.06.2020
793 Clouds 23 1016 69 10000 8.2 20 20:45 27.06.2020
794 Clouds 23 1016 69 10000 8.2 20 20:45 27.06.2020
795 Clouds 23 1016 69 10000 8.2 20 20:19 27.06.2020
796 Clouds 24 1017 64 10000 8.2 360 19:57 27.06.2020
797 Clouds 24 1017 64 10000 8.2 360 19:37 27.06.2020
798 Clouds 24 1017 64 10000 8.2 360 19:18 27.06.2020
799 Clear 24 1017 64 10000 8.2 360 18:47 27.06.2020
800 Clear 24 1017 64 10000 8.2 360 18:28 27.06.2020
801 Clear 25 1017 61 10000 8.2 360 17:59 27.06.2020
802 Clear 25 1017 61 10000 8.2 360 17:59 27.06.2020
803 Clear 25 1017 61 10000 8.2 360 17:39 27.06.2020
804 Clear 25 1017 61 10000 8.2 360 17:19 27.06.2020
805 Clear 24 1018 60 10000 8.2 340 16:48 27.06.2020
806 Clear 24 1018 60 10000 8.2 340 16:30 27.06.2020
807 Clear 24 1018 60 10000 9.3 340 15:59 27.06.2020
808 Clear 24 1018 60 10000 9.3 340 15:41 27.06.2020
809 Clear 24 1018 60 10000 9.3 340 15:21 27.06.2020
810 Clear 23 1018 60 10000 6.2 20 14:43 27.06.2020
811 Clear 23 1018 60 10000 6.2 20 14:25 27.06.2020
812 Clear 23 1019 56 10000 7.2 360 13:59 27.06.2020
813 Clear 23 1019 56 10000 7.2 360 13:38 27.06.2020
814 Clear 23 1019 56 10000 7.2 360 13:38 27.06.2020
815 Clear 23 1019 56 10000 5.7 360 13:19 27.06.2020
816 Clear 23 1019 56 10000 5.7 360 12:57 27.06.2020
817 Clear 23 1019 56 10000 5.7 360 12:39 27.06.2020
818 Clear 22 1018 60 10000 4.6 20 12:21 27.06.2020
819 Clear 22 1018 60 10000 4.6 20 11:55 27.06.2020
820 Clear 22 1018 60 10000 4.6 20 11:36 27.06.2020
821 Clear 22 1018 60 10000 4.6 20 11:18 27.06.2020
822 Clouds 20 1018 64 10000 2.1 20 10:38 27.06.2020
823 Clouds 20 1018 64 10000 2.1 20 10:19 27.06.2020
824 Clouds 20 1018 68 10000 2.6 360 09:41 27.06.2020
825 Clouds 20 1018 68 10000 2.6 360 09:22 27.06.2020
826 Clouds 19 1018 72 10000 4.6 20 08:58 27.06.2020
827 Clouds 19 1018 72 10000 4.6 20 08:39 27.06.2020
828 Clouds 19 1018 72 10000 4.6 20 08:20 27.06.2020
829 Clouds 18 1019 82 10000 2.6 40 07:42 27.06.2020
830 Clouds 18 1019 82 10000 2.6 40 07:42 27.06.2020
831 Clouds 18 1019 82 10000 2.6 40 07:24 27.06.2020
832 Clouds 18 1019 82 10000 2.6 30 06:38 27.06.2020
833 Clouds 19 1019 82 10000 2.6 30 06:20 27.06.2020
834 Clouds 20 1019 82 10000 4.6 20 04:23 27.06.2020
835 Clouds 20 1019 82 10000 4.6 20 03:52 27.06.2020
836 Clouds 20 1019 82 10000 3.6 20 02:49 27.06.2020
837 Clouds 20 1019 82 10000 4.1 20 02:30 27.06.2020
838 Clouds 20 1019 77 10000 4.1 10 01:42 27.06.2020
839 Clouds 20 1019 82 10000 5.1 20 00:56 27.06.2020
840 Clouds 20 1019 82 10000 4.6 10 00:30 27.06.2020
841 Clouds 20 1019 77 10000 4.1 10 23:44 26.06.2020
842 Clouds 20 1019 77 10000 4.1 10 23:25 26.06.2020
843 Clouds 20 1019 77 10000 5.1 20 22:56 26.06.2020
844 Clouds 21 1018 68 10000 7.2 360 22:38 26.06.2020
845 Clouds 21 1018 68 10000 7.2 360 22:19 26.06.2020
846 Clouds 21 1018 68 10000 7.2 360 21:57 26.06.2020
847 Clouds 21 1018 68 10000 7.2 360 21:37 26.06.2020
848 Clouds 21 1018 68 10000 7.2 360 21:19 26.06.2020
849 Clouds 22 1017 64 10000 8.2 360 20:43 26.06.2020
850 Clouds 22 1017 64 10000 8.2 360 20:20 26.06.2020
851 Clouds 22 1017 64 10000 8.2 20 19:44 26.06.2020
852 Clouds 22 1017 64 10000 8.2 20 19:23 26.06.2020
853 Clouds 23 1018 60 10000 8.2 360 18:57 26.06.2020
854 Clouds 23 1018 60 10000 8.2 360 18:37 26.06.2020
855 Clouds 23 1018 60 10000 8.2 360 18:18 26.06.2020
856 Clouds 24 1018 64 10000 6.2 340 17:43 26.06.2020
857 Clouds 24 1018 64 10000 6.2 340 17:24 26.06.2020
858 Clouds 24 1018 60 10000 8.2 360 16:49 26.06.2020
859 Clouds 24 1018 60 10000 8.2 360 16:26 26.06.2020
860 Clouds 24 1019 60 10000 9.3 360 15:55 26.06.2020
861 Clouds 24 1019 60 10000 9.3 360 15:37 26.06.2020
862 Clouds 24 1019 60 10000 9.3 360 15:18 26.06.2020
863 Clouds 24 1019 57 10000 8.2 360 14:55 26.06.2020
864 Clouds 24 1019 57 10000 8.2 360 14:37 26.06.2020
865 Clouds 24 1019 57 10000 8.2 360 14:19 26.06.2020
866 Clouds 23 1019 56 10000 5.1 320 13:43 26.06.2020
867 Clouds 23 1019 56 10000 5.1 340 13:18 26.06.2020
868 Clouds 23 1019 56 10000 5.1 340 13:18 26.06.2020
869 Clouds 22 1019 56 10000 5.1 340 12:41 26.06.2020
870 Clouds 22 1019 56 10000 5.1 340 12:23 26.06.2020
871 Clouds 21 1019 60 10000 6.2 360 11:59 26.06.2020
872 Clouds 21 1019 60 10000 6.2 360 11:40 26.06.2020
873 Clouds 21 1019 60 10000 6.2 360 11:22 26.06.2020
874 Clouds 21 1019 64 10000 4.1 20 10:58 26.06.2020
875 Clouds 21 1019 64 10000 4.1 20 10:58 26.06.2020
876 Clouds 21 1019 64 10000 4.1 20 10:58 26.06.2020
877 Clouds 21 1019 64 10000 4.1 20 10:39 26.06.2020
878 Clouds 21 1019 64 10000 4.1 20 10:19 26.06.2020
879 Clouds 20 1018 68 10000 3.1 340 09:45 26.06.2020
880 Clouds 20 1018 68 10000 3.1 340 09:26 26.06.2020
881 Clouds 20 1018 72 10000 4.1 340 08:59 26.06.2020
882 Clouds 20 1018 82 10000 3.6 360 08:41 26.06.2020
883 Clouds 20 1018 82 10000 3.6 360 08:23 26.06.2020
884 Clouds 19 1018 82 10000 2.6 360 07:44 26.06.2020
885 Clouds 19 1018 82 10000 2.6 360 07:22 26.06.2020
886 Clouds 19 1018 82 10000 3.1 20 06:47 26.06.2020
887 Clouds 21 1018 82 10000 3.1 20 06:28 26.06.2020
888 Clouds 21 1018 82 10000 2.6 350 05:49 26.06.2020
889 Clouds 21 1018 88 10000 3.6 350 04:42 26.06.2020
890 Clouds 21 1018 88 10000 3.1 360 02:22 26.06.2020
891 Clouds 20 1019 82 10000 2.6 340 01:22 26.06.2020
892 Clouds 19 1019 88 10000 3.1 350 00:42 26.06.2020
893 Clouds 19 1019 88 10000 3.1 350 00:20 26.06.2020
894 Clouds 20 1018 88 10000 3.1 340 23:45 25.06.2020
895 Clouds 21 1018 88 10000 3.1 340 23:20 25.06.2020
896 Clouds 21 1018 88 10000 3.1 340 23:20 25.06.2020
897 Clouds 21 1018 88 10000 3.1 330 22:57 25.06.2020
898 Clouds 21 1018 88 10000 3.1 350 22:38 25.06.2020
899 Clouds 21 1018 88 10000 3.1 350 22:19 25.06.2020
900 Clouds 21 1018 88 10000 3.6 350 21:56 25.06.2020
901 Clouds 22 1016 68 10000 6.2 340 21:38 25.06.2020
902 Clouds 22 1016 68 10000 6.2 340 21:19 25.06.2020
903 Clouds 22 1016 68 10000 6.2 340 20:45 25.06.2020
904 Clouds 22 1016 68 10000 6.2 340 20:24 25.06.2020
905 Clouds 22 1016 73 10000 7.2 320 19:58 25.06.2020
906 Clouds 22 1016 73 10000 7.2 320 19:40 25.06.2020
907 Clouds 23 1017 64 10000 8.2 320 19:19 25.06.2020
908 Clouds 24 1017 64 10000 8.2 320 18:57 25.06.2020
909 Clouds 24 1017 64 10000 8.2 320 18:37 25.06.2020
910 Clouds 24 1017 64 10000 8.2 320 18:19 25.06.2020
911 Clouds 24 1017 64 10000 8.2 320 18:19 25.06.2020
912 Clouds 24 1017 64 10000 8.2 320 17:41 25.06.2020
913 Clouds 24 1017 64 10000 8.2 320 17:19 25.06.2020
914 Clouds 24 1017 69 10000 7.2 320 16:57 25.06.2020
915 Clouds 24 1017 69 10000 7.2 320 16:57 25.06.2020
916 Clouds 24 1017 69 10000 7.2 320 16:37 25.06.2020
917 Clouds 24 1017 69 10000 7.2 320 16:18 25.06.2020
918 Clouds 23 1017 73 10000 8.2 320 15:41 25.06.2020
919 Clouds 23 1017 73 10000 8.2 320 15:22 25.06.2020
920 Clouds 23 1017 73 10000 4.1 300 14:44 25.06.2020
921 Clouds 23 1017 73 10000 4.1 300 14:25 25.06.2020
922 Clouds 23 1017 78 10000 4.1 300 13:59 25.06.2020
923 Clouds 23 1017 78 10000 4.1 300 13:41 25.06.2020
924 Clouds 23 1017 78 10000 4.1 300 13:19 25.06.2020
925 Clouds 23 1017 69 10000 4.1 300 12:46 25.06.2020
926 Clouds 23 1017 69 10000 4.1 300 12:21 25.06.2020
927 Clouds 23 1017 73 10000 4.1 320 11:59 25.06.2020
928 Clouds 23 1017 73 10000 4.1 320 11:40 25.06.2020
929 Clouds 23 1017 73 10000 4.1 320 11:21 25.06.2020
930 Clouds 21 1017 83 10000 2.6 320 10:43 25.06.2020
931 Clouds 21 1016 83 8000 2.1 320 10:25 25.06.2020
932 Clouds 21 1016 83 8000 2.1 320 09:42 25.06.2020
933 Clouds 21 1016 83 8000 2.1 320 09:23 25.06.2020
934 Clouds 21 1016 83 8000 2.1 320 09:23 25.06.2020
935 Clouds 21 1016 83 8000 2.1 300 08:59 25.06.2020
936 Clouds 21 1016 77 10000 1.5 260 08:41 25.06.2020
937 Clouds 21 1016 77 10000 1.5 260 08:18 25.06.2020
938 Clouds 21 1016 83 10000 2.1 320 07:42 25.06.2020
939 Clouds 21 1016 83 10000 2.1 320 07:24 25.06.2020
940 Clouds 21 1016 77 10000 2.6 310 06:44 25.06.2020
941 Clouds 21 1016 77 10000 2.6 310 06:24 25.06.2020
942 Clouds 21 1016 88 10000 2.1 340 05:32 25.06.2020
943 Clouds 21 1016 83 10000 2.6 320 03:42 25.06.2020
944 Clouds 21 1016 83 10000 2.6 340 02:56 25.06.2020
945 Clouds 21 1017 88 10000 2.1 320 02:37 25.06.2020
946 Clouds 21 1017 88 10000 2.6 300 01:42 25.06.2020
947 Clouds 21 1017 83 10000 2.6 300 00:51 25.06.2020
948 Clouds 21 1017 83 10000 3.1 300 00:24 25.06.2020
949 Clouds 21 1017 83 10000 2.6 300 23:58 24.06.2020
950 Clouds 21 1017 83 10000 3.1 300 23:38 24.06.2020
951 Clouds 21 1017 83 10000 3.1 300 23:19 24.06.2020
952 Clouds 21 1016 83 10000 3.6 320 22:42 24.06.2020
953 Clouds 21 1016 83 10000 3.6 320 22:42 24.06.2020
954 Clouds 22 1015 73 10000 6.2 320 22:21 24.06.2020
955 Clouds 22 1015 73 10000 6.2 320 21:57 24.06.2020
956 Clouds 22 1015 73 10000 6.2 320 21:37 24.06.2020
957 Clouds 22 1015 73 10000 6.2 320 21:19 24.06.2020
958 Clouds 22 1014 73 10000 6.2 300 20:59 24.06.2020
959 Clouds 22 1014 73 10000 6.2 300 20:40 24.06.2020
960 Clouds 22 1014 73 10000 6.2 300 20:40 24.06.2020
961 Clouds 22 1014 73 10000 6.2 300 20:21 24.06.2020
962 Clouds 23 1014 69 10000 7.2 320 19:59 24.06.2020
963 Clouds 23 1014 69 10000 7.2 320 19:39 24.06.2020
964 Clouds 23 1014 69 10000 7.2 320 19:20 24.06.2020
965 Clouds 25 1014 65 10000 7.2 320 18:58 24.06.2020
966 Clouds 25 1014 65 10000 7.2 320 18:39 24.06.2020
967 Clouds 25 1014 65 10000 7.2 320 18:39 24.06.2020
968 Clouds 25 1014 65 10000 7.2 320 18:20 24.06.2020
969 Clouds 25 1014 65 10000 7.2 320 17:56 24.06.2020
970 Clouds 26 1014 65 10000 7.2 320 17:37 24.06.2020
971 Clouds 26 1014 65 10000 7.2 320 17:18 24.06.2020
972 Clouds 26 1014 65 10000 7.2 320 17:18 24.06.2020
973 Clouds 26 1014 65 10000 7.2 320 17:18 24.06.2020
974 Clouds 26 1014 65 10000 8.2 300 16:56 24.06.2020
975 Clouds 26 1014 65 10000 8.2 300 16:56 24.06.2020
976 Clouds 26 1014 65 10000 8.2 300 16:37 24.06.2020
977 Clouds 26 1014 65 10000 8.2 300 16:19 24.06.2020
978 Clouds 26 1014 65 10000 8.2 320 15:55 24.06.2020
979 Clouds 26 1014 65 10000 8.2 320 15:37 24.06.2020
980 Clouds 26 1015 61 10000 8.7 280 15:18 24.06.2020
981 Clouds 25 1015 61 10000 8.7 280 14:42 24.06.2020
982 Clouds 26 1015 61 10000 8.7 280 14:22 24.06.2020
983 Clouds 25 1015 61 10000 7.2 280 13:43 24.06.2020
984 Clouds 25 1015 61 10000 7.2 280 13:22 24.06.2020
985 Clouds 24 1015 64 10000 3.1 260 12:46 24.06.2020
986 Clouds 24 1015 64 10000 3.1 260 12:22 24.06.2020
987 Clouds 22 1015 78 10000 3.1 260 11:59 24.06.2020
988 Clouds 22 1015 78 10000 4.1 250 11:41 24.06.2020
989 Clouds 22 1015 68 10000 4.1 220 11:23 24.06.2020
990 Clouds 22 1015 68 10000 4.1 220 10:54 24.06.2020
991 Clouds 22 1015 68 10000 4.1 220 10:36 24.06.2020
992 Clouds 21 1014 77 10000 3.1 220 10:18 24.06.2020
993 Clouds 21 1014 77 10000 3.1 220 09:42 24.06.2020
994 Clouds 21 1014 77 10000 3.1 220 09:20 24.06.2020
995 Clouds 21 1014 77 10000 3.1 220 08:41 24.06.2020
996 Clouds 21 1014 77 10000 3.1 220 08:20 24.06.2020
997 Clouds 20 1015 88 10000 3.1 260 07:50 24.06.2020
998 Clouds 20 1015 88 10000 3.1 260 07:26 24.06.2020
999 Clouds 20 1015 88 10000 3.1 260 06:49 24.06.2020
1000 Clouds 22 1015 88 10000 3.1 260 06:25 24.06.2020
1001 Clouds 22 1015 88 10000 3.1 280 05:46 24.06.2020
1002 Clouds 22 1015 88 10000 2.6 250 04:41 24.06.2020
1003 Clouds 22 1015 88 0 4.1 270 03:51 24.06.2020
1004 Clouds 22 1015 88 10000 4.6 270 03:33 24.06.2020
1005 Clouds 22 1015 88 10000 5.7 260 02:41 24.06.2020
1006 Clear 22 1015 88 10000 4.6 260 01:19 24.06.2020
1007 Clear 22 1015 83 10000 5.1 260 00:41 24.06.2020
1008 Clear 22 1015 83 10000 5.1 260 00:21 24.06.2020
1009 Clear 22 1015 83 10000 5.1 270 23:41 23.06.2020
1010 Clear 22 1015 83 10000 5.1 270 23:19 23.06.2020
1011 Clear 22 1015 78 10000 4.6 270 22:41 23.06.2020
1012 Clouds 23 1013 69 10000 6.2 260 22:19 23.06.2020
1013 Clouds 23 1013 69 10000 6.2 260 21:59 23.06.2020
1014 Clouds 23 1013 69 10000 6.2 260 21:38 23.06.2020
1015 Clouds 23 1013 69 10000 6.2 260 21:19 23.06.2020
1016 Clouds 23 1013 69 10000 6.2 260 20:55 23.06.2020
1017 Clouds 23 1013 69 10000 6.2 260 20:55 23.06.2020
1018 Clouds 23 1013 69 10000 6.2 260 20:37 23.06.2020
1019 Clouds 23 1013 69 10000 7.2 280 20:18 23.06.2020
1020 Clouds 23 1013 69 10000 7.2 280 19:44 23.06.2020
1021 Clouds 23 1013 69 10000 7.2 280 19:24 23.06.2020
1022 Clouds 25 1013 64 10000 8.2 280 18:40 23.06.2020
1023 Clouds 25 1013 64 10000 8.2 280 18:19 23.06.2020
1024 Clouds 25 1013 64 10000 8.2 280 17:56 23.06.2020
1025 Clouds 25 1013 64 10000 8.2 280 17:56 23.06.2020
1026 Clouds 25 1013 64 10000 8.2 280 17:38 23.06.2020
1027 Clear 26 1013 61 10000 7.2 260 17:18 23.06.2020
1028 Clear 26 1013 61 10000 7.2 260 16:54 23.06.2020
1029 Clear 26 1013 61 10000 7.2 260 16:36 23.06.2020
1030 Clear 26 1013 61 10000 8.2 280 16:18 23.06.2020
1031 Clear 26 1013 61 10000 8.2 280 15:43 23.06.2020
1032 Clear 26 1013 61 10000 8.2 280 15:24 23.06.2020
1033 Clear 26 1013 61 10000 7.2 260 14:56 23.06.2020
1034 Clear 26 1013 61 10000 7.2 260 14:37 23.06.2020
1035 Clear 25 1013 64 10000 9.8 280 14:18 23.06.2020
1036 Clear 25 1013 64 10000 9.8 280 13:45 23.06.2020
1037 Clear 25 1013 64 10000 9.8 280 13:25 23.06.2020
1038 Clouds 26 1013 61 10000 8.2 280 12:55 23.06.2020
1039 Clouds 25 1013 61 10000 8.2 280 12:37 23.06.2020
1040 Clouds 24 1013 64 10000 6.2 260 12:18 23.06.2020
1041 Clouds 24 1013 64 10000 6.2 260 11:42 23.06.2020
1042 Clouds 24 1013 64 10000 6.2 260 11:22 23.06.2020
1043 Clouds 23 1013 78 10000 5.1 220 10:58 23.06.2020
1044 Clouds 22 1013 78 10000 5.1 220 10:40 23.06.2020
1045 Clouds 22 1013 78 10000 5.1 220 10:21 23.06.2020
1046 Clouds 21 1013 83 10000 5.1 220 09:56 23.06.2020
1047 Clouds 21 1013 83 10000 5.1 220 09:38 23.06.2020
1048 Clouds 21 1013 83 10000 5.1 220 09:18 23.06.2020
1049 Clouds 21 1012 83 10000 5.1 220 08:44 23.06.2020
1050 Clouds 21 1012 83 10000 5.1 220 08:25 23.06.2020
1051 Clouds 20 1013 88 10000 4.1 240 07:46 23.06.2020
1052 Clouds 20 1013 88 10000 4.1 240 07:24 23.06.2020
1053 Clouds 20 1013 88 10000 4.6 250 06:52 23.06.2020
1054 Clouds 20 1013 88 10000 4.6 250 06:32 23.06.2020
1055 Clear 22 1013 88 10000 4.1 250 05:54 23.06.2020
1056 Clouds 22 1014 94 10000 4.1 240 04:42 23.06.2020
1057 Clouds 22 1014 94 10000 4.1 260 03:21 23.06.2020
1058 Clouds 22 1015 94 10000 3.6 270 02:47 23.06.2020
1059 Clouds 22 1015 94 10000 3.6 270 02:28 23.06.2020
1060 Clear 22 1015 100 10000 4.1 260 01:45 23.06.2020
1061 Clear 22 1015 100 10000 4.1 260 01:21 23.06.2020
1062 Clear 22 1015 100 10000 3.6 290 00:40 23.06.2020
1063 Clear 22 1015 100 10000 3.6 290 00:19 23.06.2020
1064 Clear 22 1014 94 10000 4.1 280 23:39 22.06.2020
1065 Clear 22 1014 94 10000 4.1 280 23:39 22.06.2020
1066 Clear 22 1014 94 10000 4.1 280 23:19 22.06.2020
1067 Clear 22 1014 94 10000 2.6 290 22:59 22.06.2020
1068 Clear 22 1014 88 10000 3.1 300 22:40 22.06.2020
1069 Clouds 23 1012 78 10000 5.1 300 22:20 22.06.2020
1070 Clouds 23 1012 78 10000 5.1 300 21:59 22.06.2020
1071 Clouds 23 1012 78 10000 5.1 300 21:40 22.06.2020
1072 Clouds 23 1012 78 10000 5.1 300 21:21 22.06.2020
1073 Clouds 24 1012 73 10000 3.1 300 20:58 22.06.2020
1074 Clouds 24 1012 73 10000 3.1 300 20:39 22.06.2020
1075 Clouds 24 1012 73 10000 3.1 300 20:20 22.06.2020
1076 Clouds 25 1012 73 10000 6.7 320 19:44 22.06.2020
1077 Clouds 25 1012 69 10000 7.2 300 19:19 22.06.2020
1078 Clouds 26 1012 69 10000 7.2 300 18:57 22.06.2020
1079 Clouds 26 1012 69 10000 7.2 300 18:37 22.06.2020
1080 Clouds 26 1012 69 10000 7.2 300 18:18 22.06.2020
1081 Clouds 26 1013 73 10000 8.2 340 17:55 22.06.2020
1082 Clouds 26 1013 73 10000 8.2 340 17:37 22.06.2020
1083 Clouds 26 1013 73 10000 8.2 340 17:18 22.06.2020
1084 Clouds 26 1013 69 10000 8.2 180 16:42 22.06.2020
1085 Clouds 26 1013 69 10000 8.2 180 16:18 22.06.2020
1086 Clouds 26 1014 69 10000 6.2 320 15:57 22.06.2020
1087 Clouds 26 1014 69 10000 6.2 320 15:39 22.06.2020
1088 Clouds 26 1014 69 10000 6.2 320 15:21 22.06.2020
1089 Clouds 26 1014 69 10000 5.1 340 14:39 22.06.2020
1090 Clouds 26 1014 69 10000 5.1 340 14:20 22.06.2020
1091 Clouds 26 1015 69 10000 6.2 320 13:56 22.06.2020
1092 Clouds 26 1015 69 10000 6.2 320 13:37 22.06.2020
1093 Clouds 26 1015 69 10000 6.2 320 13:19 22.06.2020
1094 Clouds 25 1015 73 10000 5.1 340 12:42 22.06.2020
1095 Clouds 25 1015 73 10000 5.1 340 12:42 22.06.2020
1096 Clouds 24 1015 73 10000 5.1 340 12:23 22.06.2020
1097 Clouds 24 1015 73 8000 4.1 260 11:58 22.06.2020
1098 Clouds 24 1015 73 8000 4.1 260 11:37 22.06.2020
1099 Clouds 24 1015 73 8000 4.1 260 11:18 22.06.2020
1100 Clouds 23 1015 78 8000 3.1 320 10:54 22.06.2020
1101 Clouds 23 1015 78 8000 3.1 320 10:36 22.06.2020
1102 Clouds 23 1015 78 8000 3.1 320 10:18 22.06.2020
1103 Fog 20 1016 100 800 3.1 320 09:41 22.06.2020
1104 Clouds 20 1015 94 8000 3.1 300 09:20 22.06.2020
1105 Clouds 20 1015 94 8000 3.1 300 08:59 22.06.2020
1106 Fog 19 1016 100 800 2.1 320 08:39 22.06.2020
1107 Fog 19 1016 100 800 2.1 320 08:39 22.06.2020
1108 Fog 18 1016 100 800 2.1 320 08:20 22.06.2020
1109 Clouds 18 1016 93 10000 2.1 330 07:52 22.06.2020
1110 Clear 17 1016 100 10000 2.6 340 07:33 22.06.2020
1111 Clear 18 1016 93 10000 2.6 360 06:46 22.06.2020
1112 Clear 20 1016 93 10000 2.6 360 06:27 22.06.2020
1113 Clear 21 1017 93 10000 1.5 70 05:58 22.06.2020
1114 Clear 21 1017 93 10000 1.5 70 05:30 22.06.2020
1115 Clear 21 1019 88 10000 2.1 30 02:55 22.06.2020
1116 Clear 21 1020 88 10000 1.5 20 01:25 22.06.2020
1117 Clear 21 1020 88 10000 1.5 30 00:41 22.06.2020
1118 Clear 21 1020 83 10000 2.6 30 23:59 21.06.2020
1119 Clear 21 1020 83 10000 2.6 30 23:59 21.06.2020
1120 Clear 21 1020 83 10000 4.1 20 23:40 21.06.2020
1121 Clear 21 1020 83 10000 4.1 20 23:21 21.06.2020
1122 Clear 21 1020 83 10000 3.6 10 22:57 21.06.2020
1123 Clear 22 1019 73 10000 7.2 20 22:38 21.06.2020
1124 Clear 22 1019 73 10000 7.2 20 22:19 21.06.2020
1125 Clear 22 1019 73 10000 7.2 20 22:19 21.06.2020
1126 Clear 22 1019 73 10000 7.2 20 21:58 21.06.2020
1127 Clear 22 1019 73 10000 7.2 20 21:40 21.06.2020
1128 Clear 22 1019 73 10000 7.2 20 21:21 21.06.2020
1129 Clear 22 1019 73 10000 7.2 20 21:21 21.06.2020
1130 Clear 23 1018 69 10000 9.8 20 20:59 21.06.2020
1131 Clear 23 1018 69 10000 9.8 20 20:38 21.06.2020
1132 Clear 23 1018 69 10000 9.8 20 20:19 21.06.2020
1133 Clouds 24 1019 73 10000 9.3 20 19:57 21.06.2020
1134 Clouds 24 1019 69 10000 8.2 20 19:38 21.06.2020
1135 Clouds 24 1019 69 10000 8.2 20 19:19 21.06.2020
1136 Clouds 25 1019 69 10000 8.2 20 18:54 21.06.2020
1137 Clouds 25 1019 69 10000 8.2 20 18:36 21.06.2020
1138 Clouds 25 1019 69 10000 8.2 20 18:36 21.06.2020
1139 Clouds 25 1019 69 10000 8.2 20 18:18 21.06.2020
1140 Clouds 26 1020 69 10000 8.7 20 17:40 21.06.2020
1141 Clouds 26 1020 69 10000 8.7 20 17:20 21.06.2020
1142 Clouds 26 1020 69 10000 9.8 20 16:56 21.06.2020
1143 Clouds 26 1020 69 10000 9.8 20 16:37 21.06.2020
1144 Clouds 26 1020 69 10000 9.8 20 16:19 21.06.2020
1145 Clouds 26 1020 65 10000 8.2 360 15:38 21.06.2020
1146 Clouds 26 1020 65 10000 8.2 360 15:20 21.06.2020
1147 Clouds 26 1021 65 10000 8.2 360 14:39 21.06.2020
1148 Clouds 26 1021 65 10000 8.2 360 14:21 21.06.2020
1149 Clouds 26 1021 69 10000 7.2 360 13:59 21.06.2020
1150 Clouds 26 1021 69 10000 7.2 360 13:59 21.06.2020
1151 Clouds 25 1021 69 10000 7.2 360 13:41 21.06.2020
1152 Clouds 25 1021 69 10000 7.2 360 13:22 21.06.2020
1153 Clouds 25 1021 73 10000 6.2 320 12:56 21.06.2020
1154 Clouds 24 1021 73 10000 6.2 320 12:37 21.06.2020
1155 Clouds 24 1021 73 10000 6.2 320 12:19 21.06.2020
1156 Clouds 23 1022 73 10000 6.2 360 11:42 21.06.2020
1157 Clouds 23 1022 73 10000 6.2 360 11:42 21.06.2020
1158 Clouds 23 1022 73 10000 6.2 360 11:23 21.06.2020
1159 Clouds 22 1022 78 10000 1.5 20 10:58 21.06.2020
1160 Clouds 21 1022 78 10000 1.5 20 10:39 21.06.2020
1161 Clouds 21 1022 78 10000 1.5 20 10:21 21.06.2020
1162 Clouds 20 1022 83 10000 3.1 20 09:44 21.06.2020
1163 Clouds 20 1022 83 10000 3.1 20 09:23 21.06.2020
1164 Clouds 19 1021 88 10000 2.1 20 08:57 21.06.2020
1165 Clouds 18 1022 100 8000 1 140 08:39 21.06.2020
1166 Clouds 14 1022 100 8000 1 140 08:20 21.06.2020
1167 Mist 14 1022 100 3000 1.5 130 07:42 21.06.2020
1168 Clouds 16 1021 100 6000 1.5 100 07:24 21.06.2020
1169 Clouds 17 1021 100 8000 2.1 60 06:51 21.06.2020
1170 Clouds 20 1022 100 10000 2.1 60 06:28 21.06.2020
1171 Clouds 20 1022 93 10000 1.5 50 05:57 21.06.2020
1172 Mist 20 1022 100 4000 2.1 40 04:36 21.06.2020
1173 Clouds 21 1023 93 7000 2.6 20 03:19 21.06.2020
1174 Clouds 21 1023 93 10000 2.6 20 02:36 21.06.2020
1175 Clouds 21 1023 88 10000 3.1 20 01:39 21.06.2020
1176 Clouds 21 1023 88 10000 3.1 20 01:19 21.06.2020
1177 Clouds 21 1023 88 10000 2.6 30 00:45 21.06.2020
1178 Clouds 21 1023 88 10000 3.1 10 00:25 21.06.2020
1179 Clouds 21 1023 88 10000 2.6 10 23:45 20.06.2020
1180 Clouds 21 1023 83 10000 3.1 10 23:22 20.06.2020
1181 Clouds 21 1022 77 10000 3.1 20 22:57 20.06.2020
1182 Clouds 22 1022 68 10000 4.1 10 22:39 20.06.2020
1183 Clear 22 1021 73 10000 5.7 20 22:20 20.06.2020
1184 Clear 22 1021 73 10000 5.7 20 21:58 20.06.2020
1185 Clear 22 1021 73 10000 5.7 20 21:58 20.06.2020
1186 Clear 22 1021 73 10000 5.7 20 21:40 20.06.2020
1187 Clear 22 1021 73 10000 5.7 20 21:21 20.06.2020
1188 Clear 24 1021 60 10000 7.2 360 20:58 20.06.2020
1189 Clear 24 1021 60 10000 7.2 360 20:40 20.06.2020
1190 Clear 24 1021 60 10000 7.2 360 20:20 20.06.2020
1191 Clear 24 1021 57 10000 8.2 20 19:57 20.06.2020
1192 Clear 24 1021 57 10000 8.2 20 19:38 20.06.2020
1193 Clear 24 1021 57 10000 8.2 20 19:19 20.06.2020
1194 Clear 24 1021 60 8000 6.2 360 18:42 20.06.2020
1195 Clear 25 1021 60 8000 6.2 360 18:20 20.06.2020
1196 Clear 26 1021 57 10000 9.3 360 17:57 20.06.2020
1197 Clear 26 1021 57 10000 9.3 360 17:39 20.06.2020
1198 Clear 26 1021 57 10000 9.3 360 17:20 20.06.2020
1199 Clear 26 1021 50 10000 7.2 360 16:42 20.06.2020
1200 Clear 26 1021 50 10000 7.2 360 16:19 20.06.2020
1201 Clear 26 1021 50 10000 8.2 360 15:58 20.06.2020
1202 Clear 26 1021 50 10000 8.2 360 15:40 20.06.2020
1203 Clear 26 1021 50 10000 8.2 360 15:18 20.06.2020
1204 Clear 24 1021 60 10000 8.2 340 14:43 20.06.2020
1205 Clear 24 1021 60 10000 8.2 340 14:21 20.06.2020
1206 Clear 24 1021 60 10000 6.7 360 13:42 20.06.2020
1207 Clear 24 1021 60 10000 6.7 360 13:24 20.06.2020
1208 Clear 24 1021 57 10000 5.7 40 12:57 20.06.2020
1209 Clear 24 1021 57 10000 5.7 40 12:38 20.06.2020
1210 Clear 24 1021 57 10000 5.7 40 12:38 20.06.2020
1211 Clear 24 1021 57 10000 5.7 40 12:19 20.06.2020
1212 Clear 24 1021 57 10000 5.7 40 12:19 20.06.2020
1213 Clouds 23 1021 60 10000 4.6 20 11:55 20.06.2020
1214 Clouds 23 1021 60 10000 4.6 20 11:36 20.06.2020
1215 Clouds 23 1021 60 10000 4.6 20 11:18 20.06.2020
1216 Clouds 22 1021 68 10000 4.6 20 10:42 20.06.2020
1217 Clouds 21 1021 68 10000 4.6 20 10:21 20.06.2020
1218 Clouds 21 1020 68 10000 4.6 20 09:54 20.06.2020
1219 Clouds 20 1020 68 10000 4.6 20 09:36 20.06.2020
1220 Clouds 20 1020 68 10000 4.6 20 09:18 20.06.2020
1221 Clouds 19 1020 77 10000 2.1 40 08:44 20.06.2020
1222 Clouds 18 1020 77 10000 2.1 40 08:26 20.06.2020
1223 Clouds 17 1020 93 10000 2.1 10 07:51 20.06.2020
1224 Clouds 18 1020 88 10000 2.1 40 07:27 20.06.2020
1225 Clouds 18 1019 88 10000 2.6 40 06:53 20.06.2020
1226 Clear 20 1019 88 10000 3.1 50 06:23 20.06.2020
1227 Clouds 20 1019 88 10000 4.1 50 05:50 20.06.2020
1228 Clear 21 1020 82 10000 3.6 30 04:50 20.06.2020
1229 Clouds 21 1021 82 10000 4.1 40 02:23 20.06.2020
1230 Clouds 21 1021 82 10000 3.6 30 01:46 20.06.2020
1231 Clouds 21 1021 82 10000 4.6 30 00:52 20.06.2020
1232 Clouds 21 1021 82 10000 4.6 30 00:21 20.06.2020
1233 Clouds 21 1021 82 10000 3.1 30 23:55 19.06.2020
1234 Clouds 21 1021 82 10000 3.1 20 23:36 19.06.2020
1235 Clouds 21 1021 82 10000 3.1 20 23:18 19.06.2020
1236 Clouds 21 1020 82 10000 5.1 10 22:40 19.06.2020
1237 Clear 21 1019 60 10000 7.2 20 22:22 19.06.2020
1238 Clear 21 1019 60 10000 7.2 20 21:58 19.06.2020
1239 Clear 21 1019 60 10000 7.2 20 21:38 19.06.2020
1240 Clear 21 1019 60 10000 7.2 20 21:18 19.06.2020
1241 Clouds 22 1019 60 10000 8.2 360 20:58 19.06.2020
1242 Clouds 22 1019 60 10000 8.2 360 20:40 19.06.2020
1243 Clouds 22 1019 60 10000 8.2 360 20:20 19.06.2020
1244 Clouds 22 1019 60 10000 8.2 20 19:57 19.06.2020
1245 Clouds 22 1019 60 10000 8.2 20 19:38 19.06.2020
1246 Clouds 22 1019 60 10000 8.2 20 19:19 19.06.2020
1247 Clouds 23 1019 56 10000 8.2 20 18:41 19.06.2020
1248 Clouds 23 1019 56 10000 8.2 20 18:21 19.06.2020
1249 Clouds 23 1019 56 10000 9.3 360 17:58 19.06.2020
1250 Clouds 23 1019 56 10000 9.3 360 17:38 19.06.2020
1251 Clouds 23 1019 56 10000 9.3 360 17:20 19.06.2020
1252 Clouds 24 1020 53 10000 8.2 360 16:55 19.06.2020
1253 Clouds 24 1020 53 10000 8.2 360 16:37 19.06.2020
1254 Clouds 24 1020 53 10000 8.2 360 16:18 19.06.2020
1255 Clouds 23 1020 56 10000 9.3 360 15:42 19.06.2020
1256 Clouds 23 1020 56 10000 9.3 360 15:21 19.06.2020
1257 Clouds 23 1020 56 10000 8.2 360 14:56 19.06.2020
1258 Clouds 23 1020 53 10000 7.2 360 14:38 19.06.2020
1259 Clouds 23 1020 53 10000 7.2 360 14:19 19.06.2020
1260 Clouds 23 1020 53 10000 7.2 360 13:44 19.06.2020
1261 Clouds 23 1020 53 10000 7.2 360 13:26 19.06.2020
1262 Clouds 22 1020 56 10000 5.7 20 12:48 19.06.2020
1263 Clouds 22 1020 53 10000 3.1 360 12:23 19.06.2020
1264 Clouds 23 1020 53 10000 3.1 360 11:59 19.06.2020
1265 Clouds 22 1020 53 10000 3.1 360 11:39 19.06.2020
1266 Clouds 22 1020 53 10000 3.1 360 11:18 19.06.2020
1267 Clouds 22 1020 53 10000 3.1 360 11:18 19.06.2020
1268 Clouds 22 1020 56 10000 3.6 80 10:46 19.06.2020
1269 Clouds 21 1020 56 10000 3.6 80 10:27 19.06.2020
1270 Clouds 21 1020 64 10000 3.1 20 09:59 19.06.2020
1271 Clouds 21 1020 64 10000 3.1 20 09:59 19.06.2020
1272 Clouds 20 1020 64 10000 3.1 20 09:41 19.06.2020
1273 Clouds 20 1020 64 10000 3.1 20 09:20 19.06.2020
1274 Clouds 20 1019 64 10000 3.6 20 08:44 19.06.2020
1275 Clouds 20 1019 64 10000 3.6 20 08:26 19.06.2020
1276 Clouds 19 1020 77 10000 2.1 40 07:56 19.06.2020
1277 Clouds 19 1020 77 10000 2.1 40 07:38 19.06.2020
1278 Clouds 19 1020 77 10000 2.1 40 07:20 19.06.2020
1279 Clouds 20 1020 77 10000 1.5 50 06:25 19.06.2020
1280 Clouds 20 1019 77 10000 3.1 30 05:46 19.06.2020
1281 Clouds 19 1020 77 10000 3.1 20 04:27 19.06.2020
1282 Clouds 19 1020 77 10000 3.1 20 02:52 19.06.2020
1283 Clouds 19 1020 77 10000 4.1 10 00:59 19.06.2020
1284 Clouds 19 1020 77 10000 4.1 20 00:40 19.06.2020
1285 Clouds 19 1020 77 10000 4.1 20 00:21 19.06.2020
1286 Clouds 19 1020 77 10000 5.1 20 23:41 18.06.2020
1287 Clouds 19 1020 77 10000 5.1 20 23:23 18.06.2020
1288 Clouds 19 1019 77 10000 4.1 10 22:59 18.06.2020
1289 Clouds 21 1017 64 10000 7.2 360 22:39 18.06.2020
1290 Clouds 21 1017 64 10000 7.2 360 22:19 18.06.2020
1291 Clouds 21 1017 64 10000 7.2 360 21:39 18.06.2020
1292 Clouds 21 1017 64 10000 7.2 360 21:20 18.06.2020
1293 Clouds 22 1017 60 10000 8.2 360 20:58 18.06.2020
1294 Clouds 22 1017 60 10000 8.2 360 20:38 18.06.2020
1295 Clouds 22 1017 60 10000 8.2 360 20:19 18.06.2020
1296 Clouds 22 1017 60 10000 7.2 360 19:42 18.06.2020
1297 Clouds 22 1017 60 10000 7.2 360 19:22 18.06.2020
1298 Clouds 23 1017 64 10000 7.2 360 18:58 18.06.2020
1299 Clouds 23 1017 60 10000 8.2 360 18:37 18.06.2020
1300 Clouds 23 1017 60 10000 8.2 360 18:19 18.06.2020
1301 Clouds 23 1017 60 10000 8.2 360 17:45 18.06.2020
1302 Clouds 24 1017 60 10000 8.2 360 17:25 18.06.2020
1303 Clouds 24 1017 60 10000 9.3 360 16:56 18.06.2020
1304 Clouds 24 1017 60 10000 9.3 360 16:37 18.06.2020
1305 Clouds 24 1017 60 10000 9.3 360 16:18 18.06.2020
1306 Clouds 24 1017 57 10000 9.3 340 15:55 18.06.2020
1307 Clouds 24 1017 57 10000 9.3 340 15:37 18.06.2020
1308 Clouds 24 1017 57 10000 9.3 340 15:18 18.06.2020
1309 Clouds 24 1017 60 10000 7.2 360 14:41 18.06.2020
1310 Clouds 24 1017 60 10000 7.2 360 14:23 18.06.2020
1311 Clouds 23 1017 60 10000 7.2 340 13:59 18.06.2020
1312 Clouds 23 1017 60 10000 7.2 340 13:41 18.06.2020
1313 Clouds 23 1017 60 10000 7.2 340 13:22 18.06.2020
1314 Clouds 23 1017 60 10000 8.2 320 12:55 18.06.2020
1315 Clouds 23 1017 60 10000 8.2 320 12:37 18.06.2020
1316 Clouds 23 1017 60 10000 8.2 320 12:19 18.06.2020
1317 Clouds 23 1016 64 10000 6.2 340 11:46 18.06.2020
1318 Clouds 22 1016 64 10000 6.2 340 11:21 18.06.2020
1319 Clouds 21 1016 73 10000 6.2 360 10:41 18.06.2020
1320 Clouds 21 1016 73 10000 6.2 360 10:20 18.06.2020
1321 Clouds 20 1015 73 10000 6.2 360 09:59 18.06.2020
1322 Clouds 20 1015 73 10000 6.2 360 09:41 18.06.2020
1323 Clouds 20 1015 73 10000 6.2 360 09:22 18.06.2020
1324 Clouds 19 1015 93 10000 1 0 08:41 18.06.2020
1325 Clouds 19 1015 93 10000 1 0 08:23 18.06.2020
1326 Clouds 17 1015 100 10000 2.1 20 07:59 18.06.2020
1327 Clouds 17 1015 100 10000 2.1 20 07:40 18.06.2020
1328 Clouds 17 1015 100 10000 2.1 20 07:21 18.06.2020
1329 Clouds 20 1015 93 10000 2.1 30 06:28 18.06.2020
1330 Clouds 20 1015 93 10000 2.6 30 04:27 18.06.2020
1331 Clouds 20 1015 88 10000 3.6 30 03:26 18.06.2020
1332 Clouds 21 1016 88 10000 4.1 40 01:39 18.06.2020
1333 Clouds 21 1016 88 10000 4.1 40 01:18 18.06.2020
1334 Clouds 21 1016 88 10000 3.6 40 00:48 18.06.2020
1335 Clouds 21 1016 88 10000 4.6 30 00:24 18.06.2020
1336 Clouds 21 1016 82 10000 3.6 30 23:46 17.06.2020
1337 Clouds 21 1016 82 10000 4.6 30 23:22 17.06.2020
1338 Clouds 21 1016 88 10000 4.6 40 22:59 17.06.2020
1339 Clouds 21 1016 88 10000 4.6 20 22:40 17.06.2020
1340 Clouds 21 1016 73 10000 7.2 20 22:21 17.06.2020
1341 Clouds 21 1016 73 10000 7.2 20 22:21 17.06.2020
1342 Clouds 21 1016 73 10000 7.2 20 22:21 17.06.2020
1343 Clouds 22 1016 73 10000 7.2 20 21:57 17.06.2020
1344 Clouds 22 1016 73 10000 7.2 20 21:39 17.06.2020
1345 Clouds 22 1016 73 10000 7.2 20 21:20 17.06.2020
1346 Clouds 22 1016 73 10000 7.2 20 20:38 17.06.2020
1347 Clouds 22 1016 73 10000 7.2 20 20:20 17.06.2020
1348 Clouds 23 1016 64 10000 7.2 20 19:57 17.06.2020
1349 Clouds 23 1016 64 10000 7.2 20 19:39 17.06.2020
1350 Clouds 23 1016 64 10000 7.2 20 19:19 17.06.2020
1351 Clouds 23 1016 64 10000 7.2 20 19:19 17.06.2020
1352 -273 0 0 0 0 0 18:45 17.06.2020
1353 Clouds 23 1016 64 10000 8.2 360 18:27 17.06.2020
1354 Clouds 24 1016 60 10000 8.2 360 17:46 17.06.2020
1355 Clouds 24 1017 64 10000 6.2 360 17:23 17.06.2020
1356 Clouds 24 1017 64 10000 6.2 360 16:58 17.06.2020
1357 Clouds 24 1017 64 10000 6.2 360 16:39 17.06.2020
1358 Clouds 24 1017 64 10000 6.2 360 16:21 17.06.2020
1359 Clouds 24 1017 64 10000 7.2 40 15:58 17.06.2020
1360 Clouds 24 1017 64 10000 7.2 40 15:39 17.06.2020
1361 Clouds 24 1017 64 10000 7.2 40 15:20 17.06.2020
1362 Clouds 24 1018 60 10000 5.1 360 14:58 17.06.2020
1363 Clouds 24 1018 60 10000 5.1 20 14:39 17.06.2020
1364 Clouds 24 1018 60 10000 5.1 20 14:19 17.06.2020
1365 Clouds 24 1018 60 10000 5.1 20 13:56 17.06.2020
1366 Clouds 24 1018 60 10000 5.1 20 13:37 17.06.2020
1367 Clouds 24 1018 60 10000 5.1 20 13:19 17.06.2020
1368 Clouds 23 1018 60 10000 5.1 20 12:42 17.06.2020
1369 Clouds 23 1018 60 10000 5.1 20 12:23 17.06.2020
1370 Clouds 22 1019 68 10000 4.1 20 11:57 17.06.2020
1371 Clouds 22 1019 73 10000 4.1 120 11:37 17.06.2020
1372 Clouds 22 1019 73 10000 4.1 120 11:18 17.06.2020
1373 Clouds 20 1019 77 10000 3.1 100 10:38 17.06.2020
1374 Clouds 20 1019 77 10000 3.1 100 10:19 17.06.2020
1375 Clouds 20 1019 77 10000 3.1 100 10:19 17.06.2020
1376 Clouds 20 1019 77 10000 3.1 100 10:19 17.06.2020
1377 Clouds 20 1019 77 10000 3.1 100 09:57 17.06.2020
1378 Clouds 20 1019 77 10000 3.1 100 09:39 17.06.2020
1379 Clouds 20 1019 77 10000 3.1 100 09:20 17.06.2020
1380 Clouds 20 1019 77 10000 3.1 100 08:45 17.06.2020
1381 Clouds 18 1020 88 10000 3.1 70 08:20 17.06.2020
1382 Clouds 18 1020 88 10000 3.1 80 07:55 17.06.2020
1383 Clouds 18 1019 88 10000 3.1 70 07:37 17.06.2020
1384 Clouds 18 1019 88 10000 3.1 70 07:19 17.06.2020
1385 Clouds 18 1020 88 10000 3.1 70 06:41 17.06.2020
1386 Clouds 18 1020 88 10000 3.1 70 06:23 17.06.2020
1387 Clouds 18 1020 88 10000 3.1 70 05:59 17.06.2020
1388 Clouds 18 1021 88 10000 3.1 50 04:39 17.06.2020
1389 Clouds 18 1021 88 10000 2.6 50 02:48 17.06.2020
1390 Clouds 19 1023 82 10000 3.1 30 01:28 17.06.2020
1391 Clouds 19 1023 82 10000 3.1 40 00:37 17.06.2020
1392 Clouds 19 1023 82 10000 3.1 40 00:19 17.06.2020
1393 Clouds 19 1023 82 10000 3.1 30 23:55 16.06.2020
1394 Clouds 20 1023 72 10000 3.1 20 23:37 16.06.2020
1395 Clouds 20 1023 72 10000 3.1 20 23:18 16.06.2020
1396 Clouds 21 1022 64 10000 5.1 20 22:39 16.06.2020
1397 Clouds 21 1022 64 10000 5.1 20 22:19 16.06.2020
1398 Clouds 21 1022 64 10000 5.1 20 21:58 16.06.2020
1399 Clouds 21 1022 64 10000 5.1 20 21:40 16.06.2020
1400 Clouds 21 1022 64 10000 5.1 20 21:22 16.06.2020
1401 Clouds 21 1022 68 10000 7.2 360 20:55 16.06.2020
1402 Clouds 21 1022 68 10000 7.2 360 20:36 16.06.2020
1403 Clouds 21 1022 68 10000 7.2 360 20:18 16.06.2020
1404 Clouds 22 1022 64 10000 5.7 40 19:56 16.06.2020
1405 Clouds 22 1022 64 10000 5.7 40 19:37 16.06.2020
1406 Clouds 22 1022 64 10000 5.7 40 19:18 16.06.2020
1407 Clouds 23 1022 60 10000 7.2 20 18:41 16.06.2020
1408 Clouds 23 1022 60 10000 7.2 20 18:21 16.06.2020
1409 Clouds 23 1023 56 10000 7.2 40 17:57 16.06.2020
1410 Clouds 23 1023 56 10000 7.2 40 17:38 16.06.2020
1411 Clouds 23 1023 56 10000 7.2 40 17:19 16.06.2020
1412 Clouds 23 1023 64 10000 6.7 20 16:56 16.06.2020
1413 Clouds 23 1023 64 10000 6.7 20 16:38 16.06.2020
1414 Clouds 23 1023 64 10000 6.7 20 16:19 16.06.2020
1415 Clouds 24 1024 60 10000 6.7 360 15:56 16.06.2020
1416 Clouds 24 1024 60 10000 6.7 360 15:38 16.06.2020
1417 Clouds 24 1024 60 10000 6.7 360 15:38 16.06.2020
1418 Clouds 24 1024 60 10000 6.7 360 15:20 16.06.2020
1419 Clouds 24 1024 57 10000 7.2 360 14:43 16.06.2020
1420 Clouds 24 1024 57 10000 7.2 360 14:25 16.06.2020
1421 Clouds 24 1024 57 10000 5.1 360 13:59 16.06.2020
1422 Clouds 24 1024 57 10000 5.1 360 13:41 16.06.2020
1423 Clouds 24 1024 57 10000 5.1 360 13:22 16.06.2020
1424 Clouds 23 1024 64 10000 6.7 360 12:42 16.06.2020
1425 Clouds 23 1024 64 10000 6.7 360 12:22 16.06.2020
1426 Clouds 22 1025 64 10000 3.1 300 11:57 16.06.2020
1427 Clouds 22 1025 64 10000 3.1 300 11:39 16.06.2020
1428 Clouds 22 1025 64 10000 3.1 300 11:21 16.06.2020
1429 Clouds 21 1025 64 10000 2.1 140 10:57 16.06.2020
1430 Clouds 21 1025 64 10000 2.1 140 10:38 16.06.2020
1431 Clouds 21 1025 64 10000 2.1 140 10:18 16.06.2020
1432 Clouds 20 1024 64 10000 2.1 160 09:43 16.06.2020
1433 Clouds 19 1024 64 10000 2.1 160 09:22 16.06.2020
1434 Clouds 18 1024 77 10000 1 20 08:51 16.06.2020
1435 Clouds 16 1025 82 10000 2.1 170 08:32 16.06.2020
1436 Clouds 16 1024 82 10000 1.5 140 07:51 16.06.2020
1437 Clouds 17 1024 77 10000 1 0 07:29 16.06.2020
1438 Clouds 16 1023 87 10000 2.1 80 06:57 16.06.2020
1439 Clouds 16 1023 87 10000 2.1 80 06:34 16.06.2020
1440 Clouds 19 1023 77 10000 2.1 70 05:50 16.06.2020
1441 Clouds 20 1023 77 10000 2.1 60 04:54 16.06.2020
1442 Clouds 20 1024 77 10000 2.6 30 03:55 16.06.2020
1443 Clouds 20 1024 72 10000 2.6 50 02:35 16.06.2020
1444 Clouds 20 1025 72 10000 3.6 20 01:33 16.06.2020
1445 Clouds 20 1024 72 10000 3.1 30 00:55 16.06.2020
1446 Clouds 20 1024 72 10000 3.6 30 00:22 16.06.2020
1447 Clouds 20 1024 72 10000 3.6 40 23:55 15.06.2020
1448 Clouds 20 1024 72 10000 4.6 30 23:37 15.06.2020
1449 Clouds 20 1024 72 10000 4.6 30 23:19 15.06.2020
1450 Clouds 20 1023 77 10000 5.1 30 22:41 15.06.2020
1451 Clouds 21 1023 68 10000 6.2 40 22:22 15.06.2020
1452 Clouds 21 1023 68 10000 6.2 40 21:58 15.06.2020
1453 Clouds 21 1023 68 10000 6.2 40 21:58 15.06.2020
1454 Clouds 21 1023 64 10000 8.2 360 21:38 15.06.2020
1455 Clouds 22 1023 64 10000 8.2 360 21:20 15.06.2020
1456 Clouds 22 1023 64 10000 8.2 360 20:57 15.06.2020
1457 Clouds 22 1023 64 10000 8.2 360 20:38 15.06.2020
1458 Clouds 22 1023 64 10000 8.2 360 20:19 15.06.2020
1459 Clouds 23 1023 60 10000 9.3 20 19:57 15.06.2020
1460 Clouds 23 1023 60 10000 6.2 20 19:38 15.06.2020
1461 Clouds 23 1023 60 10000 6.2 20 19:20 15.06.2020
1462 Clouds 23 1023 60 10000 6.2 20 18:56 15.06.2020
1463 Clouds 23 1023 60 10000 6.2 20 18:37 15.06.2020
1464 Clear 23 1023 60 10000 6.2 20 18:19 15.06.2020
1465 Clear 23 1023 60 10000 8.2 20 17:55 15.06.2020
1466 Clear 24 1023 60 10000 8.2 20 17:36 15.06.2020
1467 Clear 24 1023 60 10000 8.2 20 17:18 15.06.2020
1468 Clouds 24 1023 64 10000 8.7 20 16:41 15.06.2020
1469 Clouds 24 1023 64 10000 8.7 20 16:19 15.06.2020
1470 Clouds 25 1023 57 10000 8.2 20 15:56 15.06.2020
1471 Clouds 24 1023 57 10000 8.2 20 15:38 15.06.2020
1472 Clear 24 1023 57 10000 8.2 20 15:18 15.06.2020
1473 Clouds 24 1023 57 10000 7.2 40 14:42 15.06.2020
1474 Clouds 24 1023 57 10000 7.2 40 14:21 15.06.2020
1475 Clear 25 1024 60 10000 6.2 40 13:59 15.06.2020
1476 Clear 24 1024 60 10000 6.2 40 13:41 15.06.2020
1477 Clear 24 1024 60 10000 6.2 40 13:22 15.06.2020
1478 Clear 23 1023 60 10000 5.1 60 12:58 15.06.2020
1479 Clear 23 1023 60 10000 5.1 60 12:39 15.06.2020
1480 Clear 23 1023 60 10000 5.1 60 12:21 15.06.2020
1481 Clouds 23 1024 56 10000 6.2 60 11:44 15.06.2020
1482 Clouds 23 1024 56 10000 6.2 60 11:25 15.06.2020
1483 Clear 22 1024 56 10000 7.2 60 10:45 15.06.2020
1484 Clear 22 1024 56 10000 7.2 60 10:23 15.06.2020
1485 Clouds 20 1024 72 10000 3.6 60 09:57 15.06.2020
1486 Clouds 20 1024 72 10000 3.6 60 09:39 15.06.2020
1487 Clouds 20 1024 72 10000 3.6 60 09:20 15.06.2020
1488 Clouds 18 1023 77 10000 2.1 60 08:41 15.06.2020
1489 Clouds 18 1023 77 10000 2.1 60 08:23 15.06.2020
1490 Clouds 17 1023 88 10000 3.1 50 07:47 15.06.2020
1491 Clouds 17 1023 88 8000 3.1 30 07:28 15.06.2020
1492 Clear 17 1023 88 8000 3.1 10 06:49 15.06.2020
1493 Clear 20 1023 88 10000 2.6 20 06:26 15.06.2020
1494 Clear 20 1023 93 10000 2.1 30 05:47 15.06.2020
1495 Clear 20 1024 93 10000 2.1 40 05:26 15.06.2020
1496 Clear 20 1024 88 10000 2.1 30 04:20 15.06.2020
1497 Clear 20 1024 88 10000 2.6 60 03:42 15.06.2020
1498 Clear 21 1025 82 10000 2.6 40 02:54 15.06.2020
1499 Clear 21 1025 82 10000 2.6 40 01:58 15.06.2020
1500 Clear 21 1025 82 10000 3.1 60 01:35 15.06.2020
1501 Clear 21 1025 82 10000 3.1 60 00:59 15.06.2020
1502 Clear 21 1025 77 10000 4.1 50 00:39 15.06.2020
1503 Clear 21 1025 77 10000 4.1 50 00:20 15.06.2020
1504 Clear 21 1025 77 10000 3.6 50 23:47 14.06.2020
1505 Clear 21 1024 77 10000 4.1 30 23:25 14.06.2020
1506 Clear 21 1024 77 10000 4.1 30 23:25 14.06.2020
1507 Clear 21 1024 72 10000 4.6 20 22:58 14.06.2020
1508 Clear 21 1024 72 10000 4.6 20 22:58 14.06.2020
1509 Clear 22 1023 64 10000 9.8 360 22:39 14.06.2020
1510 Clear 22 1023 64 10000 9.8 360 22:20 14.06.2020
1511 Clear 22 1023 64 10000 9.8 360 21:57 14.06.2020
1512 Clear 22 1023 64 10000 9.8 360 21:39 14.06.2020
1513 Clear 22 1023 64 10000 9.8 360 21:19 14.06.2020
1514 Clear 23 1022 56 10000 8.2 40 20:58 14.06.2020
1515 Clear 23 1022 56 10000 8.2 40 20:39 14.06.2020
1516 Clear 23 1022 56 10000 8.2 40 20:20 14.06.2020
1517 Clear 23 1022 56 10000 9.8 360 19:59 14.06.2020
1518 Clear 23 1022 56 10000 9.8 360 19:59 14.06.2020
1519 Clear 23 1022 56 10000 9.8 360 19:38 14.06.2020
1520 Clear 23 1022 56 10000 9.8 360 19:19 14.06.2020
1521 Clear 23 1022 56 10000 9.8 360 18:57 14.06.2020
1522 Clear 23 1022 56 10000 9.8 360 18:39 14.06.2020
1523 Clear 23 1022 56 10000 9.8 360 18:20 14.06.2020
1524 Clouds 24 1022 50 10000 7.7 40 17:58 14.06.2020
1525 Clouds 24 1022 50 10000 7.7 40 17:39 14.06.2020
1526 Clouds 24 1022 50 10000 7.7 40 17:20 14.06.2020
1527 Clouds 25 1022 50 10000 5.7 20 16:41 14.06.2020
1528 Clouds 25 1022 50 10000 5.7 20 16:22 14.06.2020
1529 Clouds 25 1022 50 10000 6.2 20 15:59 14.06.2020
1530 Clouds 24 1022 50 10000 6.2 20 15:40 14.06.2020
1531 Clouds 24 1022 50 10000 6.2 20 15:19 14.06.2020
1532 Clouds 25 1023 47 10000 6.7 40 14:59 14.06.2020
1533 Clouds 25 1023 47 10000 6.7 40 14:40 14.06.2020
1534 Clouds 25 1023 47 10000 6.7 40 14:21 14.06.2020
1535 Clouds 24 1023 53 10000 5.1 60 13:56 14.06.2020
1536 Clouds 24 1023 53 10000 5.1 60 13:38 14.06.2020
1537 Clouds 24 1023 53 10000 5.1 60 13:19 14.06.2020
1538 Clouds 23 1023 56 10000 3.1 40 12:55 14.06.2020
1539 Clouds 23 1023 56 10000 3.1 40 12:37 14.06.2020
1540 Clouds 23 1023 56 10000 3.1 40 12:18 14.06.2020
1541 Clouds 23 1023 56 10000 4.1 20 11:56 14.06.2020
1542 Clouds 23 1023 56 10000 4.1 20 11:37 14.06.2020
1543 Clouds 23 1023 56 10000 4.1 20 11:18 14.06.2020
1544 Clear 21 1023 64 10000 4.6 20 10:41 14.06.2020
1545 Clear 21 1023 64 10000 4.6 20 10:19 14.06.2020
1546 Clear 19 1022 68 10000 1.5 100 09:45 14.06.2020
1547 Clear 19 1022 68 10000 1.5 100 09:24 14.06.2020
1548 Clear 16 1013 82 10000 1 200 08:44 14.06.2020
1549 Clear 16 1013 82 10000 1 200 08:22 14.06.2020
1550 Clear 15 1021 87 10000 1 270 08:00 14.06.2020
1551 Clear 15 1021 87 10000 1 270 07:41 14.06.2020
1552 Clear 15 1021 87 10000 1 270 07:23 14.06.2020
1553 Clear 18 1021 87 10000 0.5 300 06:25 14.06.2020
1554 Clear 18 1021 87 10000 1 130 05:39 14.06.2020
1555 Clear 19 1021 82 10000 1 0 04:51 14.06.2020
1556 Clear 19 1021 82 10000 1 0 04:25 14.06.2020
1557 Clear 20 1021 77 10000 2.1 50 02:53 14.06.2020
1558 Clouds 20 1021 77 10000 2.6 40 02:23 14.06.2020
1559 Clouds 20 1021 72 10000 2.6 40 01:36 14.06.2020
1560 Clouds 20 1020 72 10000 3.1 30 00:50 14.06.2020
1561 Clouds 20 1020 72 10000 3.1 40 00:31 14.06.2020
1562 Clouds 20 1020 72 10000 3.1 40 23:59 13.06.2020
1563 Clouds 20 1020 68 10000 3.6 30 23:41 13.06.2020
1564 Clouds 20 1020 68 10000 3.6 30 23:22 13.06.2020
1565 Clouds 20 1019 68 10000 3.6 40 22:56 13.06.2020
1566 Clouds 21 1018 64 10000 7.2 20 22:36 13.06.2020
1567 Clouds 21 1018 64 10000 7.2 20 22:18 13.06.2020
1568 Clouds 21 1018 64 10000 7.2 20 21:43 13.06.2020
1569 Clouds 21 1018 64 10000 7.2 20 21:24 13.06.2020
1570 Clouds 22 1018 60 10000 7.2 20 20:57 13.06.2020
1571 Clouds 22 1018 60 10000 7.2 20 20:39 13.06.2020
1572 Clouds 22 1018 60 10000 7.2 20 20:18 13.06.2020
1573 Clouds 23 1018 53 10000 6.7 360 19:41 13.06.2020
1574 Clouds 23 1018 60 10000 7.7 360 19:20 13.06.2020
1575 Clouds 23 1018 60 10000 7.7 360 18:59 13.06.2020
1576 Clouds 24 1018 53 10000 6.7 350 18:40 13.06.2020
1577 Clouds 24 1018 57 10000 7.7 40 18:20 13.06.2020
1578 Clouds 24 1018 57 10000 7.7 40 17:58 13.06.2020
1579 Clouds 24 1018 53 10000 6.2 10 17:40 13.06.2020
1580 Clouds 24 1019 53 10000 5.1 20 17:22 13.06.2020
1581 Clouds 24 1019 53 10000 5.1 20 16:55 13.06.2020
1582 Clouds 24 1019 53 10000 5.1 20 16:37 13.06.2020
1583 Clouds 24 1019 53 10000 5.1 20 16:18 13.06.2020
1584 Clouds 24 1019 53 10000 5.7 20 15:44 13.06.2020
1585 Clouds 24 1019 53 10000 5.7 20 15:25 13.06.2020
1586 Clouds 24 1019 53 10000 4.6 360 14:45 13.06.2020
1587 Clouds 24 1019 53 10000 4.6 360 14:26 13.06.2020
1588 Clouds 23 1018 56 10000 5.7 360 13:59 13.06.2020
1589 Clouds 23 1019 64 10000 4.1 340 13:40 13.06.2020
1590 Clouds 22 1018 68 10000 5.7 20 13:22 13.06.2020
1591 Clouds 22 1018 68 10000 5.7 20 12:44 13.06.2020
1592 Clouds 22 1018 68 10000 5.7 20 12:44 13.06.2020
1593 Clouds 22 1018 68 10000 5.7 20 12:26 13.06.2020
1594 Clouds 21 1018 73 10000 4.6 340 11:59 13.06.2020
1595 Clouds 21 1018 73 10000 4.6 340 11:39 13.06.2020
1596 Clouds 21 1018 73 10000 4.6 340 11:19 13.06.2020
1597 Clouds 21 1017 64 10000 3.6 240 10:56 13.06.2020
1598 Clouds 21 1017 64 10000 3.6 240 10:38 13.06.2020
1599 Clouds 21 1017 64 10000 3.6 240 10:18 13.06.2020
1600 Clouds 19 1018 77 10000 2.6 190 09:44 13.06.2020
1601 Clouds 18 1017 82 10000 3.6 180 09:22 13.06.2020
1602 Clouds 18 1017 82 10000 3.6 180 08:49 13.06.2020
1603 Clouds 17 1017 82 10000 3.6 180 08:30 13.06.2020
1604 Clouds 14 1017 100 10000 2.1 170 07:54 13.06.2020
1605 Clouds 15 1017 100 10000 2.1 190 07:28 13.06.2020
1606 Rain 15 1017 100 10000 1.5 210 06:50 13.06.2020
1607 Rain 15 1017 100 10000 1.5 210 06:30 13.06.2020
1608 Clouds 16 1017 93 10000 2.6 200 05:45 13.06.2020
1609 Clouds 16 1017 93 10000 2.6 200 05:24 13.06.2020
1610 Clouds 19 1017 93 10000 2.1 180 03:48 13.06.2020
1611 Clouds 19 1018 93 10000 1.5 210 02:54 13.06.2020
1612 Clouds 19 1018 93 10000 1.5 210 02:34 13.06.2020
1613 Clouds 19 1018 93 10000 1.5 220 01:45 13.06.2020
1614 Clouds 20 1019 93 10000 2.1 250 01:19 13.06.2020
1615 Clouds 20 1018 88 10000 2.6 280 00:42 13.06.2020
1616 Clouds 20 1018 88 10000 2.6 280 00:23 13.06.2020
1617 Clouds 20 1018 88 10000 3.1 290 23:41 12.06.2020
1618 Clouds 20 1018 88 10000 3.1 290 23:19 12.06.2020
1619 Clouds 21 1018 88 10000 4.1 310 22:58 12.06.2020
1620 Clouds 21 1016 68 10000 7.2 300 22:39 12.06.2020
1621 Clouds 21 1016 68 10000 7.2 300 22:19 12.06.2020
1622 Clouds 22 1016 68 10000 7.2 300 21:47 12.06.2020
1623 Clouds 22 1016 68 10000 7.2 300 21:24 12.06.2020
1624 Clouds 22 1016 68 10000 8.2 300 20:58 12.06.2020
1625 Clouds 22 1016 68 10000 8.2 300 20:40 12.06.2020
1626 Clouds 22 1016 68 10000 8.2 300 20:22 12.06.2020
1627 Clouds 23 1015 64 10000 8.2 300 19:56 12.06.2020
1628 Clouds 23 1015 64 10000 8.2 300 19:38 12.06.2020
1629 Clouds 23 1015 64 10000 8.2 300 19:18 12.06.2020
1630 Clouds 23 1015 64 10000 10.8 280 18:39 12.06.2020
1631 Clouds 23 1015 64 10000 10.8 280 18:18 12.06.2020
1632 Clouds 24 1014 60 10000 8.2 300 17:47 12.06.2020
1633 Clouds 24 1015 60 10000 8.2 280 17:27 12.06.2020
1634 Clouds 24 1015 60 10000 8.2 280 16:59 12.06.2020
1635 Clouds 24 1015 60 10000 8.2 280 16:40 12.06.2020
1636 Clouds 24 1015 60 10000 8.2 280 16:19 12.06.2020
1637 Clouds 24 1015 57 10000 8.2 280 15:45 12.06.2020
1638 Clouds 24 1015 57 10000 8.2 280 15:25 12.06.2020
1639 Clouds 23 1015 60 10000 7.2 280 14:55 12.06.2020
1640 Clouds 23 1015 60 10000 7.2 280 14:36 12.06.2020
1641 Clouds 23 1015 60 10000 7.2 280 14:18 12.06.2020
1642 Clouds 21 1015 68 10000 5.1 240 13:41 12.06.2020
1643 Clouds 21 1015 68 10000 5.1 240 13:20 12.06.2020
1644 Clouds 22 1015 60 10000 5.1 240 12:40 12.06.2020
1645 Clouds 22 1015 60 10000 5.1 240 12:20 12.06.2020
1646 Clouds 21 1015 64 10000 6.2 240 11:57 12.06.2020
1647 Clouds 21 1015 64 10000 6.2 240 11:38 12.06.2020
1648 Clouds 21 1015 64 10000 6.2 240 11:19 12.06.2020
1649 Clouds 20 1015 72 10000 4.1 220 10:45 12.06.2020
1650 Clouds 20 1015 72 10000 4.1 220 10:24 12.06.2020
1651 Clouds 19 1014 68 10000 4.1 220 09:45 12.06.2020
1652 Clouds 19 1014 68 10000 4.1 220 09:21 12.06.2020
1653 Clouds 18 1014 72 10000 4.1 180 08:44 12.06.2020
1654 Clouds 16 1015 82 10000 2.6 0 08:25 12.06.2020
1655 Clouds 15 1015 87 10000 2.6 200 07:44 12.06.2020
1656 Clouds 15 1015 87 10000 2.6 200 07:44 12.06.2020
1657 Clouds 14 1015 87 10000 2.1 200 07:25 12.06.2020
1658 Clouds 14 1015 87 10000 2.6 180 06:55 12.06.2020
1659 Clouds 18 1015 87 10000 2.6 180 06:30 12.06.2020
1660 Clouds 18 1015 87 10000 2.6 210 05:53 12.06.2020
1661 Clouds 18 1015 87 10000 2.6 210 05:30 12.06.2020
1662 Clouds 18 1016 87 10000 2.1 220 04:55 12.06.2020
1663 Clouds 18 1016 82 10000 1.5 240 03:24 12.06.2020
1664 Clouds 19 1017 77 10000 1 220 01:55 12.06.2020
1665 Clouds 19 1017 77 10000 1 0 01:27 12.06.2020
1666 Clouds 19 1018 77 10000 1 300 00:45 12.06.2020
1667 Clouds 20 1018 72 10000 1 320 00:25 12.06.2020
1668 Clouds 20 1018 72 10000 2.6 330 23:59 11.06.2020
1669 Clouds 20 1017 72 10000 3.1 330 23:41 11.06.2020
1670 Clouds 20 1017 72 10000 3.1 330 23:21 11.06.2020
1671 Clouds 20 1017 68 10000 3.6 340 22:59 11.06.2020
1672 Clouds 20 1016 60 10000 6.2 340 22:39 11.06.2020
1673 Clouds 20 1016 60 10000 6.2 340 22:20 11.06.2020
1674 Clouds 20 1016 60 10000 6.2 340 21:56 11.06.2020
1675 Clouds 20 1016 60 10000 6.2 340 21:56 11.06.2020
1676 Clouds 21 1016 60 10000 6.2 340 21:38 11.06.2020
1677 Clouds 21 1016 60 10000 6.2 340 21:20 11.06.2020
1678 Clouds 21 1016 64 10000 6.2 340 20:45 11.06.2020
1679 Clouds 21 1016 64 10000 6.2 340 20:21 11.06.2020
1680 Clouds 23 1017 53 10000 6.2 320 19:55 11.06.2020
1681 Clouds 23 1017 53 10000 6.2 320 19:36 11.06.2020
1682 Clouds 23 1017 43 10000 4.1 320 19:18 11.06.2020
1683 Clouds 23 1017 43 10000 4.1 320 18:41 11.06.2020
1684 Clouds 23 1017 43 10000 4.1 320 18:22 11.06.2020
1685 Clouds 23 1018 46 10000 4.1 320 17:56 11.06.2020
1686 Clouds 23 1018 46 10000 4.1 320 17:38 11.06.2020
1687 Clouds 23 1018 46 10000 4.1 320 17:19 11.06.2020
1688 Clouds 23 1018 43 10000 4.1 360 16:56 11.06.2020
1689 Clouds 23 1018 43 10000 4.1 360 16:38 11.06.2020
1690 Clouds 23 1018 43 10000 4.1 360 16:38 11.06.2020
1691 Clouds 23 1018 43 10000 4.1 360 16:19 11.06.2020
1692 Clouds 23 1018 43 10000 7.2 320 15:42 11.06.2020
1693 Clouds 23 1018 43 10000 7.2 320 15:23 11.06.2020
1694 Clouds 24 1018 44 10000 3.1 340 14:56 11.06.2020
1695 Clouds 24 1018 44 10000 3.1 340 14:38 11.06.2020
1696 Clouds 24 1018 44 10000 3.1 340 14:20 11.06.2020
1697 Clouds 23 1019 46 10000 4.1 300 13:54 11.06.2020
1698 Clouds 22 1019 46 10000 4.1 300 13:36 11.06.2020
1699 Clouds 21 1018 46 10000 6.2 320 13:18 11.06.2020
1700 Clouds 21 1018 46 10000 6.2 320 12:39 11.06.2020
1701 Clouds 21 1018 56 10000 6.2 320 12:21 11.06.2020
1702 Clouds 21 1018 56 10000 6.2 320 11:59 11.06.2020
1703 Clouds 20 1018 56 10000 6.2 320 11:41 11.06.2020
1704 Clouds 20 1018 56 10000 6.2 320 11:22 11.06.2020
1705 Clouds 20 1018 52 10000 4.1 300 10:59 11.06.2020
1706 Clouds 20 1018 52 10000 4.1 300 10:41 11.06.2020
1707 Clouds 20 1018 52 10000 4.1 300 10:18 11.06.2020
1708 Clouds 20 1018 56 10000 5.1 280 09:44 11.06.2020
1709 Clouds 20 1018 56 10000 5.1 280 09:26 11.06.2020
1710 Clouds 19 1018 59 10000 3.1 320 08:54 11.06.2020
1711 Clouds 18 1018 77 10000 1.5 330 08:36 11.06.2020
1712 Clouds 18 1018 77 10000 2.6 320 08:18 11.06.2020
1713 Clouds 18 1018 77 10000 2.6 330 07:41 11.06.2020
1714 Clouds 18 1018 77 10000 2.6 330 07:22 11.06.2020
1715 Clouds 18 1018 77 10000 2.1 350 06:31 11.06.2020
1716 Clouds 18 1018 77 10000 2.1 330 05:53 11.06.2020
1717 Clouds 18 1019 77 10000 2.6 350 03:59 11.06.2020
1718 Clouds 18 1019 77 10000 2.6 360 03:25 11.06.2020
1719 Clouds 17 1019 77 10000 2.6 350 02:45 11.06.2020
1720 Clouds 17 1020 82 10000 1.5 10 01:56 11.06.2020
1721 Clouds 18 1020 77 10000 2.6 20 01:34 11.06.2020
1722 Clouds 18 1020 77 10000 2.6 10 00:52 11.06.2020
1723 Clouds 18 1020 77 10000 3.6 350 00:32 11.06.2020
1724 Clouds 18 1020 77 10000 3.6 350 23:56 10.06.2020
1725 Clouds 18 1019 77 10000 5.1 350 23:37 10.06.2020
1726 Clouds 19 1019 72 10000 5.1 340 23:18 10.06.2020
1727 Clouds 19 1019 68 10000 4.6 350 22:40 10.06.2020
1728 Clouds 20 1018 60 10000 4.1 300 22:22 10.06.2020
1729 Clouds 20 1018 60 10000 4.1 300 21:58 10.06.2020
1730 Clouds 20 1018 60 10000 4.1 300 21:40 10.06.2020
1731 Clouds 20 1018 60 10000 4.1 300 21:19 10.06.2020
1732 Clouds 21 1018 56 10000 6.2 320 20:57 10.06.2020
1733 Clouds 22 1018 56 10000 6.2 320 20:39 10.06.2020
1734 Clouds 22 1018 56 10000 6.2 320 20:21 10.06.2020
1735 Clouds 22 1018 56 10000 6.2 320 20:21 10.06.2020
1736 Clouds 22 1018 56 10000 7.2 360 19:58 10.06.2020
1737 Clouds 22 1018 56 10000 7.2 360 19:37 10.06.2020
1738 Clouds 23 1018 56 10000 6.7 330 19:18 10.06.2020
1739 Clear 22 1017 53 0 4.02 319 18:41 10.06.2020
1740 Clouds 23 1018 53 10000 6.2 360 18:20 10.06.2020
1741 Clouds 23 1018 53 10000 6.2 360 17:58 10.06.2020
1742 Clouds 23 1018 53 10000 6.2 360 17:40 10.06.2020
1743 Clouds 23 1018 53 10000 6.2 360 17:20 10.06.2020
1744 Clouds 24 1018 53 10000 6.2 340 16:58 10.06.2020
1745 Clouds 24 1018 53 10000 6.2 340 16:40 10.06.2020
1746 Clouds 24 1018 53 10000 6.2 340 16:20 10.06.2020
1747 Clouds 24 1018 53 10000 6.2 340 16:20 10.06.2020
1748 Clouds 24 1018 53 10000 6.2 340 16:20 10.06.2020
1749 Clouds 24 1018 53 10000 6.2 340 16:20 10.06.2020
1750 Clouds 23 1019 56 10000 7.2 360 15:55 10.06.2020
1751 Clouds 23 1019 56 10000 7.2 360 15:36 10.06.2020
1752 Clouds 23 1019 56 10000 7.2 360 15:18 10.06.2020
1753 Clouds 23 1019 56 10000 7.2 360 14:40 10.06.2020
1754 Clouds 23 1019 56 10000 7.2 360 14:21 10.06.2020
1755 Clouds 22 1019 60 10000 8.2 340 13:44 10.06.2020
1756 Clouds 22 1019 60 10000 8.2 340 13:22 10.06.2020
1757 Clouds 23 1019 56 10000 5.1 20 12:58 10.06.2020
1758 Clouds 23 1019 56 10000 5.1 20 12:39 10.06.2020
1759 Clouds 21 1018 64 10000 2.1 20 12:18 10.06.2020
1760 Clouds 21 1018 64 10000 2.1 20 11:44 10.06.2020
1761 Clouds 21 1018 64 10000 2.1 20 11:20 10.06.2020
1762 Clouds 21 1018 64 10000 5.1 20 10:58 10.06.2020
1763 Clouds 20 1018 64 10000 5.1 20 10:40 10.06.2020
1764 Clouds 20 1018 64 10000 5.1 20 10:21 10.06.2020
1765 Clouds 19 1018 68 10000 3.1 20 09:44 10.06.2020
1766 Clouds 19 1018 68 10000 3.1 20 09:25 10.06.2020
1767 Clouds 18 1017 66 0 2.14 315 08:59 10.06.2020
1768 Clouds 18 1017 66 0 0.89 245 08:41 10.06.2020
1769 Clouds 13 1018 93 10000 2.1 250 08:22 10.06.2020
1770 Clouds 13 1018 93 10000 2.1 250 07:42 10.06.2020
1771 Clouds 13 1018 93 10000 2.1 250 07:23 10.06.2020
1772 Clouds 13 1018 93 10000 2.6 200 06:52 10.06.2020
1773 Clouds 13 1018 93 10000 2.1 170 06:33 10.06.2020
1774 Clouds 18 1018 87 10000 2.1 190 05:59 10.06.2020
1775 Clouds 18 1018 87 10000 1 150 05:30 10.06.2020
1776 Clouds 18 1018 82 10000 0.5 0 04:48 10.06.2020
1777 Clouds 18 1018 82 10000 0.5 0 04:28 10.06.2020
1778 Clouds 19 1019 82 10000 1.5 50 02:24 10.06.2020
1779 Clouds 20 1019 77 10000 1.5 40 01:40 10.06.2020
1780 Clouds 20 1020 77 10000 2.6 350 00:42 10.06.2020
1781 Clouds 20 1020 77 10000 2.6 350 00:23 10.06.2020
1782 Clouds 20 1020 72 10000 2.6 350 23:59 09.06.2020
1783 Clouds 20 1019 72 10000 4.1 350 23:41 09.06.2020
1784 Clouds 20 1019 72 10000 4.1 350 23:22 09.06.2020
1785 Clouds 20 1019 72 10000 3.6 350 22:56 09.06.2020
1786 Clouds 20 1018 56 10000 6.2 360 22:38 09.06.2020
1787 Clouds 20 1018 56 10000 6.2 360 22:20 09.06.2020
1788 Clouds 21 1018 56 10000 6.2 360 21:57 09.06.2020
1789 Clouds 21 1018 56 10000 6.2 360 21:57 09.06.2020
1790 Clouds 21 1018 56 10000 6.2 360 21:38 09.06.2020
1791 Clouds 21 1018 56 10000 6.2 360 21:20 09.06.2020
1792 Clouds 22 1017 53 10000 5.1 360 20:57 09.06.2020
1793 Clouds 22 1017 53 10000 5.1 360 20:38 09.06.2020
1794 Clouds 22 1017 53 10000 5.1 360 20:20 09.06.2020
1795 Clouds 22 1017 53 10000 5.1 360 20:20 09.06.2020
1796 Clouds 22 1017 53 10000 5.1 360 19:57 09.06.2020
1797 Clouds 22 1017 53 10000 5.1 360 19:39 09.06.2020
1798 Clouds 22 1017 53 10000 5.1 360 19:20 09.06.2020
1799 Clouds 23 1018 53 10000 5.1 340 18:56 09.06.2020
1800 Clouds 23 1018 53 10000 5.1 340 18:38 09.06.2020
1801 Clouds 23 1018 49 10000 5.1 340 18:18 09.06.2020
1802 Clouds 23 1018 49 10000 5.1 340 17:55 09.06.2020
1803 Clouds 23 1018 49 10000 5.1 340 17:36 09.06.2020
1804 Clouds 23 1019 49 10000 6.2 340 17:18 09.06.2020
1805 Clouds 23 1019 49 10000 6.2 340 16:42 09.06.2020
1806 Clouds 23 1019 49 10000 6.2 340 16:22 09.06.2020
1807 Clouds 23 1019 49 10000 7.2 300 15:55 09.06.2020
1808 Clouds 23 1019 49 10000 7.2 300 15:37 09.06.2020
1809 Clouds 23 1019 49 10000 7.2 300 15:18 09.06.2020
1810 Clouds 23 1019 46 10000 5.7 360 14:40 09.06.2020
1811 Clouds 23 1019 46 10000 5.1 320 14:21 09.06.2020
1812 Clouds 23 1019 46 10000 5.1 320 13:58 09.06.2020
1813 Clouds 23 1019 46 10000 5.1 320 13:58 09.06.2020
1814 Clouds 23 1019 46 10000 5.1 320 13:39 09.06.2020
1815 Clouds 23 1019 46 10000 5.1 320 13:20 09.06.2020
1816 Clouds 22 1020 49 10000 5.1 320 12:43 09.06.2020
1817 Clouds 22 1020 49 10000 5.1 320 12:21 09.06.2020
1818 Clouds 22 1019 46 10000 2.1 340 11:59 09.06.2020
1819 Clouds 21 1019 46 10000 2.1 340 11:41 09.06.2020
1820 Clouds 21 1019 46 10000 2.1 340 11:20 09.06.2020
1821 Clouds 21 1019 52 10000 2.1 40 10:58 09.06.2020
1822 Clouds 20 1019 52 10000 2.1 40 10:40 09.06.2020
1823 Clouds 20 1019 52 10000 2.1 40 10:21 09.06.2020
1824 Clouds 18 1019 59 10000 3.1 360 09:44 09.06.2020
1825 Clouds 18 1019 59 10000 3.1 360 09:24 09.06.2020
1826 Clouds 16 1020 87 10000 0.5 0 08:56 09.06.2020
1827 Clouds 15 1019 93 10000 0.5 180 08:38 09.06.2020
1828 Clouds 15 1019 93 10000 0.5 180 08:19 09.06.2020
1829 Clouds 14 1019 93 10000 2.1 230 07:38 09.06.2020
1830 Clouds 14 1019 93 10000 1.5 230 07:19 09.06.2020
1831 Clouds 14 1019 93 10000 1.5 230 06:53 09.06.2020
1832 Clouds 18 1018 60 0 2.46 11 06:33 09.06.2020
1833 Clouds 16 1019 87 10000 0.5 0 05:34 09.06.2020
1834 Clouds 17 1019 82 10000 2.1 30 03:19 09.06.2020
1835 Clouds 18 1020 82 10000 2.6 40 01:42 09.06.2020
1836 Clear 18 1020 82 10000 2.1 40 01:19 09.06.2020
1837 Clear 18 1020 82 10000 2.6 30 00:50 09.06.2020
1838 Clear 18 1020 82 10000 3.1 20 00:21 09.06.2020
1839 Clear 18 1020 82 10000 3.1 20 23:58 08.06.2020
1840 Clear 18 1020 82 10000 3.1 30 23:38 08.06.2020
1841 Clear 19 1019 77 10000 4.1 10 23:19 08.06.2020
1842 Clear 19 1019 77 10000 4.6 20 22:42 08.06.2020
1843 Clouds 20 1019 64 10000 5.1 40 22:23 08.06.2020
1844 Clouds 20 1019 64 10000 5.1 40 21:58 08.06.2020
1845 Clouds 20 1019 64 10000 5.1 40 21:58 08.06.2020
1846 Clouds 20 1019 64 10000 5.1 40 21:40 08.06.2020
1847 Clouds 20 1019 64 10000 5.1 40 21:22 08.06.2020
1848 Clouds 20 1018 72 10000 6.7 20 20:57 08.06.2020
1849 Clouds 21 1018 68 10000 6.2 10 20:39 08.06.2020
1850 Clouds 21 1018 68 10000 6.2 10 20:20 08.06.2020
1851 Clouds 22 1018 68 10000 5.7 10 19:55 08.06.2020
1852 Clouds 22 1018 68 10000 7.2 20 19:37 08.06.2020
1853 Clouds 22 1018 73 10000 6.7 30 19:19 08.06.2020
1854 Clouds 23 1018 69 10000 7.7 10 18:41 08.06.2020
1855 Clouds 23 1018 64 10000 9.8 20 18:18 08.06.2020
1856 Clouds 23 1018 64 10000 9.8 20 17:56 08.06.2020
1857 Clouds 23 1018 64 10000 9.8 20 17:38 08.06.2020
1858 Clouds 23 1018 64 10000 9.8 20 17:19 08.06.2020
1859 Clouds 23 1018 64 10000 7.2 20 16:45 08.06.2020
1860 Clouds 23 1018 64 10000 7.2 20 16:25 08.06.2020
1861 Clouds 23 1018 64 10000 7.7 20 15:58 08.06.2020
1862 Clouds 23 1018 64 10000 7.7 20 15:40 08.06.2020
1863 Clouds 23 1018 64 10000 7.7 20 15:20 08.06.2020
1864 Clouds 23 1018 64 10000 7.7 20 15:20 08.06.2020
1865 Clouds 23 1018 60 10000 5.1 20 14:42 08.06.2020
1866 Clouds 23 1018 60 10000 5.1 20 14:23 08.06.2020
1867 Clouds 22 1019 64 10000 4.6 20 13:57 08.06.2020
1868 Clouds 22 1019 64 10000 4.6 20 13:38 08.06.2020
1869 Clouds 21 1019 77 10000 3.1 20 13:19 08.06.2020
1870 Clouds 20 1019 77 10000 3.1 20 12:40 08.06.2020
1871 Clouds 20 1018 88 6000 2.1 360 12:19 08.06.2020
1872 Clouds 20 1018 88 6000 2.1 360 11:54 08.06.2020
1873 Clouds 20 1018 88 6000 2.1 360 11:36 08.06.2020
1874 Clouds 20 1018 93 8000 3.1 360 11:18 08.06.2020
1875 Clouds 19 1018 93 8000 3.1 360 10:55 08.06.2020
1876 Clouds 19 1018 93 8000 3.1 360 10:37 08.06.2020
1877 Rain 20 1018 82 8000 2.02 353 10:18 08.06.2020
1878 Rain 20 1018 82 8000 2.02 353 09:43 08.06.2020
1879 Rain 20 1018 82 8000 1.18 347 09:23 08.06.2020
1880 Clouds 20 1017 77 10000 3.1 220 08:49 08.06.2020
1881 Clouds 20 1017 77 10000 3.1 220 08:49 08.06.2020
1882 Clouds 20 1017 77 10000 3.1 220 08:23 08.06.2020
1883 Clouds 17 1017 93 10000 2.1 260 07:48 08.06.2020
1884 Clouds 17 1017 93 10000 2.1 260 07:48 08.06.2020
1885 Clouds 17 1017 93 10000 2.1 260 07:28 08.06.2020
1886 Clouds 17 1017 93 10000 1.5 250 06:58 08.06.2020
1887 Clouds 17 1017 93 10000 2.6 210 06:36 08.06.2020
1888 Clouds 17 1017 93 10000 2.6 240 05:54 08.06.2020
1889 Rain 17 1017 93 10000 2.1 220 04:36 08.06.2020
1890 Clouds 17 1018 93 10000 2.1 250 02:56 08.06.2020
1891 Clouds 17 1018 93 10000 2.1 230 02:25 08.06.2020
1892 Clouds 18 1018 88 10000 1.5 260 01:40 08.06.2020
1893 Clouds 19 1018 88 10000 2.1 320 00:41 08.06.2020
1894 Clouds 20 1018 82 10000 2.6 330 00:19 08.06.2020
1895 Clouds 20 1018 82 10000 3.6 330 23:38 07.06.2020
1896 Clouds 23 1017 77 10000 3.6 320 23:18 07.06.2020
1897 Clouds 23 1017 77 10000 3.6 320 22:55 07.06.2020
1898 Clouds 23 1016 64 10000 7.2 300 22:36 07.06.2020
1899 Clouds 23 1016 64 10000 7.2 300 22:18 07.06.2020
1900 Clouds 23 1016 64 10000 7.2 300 21:56 07.06.2020
1901 Clouds 23 1016 64 10000 7.2 300 21:36 07.06.2020
1902 Clouds 23 1016 64 10000 7.2 300 21:36 07.06.2020
1903 Clouds 23 1016 64 10000 7.2 300 21:36 07.06.2020
1904 Clouds 23 1016 69 10000 5.7 300 21:18 07.06.2020
1905 Clouds 23 1016 69 10000 5.7 300 20:39 07.06.2020
1906 Clouds 23 1016 69 10000 5.7 300 20:20 07.06.2020
1907 Clouds 24 1016 64 10000 7.2 300 19:56 07.06.2020
1908 Clouds 24 1016 61 10000 6.2 340 19:38 07.06.2020
1909 Clouds 25 1016 61 10000 6.2 340 19:19 07.06.2020
1910 Clouds 25 1016 61 10000 6.2 340 18:56 07.06.2020
1911 Clouds 25 1016 61 10000 6.2 340 18:37 07.06.2020
1912 Clouds 25 1016 57 10000 7.2 320 18:19 07.06.2020
1913 Clouds 25 1016 57 10000 7.2 320 17:55 07.06.2020
1914 Clouds 25 1016 61 10000 8.2 320 17:37 07.06.2020
1915 Clouds 25 1016 61 10000 8.2 320 17:19 07.06.2020
1916 Clouds 25 1018 61 0 7.6 340 16:42 07.06.2020
1917 Clouds 25 1017 61 10000 7.7 340 16:21 07.06.2020
1918 Clouds 25 1017 61 10000 6.2 320 15:40 07.06.2020
1919 Clouds 25 1017 61 10000 6.2 320 15:21 07.06.2020
1920 Clouds 25 1017 61 10000 6.2 320 14:40 07.06.2020
1921 Clouds 25 1017 61 10000 6.2 320 14:40 07.06.2020
1922 Clouds 25 1017 61 10000 6.2 320 14:22 07.06.2020
1923 Clouds 24 1017 64 10000 4.6 300 13:48 07.06.2020
1924 Clouds 24 1017 64 10000 4.6 300 13:21 07.06.2020
1925 Clouds 24 1017 60 10000 7.7 260 12:57 07.06.2020
1926 Clouds 24 1017 60 10000 7.7 260 12:39 07.06.2020
1927 Clouds 23 1016 69 10000 5.1 300 12:19 07.06.2020
1928 Clouds 23 1016 69 10000 5.1 300 11:55 07.06.2020
1929 Clouds 22 1016 69 10000 5.1 300 11:36 07.06.2020
1930 Clouds 22 1016 69 10000 5.1 300 11:18 07.06.2020
1931 Clouds 21 1016 68 10000 6.2 260 10:44 07.06.2020
1932 Clouds 21 1016 68 10000 6.2 260 10:20 07.06.2020
1933 Clouds 21 1015 77 10000 5.1 220 09:58 07.06.2020
1934 Clouds 21 1015 77 10000 5.1 220 09:39 07.06.2020
1935 Clouds 21 1015 77 10000 5.1 220 09:20 07.06.2020
1936 Clouds 21 1015 77 10000 5.1 220 09:20 07.06.2020
1937 Clouds 20 1015 82 10000 4.6 240 08:57 07.06.2020
1938 Clouds 19 1016 93 10000 3.1 230 08:39 07.06.2020
1939 Clouds 18 1016 93 10000 3.1 230 08:20 07.06.2020
1940 Clouds 18 1015 93 10000 2.6 230 07:33 07.06.2020
1941 Clouds 18 1015 93 10000 2.1 250 06:53 07.06.2020
1942 Rain 21 1015 93 10000 4.1 240 05:52 07.06.2020
1943 Clouds 22 1015 82 10000 5.1 230 04:21 07.06.2020
1944 Clouds 22 1015 88 10000 2.6 180 03:33 07.06.2020
1945 Clouds 22 1016 83 10000 4.6 250 02:18 07.06.2020
1946 Rain 22 1016 88 10000 3.1 280 01:25 07.06.2020
1947 Clouds 22 1016 77 10000 3.6 240 00:48 07.06.2020
1948 Clouds 22 1016 77 10000 3.6 240 00:20 07.06.2020
1949 Clouds 22 1015 73 10000 5.7 260 23:59 06.06.2020
1950 Clouds 22 1015 73 10000 5.7 260 23:38 06.06.2020
1951 Clouds 22 1015 73 10000 5.7 260 23:19 06.06.2020
1952 Clouds 22 1015 68 10000 7.2 260 22:56 06.06.2020
1953 Clouds 23 1013 73 10000 5.1 260 22:38 06.06.2020
1954 Clouds 23 1013 73 10000 5.1 260 22:19 06.06.2020
1955 Clouds 23 1013 73 10000 5.1 260 21:47 06.06.2020
1956 Clouds 23 1013 73 10000 5.1 260 21:22 06.06.2020
1957 Clouds 25 1012 65 10000 8.2 280 20:58 06.06.2020
1958 Clouds 25 1012 65 10000 8.2 280 20:40 06.06.2020
1959 Clouds 25 1012 65 10000 8.2 280 20:19 06.06.2020
1960 Clouds 25 1012 61 6000 9.8 280 19:57 06.06.2020
1961 Clouds 25 1012 61 6000 9.8 280 19:38 06.06.2020
1962 Clouds 25 1012 61 6000 9.8 280 19:20 06.06.2020
1963 Clouds 26 1012 57 5000 9.8 280 18:54 06.06.2020
1964 Clouds 27 1012 57 5000 11.8 280 18:36 06.06.2020
1965 Clouds 27 1012 45 10000 10.8 270 18:18 06.06.2020
1966 Clouds 30 1012 42 10000 7.2 270 17:41 06.06.2020
1967 Clouds 30 1012 42 10000 7.2 270 17:19 06.06.2020
1968 Clouds 29 1012 48 10000 8.7 250 16:55 06.06.2020
1969 Clouds 28 1012 48 6000 5.7 300 16:36 06.06.2020
1970 Clouds 28 1012 48 6000 5.7 300 16:18 06.06.2020
1971 Clouds 28 1012 48 6000 5.7 300 15:42 06.06.2020
1972 Clouds 28 1012 48 6000 5.7 300 15:20 06.06.2020
1973 Clouds 27 1012 51 6000 7.2 320 14:54 06.06.2020
1974 Clouds 27 1012 51 6000 7.2 320 14:36 06.06.2020
1975 Clouds 27 1012 51 6000 7.2 320 14:18 06.06.2020
1976 Clouds 28 1012 48 6000 5.1 300 13:41 06.06.2020
1977 Clouds 28 1012 48 10000 6.2 320 13:18 06.06.2020
1978 Clouds 28 1012 48 10000 6.2 320 12:43 06.06.2020
1979 Clouds 28 1012 48 10000 6.2 320 12:43 06.06.2020
1980 Clouds 28 1012 48 10000 6.2 320 12:43 06.06.2020
1981 Clouds 28 1012 48 10000 6.2 320 12:43 06.06.2020
1982 Clouds 28 1012 48 10000 6.2 320 12:43 06.06.2020
1983 Clouds 26 1012 48 10000 6.2 320 12:24 06.06.2020
1984 Clouds 26 1012 47 8000 2.6 260 11:59 06.06.2020
1985 Clouds 26 1012 47 8000 2.6 260 11:39 06.06.2020
1986 Clouds 26 1012 47 8000 2.6 260 11:20 06.06.2020
1987 Clouds 25 1012 60 6000 1.5 80 10:59 06.06.2020
1988 Clouds 24 1012 60 6000 1.5 80 10:40 06.06.2020
1989 Clouds 24 1012 60 6000 1.5 80 10:21 06.06.2020
1990 Clouds 22 1012 73 6000 1.5 60 09:58 06.06.2020
1991 Clouds 21 1012 73 6000 1.5 60 09:40 06.06.2020
1992 Clouds 21 1012 73 6000 1.5 60 09:21 06.06.2020
1993 Clouds 20 1012 77 6000 1 40 08:43 06.06.2020
1994 Clouds 20 1012 77 6000 1 40 08:23 06.06.2020
1995 Clouds 20 1013 72 10000 1.5 140 07:46 06.06.2020
1996 Clouds 20 1013 72 10000 1.5 140 07:23 06.06.2020
1997 Clouds 20 1013 72 10000 1.5 140 07:23 06.06.2020
1998 Clouds 20 1013 72 10000 2.1 170 06:50 06.06.2020
1999 Clouds 20 1013 72 10000 2.1 170 06:31 06.06.2020
2000 Clouds 21 1013 72 10000 2.1 170 05:58 06.06.2020
2001 Clouds 21 1014 77 10000 1.5 130 05:30 06.06.2020
2002 Clouds 21 1014 82 10000 1.5 130 04:46 06.06.2020
2003 Clouds 21 1016 82 10000 2.6 90 02:52 06.06.2020
2004 Clouds 21 1016 88 10000 2.6 90 01:57 06.06.2020
2005 Clouds 21 1017 88 10000 2.6 90 01:19 06.06.2020
2006 Clouds 21 1017 88 10000 3.1 80 00:46 06.06.2020
2007 Clouds 21 1017 88 10000 3.1 80 00:27 06.06.2020
2008 Clouds 21 1017 88 10000 3.1 60 23:58 05.06.2020
2009 Clouds 21 1016 77 10000 3.1 40 23:39 05.06.2020
2010 Clouds 21 1016 77 10000 3.1 40 23:18 05.06.2020
2011 Clouds 21 1016 77 10000 4.1 30 22:55 05.06.2020
2012 Clouds 22 1015 68 10000 5.7 20 22:37 05.06.2020
2013 Clouds 22 1015 68 10000 5.7 20 22:18 05.06.2020
2014 Clouds 22 1015 68 10000 5.7 20 22:18 05.06.2020
2015 Clouds 22 1015 68 10000 5.7 20 21:41 05.06.2020
2016 Clouds 22 1015 68 10000 5.7 20 21:22 05.06.2020
2017 Clouds 22 1014 68 10000 7.7 20 20:57 05.06.2020
2018 Clouds 22 1014 68 10000 7.7 20 20:38 05.06.2020
2019 Clear 22 1014 68 10000 7.7 20 20:20 05.06.2020
2020 Clear 25 1014 41 10000 6.2 360 19:42 05.06.2020
2021 Clear 24 1014 53 10000 7.7 20 19:23 05.06.2020
2022 Clear 25 1014 53 10000 7.7 20 18:56 05.06.2020
2023 Clear 25 1014 53 10000 7.7 20 18:38 05.06.2020
2024 Clear 25 1014 53 10000 7.7 20 18:19 05.06.2020
2025 Clear 26 1015 50 10000 5.1 40 17:57 05.06.2020
2026 Clear 26 1015 50 10000 5.1 40 17:38 05.06.2020
2027 Clear 26 1015 50 10000 5.1 40 17:18 05.06.2020
2028 Clear 26 1015 44 10000 3.6 10 16:39 05.06.2020
2029 Clear 26 1016 47 10000 6.2 340 16:20 05.06.2020
2030 Clear 26 1016 47 10000 6.2 340 15:43 05.06.2020
2031 Clear 26 1016 47 10000 6.2 340 15:23 05.06.2020
2032 Clear 25 1017 53 10000 3.6 320 14:59 05.06.2020
2033 Clear 24 1017 53 10000 3.6 320 14:40 05.06.2020
2034 Clear 24 1017 53 10000 3.6 320 14:22 05.06.2020
2035 Clear 24 1016 53 10000 5.1 360 13:58 05.06.2020
2036 Clear 24 1016 53 10000 5.1 360 13:58 05.06.2020
2037 Clear 24 1016 53 10000 5.1 360 13:38 05.06.2020
2038 Clear 24 1016 53 10000 5.1 360 13:19 05.06.2020
2039 Clouds 23 1016 56 10000 4.1 20 12:42 05.06.2020
2040 Clouds 23 1016 56 10000 4.1 20 12:20 05.06.2020
2041 Clouds 23 1016 64 10000 4.6 340 11:56 05.06.2020
2042 Clouds 23 1016 64 10000 4.6 340 11:37 05.06.2020
2043 Clouds 23 1016 64 10000 4.6 340 11:19 05.06.2020
2044 Clouds 21 1016 64 10000 3.1 60 10:42 05.06.2020
2045 Clouds 21 1016 64 10000 3.1 60 10:21 05.06.2020
2046 Clouds 20 1016 77 10000 1.5 100 09:58 05.06.2020
2047 Clouds 20 1016 77 10000 1.5 100 09:40 05.06.2020
2048 Clouds 19 1016 77 10000 1.5 100 09:21 05.06.2020
2049 Clouds 17 1015 88 10000 2.1 180 08:58 05.06.2020
2050 Clouds 17 1015 88 10000 2.1 180 08:40 05.06.2020
2051 Clouds 17 1015 88 10000 2.1 180 08:19 05.06.2020
2052 Clear 15 1016 100 10000 1.5 70 07:53 05.06.2020
2053 Clear 15 1016 100 10000 2.1 90 07:34 05.06.2020
2054 Clear 15 1016 100 10000 1.5 130 06:50 05.06.2020
2055 Clear 19 1016 93 10000 1 110 05:23 05.06.2020
2056 Clear 20 1016 93 10000 1.5 50 04:31 05.06.2020
2057 Clear 19 1017 93 10000 1 0 03:38 05.06.2020
2058 Clear 20 1017 88 10000 1.5 130 02:36 05.06.2020
2059 Clouds 20 1017 88 10000 1.5 130 02:18 05.06.2020
2060 Clouds 21 1017 82 10000 2.6 20 01:34 05.06.2020
2061 Clouds 21 1017 82 10000 2.1 20 00:55 05.06.2020
2062 Clouds 21 1018 82 10000 1.5 360 00:36 05.06.2020
2063 Clear 21 1017 82 10000 2.6 20 00:18 05.06.2020
2064 Clear 21 1017 82 10000 3.1 350 23:42 04.06.2020
2065 Clear 21 1017 82 10000 3.1 350 23:24 04.06.2020
2066 Clouds 21 1017 72 10000 4.1 330 22:42 04.06.2020
2067 Clouds 21 1015 64 10000 5.1 300 22:22 04.06.2020
2068 Clouds 21 1015 64 10000 5.1 300 21:58 04.06.2020
2069 Clouds 22 1016 64 10000 5.7 330 21:39 04.06.2020
2070 Clouds 22 1015 60 10000 5.1 300 21:20 04.06.2020
2071 Clouds 23 1015 60 10000 5.1 300 20:57 04.06.2020
2072 Clouds 23 1015 60 10000 5.1 300 20:39 04.06.2020
2073 Clouds 23 1015 60 10000 5.1 300 20:20 04.06.2020
2074 Clouds 23 1015 64 10000 6.2 320 19:55 04.06.2020
2075 Clouds 23 1015 64 10000 6.2 320 19:37 04.06.2020
2076 Clouds 24 1015 64 10000 6.2 340 19:19 04.06.2020
2077 Clouds 24 1015 64 10000 6.2 340 18:39 04.06.2020
2078 Clouds 24 1015 64 10000 6.2 340 18:20 04.06.2020
2079 Clouds 24 1015 61 10000 6.2 330 17:58 04.06.2020
2080 Clouds 25 1015 57 10000 5.7 310 17:40 04.06.2020
2081 Clouds 25 1015 57 10000 5.7 310 17:19 04.06.2020
2082 Clouds 25 1015 57 10000 5.7 300 16:41 04.06.2020
2083 Clouds 24 1015 64 10000 6.2 300 16:20 04.06.2020
2084 Clouds 24 1015 64 10000 6.2 300 15:46 04.06.2020
2085 Clouds 24 1015 64 10000 6.2 300 15:27 04.06.2020
2086 Clouds 24 1015 60 10000 6.2 300 14:56 04.06.2020
2087 Clouds 24 1015 60 10000 6.2 300 14:38 04.06.2020
2088 Clouds 24 1015 60 10000 6.2 300 14:19 04.06.2020
2089 Clouds 25 1015 57 10000 6.2 320 13:42 04.06.2020
2090 Clouds 25 1015 57 10000 6.2 320 13:21 04.06.2020
2091 Clouds 25 1014 50 10000 6.2 200 12:59 04.06.2020
2092 Clouds 25 1014 50 10000 6.2 200 12:41 04.06.2020
2093 Clouds 25 1014 50 10000 6.2 200 12:23 04.06.2020
2094 Clouds 23 1014 60 10000 4.1 220 11:58 04.06.2020
2095 Clouds 23 1014 60 10000 4.1 220 11:38 04.06.2020
2096 Clouds 23 1014 60 10000 4.1 220 11:20 04.06.2020
2097 Clear 22 1014 60 10000 3.1 240 10:56 04.06.2020
2098 Clear 22 1014 60 10000 3.1 240 10:37 04.06.2020
2099 Clear 21 1014 72 10000 5.1 220 10:18 04.06.2020
2100 Clear 20 1014 72 10000 5.1 220 09:42 04.06.2020
2101 Clear 20 1014 72 10000 5.1 220 09:23 04.06.2020
2102 Clear 18 1014 77 10000 5.1 200 08:44 04.06.2020
2103 Clear 18 1014 77 10000 5.1 200 08:26 04.06.2020
2104 Clear 16 1014 93 10000 2.6 180 07:47 04.06.2020
2105 Clear 16 1014 93 10000 2.6 180 07:27 04.06.2020
2106 Clear 17 1014 93 10000 2.1 240 06:44 04.06.2020
2107 Clear 17 1014 93 10000 2.1 240 06:25 04.06.2020
2108 Clear 17 1014 93 10000 2.1 240 05:35 04.06.2020
2109 Clear 17 1014 88 10000 1.5 200 04:33 04.06.2020
2110 Clear 18 1014 88 10000 1.5 230 03:24 04.06.2020
2111 Clear 21 1015 82 10000 2.6 350 01:56 04.06.2020
2112 Clear 21 1015 82 10000 2.6 350 01:56 04.06.2020
2113 Clear 21 1015 82 10000 2.6 350 01:19 04.06.2020
2114 Clear 21 1015 88 10000 2.1 350 00:40 04.06.2020
2115 Clear 21 1014 82 10000 3.1 350 23:44 03.06.2020
2116 Clear 21 1014 82 10000 3.1 350 23:21 03.06.2020
2117 Clear 22 1014 77 10000 3.6 360 22:59 03.06.2020
2118 Clear 22 1014 77 10000 3.6 360 22:39 03.06.2020
2119 Clear 22 1013 64 10000 5.1 360 22:18 03.06.2020
2120 Clear 23 1013 64 10000 5.1 360 21:57 03.06.2020
2121 Clear 23 1013 64 10000 5.1 360 21:38 03.06.2020
2122 Clear 23 1013 64 10000 5.1 360 21:20 03.06.2020
2123 Clear 23 1013 64 10000 5.1 360 20:54 03.06.2020
2124 Clear 23 1013 64 10000 5.1 360 20:36 03.06.2020
2125 Clear 23 1013 64 10000 5.1 360 20:36 03.06.2020
2126 Clear 23 1012 64 10000 6.2 360 20:18 03.06.2020
2127 Clear 23 1012 64 10000 6.2 360 19:54 03.06.2020
2128 Clear 23 1012 64 10000 6.2 360 19:36 03.06.2020
2129 Clear 24 1013 60 10000 7.2 40 19:18 03.06.2020
2130 Clear 24 1013 60 10000 7.2 40 18:41 03.06.2020
2131 Clear 24 1013 60 10000 7.2 40 18:21 03.06.2020
2132 Clear 24 1013 57 10000 6.2 360 17:55 03.06.2020
2133 Clear 24 1013 57 10000 6.2 360 17:37 03.06.2020
2134 Clear 24 1013 57 10000 6.2 360 17:18 03.06.2020
2135 Clear 25 1013 60 10000 8.2 360 16:41 03.06.2020
2136 Clear 25 1013 60 10000 8.2 360 16:20 03.06.2020
2137 Clear 25 1014 60 10000 7.2 20 15:57 03.06.2020
2138 Clear 25 1014 60 10000 7.2 20 15:57 03.06.2020
2139 Clear 25 1014 60 10000 7.2 20 15:38 03.06.2020
2140 Clear 25 1014 60 10000 7.2 20 15:20 03.06.2020
2141 Clouds 25 1014 60 10000 3.1 40 14:46 03.06.2020
2142 Clouds 25 1014 60 10000 3.1 40 14:24 03.06.2020
2143 Clear 25 1014 45 10000 2.1 0 13:55 03.06.2020
2144 Clouds 24 1014 64 10000 3.1 40 13:37 03.06.2020
2145 Clouds 24 1014 64 10000 3.1 40 13:18 03.06.2020
2146 Clouds 24 1014 64 10000 3.1 40 12:42 03.06.2020
2147 Clouds 24 1014 64 10000 3.1 40 12:21 03.06.2020
2148 Clear 22 1014 63 0 3.58 4 11:45 03.06.2020
2149 Clear 22 1014 61 0 3.58 24 11:26 03.06.2020
2150 Clear 22 1014 60 0 3.13 26 10:55 03.06.2020
2151 Clear 22 1014 61 0 3.13 21 10:37 03.06.2020
2152 Clear 21 1014 61 0 2.68 29 10:19 03.06.2020
2153 Clear 21 1014 61 0 1.34 39 09:41 03.06.2020
2154 Clear 21 1014 63 0 0.89 81 09:19 03.06.2020
2155 Clear 20 1014 67 0 0.89 90 08:47 03.06.2020
2156 Clouds 19 1014 70 0 0.45 123 08:22 03.06.2020
2157 Clouds 18 1014 71 0 0.45 127 07:58 03.06.2020
2158 Clouds 18 1014 71 0 1.61 78 07:37 03.06.2020
2159 Clouds 18 1013 71 0 1.5 51 07:18 03.06.2020
2160 Clouds 18 1013 71 0 1.5 51 06:45 03.06.2020
2161 Clouds 22 1015 64 0 5.81 20 06:22 03.06.2020
2162 Clouds 22 1015 64 0 5.81 20 05:45 03.06.2020
2163 Clouds 22 1015 64 0 5.81 20 04:26 03.06.2020
2164 Clouds 22 1015 64 0 5.81 20 03:42 03.06.2020
2165 Clouds 21 1016 88 10000 3.1 40 02:42 03.06.2020
2166 Clear 21 1016 88 10000 3.1 40 01:46 03.06.2020
2167 Clear 21 1016 82 10000 3.6 40 00:39 03.06.2020
2168 Clear 21 1016 82 10000 3.6 40 00:21 03.06.2020
2169 Clear 21 1016 77 10000 3.6 30 23:46 02.06.2020
2170 Clear 21 1016 77 10000 3.6 30 23:27 02.06.2020
2171 Clear 21 1016 73 10000 4.1 20 22:55 02.06.2020
2172 Clear 22 1015 64 10000 6.2 20 22:36 02.06.2020
2173 Clear 22 1015 64 10000 6.2 20 22:18 02.06.2020
2174 Clear 22 1015 64 10000 6.2 20 21:54 02.06.2020
2175 Clear 22 1015 64 10000 6.2 20 21:36 02.06.2020
2176 Clear 22 1015 64 10000 6.2 20 21:18 02.06.2020
2177 Clear 23 1014 60 10000 7.2 60 20:42 02.06.2020
2178 Clouds 23 1014 60 10000 7.2 60 20:23 02.06.2020
2179 Clouds 23 1014 60 10000 7.2 60 20:23 02.06.2020
2180 Clouds 23 1014 56 10000 7.2 20 19:58 02.06.2020
2181 Clouds 24 1014 53 10000 5.7 360 19:39 02.06.2020
2182 Clouds 24 1014 57 10000 8.2 340 19:21 02.06.2020
2183 Clouds 24 1014 57 10000 8.2 340 18:55 02.06.2020
2184 Clouds 24 1014 57 10000 8.2 340 18:37 02.06.2020
2185 Clouds 24 1014 57 10000 8.2 360 18:18 02.06.2020
2186 Clouds 25 1014 57 10000 8.2 360 17:41 02.06.2020
2187 Clouds 25 1014 57 10000 8.2 360 17:23 02.06.2020
2188 Clouds 25 1015 57 10000 7.7 20 16:57 02.06.2020
2189 Clouds 25 1015 57 10000 7.7 20 16:38 02.06.2020
2190 Clouds 25 1015 57 10000 7.7 20 16:20 02.06.2020
2191 Clouds 26 1015 50 10000 7.2 360 15:44 02.06.2020
2192 Clouds 26 1015 50 10000 7.2 360 15:24 02.06.2020
2193 Clouds 25 1015 60 10000 4.6 360 14:50 02.06.2020
2194 Clouds 25 1015 60 10000 4.6 360 14:31 02.06.2020
2195 Clouds 25 1016 64 10000 6.2 20 13:58 02.06.2020
2196 Clouds 24 1016 64 10000 6.2 20 13:39 02.06.2020
2197 Clouds 24 1016 64 10000 6.2 20 13:19 02.06.2020
2198 Clouds 24 1016 64 10000 5.7 360 12:58 02.06.2020
2199 Clouds 23 1016 64 10000 5.7 360 12:40 02.06.2020
2200 Clouds 23 1016 64 10000 5.7 360 12:20 02.06.2020
2201 Clouds 23 1016 64 10000 5.7 360 12:20 02.06.2020
2202 Clouds 24 1016 53 10000 2.1 40 11:56 02.06.2020
2203 Clouds 24 1016 53 10000 2.1 40 11:38 02.06.2020
2204 Clouds 24 1016 53 10000 2.1 40 11:20 02.06.2020
2205 Clouds 24 1016 53 10000 2.1 40 11:20 02.06.2020
2206 Clouds 22 1016 68 10000 2.6 140 10:47 02.06.2020
2207 Clouds 22 1016 68 10000 2.6 140 10:28 02.06.2020
2208 Clouds 20 1015 77 10000 1.5 180 09:56 02.06.2020
2209 Clouds 20 1015 77 10000 1.5 180 09:56 02.06.2020
2210 Clouds 20 1015 77 10000 1.5 180 09:37 02.06.2020
2211 Clouds 19 1015 77 10000 1.5 180 09:19 02.06.2020
2212 Clouds 17 1015 88 10000 1.5 180 08:47 02.06.2020
2213 Clouds 16 1015 88 10000 1.5 180 08:20 02.06.2020
2214 Clouds 15 1015 93 8000 1.5 150 07:46 02.06.2020
2215 Clouds 15 1015 93 8000 1.5 150 07:46 02.06.2020
2216 Clouds 15 1015 93 8000 1.5 150 07:25 02.06.2020
2217 Clouds 16 1015 87 8000 1 170 06:43 02.06.2020
2218 Clear 16 1015 87 10000 1 170 05:57 02.06.2020
2219 Clear 16 1015 87 10000 1 170 05:19 02.06.2020
2220 Clear 18 1015 82 10000 0.5 0 03:22 02.06.2020
2221 Clear 19 1016 82 10000 1.5 50 02:26 02.06.2020
2222 Clear 22 1016 72 10000 1.5 50 01:22 02.06.2020
2223 Clear 22 1016 72 10000 2.1 30 00:25 02.06.2020
2224 Clear 22 1016 72 10000 2.6 30 23:56 01.06.2020
2225 Clear 22 1016 72 10000 3.1 20 23:37 01.06.2020
2226 Clear 22 1016 72 10000 3.1 20 23:18 01.06.2020
2227 Clear 22 1015 64 10000 3.6 350 22:41 01.06.2020
2228 Clear 22 1014 56 10000 4.1 20 22:21 01.06.2020
2229 Clear 22 1014 56 10000 4.1 20 21:58 01.06.2020
2230 Clear 23 1014 56 10000 4.1 20 21:40 01.06.2020
2231 Clear 23 1014 56 10000 4.1 20 21:19 01.06.2020
2232 Clear 23 1014 56 10000 5.7 360 20:56 01.06.2020
2233 Clear 23 1014 56 10000 5.7 360 20:38 01.06.2020
2234 Clear 23 1014 56 10000 5.7 360 20:19 01.06.2020
2235 Clear 23 1014 56 10000 6.7 20 19:43 01.06.2020
2236 Clear 23 1014 56 10000 6.7 20 19:21 01.06.2020
2237 Clear 24 1014 53 10000 6.7 20 18:59 01.06.2020
2238 Clear 24 1014 53 10000 6.7 20 18:39 01.06.2020
2239 Clear 24 1014 53 10000 6.7 20 18:20 01.06.2020
2240 Clear 24 1014 60 10000 7.7 360 17:58 01.06.2020
2241 Clear 24 1014 60 10000 7.7 360 17:40 01.06.2020
2242 Clear 24 1014 60 10000 7.7 360 17:19 01.06.2020
2243 Clouds 25 1014 60 10000 7.7 340 16:42 01.06.2020
2244 Clouds 25 1014 60 10000 7.7 340 16:22 01.06.2020
2245 Clouds 25 1014 60 10000 6.2 320 15:57 01.06.2020
2246 Clouds 25 1014 60 10000 6.2 320 15:39 01.06.2020
2247 Clouds 25 1014 60 10000 6.2 320 15:20 01.06.2020
2248 Clouds 26 1014 57 10000 5.1 320 14:57 01.06.2020
2249 Clouds 25 1014 57 10000 5.1 320 14:39 01.06.2020
2250 Clouds 25 1014 57 10000 5.1 320 14:21 01.06.2020
2251 Clouds 24 1014 64 10000 3.6 360 13:54 01.06.2020
2252 Clouds 24 1014 64 10000 3.6 360 13:36 01.06.2020
2253 Clouds 24 1014 64 10000 3.6 360 13:18 01.06.2020
2254 Clouds 23 1014 64 10000 1.5 220 12:54 01.06.2020
2255 Clouds 23 1015 60 10000 1.5 220 12:36 01.06.2020
2256 Clouds 23 1015 60 10000 1.5 220 12:18 01.06.2020
2257 Clouds 23 1015 60 10000 1.5 220 11:38 01.06.2020
2258 Clouds 23 1015 60 10000 1.5 220 11:19 01.06.2020
2259 Clouds 21 1014 68 10000 3.1 200 10:57 01.06.2020
2260 Clouds 21 1014 68 10000 3.1 200 10:37 01.06.2020
2261 Clouds 21 1014 68 10000 3.1 200 10:18 01.06.2020
2262 Clouds 20 1014 77 8000 4.1 200 09:46 01.06.2020
2263 Clouds 20 1014 77 8000 4.1 200 09:27 01.06.2020
2264 Clouds 20 1014 77 10000 3.1 200 08:59 01.06.2020
2265 Clouds 20 1014 77 10000 3.1 200 08:40 01.06.2020
2266 Clouds 20 1014 77 10000 3.1 200 08:22 01.06.2020
2267 Clouds 18 1014 93 10000 2.6 200 07:42 01.06.2020
2268 Clouds 18 1014 93 10000 2.1 190 07:24 01.06.2020
2269 Clouds 16 1014 100 10000 2.6 210 06:51 01.06.2020
2270 Clouds 17 1014 93 10000 2.1 220 05:58 01.06.2020
2271 Clouds 17 1014 93 10000 2.1 220 05:22 01.06.2020
2272 Clouds 17 1014 93 10000 2.1 220 04:18 01.06.2020
2273 Clouds 17 1014 93 10000 2.6 210 03:42 01.06.2020
2274 Clear 18 1014 88 10000 1.5 250 02:59 01.06.2020
2275 Clear 19 1014 88 10000 1.5 280 01:47 01.06.2020
2276 Clear 19 1014 88 10000 1.5 280 01:26 01.06.2020
2277 Clear 19 1014 88 10000 1.5 310 00:56 01.06.2020
2278 Clear 20 1014 82 10000 2.1 330 00:38 01.06.2020
2279 Clouds 20 1014 82 10000 2.1 330 00:19 01.06.2020
2280 Clouds 20 1014 77 10000 2.1 320 23:42 31.05.2020
2281 Clouds 20 1014 77 10000 2.6 320 23:23 31.05.2020
2282 Clouds 21 1014 73 10000 3.1 310 22:59 31.05.2020
2283 Clouds 21 1014 73 10000 3.1 310 22:41 31.05.2020
2284 Clouds 22 1012 68 10000 5.1 300 22:22 31.05.2020
2285 Clouds 22 1012 68 10000 5.1 300 21:57 31.05.2020
2286 Clouds 23 1012 68 10000 5.1 300 21:39 31.05.2020
2287 Clouds 23 1012 68 10000 5.1 300 21:21 31.05.2020
2288 Clouds 24 1011 69 10000 6.7 300 20:47 31.05.2020
2289 Clouds 24 1011 69 10000 6.7 300 20:25 31.05.2020
2290 Clouds 25 1011 57 10000 7.2 320 19:57 31.05.2020
2291 Clouds 24 1011 64 10000 6.2 300 19:38 31.05.2020
2292 Clouds 24 1011 64 10000 6.2 300 19:20 31.05.2020
2293 Clouds 25 1011 64 10000 6.2 300 18:58 31.05.2020
2294 Clouds 25 1011 64 10000 6.2 300 18:39 31.05.2020
2295 Clouds 25 1011 64 10000 6.2 300 18:21 31.05.2020
2296 Clouds 25 1011 64 10000 6.2 300 18:21 31.05.2020
2297 Clouds 26 1011 57 10000 8.7 280 17:42 31.05.2020
2298 Clouds 26 1011 57 10000 8.7 280 17:24 31.05.2020
2299 Clouds 26 1011 57 10000 8.2 280 16:42 31.05.2020
2300 Clouds 26 1011 57 10000 8.2 280 16:22 31.05.2020
2301 Clouds 26 1011 53 10000 9.3 280 15:57 31.05.2020
2302 Clouds 26 1011 53 10000 9.3 280 15:57 31.05.2020
2303 Clouds 26 1011 53 10000 9.3 280 15:37 31.05.2020
2304 Clouds 26 1011 53 10000 9.3 280 15:19 31.05.2020
2305 Clouds 26 1011 54 10000 8.2 300 14:44 31.05.2020
2306 Clouds 26 1011 54 10000 8.2 300 14:19 31.05.2020
2307 Clouds 26 1011 47 10000 6.7 240 13:56 31.05.2020
2308 Clouds 26 1011 47 10000 6.7 240 13:37 31.05.2020
2309 Clouds 26 1011 47 10000 6.7 240 13:19 31.05.2020
2310 Clouds 24 1011 53 10000 5.7 220 12:54 31.05.2020
2311 Clouds 24 1011 53 10000 5.7 220 12:36 31.05.2020
2312 Clouds 24 1011 53 10000 5.7 220 12:18 31.05.2020
2313 Clouds 23 1012 60 10000 6.7 220 11:42 31.05.2020
2314 Clouds 23 1012 60 10000 6.7 220 11:21 31.05.2020
2315 Clouds 22 1011 64 10000 5.7 200 10:46 31.05.2020
2316 Clouds 22 1011 64 10000 5.7 200 10:28 31.05.2020
2317 Clouds 20 1011 77 8000 5.7 200 09:59 31.05.2020
2318 Clouds 20 1011 77 8000 5.7 200 09:41 31.05.2020
2319 Clouds 20 1011 77 8000 5.7 200 09:21 31.05.2020
2320 Clouds 20 1010 77 6000 5.1 200 08:43 31.05.2020
2321 Clouds 19 1010 77 6000 5.1 200 08:24 31.05.2020
2322 Clouds 18 1011 88 10000 3.1 210 07:52 31.05.2020
2323 Clouds 18 1011 88 10000 3.6 200 07:22 31.05.2020
2324 Clouds 18 1011 88 10000 3.6 200 07:22 31.05.2020
2325 Clouds 18 1011 88 10000 3.1 220 06:58 31.05.2020
2326 Clouds 18 1010 88 10000 3.1 220 06:36 31.05.2020
2327 Clouds 18 1010 88 10000 2.6 240 05:56 31.05.2020
2328 Clouds 19 1010 82 10000 4.6 250 05:37 31.05.2020
2329 Clouds 19 1010 82 10000 2.1 240 04:20 31.05.2020
2330 Clouds 19 1010 82 10000 2.1 230 03:45 31.05.2020
2331 Clouds 19 1010 82 8000 1.5 230 02:50 31.05.2020
2332 Clouds 20 1011 77 10000 2.6 260 01:46 31.05.2020
2333 Clouds 20 1011 77 10000 3.1 260 00:46 31.05.2020
2334 Clouds 20 1011 77 10000 3.1 270 00:28 31.05.2020
2335 Clouds 21 1011 73 10000 3.1 280 23:43 30.05.2020
2336 Clouds 21 1011 73 10000 3.1 270 23:25 30.05.2020
2337 Clouds 21 1011 73 10000 3.1 280 22:58 30.05.2020
2338 Clouds 22 1010 68 10000 3.6 280 22:40 30.05.2020
2339 Clouds 21 1009 73 6000 5.7 280 22:21 30.05.2020
2340 Clouds 21 1009 73 6000 5.7 280 21:55 30.05.2020
2341 Clouds 22 1009 73 6000 5.7 280 21:36 30.05.2020
2342 Clouds 22 1009 73 6000 5.7 280 21:18 30.05.2020
2343 Clouds 22 1009 68 6000 4.6 260 20:54 30.05.2020
2344 Clouds 23 1009 68 6000 4.6 260 20:36 30.05.2020
2345 Clouds 23 1009 68 6000 4.6 260 20:18 30.05.2020
2346 Clouds 23 1009 64 6000 5.1 280 19:41 30.05.2020
2347 Clouds 23 1009 64 6000 5.1 280 19:21 30.05.2020
2348 Clouds 23 1009 64 6000 5.1 280 19:21 30.05.2020
2349 Clouds 23 1009 64 6000 6.2 320 18:44 30.05.2020
2350 Clouds 23 1009 64 6000 6.2 320 18:21 30.05.2020
2351 Clouds 24 1025 64 6000 7.7 280 17:46 30.05.2020
2352 Clouds 24 1025 64 6000 7.7 280 17:26 30.05.2020
2353 Clouds 24 1009 64 6000 6.2 320 16:59 30.05.2020
2354 Clouds 24 1009 64 6000 6.2 320 16:41 30.05.2020
2355 Clouds 24 1009 64 6000 6.2 320 16:21 30.05.2020
2356 Clouds 24 1009 64 6000 7.2 320 15:45 30.05.2020
2357 Clouds 24 1009 64 6000 7.2 320 15:26 30.05.2020
2358 Clouds 25 1010 64 6000 5.7 300 14:46 30.05.2020
2359 Clouds 25 1010 64 6000 5.7 300 14:27 30.05.2020
2360 Clouds 25 1010 64 6000 4.6 320 13:44 30.05.2020
2361 Clouds 24 1010 64 6000 4.6 320 13:26 30.05.2020
2362 Clouds 24 1009 64 5000 4.1 320 12:43 30.05.2020
2363 Clouds 23 1010 73 5000 1.5 240 12:23 30.05.2020
2364 Clouds 22 1010 73 5000 1.5 240 11:59 30.05.2020
2365 Clouds 22 1010 73 5000 1.5 240 11:41 30.05.2020
2366 Clouds 22 1010 73 5000 1.5 240 11:22 30.05.2020
2367 Clouds 21 1010 68 5000 4.1 320 10:55 30.05.2020
2368 Clouds 19 1010 88 10000 1 0 10:37 30.05.2020
2369 Clouds 19 1010 88 10000 1 0 10:19 30.05.2020
2370 Clouds 19 1010 93 10000 1.5 360 09:42 30.05.2020
2371 Clouds 19 1010 82 5000 3.1 240 09:24 30.05.2020
2372 Clouds 19 1010 82 5000 3.1 240 08:41 30.05.2020
2373 Clouds 18 1010 82 5000 3.1 240 08:21 30.05.2020
2374 Clouds 15 1010 100 10000 2.1 260 07:39 30.05.2020
2375 Clouds 15 1010 100 10000 2.1 260 07:18 30.05.2020
2376 Clouds 20 1010 93 10000 1 330 06:28 30.05.2020
2377 Clouds 20 1010 93 10000 1 330 05:49 30.05.2020
2378 Clouds 20 1011 93 10000 1 140 04:37 30.05.2020
2379 Clouds 20 1012 93 10000 1.5 80 02:41 30.05.2020
2380 Clouds 20 1012 93 10000 1 80 02:19 30.05.2020
2381 Clouds 21 1013 88 10000 1.5 320 00:45 30.05.2020
2382 Clouds 21 1013 88 10000 1.5 320 00:24 30.05.2020
2383 Clouds 21 1012 82 10000 2.1 320 23:59 29.05.2020
2384 Clouds 21 1012 82 10000 2.1 320 23:38 29.05.2020
2385 Clear 21 1012 82 10000 2.1 320 23:19 29.05.2020
2386 Clear 21 1012 82 10000 3.6 340 22:54 29.05.2020
2387 Clouds 21 1010 68 10000 5.1 320 22:36 29.05.2020
2388 Clouds 21 1010 68 10000 5.1 320 22:18 29.05.2020
2389 Clouds 21 1010 68 10000 5.1 320 22:18 29.05.2020
2390 Clear 22 1011 69 10000 4.6 330 21:39 29.05.2020
2391 Clouds 23 1010 64 10000 5.1 320 21:21 29.05.2020
2392 Clouds 23 1010 64 10000 5.1 320 20:57 29.05.2020
2393 Clouds 23 1010 64 10000 5.1 320 20:38 29.05.2020
2394 Clouds 23 1010 64 10000 5.1 320 20:19 29.05.2020
2395 Clouds 23 1010 64 10000 6.2 320 19:43 29.05.2020
2396 Clouds 23 1010 64 10000 6.2 320 19:24 29.05.2020
2397 Clouds 24 1011 60 10000 6.2 320 18:48 29.05.2020
2398 Clouds 25 1011 60 10000 6.2 320 18:23 29.05.2020
2399 Clouds 24 1011 64 10000 5.1 320 17:59 29.05.2020
2400 Clouds 25 1011 64 10000 5.1 320 17:39 29.05.2020
2401 Clouds 25 1011 64 10000 5.1 320 17:20 29.05.2020
2402 Clouds 25 1012 60 10000 3.1 300 16:47 29.05.2020
2403 Clouds 25 1012 60 10000 3.1 300 16:29 29.05.2020
2404 Clouds 25 1012 60 10000 4.1 300 15:59 29.05.2020
2405 Clouds 25 1012 60 10000 4.1 300 15:41 29.05.2020
2406 Clouds 25 1012 60 10000 4.1 300 15:21 29.05.2020
2407 Clouds 25 1012 60 10000 5.1 300 14:57 29.05.2020
2408 Clouds 25 1012 60 10000 5.1 300 14:38 29.05.2020
2409 Clouds 25 1012 60 10000 5.1 300 14:19 29.05.2020
2410 Clouds 25 1012 64 10000 6.2 320 13:41 29.05.2020
2411 Clouds 24 1012 64 10000 6.2 320 13:21 29.05.2020
2412 Clouds 23 1013 64 10000 4.1 300 12:55 29.05.2020
2413 Clouds 23 1013 64 10000 4.1 300 12:37 29.05.2020
2414 Clouds 23 1013 64 10000 4.1 300 12:18 29.05.2020
2415 Clouds 22 1013 60 10000 2.1 220 11:42 29.05.2020
2416 Clouds 22 1013 60 10000 2.1 220 11:42 29.05.2020
2417 Clouds 22 1013 60 10000 2.1 220 11:24 29.05.2020
2418 Clouds 21 1013 68 10000 4.1 240 10:43 29.05.2020
2419 Clouds 20 1013 68 10000 4.1 240 10:24 29.05.2020
2420 Clouds 20 1014 72 10000 4.1 200 09:58 29.05.2020
2421 Clouds 20 1014 72 10000 4.1 200 09:40 29.05.2020
2422 Clouds 19 1014 72 10000 4.1 200 09:19 29.05.2020
2423 Clouds 18 1014 88 10000 2.6 260 08:47 29.05.2020
2424 Clouds 18 1014 88 10000 2.1 230 08:23 29.05.2020
2425 Clouds 18 1014 93 10000 2.1 260 07:48 29.05.2020
2426 Clouds 18 1014 93 10000 2.1 250 07:29 29.05.2020
2427 Clouds 18 1014 93 10000 2.1 300 06:55 29.05.2020
2428 Clouds 18 1014 93 10000 1.5 300 06:37 29.05.2020
2429 Clouds 19 1014 93 10000 1.5 300 06:18 29.05.2020
2430 Clouds 19 1014 93 10000 1 270 05:37 29.05.2020
2431 Clouds 20 1015 88 10000 1.5 330 01:53 29.05.2020
2432 Clouds 20 1015 93 10000 1.5 330 01:27 29.05.2020
2433 Clouds 20 1015 88 10000 2.1 330 00:51 29.05.2020
2434 Clouds 20 1016 88 10000 2.6 320 00:29 29.05.2020
2435 Clouds 20 1016 88 10000 2.1 310 23:56 28.05.2020
2436 Clouds 20 1015 88 10000 2.6 310 23:38 28.05.2020
2437 Clouds 20 1015 88 10000 2.6 310 23:18 28.05.2020
2438 Clouds 20 1015 82 10000 3.1 320 22:41 28.05.2020
2439 Clouds 21 1014 73 10000 4.1 340 22:21 28.05.2020
2440 Clouds 21 1014 73 10000 4.1 340 21:55 28.05.2020
2441 Clouds 21 1014 73 10000 4.1 340 21:37 28.05.2020
2442 Clouds 21 1014 73 10000 4.1 340 21:18 28.05.2020
2443 Clouds 21 1014 73 10000 4.1 240 20:55 28.05.2020
2444 Clouds 21 1014 73 10000 4.1 240 20:55 28.05.2020
2445 Clouds 21 1014 73 10000 4.1 240 20:36 28.05.2020
2446 Clouds 21 1014 73 10000 4.1 240 20:18 28.05.2020
2447 Clouds 22 1014 73 10000 5.1 320 19:43 28.05.2020
2448 Clouds 22 1014 73 10000 5.1 320 19:20 28.05.2020
2449 Clouds 23 1014 73 10000 5.1 320 18:57 28.05.2020
2450 Clouds 23 1014 73 10000 5.1 320 18:39 28.05.2020
2451 Clouds 23 1014 73 10000 5.1 320 18:20 28.05.2020
2452 Clear 25 1014 69 10000 5.1 320 17:40 28.05.2020
2453 Clear 25 1014 69 10000 5.1 320 17:22 28.05.2020
2454 Clear 25 1014 64 10000 5.1 320 16:55 28.05.2020
2455 Clear 25 1014 64 10000 5.1 320 16:36 28.05.2020
2456 Clouds 26 1014 64 10000 5.1 320 16:18 28.05.2020
2457 Clouds 27 1014 64 10000 5.1 300 15:40 28.05.2020
2458 Clouds 27 1014 64 10000 5.1 300 15:22 28.05.2020
2459 Clouds 27 1015 64 10000 6.2 300 14:43 28.05.2020
2460 Clouds 26 1015 64 10000 6.2 300 14:23 28.05.2020
2461 Clouds 26 1015 64 10000 5.1 280 13:48 28.05.2020
2462 Clouds 25 1015 64 10000 4.1 280 13:30 28.05.2020
2463 Clouds 24 1015 64 10000 4.1 280 12:59 28.05.2020
2464 Clouds 24 1015 64 10000 4.1 280 12:38 28.05.2020
2465 Clouds 24 1015 64 10000 4.1 280 12:18 28.05.2020
2466 Clouds 22 1015 68 10000 2.1 200 11:41 28.05.2020
2467 Clouds 22 1015 68 10000 2.1 200 11:23 28.05.2020
2468 Clouds 21 1015 73 10000 2.1 240 10:56 28.05.2020
2469 Clouds 20 1015 73 10000 2.1 240 10:37 28.05.2020
2470 Clouds 20 1015 73 10000 2.1 240 10:18 28.05.2020
2471 Clouds 20 1015 77 10000 2.1 180 09:39 28.05.2020
2472 Clouds 19 1015 77 10000 2.1 180 09:19 28.05.2020
2473 Clouds 18 1016 100 8000 1 0 08:45 28.05.2020
2474 Clouds 18 1015 100 6000 1.5 160 08:26 28.05.2020
2475 Mist 18 1015 100 4000 0.5 0 07:45 28.05.2020
2476 Mist 17 1015 100 3000 2.1 360 07:25 28.05.2020
2477 Mist 17 1015 100 3000 2.1 330 06:56 28.05.2020
2478 Mist 17 1015 100 3000 1 0 06:37 28.05.2020
2479 Clouds 19 1015 100 5000 1.5 310 05:40 28.05.2020
2480 Clouds 19 1015 100 6000 2.1 350 04:54 28.05.2020
2481 Clouds 19 1015 100 8000 1 300 04:27 28.05.2020
2482 Clouds 20 1015 93 10000 2.6 320 03:45 28.05.2020
2483 Clouds 20 1016 93 10000 1.5 290 02:45 28.05.2020
2484 Clouds 20 1016 93 10000 2.1 320 01:50 28.05.2020
2485 Clouds 20 1017 93 10000 1.5 290 00:54 28.05.2020
2486 Clouds 20 1017 88 10000 1.5 290 00:24 28.05.2020
2487 Clouds 20 1017 88 10000 1.5 330 23:57 27.05.2020
2488 Clouds 20 1016 88 10000 2.1 330 23:39 27.05.2020
2489 Clouds 20 1016 88 10000 2.1 330 23:20 27.05.2020
2490 Clouds 21 1016 83 10000 2.6 320 22:56 27.05.2020
2491 Clouds 21 1015 77 10000 2.1 320 22:38 27.05.2020
2492 Clouds 21 1015 77 10000 2.1 320 22:19 27.05.2020
2493 Clouds 22 1015 77 10000 2.1 320 21:41 27.05.2020
2494 Clouds 22 1015 77 10000 2.1 320 21:22 27.05.2020
2495 Clouds 22 1015 77 10000 3.1 340 20:58 27.05.2020
2496 Clouds 23 1015 77 10000 3.1 340 20:40 27.05.2020
2497 Clouds 23 1015 77 10000 3.1 340 20:21 27.05.2020
2498 Clear 25 1014 69 10000 5.1 320 19:55 27.05.2020
2499 Clear 26 1015 69 10000 4.1 320 19:37 27.05.2020
2500 Clear 26 1015 69 10000 4.1 320 19:18 27.05.2020
2501 Clear 26 1015 69 10000 4.1 320 18:39 27.05.2020
2502 Clear 26 1015 69 10000 4.1 320 18:19 27.05.2020
2503 Clear 26 1015 65 10000 4.1 320 17:45 27.05.2020
2504 Clear 26 1015 65 10000 4.1 320 17:26 27.05.2020
2505 Clear 27 1015 65 10000 4.1 320 16:57 27.05.2020
2506 Clear 27 1015 65 10000 4.1 320 16:38 27.05.2020
2507 Clear 27 1015 65 10000 4.1 320 16:20 27.05.2020
2508 Clear 27 1015 65 10000 4.1 320 16:20 27.05.2020
2509 Clear 27 1015 69 10000 5.1 320 15:59 27.05.2020
2510 Clear 27 1015 69 10000 5.1 320 15:37 27.05.2020
2511 Clear 27 1015 69 10000 5.1 320 15:18 27.05.2020
2512 Clear 27 1015 69 10000 4.1 320 14:42 27.05.2020
2513 Clear 27 1015 69 10000 6.2 360 14:20 27.05.2020
2514 Clear 27 1015 69 10000 6.2 360 13:44 27.05.2020
2515 Clear 25 1015 69 10000 6.2 360 13:25 27.05.2020
2516 Clouds 24 1016 69 8000 3.1 240 12:57 27.05.2020
2517 Clouds 23 1016 69 8000 3.1 240 12:39 27.05.2020
2518 Clouds 23 1016 69 8000 3.1 240 12:21 27.05.2020
2519 Clouds 21 1016 77 8000 2.1 220 11:39 27.05.2020
2520 Clouds 21 1016 77 8000 2.1 220 11:21 27.05.2020
2521 Clouds 20 1016 82 8000 2.1 260 10:56 27.05.2020
2522 Clouds 20 1016 82 8000 2.1 260 10:38 27.05.2020
2523 Clouds 19 1016 82 8000 2.1 260 10:19 27.05.2020
2524 Mist 18 1016 100 2500 2.1 360 09:40 27.05.2020
2525 Clouds 18 1015 93 8000 2.1 300 09:21 27.05.2020
2526 Fog 17 1016 100 550 2.6 360 08:55 27.05.2020
2527 Fog 17 1016 100 550 2.6 350 08:36 27.05.2020
2528 Fog 17 1016 100 550 2.6 350 08:18 27.05.2020
2529 Fog 16 1015 100 800 2.1 340 07:41 27.05.2020
2530 Clear 17 1015 100 10000 1 0 07:23 27.05.2020
2531 Clear 17 1015 93 10000 2.1 330 06:45 27.05.2020
2532 Clear 19 1015 93 10000 2.1 330 06:20 27.05.2020
2533 Clouds 19 1015 93 10000 1 230 05:48 27.05.2020
2534 Clear 19 1016 93 10000 1.5 240 04:38 27.05.2020
2535 Clear 20 1017 100 10000 2.1 230 02:32 27.05.2020
2536 Clear 20 1017 93 10000 1.5 250 01:53 27.05.2020
2537 Clear 20 1017 93 10000 1.5 280 01:29 27.05.2020
2538 Clear 20 1018 88 10000 1.5 270 00:46 27.05.2020
2539 Clear 20 1018 88 10000 1.5 270 00:20 27.05.2020
2540 Clear 20 1017 88 10000 1 0 23:54 26.05.2020
2541 Clear 20 1017 88 10000 1 0 23:36 26.05.2020
2542 Clear 20 1017 88 10000 1 0 23:18 26.05.2020
2543 Clear 20 1017 88 10000 1 0 23:18 26.05.2020
2544 Clear 20 1017 88 10000 1 0 23:18 26.05.2020
2545 Clear 21 1016 88 10000 3.1 320 22:40 26.05.2020
2546 Clouds 21 1015 83 10000 4.1 300 22:21 26.05.2020
2547 Clouds 22 1015 83 10000 4.1 300 21:58 26.05.2020
2548 Clouds 22 1015 83 10000 4.1 300 21:40 26.05.2020
2549 Clouds 22 1015 83 10000 4.1 300 21:21 26.05.2020
2550 Clouds 24 1015 78 10000 4.1 300 20:55 26.05.2020
2551 Clouds 24 1015 78 10000 4.1 300 20:37 26.05.2020
2552 Clouds 24 1015 78 10000 4.1 300 20:18 26.05.2020
2553 Clouds 25 1015 73 10000 5.1 300 19:39 26.05.2020
2554 Clouds 25 1015 73 10000 5.1 300 19:20 26.05.2020
2555 Clouds 26 1015 69 10000 7.2 300 18:43 26.05.2020
2556 Clouds 26 1015 69 10000 7.2 300 18:24 26.05.2020
2557 Clouds 28 1015 69 10000 6.2 300 17:59 26.05.2020
2558 Clouds 28 1015 69 10000 6.2 300 17:38 26.05.2020
2559 Clouds 28 1015 69 10000 6.2 300 17:20 26.05.2020
2560 Clouds 27 1015 65 10000 7.2 280 16:45 26.05.2020
2561 Clouds 28 1016 69 10000 5.1 300 16:20 26.05.2020
2562 Clouds 28 1016 69 10000 5.1 300 15:55 26.05.2020
2563 Clouds 28 1016 69 10000 5.1 300 15:37 26.05.2020
2564 Clouds 28 1016 69 10000 5.1 300 15:19 26.05.2020
2565 Clouds 28 1016 65 10000 5.1 300 14:43 26.05.2020
2566 Clouds 27 1016 65 10000 5.1 300 14:23 26.05.2020
2567 Clouds 27 1016 65 10000 4.1 300 13:56 26.05.2020
2568 Clouds 26 1016 65 10000 4.1 300 13:37 26.05.2020
2569 Clouds 26 1016 65 10000 4.1 300 13:18 26.05.2020
2570 Clouds 25 1016 69 10000 4.1 300 12:42 26.05.2020
2571 Clouds 24 1016 69 10000 4.1 300 12:22 26.05.2020
2572 Clouds 23 1016 69 10000 4.1 260 11:58 26.05.2020
2573 Clouds 23 1016 69 10000 4.1 260 11:58 26.05.2020
2574 Clouds 23 1016 69 10000 4.1 260 11:40 26.05.2020
2575 Clouds 23 1016 69 10000 4.1 260 11:18 26.05.2020
2576 Clouds 21 1016 77 10000 4.1 260 10:43 26.05.2020
2577 Clouds 21 1016 77 10000 4.1 260 10:19 26.05.2020
2578 Clouds 20 1016 82 10000 2.1 240 09:41 26.05.2020
2579 Clouds 19 1016 82 10000 2.1 240 09:20 26.05.2020
2580 Clouds 18 1017 100 10000 2.1 240 08:44 26.05.2020
2581 Clouds 18 1017 100 10000 2.6 240 08:23 26.05.2020
2582 Clouds 18 1017 100 9000 2.1 250 07:58 26.05.2020
2583 Clouds 18 1017 100 9000 2.6 240 07:39 26.05.2020
2584 Clouds 18 1017 100 9000 2.6 240 07:21 26.05.2020
2585 Clouds 18 1016 100 10000 2.6 250 06:46 26.05.2020
2586 Clouds 21 1016 100 10000 3.1 260 06:23 26.05.2020
2587 Clouds 22 1016 100 5000 4.6 270 05:35 26.05.2020
2588 Mist 22 1017 100 4000 4.1 250 04:56 26.05.2020
2589 Mist 22 1017 100 3000 2.6 280 04:37 26.05.2020
2590 Mist 22 1017 100 3000 2.6 280 04:18 26.05.2020
2591 Fog 22 1017 100 900 1.5 320 02:51 26.05.2020
2592 Fog 22 1017 100 600 1.5 310 01:49 26.05.2020
2593 Clear 22 1018 94 10000 2.1 320 01:29 26.05.2020
2594 Clear 23 1018 83 10000 2.1 320 00:39 26.05.2020
2595 Clear 23 1018 83 10000 2.1 320 00:19 26.05.2020
2596 Clear 23 1018 68 10000 1.5 320 23:56 25.05.2020
2597 Clear 24 1017 64 10000 1.5 320 23:38 25.05.2020
2598 Clear 24 1017 64 10000 1.5 320 23:19 25.05.2020
2599 Clear 24 1017 64 10000 1.5 320 23:19 25.05.2020
2600 Clear 24 1017 60 10000 2.6 330 22:55 25.05.2020
2601 Clear 24 1016 64 10000 3.1 320 22:36 25.05.2020
2602 Clear 24 1016 64 10000 3.1 320 22:36 25.05.2020
2603 Clear 24 1016 64 10000 3.1 320 22:36 25.05.2020
2604 Clear 24 1016 64 10000 3.1 320 22:18 25.05.2020
2605 Clear 24 1016 64 10000 3.1 320 21:56 25.05.2020
2606 Clear 25 1016 64 10000 3.1 320 21:36 25.05.2020
2607 Clear 25 1016 64 10000 3.1 320 21:36 25.05.2020
2608 Clear 25 1016 64 10000 3.1 320 21:18 25.05.2020
2609 Clouds 26 1015 57 10000 3.6 340 20:42 25.05.2020
2610 Clear 26 1015 57 10000 3.6 340 20:22 25.05.2020
2611 Clear 27 1015 50 10000 6.2 340 19:59 25.05.2020
2612 Clear 27 1015 50 10000 6.2 340 19:41 25.05.2020
2613 Clear 27 1015 50 10000 6.2 340 19:19 25.05.2020
2614 Clear 28 1016 51 10000 6.2 340 18:57 25.05.2020
2615 Clear 28 1016 51 10000 6.2 340 18:38 25.05.2020
2616 Clear 28 1016 51 10000 6.2 340 18:20 25.05.2020
2617 Clear 29 1016 51 10000 5.1 340 17:44 25.05.2020
2618 Clear 28 1016 51 10000 5.1 340 17:23 25.05.2020
2619 Clear 29 1016 39 10000 6.2 360 16:57 25.05.2020
2620 Clear 29 1016 39 10000 6.2 360 16:39 25.05.2020
2621 Clear 29 1016 39 10000 6.2 360 16:20 25.05.2020
2622 Clear 29 1017 48 10000 4.6 360 15:44 25.05.2020
2623 Clear 29 1017 48 10000 4.6 360 15:20 25.05.2020
2624 Clear 29 1017 58 10000 4.1 300 14:59 25.05.2020
2625 Clear 29 1017 58 10000 4.1 300 14:38 25.05.2020
2626 Clear 29 1017 58 10000 4.1 300 14:20 25.05.2020
2627 Clear 28 1024 61 10000 5.1 140 13:40 25.05.2020
2628 Clear 28 1024 61 10000 5.1 140 13:40 25.05.2020
2629 Clear 28 1024 61 10000 5.1 140 13:21 25.05.2020
2630 Clear 28 1017 65 10000 4.1 300 12:58 25.05.2020
2631 Clear 28 1017 65 10000 4.1 300 12:39 25.05.2020
2632 Clear 28 1017 65 10000 4.1 300 12:20 25.05.2020
2633 Clear 28 1017 65 10000 4.1 300 12:20 25.05.2020
2634 Clear 26 1017 69 10000 3.1 340 11:40 25.05.2020
2635 Clear 26 1017 69 10000 3.1 340 11:21 25.05.2020
2636 Clear 24 1017 78 10000 3.6 200 10:57 25.05.2020
2637 Clear 23 1017 78 10000 3.6 200 10:39 25.05.2020
2638 Clear 23 1017 78 10000 3.6 200 10:20 25.05.2020
2639 Clear 23 1017 78 10000 3.6 200 10:20 25.05.2020
2640 Clear 21 1017 83 10000 2.1 200 09:54 25.05.2020
2641 Clear 20 1017 83 10000 2.1 200 09:36 25.05.2020
2642 Clear 20 1017 83 10000 2.1 200 09:18 25.05.2020
2643 Clear 19 1017 88 10000 3.1 220 08:40 25.05.2020
2644 Clear 19 1017 88 10000 3.1 220 08:21 25.05.2020
2645 Clear 18 1017 100 10000 1 0 07:56 25.05.2020
2646 Clear 18 1017 100 10000 1 0 07:38 25.05.2020
2647 Clear 18 1017 100 10000 1 0 07:18 25.05.2020
2648 Clear 19 1017 100 10000 2.1 280 06:38 25.05.2020
2649 Clear 22 1017 93 10000 3.6 240 05:27 25.05.2020
2650 Clear 22 1017 94 10000 1 300 03:30 25.05.2020
2651 Clear 22 1017 94 10000 2.1 330 02:51 25.05.2020
2652 Clear 22 1017 94 10000 2.6 330 02:32 25.05.2020
2653 Clear 23 1018 88 10000 2.6 320 01:42 25.05.2020
2654 Clear 23 1018 88 10000 1.5 300 00:47 25.05.2020
2655 Clear 23 1018 83 10000 1.5 300 00:26 25.05.2020
2656 Clear 24 1018 73 10000 2.1 300 23:58 24.05.2020
2657 Clear 24 1017 73 10000 2.1 310 23:39 24.05.2020
2658 Clear 24 1017 73 10000 2.1 310 23:20 24.05.2020
2659 Clear 24 1017 61 10000 2.6 310 22:55 24.05.2020
2660 Clear 24 1016 69 10000 4.6 280 22:37 24.05.2020
2661 Clear 24 1016 69 10000 4.6 280 22:18 24.05.2020
2662 Clear 24 1016 69 10000 4.6 280 22:18 24.05.2020
2663 Clear 25 1016 69 10000 4.6 280 21:55 24.05.2020
2664 Clear 26 1016 69 10000 4.6 280 21:36 24.05.2020
2665 Clear 26 1016 69 10000 4.6 280 21:18 24.05.2020
2666 Clear 28 1016 57 10000 2.6 300 20:43 24.05.2020
2667 Clear 28 1016 57 10000 2.6 300 20:43 24.05.2020
2668 Clear 28 1016 57 10000 2.6 300 20:21 24.05.2020
2669 Clear 29 1016 45 10000 4.6 20 19:56 24.05.2020
2670 Clear 29 1016 45 10000 4.6 20 19:37 24.05.2020
2671 Clear 29 1016 45 10000 4.6 20 19:18 24.05.2020
2672 Clear 29 1016 42 10000 4.6 360 18:42 24.05.2020
2673 Clear 29 1016 42 10000 4.6 360 18:23 24.05.2020
2674 Clear 28 1016 47 10000 4.1 20 17:57 24.05.2020
2675 Clear 28 1016 47 10000 4.1 20 17:38 24.05.2020
2676 Clear 29 1016 47 10000 4.1 20 17:19 24.05.2020
2677 Clear 29 1016 45 10000 6.2 360 16:56 24.05.2020
2678 Clear 29 1016 45 10000 6.2 360 16:37 24.05.2020
2679 Clear 29 1016 45 10000 6.2 360 16:19 24.05.2020
2680 Clear 29 1017 42 10000 5.1 20 15:55 24.05.2020
2681 Clear 29 1017 42 10000 5.1 20 15:36 24.05.2020
2682 Clear 29 1017 42 10000 5.1 20 15:18 24.05.2020
2683 Clear 29 1017 42 10000 5.1 20 15:18 24.05.2020
2684 Clear 28 1017 44 10000 5.7 360 14:41 24.05.2020
2685 Clear 28 1017 44 10000 5.7 360 14:41 24.05.2020
2686 Clear 28 1017 44 10000 5.7 360 14:22 24.05.2020
2687 Clear 28 1017 61 10000 5.7 360 13:56 24.05.2020
2688 Clear 28 1017 61 10000 5.7 360 13:38 24.05.2020
2689 Clear 27 1017 61 10000 5.7 360 13:19 24.05.2020
2690 Clear 27 1017 61 10000 5.1 360 12:56 24.05.2020
2691 Clear 27 1017 61 10000 5.1 360 12:37 24.05.2020
2692 Clear 27 1017 61 10000 5.1 360 12:19 24.05.2020
2693 Clear 26 1017 69 8000 2.1 340 11:54 24.05.2020
2694 Clear 26 1017 69 8000 2.1 340 11:36 24.05.2020
2695 Clear 26 1017 69 8000 2.1 340 11:18 24.05.2020
2696 Clear 23 1017 78 8000 1 80 10:42 24.05.2020
2697 Clear 23 1017 78 8000 1 80 10:23 24.05.2020
2698 Clear 20 1017 94 8000 1 200 09:58 24.05.2020
2699 Clear 20 1017 94 8000 1 200 09:40 24.05.2020
2700 Clear 20 1017 94 8000 1 200 09:18 24.05.2020
2701 Clear 18 1017 93 8000 1 120 08:42 24.05.2020
2702 Clear 18 1017 93 8000 1 120 08:24 24.05.2020
2703 Fog 17 1017 100 400 2.1 210 07:59 24.05.2020
2704 Fog 17 1017 100 1500 1.5 260 07:40 24.05.2020
2705 Fog 17 1017 100 1500 1.5 260 07:21 24.05.2020
2706 Clouds 17 1017 100 5000 1.5 240 06:45 24.05.2020
2707 Clouds 21 1017 100 4000 0.5 0 05:50 24.05.2020
2708 Clear 22 1017 100 10000 2.6 330 03:58 24.05.2020
2709 Clear 22 1018 94 10000 2.6 330 03:39 24.05.2020
2710 Clear 22 1018 94 10000 1.5 320 02:30 24.05.2020
2711 Clouds 23 1019 88 10000 2.1 280 01:32 24.05.2020
2712 Clouds 23 1019 83 10000 1 0 00:38 24.05.2020
2713 Clouds 23 1019 83 10000 1 0 00:20 24.05.2020
2714 Clouds 24 1018 69 10000 3.1 340 23:40 23.05.2020
2715 Clouds 24 1018 69 10000 3.1 340 23:21 23.05.2020
2716 Clouds 24 1018 60 10000 3.6 350 22:57 23.05.2020
2717 Clouds 24 1017 69 10000 3.6 340 22:37 23.05.2020
2718 Clouds 24 1017 69 10000 3.6 340 22:19 23.05.2020
2719 Clouds 25 1017 69 10000 3.6 340 21:57 23.05.2020
2720 Clouds 25 1017 69 10000 3.6 340 21:37 23.05.2020
2721 Clouds 25 1017 69 10000 3.6 340 21:19 23.05.2020
2722 Clouds 26 1017 61 10000 5.7 20 20:55 23.05.2020
2723 Clouds 26 1017 61 10000 5.7 20 20:36 23.05.2020
2724 Clouds 26 1017 61 10000 5.7 20 20:18 23.05.2020
2725 Clouds 28 1017 42 10000 6.2 20 19:41 23.05.2020
2726 Clouds 28 1017 42 10000 6.2 20 19:19 23.05.2020
2727 Clouds 28 1017 57 10000 5.7 20 18:56 23.05.2020
2728 Clouds 28 1017 57 10000 5.7 20 18:37 23.05.2020
2729 Clouds 28 1017 57 10000 5.7 20 18:19 23.05.2020
2730 Clouds 28 1018 57 10000 7.2 20 17:54 23.05.2020
2731 Clouds 28 1018 57 10000 7.2 20 17:54 23.05.2020
2732 Clouds 28 1018 57 10000 7.2 20 17:36 23.05.2020
2733 Clouds 28 1018 57 10000 7.2 20 17:18 23.05.2020
2734 Clouds 28 1018 57 10000 7.2 20 17:18 23.05.2020
2735 Clouds 28 1018 51 10000 5.7 40 16:55 23.05.2020
2736 Clouds 28 1018 51 10000 5.7 40 16:37 23.05.2020
2737 Clouds 28 1018 51 10000 5.7 40 16:18 23.05.2020
2738 Clouds 28 1019 54 10000 3.6 340 15:41 23.05.2020
2739 Clouds 27 1019 54 10000 3.6 340 15:23 23.05.2020
2740 Clouds 27 1019 57 10000 3.6 340 14:43 23.05.2020
2741 Clear 27 1019 57 10000 3.6 340 14:24 23.05.2020
2742 Clear 27 1019 61 10000 3.6 340 13:57 23.05.2020
2743 Clear 27 1019 61 10000 3.6 340 13:38 23.05.2020
2744 Clear 27 1019 61 10000 3.6 340 13:18 23.05.2020
2745 Clear 26 1020 69 10000 3.6 360 12:41 23.05.2020
2746 Clear 26 1020 69 10000 3.6 360 12:20 23.05.2020
2747 Clear 24 1020 78 10000 3.1 360 11:59 23.05.2020
2748 Clear 24 1020 78 10000 3.1 360 11:59 23.05.2020
2749 Clouds 23 1020 78 10000 1.5 310 11:40 23.05.2020
2750 Clear 22 1019 83 10000 3.6 300 11:19 23.05.2020
2751 Clear 22 1019 83 10000 3.6 300 10:56 23.05.2020
2752 Clear 20 1019 94 6000 2.1 200 10:37 23.05.2020
2753 Clouds 20 1019 94 6000 2.1 200 10:19 23.05.2020
2754 Clouds 20 1019 94 6000 2.1 200 09:55 23.05.2020
2755 Clouds 19 1019 94 6000 2.1 200 09:37 23.05.2020
2756 Clear 19 1019 94 6000 2.1 200 09:18 23.05.2020
2757 Clear 18 1020 93 6000 1 220 08:41 23.05.2020
2758 Clear 18 1020 93 6000 1 220 08:19 23.05.2020
2759 Fog 17 1020 100 50 2.1 180 07:45 23.05.2020
2760 Fog 16 1020 100 50 2.1 190 07:27 23.05.2020
2761 Fog 15 1020 100 100 2.6 190 06:44 23.05.2020
2762 Fog 20 1020 100 200 1.5 360 05:59 23.05.2020
2763 Mist 20 1021 100 2000 3.1 360 04:27 23.05.2020
2764 Mist 20 1021 100 1200 3.1 350 03:26 23.05.2020
2765 Mist 20 1021 100 1200 3.1 350 02:42 23.05.2020
2766 Clouds 20 1021 94 4000 2.6 10 01:50 23.05.2020
2767 Clouds 20 1022 94 4000 3.1 10 01:19 23.05.2020
2768 Mist 20 1021 100 4000 2.6 30 00:43 23.05.2020
2769 Clouds 20 1021 94 6000 2.6 20 00:21 23.05.2020
2770 Clouds 20 1021 94 8000 2.6 30 23:45 22.05.2020
2771 Clear 20 1021 94 8000 2.6 360 23:22 22.05.2020
2772 Clear 20 1020 94 8000 3.1 350 22:59 22.05.2020
2773 Clear 20 1020 94 8000 3.1 350 22:41 22.05.2020
2774 Clouds 21 1019 88 8000 6.7 20 22:21 22.05.2020
2775 Clouds 21 1019 88 8000 6.7 20 21:55 22.05.2020
2776 Clouds 21 1019 88 8000 6.7 20 21:55 22.05.2020
2777 Clouds 22 1019 88 8000 6.7 20 21:36 22.05.2020
2778 Clouds 22 1019 88 8000 6.7 20 21:18 22.05.2020
2779 Clouds 23 1019 83 10000 6.2 20 20:42 22.05.2020
2780 Clouds 24 1019 83 10000 6.2 20 20:20 22.05.2020
2781 Clouds 24 1019 83 10000 6.2 20 20:20 22.05.2020
2782 Clouds 24 1019 73 10000 5.7 20 19:45 22.05.2020
2783 Clouds 24 1019 73 10000 5.7 20 19:26 22.05.2020
2784 Clouds 25 1019 69 10000 5.7 340 18:57 22.05.2020
2785 Clouds 25 1019 69 10000 5.7 340 18:38 22.05.2020
2786 Clouds 25 1019 69 10000 5.7 340 18:19 22.05.2020
2787 Clouds 25 1019 69 10000 5.7 340 18:19 22.05.2020
2788 Clouds 25 1020 69 10000 5.7 360 17:41 22.05.2020
2789 Clouds 25 1020 69 10000 5.7 360 17:20 22.05.2020
2790 Clouds 25 1020 69 10000 5.1 340 16:58 22.05.2020
2791 Clear 25 1020 58 10000 5.1 360 16:39 22.05.2020
2792 Clear 25 1021 73 10000 5.1 20 16:20 22.05.2020
2793 Clear 25 1021 73 10000 5.1 20 15:56 22.05.2020
2794 Clear 25 1021 73 10000 7.7 360 15:38 22.05.2020
2795 Clear 24 1021 73 10000 7.7 360 15:18 22.05.2020
2796 Clear 24 1021 73 10000 7.7 360 14:40 22.05.2020
2797 Clear 24 1021 73 10000 7.7 360 14:21 22.05.2020
2798 Clear 24 1021 73 10000 5.1 20 13:44 22.05.2020
2799 Clear 24 1021 73 10000 5.1 20 13:19 22.05.2020
2800 Clouds 22 1021 73 10000 2.6 320 12:43 22.05.2020
2801 Clouds 22 1021 73 10000 2.6 320 12:24 22.05.2020
2802 Clouds 22 1021 73 6000 2.6 20 11:55 22.05.2020
2803 Clouds 22 1021 73 6000 2.6 20 11:36 22.05.2020
2804 Clouds 22 1021 73 6000 2.6 20 11:18 22.05.2020
2805 Clouds 20 1021 82 6000 3.1 40 10:40 22.05.2020
2806 Clouds 20 1021 82 6000 3.1 40 10:21 22.05.2020
2807 Clouds 19 1021 88 6000 3.1 20 09:57 22.05.2020
2808 Clouds 19 1021 88 6000 3.1 20 09:38 22.05.2020
2809 Clouds 19 1021 88 6000 3.1 20 09:18 22.05.2020
2810 Mist 17 1021 100 4600 2.6 60 08:43 22.05.2020
2811 Mist 17 1021 100 4600 2.6 60 08:20 22.05.2020
2812 Mist 17 1020 100 5000 2.1 30 07:52 22.05.2020
2813 Mist 17 1020 100 5000 2.1 30 07:24 22.05.2020
2814 Clear 17 1020 100 7000 2.1 30 06:54 22.05.2020
2815 Clear 17 1020 100 7000 2.1 30 06:32 22.05.2020
2816 Clouds 20 1020 100 10000 3.1 10 05:38 22.05.2020
2817 Clouds 20 1020 100 8000 3.1 10 04:50 22.05.2020
2818 Clouds 20 1020 100 8000 3.1 10 04:19 22.05.2020
2819 Clouds 20 1021 100 8000 3.1 10 03:41 22.05.2020
2820 Clouds 20 1021 100 6000 3.6 10 02:59 22.05.2020
2821 Clouds 20 1022 100 6000 3.6 10 01:49 22.05.2020
2822 Clouds 20 1022 100 8000 3.1 20 01:24 22.05.2020
2823 Clouds 20 1022 93 10000 3.1 20 00:34 22.05.2020
2824 -273 0 0 0 0 0 23:59 21.05.2020
2825 Clouds 20 1021 93 10000 3.1 20 23:40 21.05.2020
2826 Clouds 20 1021 93 10000 3.1 20 23:22 21.05.2020
2827 Clouds 20 1020 88 10000 4.1 20 22:57 21.05.2020
2828 Clouds 21 1019 77 10000 6.2 20 22:37 21.05.2020
2829 Clouds 21 1019 77 10000 6.2 20 22:19 21.05.2020
2830 Clouds 21 1019 77 10000 6.2 20 21:48 21.05.2020
2831 Clouds 21 1019 77 10000 6.2 20 21:27 21.05.2020
2832 Clouds 21 1019 77 10000 6.2 20 20:58 21.05.2020
2833 Clouds 21 1019 77 10000 6.2 20 20:40 21.05.2020
2834 Clouds 21 1019 77 10000 6.2 20 20:21 21.05.2020
2835 Clouds 22 1019 73 10000 8.2 360 19:40 21.05.2020
2836 Clouds 22 1019 73 10000 8.2 360 19:20 21.05.2020
2837 Clouds 23 1019 73 10000 9.3 360 18:58 21.05.2020
2838 Clouds 23 1019 73 10000 9.3 360 18:37 21.05.2020
2839 Clouds 23 1019 73 10000 9.3 360 18:18 21.05.2020
2840 Clouds 23 1019 73 10000 8.2 360 17:54 21.05.2020
2841 Clouds 23 1019 73 10000 8.2 360 17:36 21.05.2020
2842 Clouds 23 1019 73 10000 8.2 360 17:18 21.05.2020
2843 Clouds 23 1019 73 10000 8.2 20 16:40 21.05.2020
2844 Clouds 23 1019 73 10000 8.2 20 16:21 21.05.2020
2845 Clouds 24 1019 69 10000 7.2 20 15:41 21.05.2020
2846 Clouds 24 1019 69 10000 7.2 20 15:22 21.05.2020
2847 Clouds 24 1020 69 10000 7.2 360 14:41 21.05.2020
2848 Clouds 24 1020 69 10000 5.1 360 14:23 21.05.2020
2849 Clouds 24 1020 69 10000 5.1 360 13:56 21.05.2020
2850 Clouds 23 1020 69 10000 5.1 360 13:37 21.05.2020
2851 Clouds 23 1020 69 10000 5.1 360 13:18 21.05.2020
2852 Clouds 22 1020 73 10000 5.1 360 12:39 21.05.2020
2853 Clouds 22 1020 73 10000 5.1 360 12:20 21.05.2020
2854 Clouds 21 1019 73 10000 5.1 20 11:57 21.05.2020
2855 Clouds 21 1019 73 10000 5.1 20 11:39 21.05.2020
2856 Clouds 21 1019 73 10000 5.1 20 11:39 21.05.2020
2857 Clouds 21 1019 73 10000 5.1 20 11:20 21.05.2020
2858 Clouds 20 1019 77 10000 3.1 20 10:43 21.05.2020
2859 Clouds 20 1019 77 10000 3.1 20 10:23 21.05.2020
2860 Clouds 19 1019 82 10000 3.1 20 09:58 21.05.2020
2861 Clouds 19 1019 82 10000 3.1 20 09:39 21.05.2020
2862 Clouds 19 1019 82 10000 3.1 20 09:21 21.05.2020
2863 Clouds 18 1019 93 10000 2.6 70 08:50 21.05.2020
2864 Clear 17 1019 100 10000 2.6 50 08:31 21.05.2020
2865 Clouds 17 1019 100 9000 2.6 30 07:59 21.05.2020
2866 Clouds 18 1019 93 9000 2.6 60 07:37 21.05.2020
2867 Clouds 18 1019 93 9000 2.6 60 07:18 21.05.2020
2868 Clouds 19 1019 93 7000 2.6 20 06:30 21.05.2020
2869 Clouds 20 1018 93 7000 3.1 20 05:50 21.05.2020
2870 Clouds 20 1019 100 8000 4.1 360 03:47 21.05.2020
2871 Clouds 20 1019 100 8000 3.6 360 03:20 21.05.2020
2872 Clouds 20 1019 100 8000 3.1 10 02:31 21.05.2020
2873 Clouds 20 1019 100 8000 2.1 50 01:50 21.05.2020
2874 Clear 20 1019 100 10000 2.6 70 01:24 21.05.2020
2875 Clear 20 1019 93 10000 2.1 60 00:54 21.05.2020
2876 Clear 20 1020 93 10000 3.1 20 00:26 21.05.2020
2877 Clear 20 1019 93 10000 3.1 20 23:58 20.05.2020
2878 Clear 20 1019 93 10000 3.1 10 23:38 20.05.2020
2879 Clear 20 1019 93 10000 3.1 10 23:18 20.05.2020
2880 Clear 20 1019 93 10000 3.6 20 22:42 20.05.2020
2881 Clear 20 1019 93 10000 3.6 20 22:42 20.05.2020
2882 Clouds 21 1016 77 10000 6.2 20 22:24 20.05.2020
2883 Clouds 21 1016 77 10000 6.2 20 21:56 20.05.2020
2884 Clouds 21 1016 77 10000 6.2 20 21:37 20.05.2020
2885 Clouds 21 1016 77 10000 6.2 20 21:19 20.05.2020
2886 Clouds 22 1016 78 10000 6.2 20 20:41 20.05.2020
2887 Clouds 22 1016 78 10000 6.2 20 20:23 20.05.2020
2888 Clouds 22 1016 78 10000 6.2 20 20:23 20.05.2020
2889 Clouds 24 1016 69 10000 8.2 360 19:42 20.05.2020
2890 Clouds 24 1016 69 10000 8.2 360 19:24 20.05.2020
2891 Clouds 24 1016 64 10000 8.2 20 18:58 20.05.2020
2892 Clouds 24 1016 64 10000 8.2 20 18:39 20.05.2020
2893 Clouds 24 1016 64 10000 8.2 20 18:20 20.05.2020
2894 Clouds 25 1016 69 10000 9.3 20 17:39 20.05.2020
2895 Clouds 25 1016 69 10000 9.3 20 17:21 20.05.2020
2896 Clouds 24 1016 73 10000 8.2 360 16:43 20.05.2020
2897 Clouds 24 1016 73 10000 8.2 360 16:24 20.05.2020
2898 Clouds 24 1017 73 10000 7.2 20 15:59 20.05.2020
2899 Clouds 24 1017 73 10000 7.2 20 15:40 20.05.2020
2900 Clouds 24 1017 73 10000 7.2 20 15:22 20.05.2020
2901 Clouds 25 1017 64 10000 6.2 20 14:43 20.05.2020
2902 Clouds 25 1017 64 10000 6.2 20 14:43 20.05.2020
2903 Clouds 25 1017 64 10000 6.2 20 14:21 20.05.2020
2904 Clouds 23 1017 73 10000 5.1 20 13:41 20.05.2020
2905 Clouds 23 1017 73 10000 5.1 20 13:20 20.05.2020
2906 Clouds 23 1017 78 10000 5.1 20 12:58 20.05.2020
2907 Clouds 23 1017 61 10000 4.1 30 12:39 20.05.2020
2908 Clouds 22 1017 83 10000 4.1 20 12:19 20.05.2020
2909 Clouds 21 1017 83 10000 4.1 20 11:36 20.05.2020
2910 Clouds 21 1017 83 10000 4.1 20 11:36 20.05.2020
2911 Clouds 21 1017 83 10000 4.1 20 11:18 20.05.2020
2912 Clouds 20 1016 88 10000 4.1 360 10:43 20.05.2020
2913 Clouds 20 1016 88 10000 4.1 360 10:21 20.05.2020
2914 Clouds 19 1016 93 10000 3.1 360 09:46 20.05.2020
2915 Clouds 19 1016 93 10000 3.1 360 09:46 20.05.2020
2916 Clouds 18 1016 93 10000 3.1 360 09:22 20.05.2020
2917 Clouds 18 1016 93 10000 3.1 360 09:22 20.05.2020
2918 Clouds 16 1016 100 10000 3.1 350 08:59 20.05.2020
2919 Clouds 16 1016 100 10000 3.1 350 08:41 20.05.2020
2920 Clear 16 1016 100 10000 3.1 350 08:19 20.05.2020
2921 Clear 18 1015 93 10000 3.1 10 07:49 20.05.2020
2922 Clear 18 1015 93 10000 3.1 10 07:21 20.05.2020
2923 Clear 17 1015 93 10000 2.6 360 06:45 20.05.2020
2924 Clouds 20 1016 77 10000 2.6 40 05:25 20.05.2020
2925 Clouds 20 1016 72 10000 2.6 40 04:33 20.05.2020
2926 Clouds 20 1016 60 10000 4.1 40 03:52 20.05.2020
2927 Clouds 20 1017 72 10000 3.1 20 02:32 20.05.2020
2928 Clouds 21 1017 56 10000 2.1 40 01:31 20.05.2020
2929 Clouds 21 1017 56 10000 3.1 60 00:45 20.05.2020
2930 Clouds 21 1017 60 10000 2.6 60 00:24 20.05.2020
2931 Clouds 21 1018 60 10000 2.1 40 23:45 19.05.2020
2932 Clouds 21 1017 60 10000 2.1 50 23:21 19.05.2020
2933 Clouds 21 1017 60 10000 2.6 50 22:56 19.05.2020
2934 Clouds 21 1016 77 10000 4.1 40 22:38 19.05.2020
2935 Clouds 21 1016 77 10000 4.1 40 22:20 19.05.2020
2936 Clouds 21 1016 77 10000 4.1 40 22:20 19.05.2020
2937 Clouds 21 1016 77 10000 4.1 40 22:20 19.05.2020
2938 Clouds 21 1016 77 10000 4.1 40 21:58 19.05.2020
2939 Clouds 22 1016 77 10000 4.1 40 21:38 19.05.2020
2940 Clouds 22 1016 77 10000 4.1 40 21:20 19.05.2020
2941 Clouds 23 1016 69 10000 5.1 20 20:58 19.05.2020
2942 Clouds 23 1016 69 10000 5.1 20 20:58 19.05.2020
2943 Clouds 24 1016 69 10000 5.1 20 20:40 19.05.2020
2944 Clouds 24 1016 69 10000 5.1 20 20:21 19.05.2020
2945 Clouds 24 1016 69 10000 6.2 20 19:55 19.05.2020
2946 Clouds 24 1016 69 10000 6.2 20 19:37 19.05.2020
2947 Clouds 24 1016 69 10000 6.2 20 19:37 19.05.2020
2948 Clouds 25 1016 69 10000 6.2 20 19:19 19.05.2020
2949 Clouds 26 1016 53 10000 5.7 360 18:42 19.05.2020
2950 Clouds 26 1016 53 10000 5.7 360 18:20 19.05.2020
2951 Clouds 26 1016 53 10000 4.6 360 17:44 19.05.2020
2952 Clouds 26 1016 53 10000 4.6 360 17:22 19.05.2020
2953 Clouds 25 1016 60 10000 5.1 360 16:59 19.05.2020
2954 Clouds 25 1016 60 10000 5.1 360 16:39 19.05.2020
2955 Clear 25 1016 60 10000 5.1 360 16:20 19.05.2020
2956 Clear 26 1017 47 0 4.6 20 15:47 19.05.2020
2957 Clear 26 1017 47 0 4.6 20 15:23 19.05.2020
2958 Clear 25 1017 53 10000 5.7 360 14:58 19.05.2020
2959 Clear 25 1017 53 10000 5.7 360 14:40 19.05.2020
2960 Clouds 25 1017 53 10000 5.7 360 14:21 19.05.2020
2961 Clouds 25 1017 60 10000 5.1 20 13:58 19.05.2020
2962 Clouds 26 1018 37 10000 2.1 0 13:39 19.05.2020
2963 Clouds 25 1017 64 10000 3.6 340 13:21 19.05.2020
2964 Clouds 25 1017 64 10000 3.6 340 12:57 19.05.2020
2965 Clouds 25 1017 64 10000 3.6 340 12:38 19.05.2020
2966 Clouds 25 1017 64 10000 3.6 340 12:20 19.05.2020
2967 Clouds 23 1017 69 10000 3.1 360 11:55 19.05.2020
2968 Clouds 23 1017 69 10000 3.1 360 11:37 19.05.2020
2969 Clouds 23 1017 69 10000 3.1 360 11:18 19.05.2020
2970 Clouds 21 1017 77 10000 2.1 100 10:43 19.05.2020
2971 Clouds 21 1017 77 10000 2.1 100 10:23 19.05.2020
2972 Clouds 19 1017 88 10000 4.1 100 09:55 19.05.2020
2973 Clouds 18 1017 88 10000 4.1 100 09:37 19.05.2020
2974 Clouds 18 1017 88 10000 4.1 100 09:18 19.05.2020
2975 Clouds 17 1017 88 10000 0.5 340 08:41 19.05.2020
2976 Clouds 16 1018 100 10000 1 0 08:23 19.05.2020
2977 Clouds 14 1017 93 10000 0.5 0 07:42 19.05.2020
2978 Clouds 14 1017 93 10000 0.5 0 07:24 19.05.2020
2979 Clouds 14 1017 93 10000 1.5 100 06:41 19.05.2020
2980 Clouds 19 1017 82 10000 1.5 70 06:22 19.05.2020
2981 Clouds 20 1017 72 10000 3.6 40 05:40 19.05.2020
2982 Clear 20 1018 72 10000 2.6 40 04:54 19.05.2020
2983 Clear 20 1019 72 10000 3.1 20 03:45 19.05.2020
2984 Clouds 20 1020 68 10000 2.1 30 01:23 19.05.2020
2985 Clouds 20 1020 68 10000 2.1 30 00:43 19.05.2020
2986 Clouds 20 1020 64 10000 2.6 50 00:21 19.05.2020
2987 Clouds 20 1020 64 10000 4.6 60 23:40 18.05.2020
2988 Clouds 20 1020 64 10000 4.6 60 23:21 18.05.2020
2989 Clouds 20 1020 64 10000 4.6 60 22:59 18.05.2020
2990 Clouds 21 1019 68 10000 4.1 60 22:40 18.05.2020
2991 Clear 21 1019 68 10000 8.7 40 22:21 18.05.2020
2992 Clear 21 1019 68 10000 8.7 40 21:43 18.05.2020
2993 Clear 21 1019 68 10000 8.7 40 21:22 18.05.2020
2994 Clear 22 1019 64 10000 7.2 40 20:58 18.05.2020
2995 Clear 22 1019 64 10000 7.2 40 20:58 18.05.2020
2996 Clear 23 1019 64 10000 7.2 40 20:40 18.05.2020
2997 Clouds 23 1019 64 10000 7.2 40 20:21 18.05.2020
2998 Clouds 23 1019 64 10000 7.2 40 20:21 18.05.2020
2999 Clouds 23 1019 56 10000 8.2 20 19:57 18.05.2020
3000 Clouds 24 1019 56 10000 8.2 20 19:38 18.05.2020
3001 Clouds 24 1019 56 10000 8.2 20 19:18 18.05.2020
3002 Clouds 24 1019 60 10000 6.2 20 18:45 18.05.2020
3003 Clouds 25 1019 60 10000 6.2 20 18:24 18.05.2020
3004 Clouds 25 1019 60 10000 6.2 20 17:40 18.05.2020
3005 Clouds 25 1019 60 10000 6.2 20 17:18 18.05.2020
3006 Clouds 25 1020 60 10000 5.1 20 16:57 18.05.2020
3007 Clouds 25 1020 60 10000 5.1 20 16:38 18.05.2020
3008 Clouds 25 1020 60 10000 5.1 20 16:20 18.05.2020
3009 Clouds 24 1020 60 10000 6.2 20 15:57 18.05.2020
3010 Clouds 24 1020 60 10000 6.2 20 15:57 18.05.2020
3011 Clouds 24 1020 60 10000 6.2 20 15:38 18.05.2020
3012 Clouds 24 1020 60 10000 6.2 20 15:19 18.05.2020
3013 Clouds 24 1021 56 10000 6.2 20 14:43 18.05.2020
3014 Clouds 24 1021 56 10000 6.2 20 14:25 18.05.2020
3015 Clouds 24 1021 64 10000 5.1 40 13:58 18.05.2020
3016 Clouds 24 1021 64 10000 5.1 40 13:39 18.05.2020
3017 Clouds 24 1021 64 10000 5.1 40 13:20 18.05.2020
3018 Clouds 23 1021 64 10000 4.1 20 12:56 18.05.2020
3019 Clouds 22 1021 64 10000 4.1 20 12:38 18.05.2020
3020 Clouds 22 1021 64 10000 4.1 20 12:19 18.05.2020
3021 Clouds 22 1021 68 10000 4.1 20 11:47 18.05.2020
3022 Clear 22 1021 68 10000 4.1 20 11:27 18.05.2020
3023 Clear 20 1021 77 10000 5.7 60 10:58 18.05.2020
3024 Clear 20 1021 77 10000 5.7 60 10:40 18.05.2020
3025 Clouds 20 1021 77 10000 5.7 60 10:22 18.05.2020
3026 Clouds 18 1021 88 8000 3.1 60 09:44 18.05.2020
3027 Clear 17 1021 88 8000 3.1 60 09:25 18.05.2020
3028 Clear 16 1020 87 10000 1 120 08:45 18.05.2020
3029 Clear 15 1020 87 10000 1 120 08:27 18.05.2020
3030 Clouds 14 1020 100 10000 2.1 60 07:55 18.05.2020
3031 Clouds 15 1020 93 10000 2.1 60 07:26 18.05.2020
3032 Clouds 15 1020 100 10000 2.1 50 06:54 18.05.2020
3033 Clouds 15 1020 100 10000 2.6 50 06:34 18.05.2020
3034 Clouds 17 1021 100 10000 1.5 70 05:49 18.05.2020
3035 Clouds 17 1020 100 10000 2.1 80 05:21 18.05.2020
3036 Clouds 18 1022 100 8000 3.1 60 03:31 18.05.2020
3037 Clouds 18 1022 93 10000 4.1 50 02:22 18.05.2020
3038 Clouds 18 1022 100 10000 3.1 60 01:22 18.05.2020
3039 Clouds 18 1022 93 10000 3.6 40 00:25 18.05.2020
3040 Clear 18 1022 93 10000 4.1 40 23:57 17.05.2020
3041 Clear 18 1022 93 10000 4.6 30 23:39 17.05.2020
3042 Clear 18 1022 93 10000 4.6 30 23:20 17.05.2020
3043 Clear 19 1021 88 10000 5.1 30 22:56 17.05.2020
3044 Clear 19 1020 77 10000 6.2 20 22:37 17.05.2020
3045 Clear 19 1020 77 10000 6.2 20 22:19 17.05.2020
3046 Clear 19 1020 77 10000 6.2 20 21:55 17.05.2020
3047 Clear 19 1020 77 10000 6.2 20 21:37 17.05.2020
3048 Clear 19 1020 77 10000 6.2 20 21:18 17.05.2020
3049 Clouds 20 1020 68 10000 9.3 20 20:42 17.05.2020
3050 Clouds 20 1020 68 10000 9.3 20 20:21 17.05.2020
3051 Clouds 21 1020 68 10000 9.3 20 19:57 17.05.2020
3052 Clouds 21 1020 68 10000 9.3 20 19:38 17.05.2020
3053 Clouds 21 1020 68 10000 9.3 20 19:19 17.05.2020
3054 Clouds 21 1020 64 10000 6.7 40 18:42 17.05.2020
3055 Clouds 21 1020 64 10000 6.7 40 18:23 17.05.2020
3056 Clouds 21 1020 60 10000 8.2 20 17:59 17.05.2020
3057 Clouds 21 1020 60 10000 8.2 20 17:39 17.05.2020
3058 Clouds 21 1020 60 10000 8.2 20 17:19 17.05.2020
3059 Clouds 21 1020 60 10000 8.2 20 17:19 17.05.2020
3060 Clouds 21 1020 60 10000 8.2 20 16:40 17.05.2020
3061 Clouds 21 1020 60 10000 8.2 20 16:21 17.05.2020
3062 -273 0 0 0 0 0 15:59 17.05.2020
3063 Clouds 21 1021 60 10000 6.7 40 15:59 17.05.2020
3064 Clouds 21 1021 60 10000 6.7 40 15:39 17.05.2020
3065 Clouds 21 1021 60 10000 6.7 40 15:20 17.05.2020
3066 Clouds 22 1021 60 10000 6.7 20 14:43 17.05.2020
3067 Clouds 21 1021 60 10000 6.7 20 14:24 17.05.2020
3068 Clouds 21 1021 56 10000 5.7 40 13:59 17.05.2020
3069 Clouds 21 1021 56 10000 5.7 40 13:40 17.05.2020
3070 Clouds 21 1021 56 10000 5.7 40 13:19 17.05.2020
3071 Clear 17 1019 93 10000 2.6 30 04:47 17.05.2020
3072 Clear 17 1020 93 10000 2.6 30 02:46 17.05.2020
3073 Clear 17 1020 93 10000 2.1 40 02:20 17.05.2020
3074 Clear 17 1020 93 10000 2.1 40 01:47 17.05.2020
3075 Clouds 17 1020 87 10000 2.6 30 00:40 17.05.2020
3076 Clouds 17 1020 87 10000 2.6 30 00:20 17.05.2020
3077 Clouds 17 1020 87 10000 2.6 30 23:40 16.05.2020
3078 Clouds 17 1020 87 10000 2.6 30 23:20 16.05.2020
3079 Clear 17 1019 77 10000 4.1 20 22:58 16.05.2020
3080 Clear 17 1019 77 10000 4.1 20 22:40 16.05.2020
3081 Clouds 18 1018 68 10000 4.1 360 22:20 16.05.2020
3082 Clouds 18 1018 68 10000 4.1 360 21:46 16.05.2020
3083 Clouds 18 1018 68 10000 4.1 360 21:28 16.05.2020
3084 Clouds 19 1018 63 10000 5.7 360 20:59 16.05.2020
3085 Clouds 19 1018 63 10000 5.7 360 20:41 16.05.2020
3086 Clouds 19 1018 63 10000 5.7 360 20:22 16.05.2020
3087 Clouds 20 1018 64 10000 5.1 360 19:58 16.05.2020
3088 Clouds 20 1017 60 10000 4.6 360 19:40 16.05.2020
3089 Clouds 20 1017 64 10000 5.1 300 19:22 16.05.2020
3090 Clouds 20 1017 64 10000 5.1 300 18:43 16.05.2020
3091 Clouds 20 1017 64 10000 5.1 300 18:25 16.05.2020
3092 Clouds 20 1017 64 10000 5.1 300 17:57 16.05.2020
3093 Clouds 20 1017 64 10000 5.1 300 17:39 16.05.2020
3094 Clouds 20 1017 64 10000 5.1 300 17:20 16.05.2020
3095 Clouds 20 1018 60 10000 7.2 340 16:42 16.05.2020
3096 Clouds 20 1018 60 10000 7.2 340 16:23 16.05.2020
3097 Clouds 19 1017 68 10000 5.1 340 15:58 16.05.2020
3098 Clouds 19 1017 68 10000 5.1 340 15:58 16.05.2020
3099 Clouds 19 1017 64 10000 4.1 320 15:40 16.05.2020
3100 Clouds 20 1018 64 10000 5.1 340 15:19 16.05.2020
3101 Clouds 20 1018 64 10000 5.1 340 14:48 16.05.2020
3102 Clouds 20 1018 64 10000 5.1 340 14:21 16.05.2020
3103 Clouds 18 1018 68 10000 4.1 340 13:59 16.05.2020
3104 Clouds 18 1018 68 10000 4.1 340 13:59 16.05.2020
3105 Clouds 18 1017 72 10000 4.1 350 13:40 16.05.2020
3106 Clouds 18 1017 72 10000 4.1 360 13:22 16.05.2020
3107 Clouds 18 1017 72 10000 4.1 360 12:45 16.05.2020
3108 Clouds 18 1016 72 10000 4.1 340 12:23 16.05.2020
3109 Clouds 17 1016 72 10000 4.1 340 11:59 16.05.2020
3110 Clouds 17 1016 72 10000 4.1 340 11:39 16.05.2020
3111 Clouds 17 1016 72 10000 4.1 340 11:20 16.05.2020
3112 Clouds 17 1016 72 10000 2.6 360 10:56 16.05.2020
3113 Clouds 17 1015 77 10000 2.6 20 10:37 16.05.2020
3114 Clouds 16 1015 77 10000 2.6 20 10:18 16.05.2020
3115 Clouds 16 1015 77 10000 2.6 20 09:44 16.05.2020
3116 Mist 14 1015 100 3200 2.1 250 09:26 16.05.2020
3117 Clouds 13 1015 100 10000 3.1 240 08:43 16.05.2020
3118 Clouds 13 1015 100 10000 3.1 240 08:22 16.05.2020
3119 Clouds 13 1014 100 10000 3.1 250 07:55 16.05.2020
3120 Clouds 13 1014 100 10000 3.1 250 07:37 16.05.2020
3121 Clouds 13 1014 100 10000 3.1 250 07:18 16.05.2020
3122 Clouds 13 1014 100 10000 3.6 250 06:43 16.05.2020
3123 Clouds 13 1014 100 10000 3.6 250 06:18 16.05.2020
3124 Clouds 13 1013 100 10000 2.6 260 05:39 16.05.2020
3125 Clouds 12 1013 100 10000 2.1 240 04:30 16.05.2020
3126 Clouds 13 1014 100 10000 2.1 290 03:21 16.05.2020
3127 Clouds 13 1014 100 10000 3.1 260 02:27 16.05.2020
3128 Clouds 13 1014 100 10000 2.6 260 01:56 16.05.2020
3129 Clouds 13 1014 100 10000 2.6 250 01:33 16.05.2020
3130 Clouds 14 1014 100 10000 3.1 260 00:55 16.05.2020
3131 Clouds 14 1013 100 10000 2.6 240 00:37 16.05.2020
3132 Clouds 14 1013 100 10000 2.6 240 00:18 16.05.2020
3133 Clouds 14 1013 100 10000 3.1 260 23:37 15.05.2020
3134 Clouds 14 1013 100 10000 3.1 260 23:18 15.05.2020
3135 Rain 14 1012 100 10000 2.6 280 22:40 15.05.2020
3136 Clouds 16 1011 77 10000 4.1 240 22:20 15.05.2020
3137 Clouds 16 1011 77 10000 4.1 240 21:55 15.05.2020
3138 Clouds 16 1011 77 10000 4.1 240 21:36 15.05.2020
3139 Clouds 16 1011 77 10000 4.1 240 21:18 15.05.2020
3140 Clouds 16 1011 77 8000 4.1 240 20:43 15.05.2020
3141 Clouds 16 1011 77 8000 4.1 240 20:25 15.05.2020
3142 Rain 15 1010 82 8000 8.2 180 19:59 15.05.2020
3143 Rain 15 1010 82 8000 8.2 180 19:41 15.05.2020
3144 Rain 15 1010 82 8000 8.2 180 19:22 15.05.2020
3145 Clouds 16 1011 67 10000 7.2 240 18:47 15.05.2020
3146 Clouds 17 1011 67 10000 7.2 240 18:27 15.05.2020
3147 Clouds 17 1012 63 10000 9.3 260 17:57 15.05.2020
3148 Clouds 18 1012 63 10000 9.3 260 17:36 15.05.2020
3149 Clouds 18 1012 63 10000 9.3 260 17:18 15.05.2020
3150 Clouds 18 1012 68 10000 10.3 260 16:54 15.05.2020
3151 Clouds 18 1012 68 10000 10.3 260 16:36 15.05.2020
3152 Clouds 18 1012 68 10000 10.3 260 16:18 15.05.2020
3153 Clouds 18 1012 82 10000 4.6 290 15:40 15.05.2020
3154 Clouds 18 1012 55 10000 10.3 260 15:20 15.05.2020
3155 Clouds 19 1012 55 10000 10.3 260 14:55 15.05.2020
3156 Clouds 18 1012 55 10000 10.3 260 14:36 15.05.2020
3157 Clouds 18 1012 55 10000 10.3 260 14:18 15.05.2020
3158 Clouds 18 1012 55 10000 10.3 260 14:18 15.05.2020
3159 Clouds 18 1012 63 10000 7.2 300 13:41 15.05.2020
3160 Clouds 19 1012 63 10000 7.2 300 13:20 15.05.2020
3161 Clouds 19 1012 60 10000 3.1 260 12:41 15.05.2020
3162 Clouds 19 1012 60 10000 3.1 260 12:21 15.05.2020
3163 Clouds 18 1011 68 10000 5.1 260 11:59 15.05.2020
3164 Clouds 17 1011 68 10000 5.1 260 11:40 15.05.2020
3165 Clouds 17 1011 68 10000 5.1 260 11:21 15.05.2020
3166 Clouds 17 1011 68 10000 5.1 260 11:21 15.05.2020
3167 Clouds 17 1011 77 10000 4.1 240 10:59 15.05.2020
3168 Clouds 16 1011 77 10000 4.1 240 10:41 15.05.2020
3169 Clouds 16 1011 77 10000 4.1 240 10:23 15.05.2020
3170 Clouds 15 1011 93 10000 3.1 220 09:59 15.05.2020
3171 Clouds 14 1011 100 10000 3.1 270 09:38 15.05.2020
3172 Clouds 13 1011 100 10000 3.1 270 09:19 15.05.2020
3173 Clouds 13 1011 100 10000 3.1 270 08:57 15.05.2020
3174 Rain 13 1010 100 10000 5.7 230 08:37 15.05.2020
3175 Rain 13 1010 100 10000 5.7 230 08:37 15.05.2020
3176 Rain 13 1010 100 10000 5.7 230 08:18 15.05.2020
3177 Rain 13 1009 100 10000 8.7 210 07:44 15.05.2020
3178 Rain 13 1009 100 10000 8.7 210 07:24 15.05.2020
3179 Clouds 13 1009 100 10000 8.7 210 06:52 15.05.2020
3180 Rain 16 1009 100 5000 10.3 210 05:49 15.05.2020
3181 Rain 16 1009 93 10000 10.3 200 04:28 15.05.2020
3182 Clouds 16 1010 87 10000 9.3 200 03:47 15.05.2020
3183 Clouds 16 1011 87 10000 8.7 210 02:30 15.05.2020
3184 Clouds 16 1011 87 10000 8.2 210 01:21 15.05.2020
3185 Clouds 16 1011 93 10000 7.2 200 00:50 15.05.2020
3186 Clouds 16 1011 87 10000 7.2 210 00:30 15.05.2020
3187 Clouds 16 1011 87 10000 6.2 200 23:45 14.05.2020
3188 Clouds 17 1011 82 10000 6.2 220 23:24 14.05.2020
3189 Clouds 17 1011 82 10000 6.2 220 23:00 14.05.2020
3190 Clouds 17 1011 82 10000 6.2 230 22:40 14.05.2020
3191 Clouds 17 1010 59 10000 7.2 240 22:19 14.05.2020
3192 Clouds 17 1010 59 10000 7.2 240 21:57 14.05.2020
3193 Clouds 17 1010 63 10000 7.2 300 21:39 14.05.2020
3194 Clouds 17 1010 63 10000 7.2 300 21:19 14.05.2020
3195 Clouds 17 1010 63 10000 7.2 300 20:55 14.05.2020
3196 Clouds 17 1010 63 10000 7.2 300 20:55 14.05.2020
3197 Clouds 17 1010 63 10000 7.2 300 20:36 14.05.2020
3198 Clouds 17 1010 63 10000 7.2 300 20:18 14.05.2020
3199 Thunderstorm 19 1010 55 10000 7.2 300 19:41 14.05.2020
3200 Thunderstorm 19 1010 55 10000 7.2 300 19:21 14.05.2020
3201 Clouds 18 1009 72 10000 6.2 260 18:58 14.05.2020
3202 Clouds 18 1009 72 10000 6.2 260 18:38 14.05.2020
3203 Clouds 18 1009 72 10000 6.2 260 18:20 14.05.2020
3204 Clouds 17 1009 72 10000 7.2 300 17:59 14.05.2020
3205 Clouds 17 1009 72 10000 7.2 300 17:37 14.05.2020
3206 Clouds 17 1009 72 10000 7.2 300 17:19 14.05.2020
3207 Clouds 19 1009 55 10000 9.3 260 16:57 14.05.2020
3208 Clouds 17 1009 55 10000 9.3 260 16:38 14.05.2020
3209 Clouds 17 1009 55 10000 9.3 260 16:19 14.05.2020
3210 Clouds 17 1009 63 10000 9.3 260 15:56 14.05.2020
3211 Clouds 18 1009 63 10000 9.3 260 15:37 14.05.2020
3212 Clouds 18 1009 63 10000 9.3 260 15:18 14.05.2020
3213 Thunderstorm 16 1010 77 10000 4.1 240 14:40 14.05.2020
3214 Thunderstorm 16 1010 77 10000 4.1 240 14:21 14.05.2020
3215 Thunderstorm 18 1010 67 800 8.2 200 13:59 14.05.2020
3216 -273 0 0 0 0 0 13:59 14.05.2020
3217 Thunderstorm 18 1010 67 800 8.2 200 13:59 14.05.2020
3218 Clouds 19 1010 63 10000 8.2 200 13:41 14.05.2020
3219 Clouds 19 1010 63 10000 8.2 200 13:20 14.05.2020
3220 Clouds 16 1010 67 10000 9.3 200 12:59 14.05.2020
3221 Clouds 16 1010 67 10000 9.3 200 12:39 14.05.2020
3222 Clouds 16 1010 67 10000 9.3 200 12:20 14.05.2020
3223 Clouds 16 1010 77 10000 7.2 200 11:58 14.05.2020
3224 Clouds 16 1010 77 10000 7.2 200 11:39 14.05.2020
3225 Clouds 16 1010 77 10000 7.2 200 11:21 14.05.2020
3226 Clouds 15 1010 82 10000 10.3 200 10:56 14.05.2020
3227 Clouds 15 1010 82 10000 10.3 200 10:37 14.05.2020
3228 Clouds 15 1010 82 10000 10.3 200 10:19 14.05.2020
3229 Clouds 16 1010 72 10000 7.2 220 09:42 14.05.2020
3230 Clouds 15 1010 87 10000 8.7 210 09:22 14.05.2020
3231 Clouds 13 1010 87 10000 8.2 210 08:41 14.05.2020
3232 Clouds 13 1010 87 10000 7.2 200 08:21 14.05.2020
3233 Clouds 12 1010 93 10000 6.7 220 07:46 14.05.2020
3234 Clouds 12 1010 93 10000 6.7 220 07:25 14.05.2020
3235 Clouds 13 1011 93 10000 7.2 210 06:54 14.05.2020
3236 Clouds 13 1011 93 10000 7.2 210 06:31 14.05.2020
3237 Clouds 12 1011 93 10000 6.7 210 05:55 14.05.2020
3238 Clouds 12 1011 93 10000 6.7 210 05:29 14.05.2020
3239 Rain 12 1011 100 10000 6.2 210 04:25 14.05.2020
3240 Clouds 13 1011 93 10000 5.7 220 03:23 14.05.2020
3241 Clouds 13 1012 93 10000 6.7 220 02:41 14.05.2020
3242 Clouds 13 1012 93 10000 5.1 210 01:56 14.05.2020
3243 Clouds 13 1012 93 10000 4.1 210 01:23 14.05.2020
3244 Clouds 13 1012 93 10000 4.1 210 00:44 14.05.2020
3245 Clouds 12 1012 100 10000 3.1 190 00:23 14.05.2020
3246 Clouds 12 1012 93 10000 3.6 210 23:42 13.05.2020
3247 Clouds 13 1012 87 10000 5.1 210 23:21 13.05.2020
3248 Clouds 13 1012 93 10000 4.6 210 22:54 13.05.2020
3249 Clouds 16 1010 77 10000 5.1 240 22:36 13.05.2020
3250 Clouds 16 1010 77 10000 5.1 240 22:18 13.05.2020
3251 Clouds 16 1010 77 10000 5.1 240 21:55 13.05.2020
3252 Clouds 16 1010 77 10000 6.2 220 21:36 13.05.2020
3253 Clouds 16 1010 77 10000 6.2 220 21:18 13.05.2020
3254 Clouds 16 1010 87 10000 7.7 240 20:40 13.05.2020
3255 Clouds 16 1010 87 10000 7.7 240 20:22 13.05.2020
3256 Clouds 15 1010 93 10000 8.2 230 19:43 13.05.2020
3257 Clouds 16 1007 82 10000 7.2 280 19:24 13.05.2020
3258 Clouds 16 1007 82 10000 7.2 280 18:55 13.05.2020
3259 Rain 15 1007 87 6000 8.2 280 18:37 13.05.2020
3260 Rain 15 1007 87 6000 8.2 280 18:18 13.05.2020
3261 Clouds 18 1007 64 10000 9.8 280 17:38 13.05.2020
3262 Clouds 18 1007 64 10000 9.8 280 17:19 13.05.2020
3263 Clouds 19 1007 64 10000 9.8 280 16:55 13.05.2020
3264 Clouds 18 1007 64 10000 8.2 280 16:37 13.05.2020
3265 Clouds 19 1007 64 10000 8.2 280 16:18 13.05.2020
3266 Clouds 21 1007 46 6000 10.8 250 15:42 13.05.2020
3267 Clouds 21 1007 43 10000 10.8 230 15:19 13.05.2020
3268 Clouds 22 1008 41 10000 9.3 230 14:57 13.05.2020
3269 Clouds 23 1008 46 10000 9.3 230 14:39 13.05.2020
3270 Clouds 23 1008 46 10000 9.3 230 14:20 13.05.2020
3271 Clouds 22 1009 56 10000 7.7 230 13:55 13.05.2020
3272 Clouds 23 1009 60 10000 7.7 230 13:37 13.05.2020
3273 Clouds 23 1009 60 10000 7.7 230 13:19 13.05.2020
3274 Clouds 23 1009 60 10000 7.7 230 12:43 13.05.2020
3275 Clouds 23 1010 64 10000 6.2 230 12:21 13.05.2020
3276 Clouds 23 1017 41 10000 3.1 360 11:57 13.05.2020
3277 Clouds 22 1017 41 10000 3.1 360 11:38 13.05.2020
3278 Clouds 22 1010 77 10000 6.7 220 11:20 13.05.2020
3279 Clouds 17 1010 88 10000 6.2 230 10:59 13.05.2020
3280 Clouds 16 1010 100 10000 6.2 220 10:38 13.05.2020
3281 Clouds 16 1010 100 10000 6.2 220 10:20 13.05.2020
3282 Rain 15 1010 100 10000 4.6 220 09:56 13.05.2020
3283 Rain 15 1010 100 10000 4.6 220 09:38 13.05.2020
3284 Rain 15 1010 100 10000 4.6 220 09:19 13.05.2020
3285 Rain 15 1010 93 10000 3.1 210 08:40 13.05.2020
3286 Clouds 15 1010 93 10000 3.1 210 08:21 13.05.2020
3287 Clouds 15 1010 93 10000 3.6 220 07:58 13.05.2020
3288 Clouds 15 1010 87 10000 3.1 220 07:34 13.05.2020
3289 Clouds 14 1010 93 10000 3.1 220 06:55 13.05.2020
3290 Clouds 14 1010 93 10000 3.6 210 06:36 13.05.2020
3291 Clouds 14 1010 93 10000 3.6 220 05:48 13.05.2020
3292 Clouds 17 1011 93 10000 3.1 210 04:21 13.05.2020
3293 Clouds 17 1012 87 10000 2.6 210 02:43 13.05.2020
3294 Clouds 18 1013 82 10000 2.1 210 01:47 13.05.2020
3295 Clouds 17 1013 87 10000 2.1 220 00:59 13.05.2020
3296 Clouds 18 1013 82 10000 2.1 270 00:28 13.05.2020
3297 Clouds 18 1013 82 10000 2.1 290 23:59 12.05.2020
3298 Clouds 18 1013 77 10000 3.1 290 23:39 12.05.2020
3299 Clouds 18 1013 77 10000 3.1 290 23:20 12.05.2020
3300 Clouds 18 1012 77 10000 2.6 300 22:43 12.05.2020
3301 Clouds 19 1011 68 10000 5.1 300 22:23 12.05.2020
3302 Clouds 19 1011 68 10000 5.1 300 22:23 12.05.2020
3303 Clouds 19 1011 68 10000 5.1 300 21:59 12.05.2020
3304 Clouds 19 1011 68 10000 5.1 300 21:40 12.05.2020
3305 Clouds 19 1011 68 10000 5.1 300 21:22 12.05.2020
3306 Clouds 20 1011 60 10000 7.2 280 20:59 12.05.2020
3307 Clouds 20 1011 60 10000 7.2 280 20:59 12.05.2020
3308 Clouds 20 1011 60 10000 7.2 280 20:41 12.05.2020
3309 Clouds 20 1011 60 10000 7.2 280 20:23 12.05.2020
3310 Clouds 21 1011 60 10000 8.2 280 19:59 12.05.2020
3311 Clouds 21 1011 60 10000 8.2 280 19:41 12.05.2020
3312 Clouds 21 1011 60 10000 8.2 280 19:22 12.05.2020
3313 Clouds 21 1011 56 10000 6.2 280 18:58 12.05.2020
3314 Clouds 21 1011 56 10000 6.2 280 18:39 12.05.2020
3315 Clouds 21 1011 56 10000 6.2 280 18:21 12.05.2020
3316 Clouds 21 1011 60 10000 11.8 280 17:43 12.05.2020
3317 Clouds 21 1011 60 10000 11.8 280 17:24 12.05.2020
3318 Clouds 21 1011 60 10000 12.9 300 16:47 12.05.2020
3319 Clouds 21 1011 60 10000 12.9 300 16:26 12.05.2020
3320 Clouds 21 1011 60 10000 10.8 300 15:57 12.05.2020
3321 Clouds 21 1011 60 10000 10.8 300 15:39 12.05.2020
3322 Clouds 21 1011 60 10000 10.8 300 15:39 12.05.2020
3323 Clouds 21 1011 60 10000 10.8 300 15:20 12.05.2020
3324 Clouds 22 1011 49 10000 8.2 280 14:58 12.05.2020
3325 Clouds 22 1011 49 10000 8.2 280 14:39 12.05.2020
3326 Clouds 22 1011 49 10000 8.2 280 14:21 12.05.2020
3327 Clouds 22 1012 53 10000 9.8 280 13:59 12.05.2020
3328 Clouds 22 1012 53 10000 9.8 280 13:41 12.05.2020
3329 Clouds 20 1012 40 10000 9.3 240 13:20 12.05.2020
3330 Clouds 20 1012 49 10000 8.7 250 12:58 12.05.2020
3331 Clouds 20 1012 52 10000 8.2 240 12:40 12.05.2020
3332 Clouds 20 1012 52 10000 8.2 240 12:40 12.05.2020
3333 Clouds 20 1012 52 10000 8.2 240 12:40 12.05.2020
3334 Clouds 20 1012 52 10000 8.2 240 12:22 12.05.2020
3335 Clouds 20 1012 52 10000 10.3 240 11:58 12.05.2020
3336 Clouds 19 1012 60 10000 8.7 250 11:39 12.05.2020
3337 Clouds 19 1012 63 10000 8.7 240 11:21 12.05.2020
3338 Clouds 19 1012 63 10000 8.7 240 10:59 12.05.2020
3339 Clouds 19 1012 63 10000 8.7 240 10:40 12.05.2020
3340 Clouds 19 1012 63 10000 8.7 240 10:22 12.05.2020
3341 Clouds 17 1012 72 10000 4.1 220 09:59 12.05.2020
3342 Clear 17 1012 77 10000 7.7 220 09:40 12.05.2020
3343 Clear 17 1012 77 10000 7.7 220 09:21 12.05.2020
3344 Clouds 15 1012 87 10000 4.6 220 08:57 12.05.2020
3345 Clear 15 1012 87 10000 4.6 220 08:38 12.05.2020
3346 Clouds 15 1012 87 10000 4.6 220 08:19 12.05.2020
3347 Clouds 16 1012 82 10000 5.1 220 07:41 12.05.2020
3348 Clouds 16 1012 82 10000 5.1 220 07:22 12.05.2020
3349 Clouds 16 1012 82 10000 3.6 230 06:49 12.05.2020
3350 Clouds 18 1012 82 10000 3.6 230 06:27 12.05.2020
3351 Clouds 18 1012 82 10000 3.1 240 05:50 12.05.2020
3352 Clouds 19 1012 77 10000 4.1 240 05:30 12.05.2020
3353 Clouds 17 1013 82 10000 5.1 270 03:27 12.05.2020
3354 Clouds 17 1013 82 10000 2.6 290 02:41 12.05.2020
3355 Clouds 17 1013 82 10000 2.6 290 02:18 12.05.2020
3356 Clouds 19 1014 77 10000 2.1 310 01:26 12.05.2020
3357 Clouds 19 1014 77 10000 2.1 320 00:27 12.05.2020
3358 Clouds 19 1014 77 10000 2.6 330 23:58 11.05.2020
3359 Clouds 19 1014 72 10000 2.1 320 23:40 11.05.2020
3360 Clouds 19 1014 72 10000 2.1 320 23:20 11.05.2020
3361 Clouds 19 1014 72 10000 2.6 330 22:58 11.05.2020
3362 Clouds 19 1014 72 10000 5.1 320 22:40 11.05.2020
3363 Clouds 19 1013 64 10000 4.1 300 22:20 11.05.2020
3364 Clouds 20 1013 64 10000 4.1 300 21:58 11.05.2020
3365 Clouds 20 1013 64 10000 4.1 300 21:39 11.05.2020
3366 Clouds 20 1013 64 10000 4.1 300 21:19 11.05.2020
3367 Clouds 20 1013 64 10000 6.2 320 20:57 11.05.2020
3368 Clouds 20 1013 64 10000 6.2 320 20:57 11.05.2020
3369 Clouds 21 1013 64 10000 6.2 320 20:39 11.05.2020
3370 Clouds 21 1013 64 10000 6.2 320 20:20 11.05.2020
3371 Clouds 21 1013 68 10000 6.7 320 19:55 11.05.2020
3372 Clouds 21 1013 68 10000 6.7 320 19:36 11.05.2020
3373 Clouds 21 1013 68 10000 6.7 320 19:18 11.05.2020
3374 Clouds 22 1013 64 10000 8.7 300 18:55 11.05.2020
3375 Clouds 22 1013 64 10000 8.7 300 18:36 11.05.2020
3376 Clouds 22 1013 64 10000 8.7 300 18:18 11.05.2020
3377 Clouds 22 1013 64 10000 8.7 300 18:18 11.05.2020
3378 Clouds 22 1013 64 10000 8.7 320 17:41 11.05.2020
3379 Clouds 22 1013 64 10000 8.7 320 17:22 11.05.2020
3380 Clouds 22 1014 60 10000 8.2 320 16:59 11.05.2020
3381 Clouds 22 1014 60 10000 8.2 320 16:39 11.05.2020
3382 Clouds 22 1014 60 10000 8.2 320 16:21 11.05.2020
3383 Clouds 23 1014 53 10000 7.2 320 15:57 11.05.2020
3384 Clouds 23 1014 53 10000 7.2 320 15:39 11.05.2020
3385 Clouds 23 1014 53 10000 7.2 320 15:18 11.05.2020
3386 Clouds 23 1015 46 10000 6.2 300 14:42 11.05.2020
3387 Clouds 23 1015 46 10000 6.2 300 14:42 11.05.2020
3388 Clouds 23 1015 46 10000 6.2 300 14:23 11.05.2020
3389 Clouds 23 1015 46 10000 4.1 320 13:59 11.05.2020
3390 Clouds 23 1015 46 10000 4.1 320 13:41 11.05.2020
3391 Clouds 23 1015 46 10000 4.1 320 13:19 11.05.2020
3392 Clouds 21 1015 56 10000 4.1 200 12:58 11.05.2020
3393 Clouds 21 1015 56 10000 4.1 200 12:39 11.05.2020
3394 Clouds 21 1015 56 10000 4.1 200 12:21 11.05.2020
3395 Clouds 20 1015 68 10000 3.1 180 11:55 11.05.2020
3396 Clouds 19 1015 68 10000 3.1 180 11:37 11.05.2020
3397 Clouds 19 1015 68 10000 3.1 180 11:18 11.05.2020
3398 Clouds 19 1015 68 10000 3.1 180 11:18 11.05.2020
3399 Clouds 18 1016 72 0 2.6 220 10:54 11.05.2020
3400 Clouds 18 1016 72 0 2.6 220 10:36 11.05.2020
3401 Clouds 18 1016 72 0 2.6 220 10:18 11.05.2020
3402 Clouds 17 1015 77 10000 5.7 180 09:42 11.05.2020
3403 Clouds 17 1015 77 10000 5.7 180 09:20 11.05.2020
3404 Clouds 15 1015 77 10000 3.6 200 08:57 11.05.2020
3405 Clouds 12 1015 93 10000 2.6 180 08:38 11.05.2020
3406 Clouds 12 1015 93 10000 2.6 180 08:18 11.05.2020
3407 Clouds 12 1015 93 10000 2.1 180 07:47 11.05.2020
3408 Clouds 13 1015 93 10000 2.6 190 07:28 11.05.2020
3409 Clouds 13 1015 93 10000 3.1 190 06:51 11.05.2020
3410 Clouds 12 1015 93 10000 2.6 190 05:58 11.05.2020
3411 Clouds 12 1016 93 10000 2.1 210 05:25 11.05.2020
3412 Clouds 13 1016 87 10000 2.6 190 04:35 11.05.2020
3413 Clouds 13 1016 87 10000 2.6 190 03:32 11.05.2020
3414 Clouds 17 1016 93 10000 2.1 220 02:33 11.05.2020
3415 Clouds 17 1017 87 10000 1.5 210 01:43 11.05.2020
3416 Clouds 18 1017 82 10000 1 320 00:53 11.05.2020
3417 Clouds 18 1017 82 10000 1 320 00:20 11.05.2020
3418 Clouds 18 1017 77 10000 2.1 320 23:44 10.05.2020
3419 Clouds 18 1017 77 10000 2.1 320 23:24 10.05.2020
3420 Clouds 19 1017 72 10000 4.1 320 22:57 10.05.2020
3421 Clouds 19 1016 68 10000 6.2 320 22:38 10.05.2020
3422 Clouds 19 1016 68 10000 6.2 320 22:20 10.05.2020
3423 Clouds 19 1016 68 10000 6.2 320 21:44 10.05.2020
3424 Clouds 19 1016 68 10000 6.2 320 21:44 10.05.2020
3425 Clouds 19 1016 68 10000 6.2 320 21:20 10.05.2020
3426 Clouds 20 1016 64 10000 5.7 320 20:55 10.05.2020
3427 Clouds 20 1016 64 10000 5.7 320 20:36 10.05.2020
3428 Clouds 20 1016 64 10000 5.7 320 20:36 10.05.2020
3429 Clouds 20 1016 64 10000 5.7 320 20:18 10.05.2020
3430 Clouds 21 1016 60 10000 7.2 300 19:40 10.05.2020
3431 Clouds 21 1016 60 10000 7.2 300 19:22 10.05.2020
3432 Clouds 21 1016 60 10000 6.2 320 18:57 10.05.2020
3433 Clouds 21 1016 60 10000 6.2 320 18:57 10.05.2020
3434 Clouds 21 1016 60 10000 6.2 320 18:37 10.05.2020
3435 Clouds 21 1016 60 10000 6.2 320 18:19 10.05.2020
3436 Clouds 22 1016 56 10000 7.7 300 17:59 10.05.2020
3437 Clouds 22 1016 56 10000 7.7 300 17:40 10.05.2020
3438 Clouds 22 1016 56 10000 7.7 300 17:22 10.05.2020
3439 Clouds 22 1016 60 10000 8.2 320 16:58 10.05.2020
3440 Clouds 22 1016 60 10000 8.2 320 16:40 10.05.2020
3441 Clouds 22 1016 60 10000 8.2 320 16:19 10.05.2020
3442 Clouds 22 1016 56 10000 7.2 320 15:44 10.05.2020
3443 Clouds 21 1016 64 10000 6.2 300 15:25 10.05.2020
3444 Clouds 21 1016 64 10000 6.2 300 14:59 10.05.2020
3445 Clouds 21 1016 64 10000 6.2 300 14:38 10.05.2020
3446 Clouds 21 1016 64 10000 6.2 300 14:20 10.05.2020
3447 Clouds 21 1016 64 10000 6.2 300 14:20 10.05.2020
3448 Clouds 21 1016 64 10000 6.2 300 14:20 10.05.2020
3449 Clouds 21 1016 64 10000 6.2 300 14:20 10.05.2020
3450 Clouds 21 1017 60 10000 5.1 260 13:59 10.05.2020
3451 Clouds 21 1017 60 10000 5.1 260 13:38 10.05.2020
3452 Clouds 21 1017 60 10000 5.1 260 13:20 10.05.2020
3453 Clouds 21 1016 56 10000 6.7 300 12:57 10.05.2020
3454 Clouds 21 1016 56 10000 6.7 300 12:39 10.05.2020
3455 Clouds 21 1016 56 10000 6.7 300 12:21 10.05.2020
3456 Clouds 21 1016 64 10000 2.1 260 11:57 10.05.2020
3457 Clouds 20 1016 64 10000 2.1 260 11:39 10.05.2020
3458 Clouds 20 1016 64 10000 2.1 260 11:20 10.05.2020
3459 Clouds 19 1016 72 10000 5.1 240 10:47 10.05.2020
3460 Clouds 19 1016 72 10000 5.1 240 10:29 10.05.2020
3461 Clouds 17 1015 82 10000 2.1 220 09:59 10.05.2020
3462 Clouds 17 1015 82 10000 2.1 220 09:40 10.05.2020
3463 Clouds 17 1015 82 10000 2.1 220 09:21 10.05.2020
3464 Clouds 17 1015 82 10000 2.1 220 08:51 10.05.2020
3465 Clouds 16 1015 93 10000 3.6 240 08:24 10.05.2020
3466 Clouds 16 1015 93 10000 3.6 230 07:45 10.05.2020
3467 Clouds 16 1015 93 10000 3.6 230 07:21 10.05.2020
3468 Clouds 16 1015 93 10000 3.1 230 06:58 10.05.2020
3469 Clouds 16 1015 93 10000 3.1 220 06:35 10.05.2020
3470 Clouds 16 1015 87 10000 3.1 210 05:52 10.05.2020
3471 Rain 16 1015 93 10000 3.1 230 04:58 10.05.2020
3472 Rain 16 1015 93 10000 3.1 230 04:38 10.05.2020
3473 Rain 16 1015 93 10000 3.1 230 04:20 10.05.2020
3474 Clouds 17 1016 88 10000 3.1 250 03:39 10.05.2020
3475 Clouds 17 1016 88 10000 3.1 250 02:50 10.05.2020
3476 Clouds 17 1016 88 10000 2.6 250 02:22 10.05.2020
3477 Clouds 17 1016 88 10000 2.1 250 01:42 10.05.2020
3478 Clouds 19 1016 88 10000 1.5 280 01:21 10.05.2020
3479 Clouds 19 1016 88 10000 2.1 280 00:55 10.05.2020
3480 Clouds 20 1016 82 10000 2.1 290 00:29 10.05.2020
3481 Clouds 20 1016 82 10000 3.1 300 23:59 09.05.2020
3482 Clouds 20 1016 88 10000 3.6 290 23:39 09.05.2020
3483 Clouds 20 1016 88 10000 3.6 290 23:20 09.05.2020
3484 Clouds 20 1016 77 10000 3.6 300 22:44 09.05.2020
3485 Clouds 20 1015 64 10000 6.2 300 22:25 09.05.2020
3486 Clouds 20 1015 64 10000 6.2 300 22:25 09.05.2020
3487 Clouds 20 1015 64 10000 6.2 300 21:59 09.05.2020
3488 Clouds 20 1015 64 10000 6.2 300 21:41 09.05.2020
3489 Clouds 20 1015 64 10000 6.2 300 21:22 09.05.2020
3490 Clouds 21 1015 64 10000 5.1 280 20:58 09.05.2020
3491 Clouds 21 1015 64 10000 5.1 280 20:39 09.05.2020
3492 Clouds 21 1015 64 10000 5.1 280 20:20 09.05.2020
3493 Clouds 21 1015 64 10000 9.3 300 19:58 09.05.2020
3494 Clouds 21 1015 64 10000 9.3 300 19:38 09.05.2020
3495 Clouds 21 1015 64 10000 9.3 300 19:19 09.05.2020
3496 Clouds 22 1015 56 10000 6.2 300 18:45 09.05.2020
3497 Clouds 22 1015 56 10000 6.2 300 18:26 09.05.2020
3498 Clouds 22 1015 56 10000 9.8 300 17:56 09.05.2020
3499 Clouds 22 1015 56 10000 9.8 300 17:36 09.05.2020
3500 Clouds 22 1015 56 10000 9.8 300 17:18 09.05.2020
3501 Clouds 21 1016 60 10000 10.8 320 16:41 09.05.2020
3502 Clouds 21 1016 60 10000 10.8 320 16:19 09.05.2020
3503 Clouds 22 1016 49 10000 6.2 300 15:45 09.05.2020
3504 Clouds 22 1016 49 10000 6.2 300 15:26 09.05.2020
3505 Clouds 22 1016 53 10000 6.7 300 14:59 09.05.2020
3506 Clouds 22 1016 53 10000 6.7 300 14:40 09.05.2020
3507 Clouds 22 1016 53 10000 6.7 300 14:19 09.05.2020
3508 Clouds 22 1016 49 10000 4.1 300 13:57 09.05.2020
3509 Clouds 22 1016 49 10000 4.1 300 13:38 09.05.2020
3510 Clouds 22 1016 49 10000 4.1 300 13:19 09.05.2020
3511 Clouds 21 1017 52 10000 4.1 300 12:42 09.05.2020
3512 Clouds 21 1017 52 10000 4.1 300 12:22 09.05.2020
3513 Clouds 20 1017 60 10000 4.6 300 11:56 09.05.2020
3514 Clouds 20 1017 60 10000 4.6 300 11:37 09.05.2020
3515 Clouds 20 1017 60 10000 4.6 300 11:18 09.05.2020
3516 Clouds 19 1017 63 10000 3.1 260 10:43 09.05.2020
3517 Clouds 19 1017 63 10000 3.1 260 10:23 09.05.2020
3518 Clouds 17 1017 77 10000 3.1 240 09:56 09.05.2020
3519 Clouds 16 1017 77 10000 3.1 240 09:37 09.05.2020
3520 Clouds 16 1017 77 10000 3.1 240 09:18 09.05.2020
3521 Clouds 15 1016 77 10000 2.1 220 08:51 09.05.2020
3522 Clouds 15 1016 77 10000 2.1 220 08:31 09.05.2020
3523 Clouds 13 1016 93 10000 2.1 230 07:49 09.05.2020
3524 Clouds 14 1016 87 10000 1.5 270 07:31 09.05.2020
3525 Clouds 14 1016 93 10000 1.5 270 06:49 09.05.2020
3526 Clouds 14 1016 93 10000 1 240 06:24 09.05.2020
3527 Clouds 15 1016 87 10000 1 240 05:45 09.05.2020
3528 Clouds 16 1017 82 10000 1.5 210 03:55 09.05.2020
3529 Clouds 16 1017 82 10000 1.5 210 03:36 09.05.2020
3530 Clouds 16 1017 82 10000 1 0 02:42 09.05.2020
3531 Clouds 17 1017 82 10000 2.1 20 01:54 09.05.2020
3532 Clouds 17 1017 77 10000 2.6 20 01:24 09.05.2020
3533 Clouds 17 1018 77 10000 2.6 360 00:54 09.05.2020
3534 Clear 17 1018 82 10000 2.6 10 00:36 09.05.2020
3535 Clouds 19 1018 82 10000 2.6 360 23:49 08.05.2020
3536 Clouds 19 1018 82 10000 2.6 350 23:29 08.05.2020
3537 Clouds 19 1017 82 10000 3.6 350 22:59 08.05.2020
3538 Clouds 19 1017 77 10000 3.6 350 22:40 08.05.2020
3539 Clouds 19 1017 60 10000 6.2 340 22:19 08.05.2020
3540 Clouds 20 1017 60 10000 6.2 340 21:59 08.05.2020
3541 Clouds 20 1017 60 10000 6.2 340 21:40 08.05.2020
3542 Clouds 20 1017 60 10000 6.2 340 21:19 08.05.2020
3543 Clouds 20 1017 64 10000 5.1 320 20:58 08.05.2020
3544 Clouds 20 1017 64 10000 5.1 320 20:39 08.05.2020
3545 Clouds 20 1017 64 10000 5.1 320 20:39 08.05.2020
3546 Clouds 20 1017 64 10000 5.1 320 20:21 08.05.2020
3547 Clouds 20 1016 60 10000 8.2 340 19:44 08.05.2020
3548 Clouds 21 1016 60 10000 8.2 340 19:24 08.05.2020
3549 Clouds 21 1016 64 10000 8.2 340 18:56 08.05.2020
3550 Clouds 21 1016 64 10000 8.2 340 18:38 08.05.2020
3551 Clouds 21 1016 64 10000 8.2 340 18:18 08.05.2020
3552 Clouds 22 1016 60 10000 6.2 320 17:42 08.05.2020
3553 Clouds 22 1016 60 10000 6.2 320 17:18 08.05.2020
3554 Clouds 21 1016 64 10000 9.3 340 16:45 08.05.2020
3555 Clouds 21 1016 64 10000 9.3 340 16:26 08.05.2020
3556 Clouds 22 1016 60 10000 6.2 320 15:58 08.05.2020
3557 Clouds 22 1016 60 10000 6.2 320 15:40 08.05.2020
3558 Clouds 22 1016 60 10000 6.2 320 15:18 08.05.2020
3559 Clouds 22 1016 60 10000 5.7 320 14:54 08.05.2020
3560 Clouds 22 1016 60 10000 5.7 320 14:54 08.05.2020
3561 Clouds 22 1016 60 10000 5.7 320 14:36 08.05.2020
3562 Clouds 22 1016 60 10000 5.7 320 14:18 08.05.2020
3563 Clouds 21 1016 64 10000 5.1 320 13:39 08.05.2020
3564 Clouds 21 1016 64 10000 5.1 320 13:20 08.05.2020
3565 Clouds 21 1016 64 10000 5.1 340 12:46 08.05.2020
3566 Clouds 21 1016 64 10000 5.1 340 12:25 08.05.2020
3567 Clouds 21 1016 60 10000 5.1 340 11:59 08.05.2020
3568 Clouds 21 1016 60 10000 5.1 340 11:41 08.05.2020
3569 Clouds 21 1016 60 10000 5.1 340 11:21 08.05.2020
3570 Clouds 20 1016 68 10000 6.2 360 10:57 08.05.2020
3571 Clouds 20 1016 68 10000 6.2 360 10:39 08.05.2020
3572 Clouds 20 1016 68 10000 6.2 360 10:18 08.05.2020
3573 Clouds 19 1016 77 10000 5.1 360 09:41 08.05.2020
3574 Clouds 19 1016 77 10000 5.1 360 09:19 08.05.2020
3575 Clouds 18 1016 82 10000 2.6 330 08:56 08.05.2020
3576 Clouds 18 1016 82 10000 3.1 320 08:37 08.05.2020
3577 Clouds 18 1016 82 10000 3.1 320 08:18 08.05.2020
3578 Clouds 18 1015 82 10000 2.6 320 07:39 08.05.2020
3579 Clouds 18 1015 82 10000 2.6 320 07:19 08.05.2020
3580 Clouds 18 1015 82 10000 2.1 330 06:42 08.05.2020
3581 Clouds 18 1015 77 10000 2.1 360 06:20 08.05.2020
3582 Clouds 18 1015 82 10000 2.6 290 05:32 08.05.2020
3583 Clouds 19 1015 82 10000 2.1 360 03:23 08.05.2020
3584 Clouds 19 1016 88 10000 2.1 360 02:29 08.05.2020
3585 Clouds 19 1016 93 10000 2.6 350 01:40 08.05.2020
3586 Clouds 19 1016 93 10000 2.6 350 01:20 08.05.2020
3587 Clouds 19 1016 93 10000 2.6 350 00:47 08.05.2020
3588 Clouds 19 1015 88 10000 3.1 320 00:27 08.05.2020
3589 Clouds 19 1016 88 10000 4.1 330 23:57 07.05.2020
3590 Clouds 19 1015 88 10000 4.6 330 23:38 07.05.2020
3591 Clouds 19 1015 88 10000 4.6 330 23:20 07.05.2020
3592 Clouds 19 1015 88 10000 4.1 320 22:42 07.05.2020
3593 Clear 19 1013 72 10000 4.1 280 22:20 07.05.2020
3594 Clear 20 1013 72 10000 4.1 280 21:57 07.05.2020
3595 Clear 20 1013 72 10000 4.1 280 21:39 07.05.2020
3596 Clear 20 1013 72 10000 4.1 280 21:20 07.05.2020
3597 Clear 21 1013 73 10000 4.1 280 20:57 07.05.2020
3598 Clear 21 1013 73 10000 4.1 280 20:38 07.05.2020
3599 Clear 21 1013 73 10000 4.1 280 20:19 07.05.2020
3600 Clear 22 1013 68 10000 7.2 320 19:47 07.05.2020
3601 Clear 22 1013 68 10000 7.2 320 19:23 07.05.2020
3602 Clear 23 1013 68 10000 8.2 280 18:56 07.05.2020
3603 Clear 23 1013 68 10000 8.2 280 18:38 07.05.2020
3604 Clear 23 1013 68 10000 8.2 280 18:20 07.05.2020
3605 Clear 23 1013 68 10000 8.2 320 17:41 07.05.2020
3606 Clear 23 1013 68 10000 8.2 320 17:20 07.05.2020
3607 Clear 24 1013 64 10000 6.2 300 16:43 07.05.2020
3608 Clear 24 1013 64 10000 6.2 300 16:19 07.05.2020
3609 Clear 24 1013 64 10000 6.2 280 15:57 07.05.2020
3610 Clear 24 1013 64 10000 6.2 280 15:38 07.05.2020
3611 Clear 24 1013 64 10000 6.2 280 15:18 07.05.2020
3612 Clear 24 1014 64 10000 6.2 260 14:56 07.05.2020
3613 Clear 23 1014 64 10000 6.2 260 14:37 07.05.2020
3614 Clouds 23 1014 64 10000 6.2 260 14:18 07.05.2020
3615 Clouds 23 1014 64 10000 6.2 260 14:18 07.05.2020
3616 Clouds 23 1013 64 10000 7.2 280 13:42 07.05.2020
3617 Clouds 23 1013 68 10000 7.2 280 13:22 07.05.2020
3618 Clouds 22 1013 68 10000 7.2 280 12:43 07.05.2020
3619 Clouds 22 1013 68 10000 7.2 280 12:20 07.05.2020
3620 Clouds 22 1013 68 10000 7.2 280 12:20 07.05.2020
3621 Clouds 22 1013 73 10000 4.1 280 11:54 07.05.2020
3622 Clouds 21 1013 73 10000 4.1 280 11:36 07.05.2020
3623 Clouds 21 1013 73 10000 4.1 280 11:18 07.05.2020
3624 Clouds 20 1013 77 10000 4.1 240 10:40 07.05.2020
3625 Clouds 19 1013 77 10000 4.1 240 10:20 07.05.2020
3626 Clouds 17 1013 100 10000 2.6 230 09:40 07.05.2020
3627 Clouds 16 1013 100 10000 2.6 230 09:20 07.05.2020
3628 Clouds 15 1012 100 10000 2.1 230 08:56 07.05.2020
3629 Clouds 15 1012 100 10000 2.1 230 08:37 07.05.2020
3630 Clouds 15 1012 100 10000 2.1 230 08:19 07.05.2020
3631 Clouds 15 1012 100 10000 2.1 250 07:43 07.05.2020
3632 Clouds 15 1012 100 10000 2.1 250 07:43 07.05.2020
3633 Clouds 15 1012 100 10000 2.1 250 07:25 07.05.2020
3634 Mist 15 1012 100 4000 0.5 0 06:45 07.05.2020
3635 Mist 17 1012 100 4000 0.5 0 06:23 07.05.2020
3636 Clouds 18 1012 93 10000 0.5 0 05:29 07.05.2020
3637 Clouds 18 1013 93 10000 1.5 10 03:55 07.05.2020
3638 Clouds 18 1013 93 10000 1.5 10 03:24 07.05.2020
3639 Clouds 18 1013 93 10000 1.5 40 02:42 07.05.2020
3640 Clouds 19 1014 88 10000 2.6 60 01:41 07.05.2020
3641 Clouds 19 1014 88 10000 2.6 60 01:23 07.05.2020
3642 Clouds 19 1014 88 10000 2.6 50 00:45 07.05.2020
3643 Clouds 19 1014 82 10000 3.6 40 00:26 07.05.2020
3644 Clouds 19 1014 88 10000 3.6 30 23:46 06.05.2020
3645 Clouds 19 1014 88 10000 3.6 30 23:25 06.05.2020
3646 Clouds 19 1014 77 10000 4.6 20 22:57 06.05.2020
3647 Clouds 19 1014 77 10000 5.1 10 22:39 06.05.2020
3648 Clouds 19 1012 77 10000 6.2 20 22:19 06.05.2020
3649 Clouds 19 1012 77 10000 6.2 20 21:56 06.05.2020
3650 Clouds 19 1012 77 10000 6.2 20 21:38 06.05.2020
3651 Clouds 19 1012 77 10000 6.2 20 21:38 06.05.2020
3652 Clouds 19 1012 77 10000 6.2 20 21:38 06.05.2020
3653 Clouds 19 1012 77 10000 6.2 20 21:19 06.05.2020
3654 Clouds 20 1013 77 10000 7.2 20 20:42 06.05.2020
3655 Clouds 20 1013 77 10000 7.2 20 20:23 06.05.2020
3656 Clouds 21 1013 77 10000 9.3 40 19:58 06.05.2020
3657 Clouds 21 1013 77 10000 9.3 40 19:39 06.05.2020
3658 Clouds 21 1013 77 10000 9.3 40 19:20 06.05.2020
3659 Clouds 21 1013 77 10000 10.3 40 18:59 06.05.2020
3660 Clouds 21 1013 77 10000 10.3 40 18:39 06.05.2020
3661 Clouds 21 1013 77 10000 10.3 40 18:21 06.05.2020
3662 Clouds 21 1014 73 10000 8.2 20 17:58 06.05.2020
3663 Clouds 21 1014 73 10000 8.2 20 17:39 06.05.2020
3664 Clouds 21 1014 73 10000 8.2 20 17:21 06.05.2020
3665 Clouds 22 1015 68 10000 7.2 20 16:58 06.05.2020
3666 Clouds 22 1015 68 10000 7.2 20 16:40 06.05.2020
3667 Clouds 22 1015 68 10000 7.2 20 16:21 06.05.2020
3668 Clouds 22 1015 68 10000 7.2 20 15:58 06.05.2020
3669 Clouds 22 1015 68 10000 7.2 20 15:40 06.05.2020
3670 Clouds 22 1015 68 10000 7.2 20 15:20 06.05.2020
3671 Clouds 22 1016 68 10000 7.2 40 14:42 06.05.2020
3672 Clouds 22 1016 68 10000 7.2 40 14:42 06.05.2020
3673 Clouds 22 1016 68 10000 7.2 40 14:19 06.05.2020
3674 Clouds 21 1016 68 10000 6.2 40 13:59 06.05.2020
3675 Clouds 21 1016 68 10000 6.2 40 13:40 06.05.2020
3676 Clouds 21 1016 68 10000 6.2 40 13:22 06.05.2020
3677 Clouds 20 1017 68 10000 7.2 40 12:54 06.05.2020
3678 Clouds 20 1017 68 10000 7.2 40 12:36 06.05.2020
3679 Clouds 20 1017 68 10000 7.2 40 12:18 06.05.2020
3680 Clouds 19 1017 72 10000 7.2 40 11:40 06.05.2020
3681 Clouds 19 1017 72 10000 7.2 40 11:21 06.05.2020
3682 Clouds 19 1017 72 10000 5.1 60 10:56 06.05.2020
3683 Clouds 19 1017 72 10000 5.1 60 10:37 06.05.2020
3684 Clouds 19 1017 72 10000 5.1 60 10:18 06.05.2020
3685 Clouds 17 1017 77 10000 4.1 40 09:41 06.05.2020
3686 Clouds 17 1017 77 10000 4.1 40 09:22 06.05.2020
3687 Clouds 15 1017 93 10000 4.1 50 08:45 06.05.2020
3688 Clouds 15 1017 93 10000 4.1 50 08:23 06.05.2020
3689 Clouds 15 1017 93 10000 4.1 50 08:23 06.05.2020
3690 Clouds 15 1017 93 10000 3.6 50 07:59 06.05.2020
3691 Clouds 15 1017 93 10000 3.6 50 07:39 06.05.2020
3692 Clouds 15 1017 93 10000 3.6 50 07:20 06.05.2020
3693 Clouds 15 1017 100 10000 4.1 50 06:51 06.05.2020
3694 Clouds 17 1017 100 10000 4.1 50 06:21 06.05.2020
3695 Clouds 17 1017 100 10000 3.1 60 05:52 06.05.2020
3696 Clouds 18 1017 93 10000 4.1 60 05:34 06.05.2020
3697 Clouds 18 1017 93 10000 3.6 50 04:31 06.05.2020
3698 Clouds 18 1018 93 10000 3.1 60 03:38 06.05.2020
3699 Clouds 18 1018 93 10000 3.1 60 03:19 06.05.2020
3700 Clouds 18 1019 88 10000 3.1 50 02:29 06.05.2020
3701 Clouds 18 1019 93 10000 4.1 40 01:54 06.05.2020
3702 Clouds 18 1020 93 10000 3.6 40 01:30 06.05.2020
3703 Clouds 18 1020 93 10000 2.6 40 00:53 06.05.2020
3704 Clouds 18 1020 88 10000 2.6 40 00:23 06.05.2020
3705 Clouds 18 1020 88 10000 3.1 30 23:55 05.05.2020
3706 Clouds 19 1020 82 10000 3.6 40 23:37 05.05.2020
3707 Clouds 19 1020 82 10000 3.6 40 23:18 05.05.2020
3708 Clouds 19 1019 82 10000 4.6 20 22:41 05.05.2020
3709 Clouds 19 1018 72 10000 6.2 20 22:19 05.05.2020
3710 Clouds 19 1018 72 10000 6.2 20 21:56 05.05.2020
3711 Clouds 19 1018 72 10000 6.2 20 21:38 05.05.2020
3712 Clouds 19 1018 72 10000 6.2 20 21:19 05.05.2020
3713 Clouds 20 1017 72 10000 6.7 20 20:56 05.05.2020
3714 Clouds 20 1017 72 10000 6.7 20 20:38 05.05.2020
3715 Clouds 20 1017 72 10000 6.7 20 20:18 05.05.2020
3716 Clouds 20 1018 72 0 8.2 20 19:42 05.05.2020
3717 Clouds 20 1018 72 0 8.2 20 19:24 05.05.2020
3718 Clouds 21 1017 68 10000 7.7 20 18:58 05.05.2020
3719 Clouds 21 1017 68 10000 7.7 20 18:40 05.05.2020
3720 Clouds 21 1017 68 10000 7.7 20 18:20 05.05.2020
3721 Clouds 21 1017 73 10000 7.2 40 17:58 05.05.2020
3722 Clouds 21 1017 73 10000 7.2 40 17:58 05.05.2020
3723 Clouds 21 1017 73 10000 7.2 40 17:39 05.05.2020
3724 Clouds 21 1017 73 10000 7.2 40 17:21 05.05.2020
3725 Clouds 22 1014 60 10000 7.2 20 16:56 05.05.2020
3726 Clouds 22 1014 60 10000 7.2 20 16:36 05.05.2020
3727 Clouds 22 1014 60 10000 7.2 20 16:18 05.05.2020
3728 Clouds 22 1014 60 10000 7.2 20 16:18 05.05.2020
3729 Clouds 22 1017 64 10000 7.2 20 15:41 05.05.2020
3730 Clouds 22 1017 64 10000 7.2 20 15:22 05.05.2020
3731 Clouds 22 1017 64 10000 5.1 20 14:57 05.05.2020
3732 Clouds 22 1017 64 10000 5.1 20 14:38 05.05.2020
3733 Clouds 22 1017 64 10000 5.1 20 14:20 05.05.2020
3734 Clouds 22 1017 64 10000 6.2 20 13:58 05.05.2020
3735 Clouds 22 1017 64 10000 6.2 20 13:39 05.05.2020
3736 Clouds 22 1017 64 10000 6.2 20 13:20 05.05.2020
3737 Clouds 21 1017 72 10000 5.7 20 12:58 05.05.2020
3738 Clouds 20 1017 72 10000 5.7 20 12:38 05.05.2020
3739 Clouds 20 1017 72 10000 5.7 20 12:19 05.05.2020
3740 Clouds 20 1017 72 10000 4.1 20 11:42 05.05.2020
3741 Clouds 20 1017 72 10000 4.1 20 11:42 05.05.2020
3742 Clouds 20 1017 72 10000 4.1 20 11:20 05.05.2020
3743 Clouds 20 1017 72 10000 4.1 20 11:20 05.05.2020
3744 Clouds 19 1017 77 10000 4.1 100 10:59 05.05.2020
3745 Clouds 19 1017 77 10000 4.1 100 10:38 05.05.2020
3746 Clouds 19 1017 77 10000 4.1 100 10:19 05.05.2020
3747 Clouds 19 1016 82 0 1.5 80 09:57 05.05.2020
3748 Clouds 18 1016 82 0 1.5 80 09:39 05.05.2020
3749 Clouds 18 1016 82 0 1.5 80 09:20 05.05.2020
3750 Clouds 18 1016 82 10000 2.6 100 08:41 05.05.2020
3751 Clouds 18 1016 82 10000 2.6 100 08:20 05.05.2020
3752 Clouds 17 1016 100 10000 3.1 50 07:57 05.05.2020
3753 Clouds 17 1016 100 10000 3.1 50 07:38 05.05.2020
3754 Clouds 17 1016 100 10000 3.1 50 07:18 05.05.2020
3755 Clouds 17 1016 93 10000 4.6 30 06:42 05.05.2020
3756 Clouds 17 1016 93 10000 4.6 30 06:20 05.05.2020
3757 Clouds 17 1016 93 10000 3.6 40 05:34 05.05.2020
3758 Clouds 17 1016 93 10000 3.1 40 03:34 05.05.2020
3759 Clouds 18 1018 88 10000 3.1 50 01:27 05.05.2020
3760 Clouds 18 1018 88 10000 2.6 30 00:50 05.05.2020
3761 Clouds 18 1018 88 10000 2.6 30 00:20 05.05.2020
3762 Clouds 18 1018 88 10000 2.6 40 23:43 04.05.2020
3763 Clouds 18 1018 88 10000 3.1 20 23:21 04.05.2020
3764 Clouds 19 1018 82 10000 4.6 10 22:56 04.05.2020
3765 Clouds 20 1017 77 10000 4.1 340 22:38 04.05.2020
3766 Clouds 20 1017 77 10000 4.1 340 22:19 04.05.2020
3767 Clouds 20 1017 77 10000 4.1 340 21:53 04.05.2020
3768 Clouds 20 1017 77 10000 4.1 340 21:53 04.05.2020
3769 Clouds 20 1017 77 10000 4.1 340 21:53 04.05.2020
3770 Clouds 20 1017 77 10000 4.1 340 21:53 04.05.2020
3771 Clouds 20 1017 77 10000 4.1 340 21:53 04.05.2020
3772 Clouds 20 1017 77 10000 4.1 340 21:30 04.05.2020
3773 Clouds 21 1016 68 10000 7.2 360 20:54 04.05.2020
3774 Clouds 21 1016 68 10000 7.2 360 20:36 04.05.2020
3775 Clouds 21 1016 68 10000 7.2 360 20:18 04.05.2020
3776 Clouds 22 1016 68 10000 5.1 360 19:41 04.05.2020
3777 Clouds 22 1016 68 10000 5.1 360 19:21 04.05.2020
3778 Clouds 22 1016 68 10000 5.1 320 18:56 04.05.2020
3779 Clouds 23 1016 68 10000 5.1 320 18:37 04.05.2020
3780 Clouds 23 1016 68 10000 5.1 320 18:18 04.05.2020
3781 Clouds 23 1016 68 10000 5.1 320 18:18 04.05.2020
3782 Clouds 24 1016 64 10000 4.1 340 17:55 04.05.2020
3783 Clouds 23 1016 64 10000 4.1 340 17:37 04.05.2020
3784 Clouds 23 1016 64 10000 4.1 340 17:18 04.05.2020
3785 Clouds 23 1016 64 10000 4.1 340 16:42 04.05.2020
3786 Clouds 23 1016 64 10000 4.1 340 16:21 04.05.2020
3787 Clouds 22 1016 68 10000 7.7 300 15:46 04.05.2020
3788 Clouds 23 1016 68 10000 7.7 300 15:25 04.05.2020
3789 Clouds 23 1016 68 10000 7.2 320 14:58 04.05.2020
3790 Clouds 23 1016 68 10000 7.2 320 14:58 04.05.2020
3791 Clouds 23 1016 68 10000 7.2 320 14:40 04.05.2020
3792 Clouds 23 1016 68 10000 7.2 320 14:13 04.05.2020
3793 Clouds 23 1016 68 10000 7.2 320 14:13 04.05.2020
3794 Clouds 23 1016 68 10000 7.2 320 14:13 04.05.2020
3795 Clouds 23 1016 68 10000 7.2 320 14:13 04.05.2020
3796 Clouds 22 1016 68 10000 4.69 286 12:49 04.05.2020
3797 Clouds 22 1016 68 10000 4.69 286 12:49 04.05.2020
3798 Clouds 22 1016 68 10000 4.69 286 12:49 04.05.2020
3799 Clouds 22 1016 68 10000 4.21 272 12:25 04.05.2020
3800 Clouds 22 1016 68 10000 4.21 272 12:25 04.05.2020
3801 Clouds 22 1016 68 10000 4.21 272 12:25 04.05.2020
3802 Clouds 22 1016 68 10000 4.21 272 12:25 04.05.2020
3803 Clouds 22 1016 68 10000 4.21 272 12:25 04.05.2020
3804 Clouds 19 1014 82 10000 4.11 265 10:34 04.05.2020
3805 Clouds 18 1014 82 10000 3.68 254 09:25 04.05.2020
3806 Clouds 18 1014 82 10000 3.57 254 09:25 04.05.2020
3807 Clouds 18 1014 82 10000 3.57 254 09:25 04.05.2020
3808 Mist 17 1012 100 4000 4.1 280 07:51 04.05.2020
3809 Mist 17 1012 100 4000 4.1 280 07:51 04.05.2020
3810 Mist 17 1012 100 4000 4.1 280 07:51 04.05.2020
3811 Mist 17 1012 100 4000 4.1 280 07:32 04.05.2020
3812 Mist 17 1012 100 4000 4.1 280 07:32 04.05.2020
3813 Mist 17 1012 100 4000 4.1 280 07:32 04.05.2020
3814 Mist 17 1012 100 4000 4.1 280 07:32 04.05.2020
3815 Mist 17 1012 100 4000 4.1 280 07:32 04.05.2020
3816 Clouds 18 1012 88 10000 2.6 260 04:58 04.05.2020
3817 Clouds 19 1012 82 10000 1.5 250 03:23 04.05.2020
3818 Clouds 25 1013 52 10000 2.6 280 02:32 04.05.2020
3819 Clouds 26 1013 38 10000 1.5 150 00:45 04.05.2020
3820 Clouds 26 1013 38 10000 1 0 23:46 03.05.2020
3821 Clouds 26 1013 36 10000 1.5 180 23:25 03.05.2020
3822 Clouds 27 1012 33 10000 1 200 22:57 03.05.2020
3823 Clouds 28 1011 37 10000 4.1 300 22:39 03.05.2020
3824 Clouds 28 1011 37 10000 4.1 300 22:21 03.05.2020
3825 Clouds 28 1011 37 10000 4.1 300 21:41 03.05.2020
3826 Clear 28 1011 37 10000 4.1 300 21:21 03.05.2020
3827 Clear 29 1011 37 10000 3.6 300 20:47 03.05.2020
3828 Clear 29 1011 37 10000 3.6 300 20:47 03.05.2020
3829 Clouds 30 1011 37 10000 3.6 300 20:23 03.05.2020
3830 Clouds 31 1011 23 10000 5.7 300 19:56 03.05.2020
3831 Clouds 31 1011 23 10000 5.7 300 19:56 03.05.2020
3832 Clouds 32 1011 23 10000 5.7 300 19:37 03.05.2020
3833 Clouds 32 1011 23 10000 5.7 300 19:18 03.05.2020
3834 Clouds 31 1011 30 8000 6.2 280 18:39 03.05.2020
3835 Clouds 32 1011 30 8000 6.2 280 18:20 03.05.2020
3836 Clouds 32 1011 30 8000 6.2 280 18:20 03.05.2020
3837 Clouds 32 1011 33 8000 9.3 280 17:56 03.05.2020
3838 Clouds 33 1011 33 8000 9.3 280 17:37 03.05.2020
3839 Clouds 34 1011 33 8000 9.3 280 17:19 03.05.2020
3840 Clouds 34 1011 33 8000 9.3 280 17:19 03.05.2020
3841 Clouds 34 1011 33 8000 9.3 280 17:19 03.05.2020
3842 Clouds 37 1010 20 8000 5.1 60 16:40 03.05.2020
3843 Clouds 37 1010 20 8000 5.1 60 16:40 03.05.2020
3844 Clouds 37 1010 20 8000 5.1 60 16:19 03.05.2020
3845 Clouds 35 1011 26 8000 3.1 40 15:56 03.05.2020
3846 Clouds 36 1011 26 8000 3.1 40 15:38 03.05.2020
3847 Clouds 36 1011 26 8000 3.1 40 15:38 03.05.2020
3848 Clouds 36 1011 26 8000 3.1 40 15:19 03.05.2020
3849 Clouds 35 1011 29 8000 4.1 20 14:55 03.05.2020
3850 Clouds 35 1011 29 8000 4.1 20 14:37 03.05.2020
3851 Clouds 35 1011 29 8000 4.1 20 14:19 03.05.2020
3852 Clouds 35 1011 29 8000 4.1 20 14:19 03.05.2020
3853 Clouds 34 1012 29 8000 5.1 340 13:37 03.05.2020
3854 Clear 33 1012 35 10000 2.1 340 12:52 03.05.2020
3855 Clear 33 1012 35 10000 2.1 340 12:29 03.05.2020
3856 Clear 33 1012 29 10000 2.6 100 11:58 03.05.2020
3857 Clear 33 1012 29 10000 2.6 100 11:40 03.05.2020
3858 Clear 33 1012 29 10000 2.6 100 11:40 03.05.2020
3859 Clear 33 1012 29 10000 2.6 100 11:40 03.05.2020
3860 Clear 33 1012 29 10000 2.6 100 11:40 03.05.2020
3861 Clear 33 1012 29 10000 2.6 100 11:40 03.05.2020
3862 Clear 33 1012 29 10000 2.6 100 11:21 03.05.2020
3863 Clear 28 1012 41 10000 2.1 180 10:54 03.05.2020
3864 Clear 27 1012 41 10000 2.1 180 10:25 03.05.2020
3865 Clear 23 1012 68 6000 2.1 180 09:41 03.05.2020
3866 Clear 23 1012 68 6000 2.1 180 09:41 03.05.2020
3867 Clear 23 1012 68 6000 2.1 180 09:41 03.05.2020
3868 Clear 23 1012 68 6000 2.1 180 09:41 03.05.2020
3869 Clear 23 1012 68 6000 2.1 180 09:41 03.05.2020
3870 Clear 17 1012 88 6000 1.5 140 09:00 03.05.2020
3871 Clear 17 1012 88 6000 1.5 140 09:00 03.05.2020
3872 Clear 17 1012 88 6000 1.5 140 08:35 03.05.2020
3873 Clear 16 1013 82 10000 2.1 130 07:45 03.05.2020
3874 Clear 16 1013 82 10000 1.5 120 06:58 03.05.2020
3875 Clear 16 1013 82 10000 1.5 120 06:58 03.05.2020
3876 Clear 16 1013 82 10000 1.5 120 06:58 03.05.2020
3877 Clear 16 1013 82 10000 1.5 120 06:55 03.05.2020
3878 Clear 16 1013 82 10000 1.5 120 06:54 03.05.2020
3879 Clear 19 1014 82 10000 1.5 90 05:56 03.05.2020
3880 Clear 19 1014 82 10000 1.5 100 05:37 03.05.2020
3881 Clear 20 1014 77 10000 2.1 90 04:28 03.05.2020
3882 Clear 19 1015 82 10000 1 140 03:45 03.05.2020
3883 Clear 19 1015 82 10000 1 140 03:45 03.05.2020
3884 Clear 20 1016 77 10000 1.5 110 02:32 03.05.2020
3885 Clear 20 1016 82 10000 1.5 110 01:59 03.05.2020
3886 Clear 20 1017 82 10000 2.1 130 01:39 03.05.2020
3887 Clear 20 1017 82 10000 2.1 130 01:21 03.05.2020
3888 Clear 21 1017 73 10000 3.1 60 00:38 03.05.2020
3889 Clear 21 1017 73 10000 3.1 60 00:20 03.05.2020
3890 Clear 21 1017 73 10000 3.6 60 23:46 02.05.2020
3891 Clear 21 1017 64 10000 3.6 40 23:28 02.05.2020
3892 Clear 21 1017 64 10000 2.6 40 22:57 02.05.2020
3893 Clear 21 1017 73 10000 5.1 60 22:39 02.05.2020
3894 Clear 21 1017 73 10000 5.1 60 22:20 02.05.2020
3895 Clear 21 1017 73 10000 5.1 60 21:41 02.05.2020
3896 Clear 22 1017 73 10000 5.1 60 21:20 02.05.2020
3897 Clear 23 1017 68 10000 5.1 60 20:58 02.05.2020
3898 Clear 23 1017 68 10000 5.1 60 20:38 02.05.2020
3899 Clear 23 1017 68 10000 5.1 60 20:20 02.05.2020
3900 Clear 24 1017 69 10000 5.1 40 19:59 02.05.2020
3901 Clear 24 1017 69 10000 5.1 40 19:39 02.05.2020
3902 Clear 24 1017 69 10000 5.1 40 19:20 02.05.2020
3903 Clear 24 1017 54 10000 6.7 30 18:56 02.05.2020
3904 Clear 24 1018 64 10000 6.2 40 18:38 02.05.2020
3905 Clear 24 1018 64 10000 6.2 40 18:19 02.05.2020
3906 Clear 24 1018 64 10000 6.2 40 18:19 02.05.2020
3907 Clear 24 1018 64 10000 6.2 40 17:56 02.05.2020
3908 Clear 24 1019 73 10000 8.2 20 17:38 02.05.2020
3909 Clear 24 1019 73 10000 8.2 20 17:19 02.05.2020
3910 Clear 24 1019 73 10000 8.2 20 16:44 02.05.2020
3911 Clear 24 1019 73 10000 8.2 20 16:26 02.05.2020
3912 Clear 24 1019 73 10000 9.3 20 15:56 02.05.2020
3913 Clear 24 1019 73 10000 9.3 20 15:37 02.05.2020
3914 Clear 24 1019 73 10000 9.3 20 15:19 02.05.2020
3915 Clear 24 1019 73 10000 9.3 20 15:19 02.05.2020
3916 Clear 24 1019 64 10000 5.1 40 14:42 02.05.2020
3917 Clouds 24 1019 64 10000 5.1 40 14:24 02.05.2020
3918 Clouds 23 1020 68 10000 5.1 20 13:58 02.05.2020
3919 Clouds 23 1020 73 10000 6.7 20 13:38 02.05.2020
3920 Clouds 22 1020 73 10000 6.7 20 13:18 02.05.2020
3921 Clouds 22 1020 73 10000 6.7 20 12:40 02.05.2020
3922 Clouds 22 1020 73 10000 6.7 20 12:20 02.05.2020
3923 Clouds 21 1020 72 10000 4.1 60 11:57 02.05.2020
3924 Clouds 20 1020 72 10000 4.1 60 11:38 02.05.2020
3925 Clear 20 1020 72 10000 4.1 60 11:20 02.05.2020
3926 Clear 19 1020 77 10000 6.7 60 10:40 02.05.2020
3927 Clear 19 1020 77 10000 6.7 60 10:40 02.05.2020
3928 Clear 19 1020 77 10000 6.7 60 10:22 02.05.2020
3929 Clear 18 1020 82 10000 2.6 60 09:59 02.05.2020
3930 Clear 17 1020 77 10000 4.1 50 09:40 02.05.2020
3931 Clear 17 1020 77 10000 4.1 50 09:21 02.05.2020
3932 Clear 16 1020 82 10000 3.6 50 08:55 02.05.2020
3933 Clear 15 1020 87 10000 4.1 40 08:37 02.05.2020
3934 Clear 15 1020 87 10000 4.1 40 08:18 02.05.2020
3935 Clear 15 1020 82 10000 3.6 40 07:42 02.05.2020
3936 Clear 15 1020 82 10000 2.6 50 07:22 02.05.2020
3937 Clear 15 1020 87 10000 4.1 60 06:42 02.05.2020
3938 Clear 18 1021 87 10000 3.6 50 05:28 02.05.2020
3939 Clear 18 1021 93 10000 3.1 40 04:27 02.05.2020
3940 Clear 18 1022 93 10000 3.1 30 03:40 02.05.2020
3941 Clear 18 1022 93 10000 3.6 40 02:41 02.05.2020
3942 Clear 18 1022 88 10000 2.6 50 01:58 02.05.2020
3943 Clear 18 1022 88 10000 4.6 40 01:26 02.05.2020
3944 Clear 18 1022 88 10000 4.1 50 00:43 02.05.2020
3945 Clear 18 1023 88 10000 4.6 40 00:21 02.05.2020
3946 Clear 19 1023 82 10000 3.6 40 23:55 01.05.2020
3947 Clear 19 1022 82 10000 6.2 20 23:37 01.05.2020
3948 Clear 19 1022 82 10000 6.2 20 23:18 01.05.2020
3949 Clear 19 1021 72 10000 7.2 60 22:38 01.05.2020
3950 Clear 19 1021 72 10000 7.2 60 22:19 01.05.2020
3951 Clear 19 1021 72 10000 7.2 60 21:57 01.05.2020
3952 Clear 19 1021 72 10000 7.2 60 21:39 01.05.2020
3953 Clear 19 1021 72 10000 7.2 60 21:19 01.05.2020
3954 Clear 20 1021 72 10000 8.2 60 20:57 01.05.2020
3955 Clear 21 1021 72 10000 8.2 60 20:38 01.05.2020
3956 Clear 21 1021 72 10000 8.2 60 20:19 01.05.2020
3957 Clear 21 1021 68 10000 7.2 40 19:55 01.05.2020
3958 Clear 21 1021 68 10000 7.2 40 19:36 01.05.2020
3959 Clear 21 1021 68 10000 7.2 40 19:18 01.05.2020
3960 Clear 21 1021 64 10000 7.2 40 18:54 01.05.2020
3961 Clear 22 1021 64 10000 7.2 40 18:36 01.05.2020
3962 Clear 22 1021 64 10000 7.2 40 18:18 01.05.2020
3963 Clear 22 1021 60 10000 11.3 20 17:40 01.05.2020
3964 Clear 22 1021 60 10000 11.3 20 17:21 01.05.2020
3965 Clear 23 1022 64 10000 7.2 40 16:57 01.05.2020
3966 Clear 23 1022 64 10000 7.2 40 16:39 01.05.2020
3967 Clear 23 1022 64 10000 7.2 40 16:20 01.05.2020
3968 Clear 22 1022 60 10000 7.2 40 15:57 01.05.2020
3969 Clear 22 1022 60 10000 7.2 40 15:38 01.05.2020
3970 Clear 22 1022 60 10000 7.2 40 15:19 01.05.2020
3971 Clear 22 1023 60 10000 7.2 40 14:43 01.05.2020
3972 Clouds 21 1023 60 10000 7.2 40 14:24 01.05.2020
3973 Clouds 21 1023 64 10000 8.2 20 13:54 01.05.2020
3974 Clouds 21 1023 64 10000 8.2 20 13:36 01.05.2020
3975 Clouds 21 1023 64 10000 8.2 20 13:18 01.05.2020
3976 Clouds 20 1023 64 10000 6.2 20 12:40 01.05.2020
3977 Clouds 20 1023 64 10000 6.2 20 12:21 01.05.2020
3978 Clouds 20 1023 68 10000 5.1 60 11:59 01.05.2020
3979 Clouds 20 1023 68 10000 5.1 60 11:41 01.05.2020
3980 Clouds 20 1023 68 10000 5.1 60 11:21 01.05.2020
3981 Clouds 19 1023 68 10000 5.1 80 10:56 01.05.2020
3982 Clouds 18 1023 68 10000 5.1 80 10:36 01.05.2020
3983 Clouds 18 1023 68 10000 5.1 80 10:18 01.05.2020
3984 Clouds 16 1023 77 10000 4.1 80 09:41 01.05.2020
3985 Clouds 16 1023 77 10000 4.1 80 09:19 01.05.2020
3986 Clouds 14 1022 93 10000 3.6 60 08:46 01.05.2020
3987 Clouds 14 1022 93 10000 3.6 60 08:28 01.05.2020
3988 Clouds 14 1022 100 10000 4.1 60 07:59 01.05.2020
3989 Clouds 14 1022 100 10000 4.1 60 07:39 01.05.2020
3990 Clouds 14 1022 100 10000 4.1 60 07:20 01.05.2020
3991 Clouds 17 1022 100 10000 3.6 50 06:30 01.05.2020
3992 Clouds 17 1022 93 10000 3.6 60 05:26 01.05.2020
3993 Clouds 18 1023 93 10000 3.6 70 03:45 01.05.2020
3994 Clouds 18 1023 93 10000 3.6 70 02:53 01.05.2020
3995 Clouds 18 1024 88 10000 5.1 50 02:35 01.05.2020
3996 Clouds 18 1024 88 10000 4.1 50 01:53 01.05.2020
3997 Clouds 18 1024 88 10000 4.6 30 01:27 01.05.2020
3998 Clouds 18 1024 88 10000 4.1 40 00:40 01.05.2020
3999 Clouds 18 1024 88 10000 4.1 40 00:21 01.05.2020
4000 Clouds 18 1024 88 10000 5.1 40 23:57 30.04.2020
4001 Clouds 18 1023 88 10000 5.7 30 23:39 30.04.2020
4002 Clouds 18 1023 88 10000 5.7 30 23:21 30.04.2020
4003 Clouds 18 1023 88 10000 5.1 30 22:57 30.04.2020
4004 Clouds 18 1021 72 10000 5.1 40 22:38 30.04.2020
4005 Clouds 18 1021 72 10000 5.1 40 22:18 30.04.2020
4006 Clouds 19 1021 72 10000 5.1 40 21:42 30.04.2020
4007 Clouds 19 1021 72 10000 5.1 40 21:23 30.04.2020
4008 Clouds 19 1021 72 10000 8.2 20 20:58 30.04.2020
4009 Clouds 19 1021 72 10000 8.2 20 20:40 30.04.2020
4010 Clouds 19 1021 72 10000 8.2 20 20:18 30.04.2020
4011 Clear 20 1021 68 10000 7.2 20 19:46 30.04.2020
4012 Clear 20 1021 68 10000 7.2 20 19:26 30.04.2020
4013 Clear 21 1021 60 10000 8.2 360 18:59 30.04.2020
4014 Clear 21 1021 60 10000 8.2 360 18:39 30.04.2020
4015 Clear 21 1021 60 10000 8.2 360 18:21 30.04.2020
4016 Clear 21 1022 56 10000 6.2 40 17:58 30.04.2020
4017 Clear 22 1022 56 10000 6.2 40 17:40 30.04.2020
4018 Clear 22 1022 56 10000 6.2 40 17:21 30.04.2020
4019 Clear 21 1022 52 10000 7.2 20 16:57 30.04.2020
4020 Clear 21 1022 52 10000 7.2 20 16:38 30.04.2020
4021 Clear 21 1022 52 10000 7.2 20 16:19 30.04.2020
4022 Clear 22 1022 56 10000 7.2 360 15:48 30.04.2020
4023 Clear 22 1022 56 10000 7.2 360 15:48 30.04.2020
4024 Clear 21 1022 56 10000 7.2 360 15:25 30.04.2020
4025 Clear 21 1023 60 10000 8.2 360 14:57 30.04.2020
4026 Clear 21 1023 60 10000 8.2 360 14:39 30.04.2020
4027 Clear 21 1023 60 10000 8.2 360 14:19 30.04.2020
4028 Clouds 21 1023 60 10000 8.2 20 13:55 30.04.2020
4029 Clouds 20 1023 60 10000 8.2 20 13:37 30.04.2020
4030 Clouds 20 1023 60 10000 8.2 20 13:19 30.04.2020
4031 Clouds 20 1023 60 10000 6.2 20 12:41 30.04.2020
4032 Clouds 20 1023 60 10000 6.2 20 12:20 30.04.2020
4033 Clouds 19 1023 63 10000 5.1 20 11:58 30.04.2020
4034 Clouds 19 1023 63 10000 5.1 20 11:36 30.04.2020
4035 Clouds 19 1023 63 10000 5.1 20 11:18 30.04.2020
4036 Clouds 18 1023 72 10000 4.1 80 10:41 30.04.2020
4037 Clouds 17 1023 72 10000 4.1 80 10:22 30.04.2020
4038 Clouds 17 1023 72 10000 4.1 80 10:22 30.04.2020
4039 Clear 15 1022 82 10000 2.1 100 09:58 30.04.2020
4040 Clear 15 1022 82 10000 2.1 100 09:39 30.04.2020
4041 Clear 15 1022 82 10000 2.1 100 09:21 30.04.2020
4042 Clouds 11 1023 93 10000 2.1 120 08:48 30.04.2020
4043 Clouds 13 1022 93 10000 2.6 40 08:27 30.04.2020
4044 Clouds 13 1022 93 10000 2.1 50 07:57 30.04.2020
4045 Clouds 13 1022 93 10000 2.1 50 07:39 30.04.2020
4046 Clouds 13 1022 93 10000 2.1 50 07:19 30.04.2020
4047 Clear 13 1022 93 10000 2.1 60 06:32 30.04.2020
4048 Clear 16 1022 93 10000 2.6 40 05:47 30.04.2020
4049 Clear 16 1022 87 10000 1.5 50 04:46 30.04.2020
4050 Clear 16 1022 87 10000 1.5 50 04:24 30.04.2020
4051 Clear 16 1023 93 10000 2.6 40 02:52 30.04.2020
4052 Clear 17 1023 87 10000 3.1 30 02:28 30.04.2020
4053 Clear 17 1024 87 10000 3.1 60 01:37 30.04.2020
4054 Clear 17 1024 87 10000 3.6 60 00:53 30.04.2020
4055 Clear 17 1023 82 10000 3.6 50 00:24 30.04.2020
4056 Clear 17 1023 82 10000 3.6 50 00:24 30.04.2020
4057 Clear 17 1023 82 10000 4.6 40 23:59 29.04.2020
4058 Clear 17 1023 82 10000 4.6 30 23:41 29.04.2020
4059 Clear 17 1023 82 10000 4.6 30 23:22 29.04.2020
4060 Clear 17 1023 77 10000 5.1 30 22:58 29.04.2020
4061 Clouds 18 1022 63 10000 7.2 60 22:39 29.04.2020
4062 Clouds 18 1022 63 10000 7.2 60 22:19 29.04.2020
4063 Clouds 18 1022 63 10000 7.2 60 21:38 29.04.2020
4064 Clouds 18 1022 63 10000 7.2 60 21:20 29.04.2020
4065 Clouds 19 1022 63 10000 8.2 20 20:58 29.04.2020
4066 Clouds 19 1022 63 10000 8.2 20 20:39 29.04.2020
4067 Clouds 19 1022 63 10000 8.2 20 20:19 29.04.2020
4068 Clouds 20 1022 56 10000 8.2 20 19:54 29.04.2020
4069 Clouds 20 1022 56 10000 8.2 20 19:36 29.04.2020
4070 Clouds 20 1022 56 10000 8.2 20 19:18 29.04.2020
4071 Clouds 21 1022 56 10000 6.2 40 18:41 29.04.2020
4072 Clouds 21 1022 56 10000 6.2 40 18:20 29.04.2020
4073 Clouds 21 1022 52 10000 8.2 20 17:55 29.04.2020
4074 Clouds 21 1022 52 10000 8.2 20 17:55 29.04.2020
4075 Clouds 21 1022 52 10000 8.2 20 17:37 29.04.2020
4076 Clouds 21 1022 52 10000 8.2 20 17:18 29.04.2020
4077 Clouds 21 1023 56 10000 8.7 340 16:37 29.04.2020
4078 Clouds 21 1023 56 10000 8.7 340 16:18 29.04.2020
4079 Clouds 21 1023 56 10000 6.2 20 15:56 29.04.2020
4080 Clouds 21 1023 56 10000 6.2 20 15:38 29.04.2020
4081 Clouds 21 1023 56 10000 6.2 20 15:19 29.04.2020
4082 Clouds 21 1023 56 10000 6.2 20 14:45 29.04.2020
4083 Clouds 21 1023 56 10000 6.2 20 14:26 29.04.2020
4084 Clouds 21 1023 64 10000 6.2 20 13:58 29.04.2020
4085 Clouds 21 1023 64 10000 6.2 20 13:39 29.04.2020
4086 Clouds 21 1023 64 10000 6.2 20 13:20 29.04.2020
4087 Clouds 19 1023 77 10000 7.2 20 12:56 29.04.2020
4088 Clouds 19 1023 77 10000 7.2 20 12:37 29.04.2020
4089 Clouds 19 1023 77 10000 7.2 20 12:18 29.04.2020
4090 Clouds 19 1022 72 10000 4.1 40 11:39 29.04.2020
4091 Clouds 19 1022 72 10000 4.1 40 11:39 29.04.2020
4092 Clouds 19 1022 72 10000 4.1 40 11:20 29.04.2020
4093 Clouds 18 1022 77 10000 5.1 40 10:55 29.04.2020
4094 Clouds 18 1022 77 10000 5.1 40 10:37 29.04.2020
4095 Clouds 18 1022 77 10000 5.1 40 10:18 29.04.2020
4096 Clouds 16 1022 82 10000 3.1 20 09:41 29.04.2020
4097 Clouds 16 1022 82 10000 3.1 20 09:21 29.04.2020
4098 Clouds 12 1022 100 10000 0.5 0 08:44 29.04.2020
4099 Clouds 11 1021 100 10000 0.5 0 08:26 29.04.2020
4100 Clouds 12 1021 93 10000 1 330 07:56 29.04.2020
4101 Clouds 11 1020 93 10000 0.5 0 07:37 29.04.2020
4102 Clouds 11 1020 93 10000 0.5 0 07:18 29.04.2020
4103 Clouds 11 1020 100 10000 1.5 190 06:45 29.04.2020
4104 Clouds 15 1020 100 10000 1.5 160 06:26 29.04.2020
4105 Clouds 16 1020 93 10000 2.1 70 05:20 29.04.2020
4106 Clouds 17 1020 100 10000 2.1 50 04:20 29.04.2020
4107 Clouds 17 1021 93 10000 2.1 40 03:54 29.04.2020
4108 Clouds 17 1021 93 10000 1.5 60 02:30 29.04.2020
4109 Clouds 17 1021 87 10000 2.1 20 01:37 29.04.2020
4110 Clouds 17 1021 87 10000 2.1 20 01:19 29.04.2020
4111 Clouds 17 1021 87 10000 2.6 10 00:38 29.04.2020
4112 Clouds 17 1021 87 10000 2.6 10 00:18 29.04.2020
4113 Clouds 17 1021 82 10000 2.6 350 23:45 28.04.2020
4114 Clouds 17 1021 82 10000 2.6 350 23:22 28.04.2020
4115 Clouds 17 1021 82 10000 3.1 350 22:40 28.04.2020
4116 Clouds 18 1020 72 10000 4.1 320 22:22 28.04.2020
4117 Clouds 18 1020 72 10000 4.1 320 21:59 28.04.2020
4118 Clouds 18 1020 72 10000 4.1 320 21:40 28.04.2020
4119 Clouds 18 1020 72 10000 4.1 320 21:22 28.04.2020
4120 Clouds 19 1019 68 10000 5.1 340 20:59 28.04.2020
4121 Clouds 19 1019 68 10000 5.1 340 20:40 28.04.2020
4122 Clouds 19 1019 68 10000 5.1 340 20:20 28.04.2020
4123 Clouds 19 1019 72 10000 4.1 20 19:57 28.04.2020
4124 Clouds 20 1019 72 10000 4.1 20 19:39 28.04.2020
4125 Clouds 20 1019 72 10000 4.1 20 19:20 28.04.2020
4126 Clouds 20 1018 68 10000 8.2 340 18:57 28.04.2020
4127 Clouds 21 1018 68 10000 8.2 340 18:37 28.04.2020
4128 Clouds 21 1018 68 10000 8.2 340 18:18 28.04.2020
4129 Clouds 22 1019 60 10000 6.2 320 17:37 28.04.2020
4130 Clouds 22 1019 60 10000 6.2 320 17:19 28.04.2020
4131 Clouds 22 1018 60 10000 7.2 320 16:58 28.04.2020
4132 Clouds 22 1018 60 10000 7.2 320 16:39 28.04.2020
4133 Clouds 22 1018 60 10000 7.2 320 16:21 28.04.2020
4134 Clouds 22 1018 56 10000 6.2 340 15:56 28.04.2020
4135 Clouds 22 1018 56 10000 6.2 340 15:38 28.04.2020
4136 Clouds 22 1018 56 10000 6.2 340 15:20 28.04.2020
4137 Clouds 22 1018 56 10000 5.1 300 14:54 28.04.2020
4138 Clouds 21 1019 64 10000 3.1 340 14:36 28.04.2020
4139 Clouds 21 1019 64 10000 3.1 340 14:18 28.04.2020
4140 Clouds 21 1019 64 10000 3.1 340 13:55 28.04.2020
4141 Clouds 21 1019 64 10000 3.1 340 13:36 28.04.2020
4142 Clouds 21 1019 64 10000 3.1 340 13:18 28.04.2020
4143 Clouds 20 1018 68 10000 2.1 200 12:43 28.04.2020
4144 Clouds 20 1018 68 10000 2.1 200 12:23 28.04.2020
4145 Clouds 19 1018 72 10000 4.1 220 11:43 28.04.2020
4146 Clouds 18 1018 72 10000 4.1 220 11:23 28.04.2020
4147 Clouds 17 1018 82 10000 4.1 220 10:58 28.04.2020
4148 Clouds 17 1018 82 10000 4.1 220 10:38 28.04.2020
4149 Clouds 17 1018 82 10000 4.1 220 10:38 28.04.2020
4150 Clouds 17 1018 82 10000 4.1 220 10:18 28.04.2020
4151 Clouds 17 1018 82 10000 3.1 240 09:44 28.04.2020
4152 Clouds 15 1018 100 8000 2.1 210 09:25 28.04.2020
4153 Clouds 15 1018 93 8000 2.1 230 08:57 28.04.2020
4154 Clouds 15 1017 93 8000 2.1 230 08:38 28.04.2020
4155 Clouds 15 1017 93 8000 2.1 230 08:20 28.04.2020
4156 Mist 14 1017 100 3000 2.6 220 07:42 28.04.2020
4157 Clouds 14 1017 100 8000 2.1 220 07:18 28.04.2020
4158 Mist 14 1017 93 3000 2.1 230 06:41 28.04.2020
4159 Mist 16 1017 100 4000 1.5 210 05:52 28.04.2020
4160 Mist 15 1017 100 4000 2.1 240 05:34 28.04.2020
4161 Mist 16 1017 100 10000 1 0 04:33 28.04.2020
4162 Clouds 16 1017 100 10000 2.1 140 02:39 28.04.2020
4163 Clouds 16 1018 100 10000 1 0 01:53 28.04.2020
4164 Clouds 17 1018 93 10000 1 0 01:22 28.04.2020
4165 Clouds 17 1018 93 10000 0.5 0 00:42 28.04.2020
4166 Clouds 17 1018 87 10000 2.1 320 23:58 27.04.2020
4167 Clouds 17 1018 87 10000 2.1 320 23:40 27.04.2020
4168 Clouds 17 1018 87 10000 2.1 320 23:20 27.04.2020
4169 Clouds 17 1018 82 10000 2.6 320 22:43 27.04.2020
4170 Clouds 18 1016 72 10000 3.6 320 22:23 27.04.2020
4171 Clouds 18 1016 72 10000 3.6 320 21:57 27.04.2020
4172 Clouds 18 1016 72 10000 3.6 320 21:39 27.04.2020
4173 Clouds 18 1016 72 10000 3.6 320 21:20 27.04.2020
4174 Clouds 20 1016 68 10000 4.6 340 20:57 27.04.2020
4175 Clouds 20 1016 68 10000 4.6 340 20:39 27.04.2020
4176 Clouds 20 1016 68 10000 4.6 340 20:21 27.04.2020
4177 Clouds 20 1016 68 10000 7.2 320 19:56 27.04.2020
4178 Clouds 20 1016 68 10000 7.2 320 19:37 27.04.2020
4179 Clouds 20 1016 68 10000 7.2 320 19:37 27.04.2020
4180 Clouds 20 1016 68 10000 7.2 320 19:19 27.04.2020
4181 Clouds 21 1016 64 10000 6.2 300 18:56 27.04.2020
4182 Clouds 21 1016 64 10000 6.2 300 18:37 27.04.2020
4183 Clouds 21 1016 64 10000 6.2 300 18:18 27.04.2020
4184 Clouds 21 1016 60 10000 6.7 300 17:41 27.04.2020
4185 Clouds 21 1016 60 10000 6.7 300 17:20 27.04.2020
4186 Clouds 21 1017 64 10000 6.2 320 16:54 27.04.2020
4187 Clouds 21 1017 64 10000 6.2 320 16:36 27.04.2020
4188 Clouds 21 1017 64 10000 6.2 320 16:18 27.04.2020
4189 Clouds 21 1017 60 10000 6.2 300 15:55 27.04.2020
4190 Clouds 21 1017 60 10000 6.2 300 15:36 27.04.2020
4191 Clouds 21 1017 60 10000 6.2 300 15:18 27.04.2020
4192 Clouds 21 1017 60 10000 4.6 300 14:40 27.04.2020
4193 Clouds 21 1017 60 10000 4.6 300 14:19 27.04.2020
4194 Clouds 21 1017 60 10000 4.6 280 13:57 27.04.2020
4195 Clouds 21 1017 60 10000 4.6 280 13:57 27.04.2020
4196 Clouds 21 1017 60 10000 4.6 280 13:37 27.04.2020
4197 Clouds 21 1017 60 10000 4.6 280 13:18 27.04.2020
4198 Clouds 19 1017 63 10000 5.1 260 12:43 27.04.2020
4199 Clouds 19 1017 63 10000 5.1 260 12:22 27.04.2020
4200 Clouds 19 1016 59 10000 3.1 220 11:55 27.04.2020
4201 Clouds 19 1016 59 10000 3.1 220 11:37 27.04.2020
4202 Clouds 19 1016 59 10000 3.1 220 11:18 27.04.2020
4203 Clouds 17 1016 63 10000 2.6 240 10:42 27.04.2020
4204 Clouds 17 1016 63 10000 2.6 240 10:24 27.04.2020
4205 Clouds 17 1016 63 10000 2.6 240 10:24 27.04.2020
4206 Clear 15 1016 72 10000 2.6 220 09:58 27.04.2020
4207 Clear 14 1016 72 10000 2.6 220 09:39 27.04.2020
4208 Clear 14 1016 72 10000 2.6 220 09:18 27.04.2020
4209 Clear 12 1015 82 10000 2.6 220 08:48 27.04.2020
4210 Clear 11 1015 82 10000 2.6 220 08:30 27.04.2020
4211 Clear 9 1015 100 8000 1.5 200 07:45 27.04.2020
4212 Clear 9 1015 100 8000 1.5 200 07:25 27.04.2020
4213 Clear 9 1015 100 10000 2.6 160 06:58 27.04.2020
4214 Clear 13 1015 100 10000 2.6 170 06:30 27.04.2020
4215 Clear 14 1016 100 10000 1.5 120 05:56 27.04.2020
4216 Clear 14 1016 100 10000 1.5 120 05:18 27.04.2020
4217 Clear 14 1016 100 10000 1.53 190 04:39 27.04.2020
4218 Clear 14 1016 93 10000 2.1 120 03:45 27.04.2020
4219 Clear 14 1016 93 10000 2.1 120 03:45 27.04.2020
4220 Clouds 15 1017 93 10000 1 0 02:30 27.04.2020
4221 Clouds 15 1017 93 10000 1.5 130 01:20 27.04.2020
4222 Clouds 15 1017 93 10000 2.1 140 00:40 27.04.2020
4223 Clouds 15 1017 93 10000 2.1 140 00:40 27.04.2020
4224 Clouds 15 1017 93 10000 2.1 140 00:18 27.04.2020
4225 Clouds 16 1017 77 10000 1.5 70 23:55 26.04.2020
4226 Clouds 16 1017 82 10000 2.1 30 23:36 26.04.2020
4227 Clouds 16 1017 82 10000 2.1 30 23:36 26.04.2020
4228 Clouds 16 1017 82 10000 2.1 30 23:18 26.04.2020
4229 Clouds 16 1017 77 10000 4.1 350 22:40 26.04.2020
4230 Clouds 16 1016 67 10000 3.6 320 22:21 26.04.2020
4231 Clouds 17 1016 67 10000 3.6 320 21:59 26.04.2020
4232 Clouds 17 1016 67 10000 3.6 320 21:40 26.04.2020
4233 Clouds 17 1016 67 10000 3.6 320 21:19 26.04.2020
4234 Clouds 17 1016 67 10000 3.6 320 21:19 26.04.2020
4235 Clouds 18 1015 63 10000 6.7 360 20:59 26.04.2020
4236 Clouds 18 1015 63 10000 6.7 360 20:39 26.04.2020
4237 Clouds 18 1015 63 10000 6.7 360 20:20 26.04.2020
4238 Clouds 19 1015 59 10000 5.7 20 19:58 26.04.2020
4239 Clouds 19 1015 59 10000 5.7 20 19:37 26.04.2020
4240 Clouds 19 1015 59 10000 5.7 20 19:19 26.04.2020
4241 Clouds 19 1015 59 10000 6.2 320 18:44 26.04.2020
4242 Clouds 19 1015 59 10000 6.2 320 18:25 26.04.2020
4243 Clouds 19 1015 59 10000 6.2 320 18:25 26.04.2020
4244 Clouds 20 1016 52 10000 5.1 340 17:56 26.04.2020
4245 Clouds 20 1016 52 10000 5.1 340 17:38 26.04.2020
4246 Clouds 20 1016 52 10000 5.1 340 17:18 26.04.2020
4247 Clouds 20 1016 52 10000 6.2 340 16:40 26.04.2020
4248 Clouds 20 1016 52 10000 6.2 340 16:21 26.04.2020
4249 Clouds 20 1016 52 10000 6.2 300 15:58 26.04.2020
4250 Clouds 20 1016 56 10000 6.2 340 15:38 26.04.2020
4251 Clouds 20 1016 56 10000 6.2 340 15:20 26.04.2020
4252 Clouds 20 1016 56 10000 6.2 340 14:55 26.04.2020
4253 Clouds 20 1016 56 10000 6.2 340 14:36 26.04.2020
4254 Clouds 20 1016 56 10000 6.2 340 14:18 26.04.2020
4255 Clouds 20 1017 60 10000 3.1 320 13:43 26.04.2020
4256 Clouds 20 1017 60 10000 3.1 320 13:23 26.04.2020
4257 Clouds 18 1017 59 10000 2.1 20 12:58 26.04.2020
4258 Clouds 18 1017 59 10000 2.1 20 12:40 26.04.2020
4259 Clouds 18 1017 59 10000 2.1 20 12:21 26.04.2020
4260 Clouds 16 1017 72 10000 2.6 220 11:58 26.04.2020
4261 Clouds 16 1017 72 10000 2.6 220 11:39 26.04.2020
4262 Clouds 16 1017 72 10000 2.6 220 11:21 26.04.2020
4263 Clouds 15 1016 77 10000 2.6 200 10:55 26.04.2020
4264 Clouds 14 1016 77 10000 2.6 200 10:37 26.04.2020
4265 Clouds 14 1016 77 10000 2.6 200 10:18 26.04.2020
4266 Clouds 12 1016 82 10000 4.1 180 09:39 26.04.2020
4267 Clouds 12 1016 82 10000 4.1 180 09:21 26.04.2020
4268 Clouds 12 1016 82 10000 3.1 180 08:46 26.04.2020
4269 Clouds 12 1016 82 10000 3.1 180 08:23 26.04.2020
4270 Clouds 9 1016 100 10000 2.1 170 07:59 26.04.2020
4271 Clouds 9 1016 100 10000 2.1 170 07:40 26.04.2020
4272 Clouds 9 1016 100 10000 2.1 170 07:20 26.04.2020
4273 Clouds 9 1016 100 10000 2.1 160 06:40 26.04.2020
4274 Clear 9 1016 100 10000 2.1 170 05:55 26.04.2020
4275 Clear 9 1016 100 10000 2.1 210 05:37 26.04.2020
4276 Clear 9 1016 100 10000 2.1 210 04:56 26.04.2020
4277 Clear 10 1017 100 10000 1.5 230 03:56 26.04.2020
4278 Clouds 11 1017 93 10000 1.5 250 02:46 26.04.2020
4279 Clouds 11 1018 100 10000 2.1 250 02:26 26.04.2020
4280 Clouds 12 1018 93 10000 1.5 220 01:40 26.04.2020
4281 Clouds 12 1018 93 10000 1.5 220 01:21 26.04.2020
4282 Clouds 14 1018 82 10000 1.5 320 00:39 26.04.2020
4283 Clouds 14 1018 82 10000 1.5 320 00:18 26.04.2020
4284 Clouds 14 1018 82 10000 1 0 23:38 25.04.2020
4285 Clouds 14 1018 82 10000 1 0 23:20 25.04.2020
4286 Clouds 14 1017 87 10000 1.5 330 22:55 25.04.2020
4287 Clouds 17 1016 59 10000 4.1 340 22:37 25.04.2020
4288 Clouds 18 1016 59 10000 4.1 340 22:18 25.04.2020
4289 Clouds 18 1016 59 10000 4.1 340 22:18 25.04.2020
4290 Clouds 18 1016 59 10000 4.1 340 21:40 25.04.2020
4291 Clouds 18 1016 59 10000 4.1 340 21:20 25.04.2020
4292 Clouds 17 1016 59 10000 7.7 320 20:57 25.04.2020
4293 Clouds 18 1016 59 10000 7.7 320 20:39 25.04.2020
4294 Clouds 18 1016 59 10000 7.7 320 20:20 25.04.2020
4295 Clouds 18 1016 59 10000 4.6 340 19:42 25.04.2020
4296 Clouds 18 1016 68 10000 7.2 320 19:23 25.04.2020
4297 Clouds 18 1016 68 10000 7.2 320 18:58 25.04.2020
4298 Clouds 18 1016 68 10000 7.2 320 18:39 25.04.2020
4299 Clouds 18 1016 68 10000 7.2 320 18:20 25.04.2020
4300 Clouds 18 1016 63 10000 5.1 320 17:58 25.04.2020
4301 Clouds 19 1016 63 10000 5.1 320 17:38 25.04.2020
4302 Clouds 19 1016 63 10000 5.1 320 17:38 25.04.2020
4303 Clouds 19 1016 63 10000 5.1 320 17:19 25.04.2020
4304 Clouds 20 1016 60 10000 5.7 300 16:55 25.04.2020
4305 Clouds 20 1016 60 10000 5.7 300 16:37 25.04.2020
4306 Clouds 19 1016 60 10000 5.7 300 16:18 25.04.2020
4307 Clouds 18 1016 77 10000 4.1 330 15:41 25.04.2020
4308 Clouds 18 1016 77 10000 4.1 330 15:41 25.04.2020
4309 Clouds 18 1016 68 10000 5.1 340 15:20 25.04.2020
4310 Clouds 19 1016 68 10000 5.1 340 14:58 25.04.2020
4311 Clouds 19 1016 68 10000 5.1 340 14:58 25.04.2020
4312 Clouds 19 1016 68 10000 5.1 340 14:58 25.04.2020
4313 Clouds 18 1016 68 10000 5.1 340 14:39 25.04.2020
4314 Clouds 18 1016 68 10000 5.1 340 14:20 25.04.2020
4315 Clouds 17 1016 72 6000 5.7 320 13:43 25.04.2020
4316 Clouds 17 1016 72 6000 5.7 320 13:19 25.04.2020
4317 Clouds 17 1016 82 6000 3.1 320 12:58 25.04.2020
4318 Clouds 17 1016 82 6000 3.1 320 12:40 25.04.2020
4319 Clouds 17 1016 82 6000 3.1 320 12:21 25.04.2020
4320 Clouds 16 1015 93 6000 2.6 300 11:57 25.04.2020
4321 Clouds 16 1015 93 6000 2.6 300 11:39 25.04.2020
4322 Clouds 16 1015 93 6000 2.6 300 11:20 25.04.2020
4323 Clouds 17 1014 82 6000 3.6 320 10:43 25.04.2020
4324 Clouds 16 1014 82 6000 3.6 320 10:23 25.04.2020
4325 Clouds 16 1014 87 6000 3.6 320 09:48 25.04.2020
4326 Clouds 15 1014 87 6000 3.6 320 09:29 25.04.2020
4327 Clouds 15 1013 87 5000 2.6 320 08:58 25.04.2020
4328 Clouds 15 1013 100 10000 2.6 230 08:40 25.04.2020
4329 Clouds 14 1013 100 10000 2.6 230 08:21 25.04.2020
4330 Clouds 14 1013 100 10000 2.6 270 07:58 25.04.2020
4331 Rain 14 1013 100 10000 2.6 280 07:39 25.04.2020
4332 Rain 15 1013 93 10000 3.6 270 06:55 25.04.2020
4333 Rain 15 1013 93 10000 3.6 270 06:36 25.04.2020
4334 Rain 16 1012 100 8000 3.1 260 05:40 25.04.2020
4335 Rain 16 1012 100 8000 3.1 260 05:21 25.04.2020
4336 Clouds 17 1013 100 10000 4.1 240 02:59 25.04.2020
4337 Clouds 17 1013 88 10000 5.1 240 02:25 25.04.2020
4338 Clouds 17 1013 88 10000 5.1 240 01:54 25.04.2020
4339 Clouds 17 1013 88 10000 4.6 240 01:34 25.04.2020
4340 Clouds 17 1013 88 10000 4.6 240 00:58 25.04.2020
4341 Clouds 17 1013 82 10000 3.1 250 00:34 25.04.2020
4342 Clouds 17 1013 88 10000 3.1 270 23:55 24.04.2020
4343 Clouds 17 1013 88 10000 3.1 270 23:55 24.04.2020
4344 Clouds 17 1013 82 10000 3.1 260 23:36 24.04.2020
4345 Clouds 17 1013 82 10000 3.1 260 23:18 24.04.2020
4346 Clouds 17 1012 88 10000 3.1 290 22:40 24.04.2020
4347 Clouds 18 1010 82 8000 5.1 280 22:19 24.04.2020
4348 Clouds 18 1010 82 8000 5.1 280 21:57 24.04.2020
4349 Clouds 18 1010 72 10000 8.2 320 21:38 24.04.2020
4350 Clouds 19 1010 72 10000 8.2 320 21:20 24.04.2020
4351 Clouds 19 1010 72 10000 8.2 320 20:56 24.04.2020
4352 Clouds 19 1010 68 10000 9.8 300 20:38 24.04.2020
4353 Clouds 20 1010 68 10000 9.8 300 20:18 24.04.2020
4354 Clouds 20 1010 68 10000 9.8 300 19:40 24.04.2020
4355 Clouds 20 1010 68 10000 9.8 300 19:22 24.04.2020
4356 Clouds 21 1010 68 10000 8.2 280 18:46 24.04.2020
4357 Clouds 21 1010 68 10000 8.2 280 18:28 24.04.2020
4358 Clouds 21 1010 60 10000 5.7 300 17:58 24.04.2020
4359 Clouds 21 1010 60 10000 5.7 300 17:39 24.04.2020
4360 Clouds 21 1010 68 10000 6.2 320 17:20 24.04.2020
4361 Clouds 21 1010 68 10000 6.2 320 16:58 24.04.2020
4362 Clouds 21 1010 68 10000 6.2 320 16:40 24.04.2020
4363 Clouds 21 1010 68 10000 6.2 320 16:21 24.04.2020
4364 Clouds 21 1010 68 10000 7.2 320 15:42 24.04.2020
4365 Clouds 21 1010 72 10000 3.6 300 15:21 24.04.2020
4366 Clouds 20 1010 72 10000 3.6 300 14:59 24.04.2020
4367 Clouds 20 1010 72 10000 3.6 300 14:38 24.04.2020
4368 Clouds 20 1010 72 10000 3.6 300 14:19 24.04.2020
4369 Clouds 20 1010 72 10000 7.2 320 13:42 24.04.2020
4370 Clouds 21 1010 72 8000 3.6 320 13:22 24.04.2020
4371 Clouds 21 1010 72 8000 3.6 320 12:59 24.04.2020
4372 Clouds 21 1010 64 10000 2.1 0 12:40 24.04.2020
4373 Clouds 21 1010 72 10000 3.1 280 12:20 24.04.2020
4374 Clouds 20 1010 72 10000 3.1 280 11:56 24.04.2020
4375 Clouds 20 1010 72 10000 3.1 280 11:37 24.04.2020
4376 Clouds 20 1010 72 10000 3.1 280 11:18 24.04.2020
4377 Clouds 18 1009 82 8000 3.6 300 10:38 24.04.2020
4378 Clouds 18 1009 82 8000 3.6 300 10:20 24.04.2020
4379 Clouds 17 1009 88 6000 2.6 360 09:58 24.04.2020
4380 Clouds 16 1009 93 6000 2.1 360 09:39 24.04.2020
4381 Clouds 16 1009 93 6000 2.1 360 09:20 24.04.2020
4382 Clouds 15 1009 93 6000 2.1 360 08:43 24.04.2020
4383 Clouds 15 1009 100 7000 3.1 350 08:23 24.04.2020
4384 Clouds 14 1009 100 8000 2.6 330 07:59 24.04.2020
4385 Clouds 14 1009 100 8000 2.6 330 07:41 24.04.2020
4386 Clouds 14 1009 100 8000 2.6 330 07:22 24.04.2020
4387 Clouds 15 1009 93 10000 2.6 20 06:45 24.04.2020
4388 Clouds 17 1009 93 10000 2.6 20 06:23 24.04.2020
4389 Clouds 17 1009 93 10000 2.6 300 05:39 24.04.2020
4390 Clouds 17 1011 93 10000 2.1 0 03:41 24.04.2020
4391 Clouds 17 1011 93 10000 4.1 140 02:55 24.04.2020
4392 Clouds 17 1011 93 10000 2.6 90 02:37 24.04.2020
4393 Clouds 17 1011 93 10000 4.1 340 01:47 24.04.2020
4394 Clouds 17 1012 87 10000 2.6 40 00:55 24.04.2020
4395 Clouds 17 1013 82 10000 2.26 25 00:20 24.04.2020
4396 Clouds 16 1013 87 10000 1 0 23:48 23.04.2020
4397 Clouds 17 1012 87 10000 2.1 30 23:28 23.04.2020
4398 Clouds 17 1013 82 10000 2.6 200 22:58 23.04.2020
4399 Clouds 17 1012 82 10000 2.1 50 22:39 23.04.2020
4400 Clouds 17 1011 77 10000 5.1 20 22:20 23.04.2020
4401 Clouds 18 1011 77 10000 5.1 20 21:57 23.04.2020
4402 Clouds 18 1011 77 10000 5.1 20 21:39 23.04.2020
4403 Clouds 18 1011 77 10000 5.1 20 21:39 23.04.2020
4404 Clouds 18 1011 77 10000 5.1 20 21:20 23.04.2020
4405 Clouds 18 1011 77 10000 5.1 20 20:57 23.04.2020
4406 Clouds 18 1011 77 10000 5.1 20 20:39 23.04.2020
4407 Clouds 18 1011 77 10000 5.1 20 20:20 23.04.2020
4408 Clouds 18 1011 77 10000 6.2 20 19:56 23.04.2020
4409 Clouds 18 1011 77 10000 6.2 20 19:38 23.04.2020
4410 Clouds 18 1011 77 10000 6.2 20 19:20 23.04.2020
4411 Clouds 19 1012 68 10000 5.1 340 18:43 23.04.2020
4412 Clouds 19 1012 68 10000 5.1 340 18:23 23.04.2020
4413 Clouds 19 1012 68 10000 5.1 340 17:59 23.04.2020
4414 Clouds 19 1012 68 10000 5.1 340 17:59 23.04.2020
4415 Clouds 19 1012 68 10000 5.1 340 17:39 23.04.2020
4416 Clouds 19 1012 68 10000 5.1 340 17:21 23.04.2020
4417 Clouds 19 1012 68 10000 6.2 340 16:57 23.04.2020
4418 Clouds 19 1012 68 10000 6.2 340 16:38 23.04.2020
4419 Clouds 19 1012 68 10000 6.2 340 16:18 23.04.2020
4420 Clouds 19 1013 68 10000 6.2 360 15:42 23.04.2020
4421 Clouds 19 1013 68 10000 6.2 360 15:22 23.04.2020
4422 Clouds 19 1013 68 10000 4.1 20 14:56 23.04.2020
4423 Clouds 19 1013 68 10000 4.1 20 14:37 23.04.2020
4424 Clouds 19 1013 68 10000 4.1 20 14:19 23.04.2020
4425 Clouds 19 1014 68 10000 4.1 20 13:41 23.04.2020
4426 Clouds 19 1014 68 10000 4.1 20 13:23 23.04.2020
4427 Clouds 19 1014 68 10000 3.1 40 12:59 23.04.2020
4428 Clouds 19 1014 68 10000 3.1 40 12:41 23.04.2020
4429 Clouds 19 1014 68 10000 3.1 40 12:23 23.04.2020
4430 Clouds 18 1014 72 10000 4.1 60 11:47 23.04.2020
4431 Clouds 18 1014 72 10000 4.1 60 11:28 23.04.2020
4432 Clouds 17 1014 77 10000 3.1 40 10:59 23.04.2020
4433 Clouds 17 1014 77 10000 3.1 40 10:59 23.04.2020
4434 Clouds 16 1014 77 10000 3.1 40 10:40 23.04.2020
4435 Clouds 16 1014 77 10000 3.1 40 10:20 23.04.2020
4436 Clouds 15 1014 93 10000 3.1 50 09:41 23.04.2020
4437 Clouds 14 1014 93 10000 3.1 50 09:19 23.04.2020
4438 Clouds 14 1013 93 10000 2.6 50 08:52 23.04.2020
4439 Clouds 13 1013 100 10000 2.6 40 08:32 23.04.2020
4440 Clouds 13 1013 100 10000 2.6 50 07:59 23.04.2020
4441 Clouds 13 1013 100 10000 3.1 40 07:40 23.04.2020
4442 Clouds 13 1013 100 10000 3.1 40 07:22 23.04.2020
4443 Clouds 13 1013 100 10000 2.6 40 06:46 23.04.2020
4444 Clouds 16 1014 93 10000 3.1 50 05:54 23.04.2020
4445 Clouds 16 1014 93 10000 3.1 50 05:54 23.04.2020
4446 Clouds 16 1014 93 10000 3.1 50 05:21 23.04.2020
4447 Clouds 16 1014 93 10000 3.1 50 04:50 23.04.2020
4448 Clouds 16 1015 87 10000 3.1 40 02:23 23.04.2020
4449 Clouds 16 1016 87 10000 4.6 40 01:40 23.04.2020
4450 Clouds 16 1016 87 10000 4.6 50 00:57 23.04.2020
4451 Clouds 16 1016 87 10000 3.6 30 00:29 23.04.2020
4452 Clouds 16 1016 87 10000 4.1 40 23:59 22.04.2020
4453 Clouds 16 1016 87 10000 5.1 30 23:41 22.04.2020
4454 Clouds 16 1016 87 10000 5.1 30 23:22 22.04.2020
4455 Clouds 16 1016 82 10000 6.2 30 22:41 22.04.2020
4456 Clouds 17 1016 72 10000 7.2 20 22:20 22.04.2020
4457 Clouds 17 1016 72 10000 7.2 20 21:59 22.04.2020
4458 Clouds 17 1016 72 10000 7.2 20 21:59 22.04.2020
4459 Clouds 17 1016 72 10000 7.2 20 21:41 22.04.2020
4460 Clouds 17 1016 72 10000 7.2 20 21:22 22.04.2020
4461 Clouds 18 1016 68 10000 8.2 20 20:59 22.04.2020
4462 Clouds 18 1016 68 10000 8.2 20 20:59 22.04.2020
4463 Clouds 18 1016 68 10000 8.2 20 20:41 22.04.2020
4464 Clouds 18 1016 68 10000 8.2 20 20:19 22.04.2020
4465 Clouds 19 1016 68 10000 8.2 20 19:57 22.04.2020
4466 Clouds 19 1016 68 10000 8.2 20 19:38 22.04.2020
4467 Clouds 19 1016 68 10000 8.2 20 19:18 22.04.2020
4468 Clouds 20 1015 60 10000 9.3 360 18:57 22.04.2020
4469 Clouds 20 1015 60 10000 9.3 360 18:57 22.04.2020
4470 Clouds 20 1015 60 10000 9.3 360 18:57 22.04.2020
4471 Clouds 20 1015 60 10000 9.3 360 18:39 22.04.2020
4472 Clouds 20 1015 60 10000 9.3 360 18:20 22.04.2020
4473 Clouds 19 1016 68 10000 7.2 340 17:43 22.04.2020
4474 Clouds 19 1016 68 10000 7.2 340 17:25 22.04.2020
4475 Clouds 20 1016 64 10000 9.3 340 16:58 22.04.2020
4476 Clouds 20 1016 64 10000 9.3 340 16:39 22.04.2020
4477 Clouds 20 1016 64 10000 9.3 340 16:20 22.04.2020
4478 Clouds 20 1017 60 10000 7.2 340 15:41 22.04.2020
4479 Clouds 20 1017 60 10000 7.2 340 15:22 22.04.2020
4480 Clouds 21 1017 56 10000 6.2 340 14:58 22.04.2020
4481 Clouds 20 1017 56 10000 6.2 340 14:38 22.04.2020
4482 Clouds 20 1017 56 10000 6.2 340 14:19 22.04.2020
4483 Clouds 20 1018 52 10000 2.1 80 13:55 22.04.2020
4484 Clouds 20 1018 52 10000 2.1 80 13:36 22.04.2020
4485 Clouds 20 1018 52 10000 2.1 80 13:18 22.04.2020
4486 Clouds 19 1018 59 10000 3.1 40 12:39 22.04.2020
4487 Clouds 19 1018 59 10000 3.1 40 12:21 22.04.2020
4488 Clouds 17 1018 68 10000 3.1 100 11:40 22.04.2020
4489 Clouds 17 1018 68 10000 3.1 100 11:20 22.04.2020
4490 Clouds 16 1018 77 10000 3.1 140 10:59 22.04.2020
4491 Clouds 15 1018 77 10000 3.1 140 10:39 22.04.2020
4492 Clouds 15 1018 77 10000 3.1 140 10:19 22.04.2020
4493 Clouds 12 1018 100 10000 2.1 170 09:39 22.04.2020
4494 Clouds 11 1018 100 10000 2.1 170 09:20 22.04.2020
4495 Clouds 9 1018 100 10000 1.5 180 08:56 22.04.2020
4496 Clouds 9 1018 100 10000 1.5 180 08:56 22.04.2020
4497 Clouds 9 1017 100 10000 2.1 150 08:38 22.04.2020
4498 Clouds 9 1017 100 10000 2.1 150 08:19 22.04.2020
4499 Clouds 9 1017 100 10000 2.1 150 07:52 22.04.2020
4500 Clouds 9 1017 100 10000 2.1 140 07:24 22.04.2020
4501 Clouds 8 1018 100 7000 1.5 150 06:52 22.04.2020
4502 Clouds 12 1018 100 10000 2.1 140 05:47 22.04.2020
4503 Clouds 12 1018 100 10000 2.1 140 05:27 22.04.2020
4504 Clouds 12 1018 100 10000 2.1 140 05:27 22.04.2020
4505 Clouds 13 1018 100 10000 1.5 320 04:20 22.04.2020
4506 Clouds 13 1019 100 10000 1.5 240 02:40 22.04.2020
4507 Clouds 13 1020 100 10000 2.1 190 01:44 22.04.2020
4508 Clouds 14 1020 100 10000 2.1 230 01:24 22.04.2020
4509 Clouds 14 1020 100 10000 2.1 250 00:47 22.04.2020
4510 Clouds 14 1020 100 10000 2.1 260 00:22 22.04.2020
4511 Clouds 14 1020 100 10000 2.6 270 23:56 21.04.2020
4512 Clouds 14 1019 100 10000 4.6 250 23:37 21.04.2020
4513 Clouds 14 1019 100 10000 4.6 250 23:18 21.04.2020
4514 Clouds 15 1019 100 8000 5.1 300 22:40 21.04.2020
4515 Rain 15 1018 87 6000 6.2 260 22:21 21.04.2020
4516 Rain 15 1018 87 6000 6.2 260 21:58 21.04.2020
4517 Rain 15 1018 87 6000 6.2 260 21:58 21.04.2020
4518 Rain 15 1018 87 6000 6.2 260 21:40 21.04.2020
4519 Rain 15 1018 87 6000 6.2 260 21:22 21.04.2020
4520 Clouds 17 1018 77 10000 8.2 320 20:41 21.04.2020
4521 Clouds 17 1018 77 10000 8.2 320 20:23 21.04.2020
4522 -273 0 0 0 0 0 19:59 21.04.2020
4523 Clouds 18 1017 59 10000 8.7 280 19:40 21.04.2020
4524 Clouds 18 1017 59 10000 8.7 280 19:19 21.04.2020
4525 Clouds 18 1017 59 10000 8.7 280 19:19 21.04.2020
4526 Clouds 18 1017 59 10000 8.7 280 19:19 21.04.2020
4527 Clouds 19 1017 52 10000 9.8 280 18:56 21.04.2020
4528 Clouds 19 1017 52 10000 9.8 280 18:38 21.04.2020
4529 Clouds 19 1017 52 10000 9.8 280 18:18 21.04.2020
4530 Clouds 19 1017 52 10000 9.8 280 18:18 21.04.2020
4531 Clouds 19 1017 52 10000 7.7 280 17:41 21.04.2020
4532 Clouds 19 1017 52 10000 7.7 280 17:22 21.04.2020
4533 Clouds 19 1017 48 10000 9.3 280 16:59 21.04.2020
4534 Clouds 19 1017 48 10000 9.3 280 16:38 21.04.2020
4535 Clouds 19 1017 48 10000 9.3 280 16:19 21.04.2020
4536 Clouds 19 1017 52 10000 10.8 280 15:55 21.04.2020
4537 Clouds 19 1017 52 10000 10.8 280 15:37 21.04.2020
4538 Clouds 19 1017 52 10000 10.8 280 15:19 21.04.2020
4539 Clouds 19 1017 59 10000 9.3 280 14:45 21.04.2020
4540 Clouds 19 1017 59 10000 9.3 280 14:25 21.04.2020
4541 Clouds 19 1017 52 10000 7.2 300 13:58 21.04.2020
4542 Clouds 19 1017 52 10000 7.2 300 13:38 21.04.2020
4543 Clouds 19 1017 52 10000 7.2 300 13:19 21.04.2020
4544 Clouds 17 1017 59 10000 7.2 260 12:40 21.04.2020
4545 Clouds 17 1017 59 10000 7.2 260 12:20 21.04.2020
4546 Clouds 16 1016 63 10000 8.2 260 11:58 21.04.2020
4547 Clouds 16 1016 63 10000 8.2 260 11:39 21.04.2020
4548 Clouds 16 1016 63 10000 8.2 260 11:20 21.04.2020
4549 Clouds 16 1016 72 10000 6.2 240 10:59 21.04.2020
4550 Clouds 15 1016 72 10000 6.2 240 10:40 21.04.2020
4551 Clouds 15 1016 72 10000 6.2 240 10:22 21.04.2020
4552 Clouds 14 1016 82 10000 6.2 200 09:59 21.04.2020
4553 Clouds 13 1016 82 10000 6.2 200 09:37 21.04.2020
4554 Clouds 13 1016 82 10000 6.2 200 09:18 21.04.2020
4555 Clouds 12 1015 87 10000 3.1 200 08:46 21.04.2020
4556 Clouds 11 1017 100 10000 2.6 240 08:27 21.04.2020
4557 Rain 11 1016 100 10000 3.6 240 07:55 21.04.2020
4558 Rain 11 1016 100 10000 3.6 240 07:36 21.04.2020
4559 Rain 11 1016 100 10000 3.6 240 07:18 21.04.2020
4560 Rain 12 1016 93 10000 3.1 240 06:42 21.04.2020
4561 Rain 12 1016 93 10000 3.1 240 06:18 21.04.2020
4562 Clouds 12 1016 100 10000 4.1 250 05:44 21.04.2020
4563 Clouds 12 1017 93 10000 3.6 250 03:48 21.04.2020
4564 Clouds 13 1018 93 10000 4.1 280 02:47 21.04.2020
4565 Rain 13 1018 93 10000 3.1 220 01:33 21.04.2020
4566 Clouds 14 1018 93 10000 3.6 240 00:47 21.04.2020
4567 Clouds 14 1018 93 10000 3.6 240 00:23 21.04.2020
4568 Rain 14 1018 93 8000 3.6 270 23:44 20.04.2020
4569 Rain 15 1018 82 5000 6.2 280 23:23 20.04.2020
4570 Clouds 17 1018 72 10000 6.7 270 22:57 20.04.2020
4571 Clouds 17 1015 77 10000 7.7 260 22:37 20.04.2020
4572 Clouds 17 1015 77 10000 7.7 260 22:19 20.04.2020
4573 Clouds 18 1015 77 10000 7.7 260 21:55 20.04.2020
4574 Clouds 18 1015 77 10000 7.7 260 21:37 20.04.2020
4575 Clouds 18 1015 77 10000 7.7 260 21:18 20.04.2020
4576 Clouds 18 1015 77 10000 8.2 280 20:55 20.04.2020
4577 Clouds 19 1015 77 10000 8.2 280 20:36 20.04.2020
4578 Clouds 19 1015 77 10000 8.2 280 20:18 20.04.2020
4579 Clouds 20 1015 64 10000 9.8 280 19:41 20.04.2020
4580 Clouds 20 1015 64 10000 9.8 280 19:23 20.04.2020
4581 Clouds 21 1015 64 10000 12.9 280 18:59 20.04.2020
4582 Clouds 21 1015 64 10000 12.9 280 18:41 20.04.2020
4583 Clouds 21 1015 64 10000 12.9 280 18:21 20.04.2020
4584 Clouds 21 1015 68 10000 8.7 280 17:55 20.04.2020
4585 Clouds 21 1015 68 10000 8.7 280 17:36 20.04.2020
4586 Clouds 21 1015 68 10000 8.7 280 17:18 20.04.2020
4587 Clouds 21 1016 60 10000 9.8 300 16:43 20.04.2020
4588 Clouds 22 1016 60 10000 9.8 300 16:21 20.04.2020
4589 Clouds 22 1016 60 10000 7.7 280 15:57 20.04.2020
4590 Clouds 21 1016 60 10000 7.7 280 15:39 20.04.2020
4591 Clouds 21 1016 60 10000 7.7 280 15:20 20.04.2020
4592 Clouds 21 1017 60 10000 7.2 280 14:42 20.04.2020
4593 Clouds 21 1017 60 10000 7.2 280 14:20 20.04.2020
4594 Clouds 20 1017 68 10000 5.7 300 13:59 20.04.2020
4595 Clouds 20 1017 68 10000 5.7 300 13:39 20.04.2020
4596 Clouds 20 1017 68 10000 5.7 300 13:20 20.04.2020
4597 Clouds 19 1018 64 10000 6.2 260 12:44 20.04.2020
4598 Clouds 20 1018 64 10000 6.2 260 12:24 20.04.2020
4599 Clouds 18 1018 72 10000 5.1 220 11:58 20.04.2020
4600 Clouds 15 1018 87 10000 3.1 200 11:39 20.04.2020
4601 Clouds 15 1018 87 10000 3.1 200 11:20 20.04.2020
4602 Clouds 15 1018 87 10000 3.1 200 10:55 20.04.2020
4603 Clouds 15 1018 87 10000 3.1 200 10:37 20.04.2020
4604 Clouds 15 1018 87 10000 3.1 200 10:37 20.04.2020
4605 Clouds 15 1018 87 10000 3.1 200 10:18 20.04.2020
4606 Clouds 14 1017 87 10000 3.6 200 09:44 20.04.2020
4607 Clouds 13 1017 87 10000 3.6 200 09:26 20.04.2020
4608 Clouds 12 1019 93 10000 2.6 210 08:59 20.04.2020
4609 Clouds 12 1019 93 10000 3.6 220 08:40 20.04.2020
4610 Clouds 12 1019 93 10000 3.6 220 08:19 20.04.2020
4611 Clouds 12 1019 93 10000 3.6 220 08:19 20.04.2020
4612 Clouds 11 1018 93 10000 3.1 190 07:52 20.04.2020
4613 Clouds 12 1019 93 10000 3.1 210 07:28 20.04.2020
4614 Clouds 12 1018 93 10000 3.1 210 06:54 20.04.2020
4615 Clouds 12 1018 93 10000 2.6 220 06:35 20.04.2020
4616 Clouds 10 1018 93 10000 2.6 210 05:25 20.04.2020
4617 Clouds 10 1019 93 10000 2.6 190 03:36 20.04.2020
4618 Clouds 10 1019 93 10000 3.1 200 02:42 20.04.2020
4619 Clouds 16 1020 93 10000 2.1 230 01:32 20.04.2020
4620 Clouds 16 1020 93 10000 2.1 230 01:32 20.04.2020
4621 Clouds 16 1020 87 10000 1.5 280 00:58 20.04.2020
4622 Clouds 16 1019 87 10000 1 0 00:33 20.04.2020
4623 Clouds 17 1019 82 10000 2.1 320 23:55 19.04.2020
4624 Clouds 17 1017 68 10000 5.1 340 23:37 19.04.2020
4625 Clouds 17 1017 68 10000 5.1 340 23:18 19.04.2020
4626 Clouds 17 1017 68 10000 5.1 340 22:39 19.04.2020
4627 Clouds 17 1017 68 10000 5.1 340 22:21 19.04.2020
4628 Clouds 17 1016 68 10000 5.7 340 21:56 19.04.2020
4629 Clouds 18 1016 68 10000 5.7 340 21:37 19.04.2020
4630 Clouds 18 1016 68 10000 5.7 340 21:18 19.04.2020
4631 Clouds 19 1017 63 10000 5.7 320 20:41 19.04.2020
4632 Clouds 19 1015 68 10000 7.2 300 20:21 19.04.2020
4633 Clouds 19 1015 68 10000 7.2 300 19:59 19.04.2020
4634 Clouds 19 1015 68 10000 7.2 300 19:41 19.04.2020
4635 Clouds 19 1015 68 10000 7.2 300 19:22 19.04.2020
4636 Clouds 20 1015 64 10000 5.1 300 18:58 19.04.2020
4637 Clouds 20 1015 64 10000 9.3 320 18:39 19.04.2020
4638 Clouds 20 1015 64 10000 9.3 320 18:20 19.04.2020
4639 Clouds 20 1015 64 10000 9.3 320 17:57 19.04.2020
4640 Clouds 20 1015 64 10000 9.3 320 17:38 19.04.2020
4641 Clouds 20 1015 64 10000 9.3 320 17:20 19.04.2020
4642 Clouds 19 1015 68 10000 7.2 340 16:56 19.04.2020
4643 Clouds 19 1015 68 10000 7.2 340 16:37 19.04.2020
4644 Clouds 19 1015 68 10000 7.2 340 16:19 19.04.2020
4645 Clouds 19 1015 68 10000 7.2 340 15:42 19.04.2020
4646 Clouds 19 1015 68 10000 7.2 340 15:42 19.04.2020
4647 Clouds 19 1015 68 10000 7.2 340 15:22 19.04.2020
4648 Clouds 19 1015 68 10000 9.8 340 14:54 19.04.2020
4649 Clouds 19 1015 68 10000 9.8 340 14:36 19.04.2020
4650 Clouds 19 1015 68 10000 9.8 340 14:18 19.04.2020
4651 Clouds 19 1015 63 10000 7.2 320 13:39 19.04.2020
4652 Clouds 19 1015 63 10000 7.2 320 13:19 19.04.2020
4653 Clouds 19 1015 63 10000 7.2 340 12:50 19.04.2020
4654 Clouds 19 1015 63 10000 7.2 340 12:25 19.04.2020
4655 Clouds 19 1015 63 10000 7.2 340 12:25 19.04.2020
4656 Clouds 19 1015 63 10000 6.2 340 11:56 19.04.2020
4657 Clouds 18 1015 63 10000 6.2 340 11:37 19.04.2020
4658 Clouds 18 1015 63 10000 6.2 340 11:18 19.04.2020
4659 Clouds 17 1014 72 10000 7.7 340 10:55 19.04.2020
4660 Clouds 17 1014 72 10000 7.7 340 10:37 19.04.2020
4661 Clouds 17 1014 72 10000 7.7 340 10:18 19.04.2020
4662 Clouds 17 1014 72 10000 6.2 360 09:44 19.04.2020
4663 Clouds 17 1014 72 10000 6.2 360 09:25 19.04.2020
4664 Clouds 16 1013 77 10000 7.2 340 08:41 19.04.2020
4665 Clouds 16 1013 77 10000 7.2 340 08:41 19.04.2020
4666 Clouds 16 1013 77 10000 7.2 340 08:21 19.04.2020
4667 Clouds 15 1014 93 10000 2.1 320 07:58 19.04.2020
4668 Clouds 16 1014 93 10000 1.5 300 07:40 19.04.2020
4669 Clouds 16 1014 93 10000 1.5 300 07:21 19.04.2020
4670 Clouds 16 1014 100 10000 2.1 250 06:27 19.04.2020
4671 Clouds 17 1014 93 10000 2.6 290 05:47 19.04.2020
4672 Rain 17 1014 87 10000 2.1 280 04:28 19.04.2020
4673 Clouds 17 1014 87 10000 1.5 220 02:59 19.04.2020
4674 Clouds 17 1015 93 10000 1 150 02:21 19.04.2020
4675 Clouds 17 1014 93 10000 1 0 01:37 19.04.2020
4676 Clouds 17 1013 93 10000 2.6 360 00:42 19.04.2020
4677 Clouds 17 1014 87 10000 3.1 360 00:22 19.04.2020
4678 Clouds 17 1014 87 10000 2.6 20 23:47 18.04.2020
4679 Clouds 17 1014 87 10000 3.1 350 23:22 18.04.2020
4680 Clouds 17 1013 82 10000 3.1 350 22:58 18.04.2020
4681 Clouds 18 1012 77 10000 5.1 360 22:38 18.04.2020
4682 Clouds 18 1012 77 10000 5.1 360 22:20 18.04.2020
4683 Clouds 18 1012 77 10000 5.1 360 21:56 18.04.2020
4684 Clouds 18 1012 72 10000 5.1 360 21:37 18.04.2020
4685 Clouds 19 1012 72 10000 5.1 360 21:19 18.04.2020
4686 Clouds 19 1012 72 10000 6.2 10 20:41 18.04.2020
4687 Clouds 19 1011 72 10000 7.7 360 20:22 18.04.2020
4688 Clouds 20 1011 72 10000 7.7 360 19:54 18.04.2020
4689 Clouds 20 1011 72 10000 7.7 360 19:54 18.04.2020
4690 Clouds 20 1011 72 10000 7.7 360 19:36 18.04.2020
4691 Clouds 20 1011 72 10000 7.7 360 19:18 18.04.2020
4692 Clouds 20 1011 72 10000 9.8 20 18:37 18.04.2020
4693 Clouds 20 1011 72 10000 9.8 20 18:19 18.04.2020
4694 Clouds 20 1011 68 10000 5.7 360 17:43 18.04.2020
4695 Clouds 20 1011 68 10000 5.7 360 17:21 18.04.2020
4696 Clouds 19 1013 77 10000 6.2 40 16:57 18.04.2020
4697 Clouds 19 1013 77 10000 6.2 40 16:38 18.04.2020
4698 Clouds 19 1013 77 10000 6.2 40 16:19 18.04.2020
4699 Clouds 20 1013 72 10000 6.7 40 15:39 18.04.2020
4700 Clouds 20 1013 72 10000 6.7 40 15:39 18.04.2020
4701 Clouds 20 1013 72 10000 6.7 40 15:21 18.04.2020
4702 Clouds 20 1013 68 10000 6.7 20 14:46 18.04.2020
4703 Clouds 20 1013 68 10000 6.7 20 14:27 18.04.2020
4704 Clouds 21 1013 68 10000 4.1 360 13:58 18.04.2020
4705 Clouds 21 1013 68 10000 4.1 360 13:40 18.04.2020
4706 Clouds 21 1013 68 10000 4.1 360 13:19 18.04.2020
4707 Clouds 19 1013 77 10000 4.1 360 12:42 18.04.2020
4708 Clouds 19 1013 77 10000 4.1 360 12:23 18.04.2020
4709 Clouds 19 1013 77 10000 4.6 340 11:55 18.04.2020
4710 Clouds 18 1013 77 10000 4.6 340 11:36 18.04.2020
4711 Clouds 18 1013 77 10000 4.6 340 11:18 18.04.2020
4712 Clouds 17 1013 82 10000 2.6 20 10:40 18.04.2020
4713 Clouds 17 1013 82 10000 2.6 20 10:19 18.04.2020
4714 Clouds 17 1013 82 10000 4.6 20 09:58 18.04.2020
4715 Clouds 17 1013 82 10000 4.6 20 09:38 18.04.2020
4716 Clouds 17 1013 82 10000 4.6 20 09:20 18.04.2020
4717 Clouds 17 1013 93 10000 2.1 60 08:39 18.04.2020
4718 Clouds 15 1013 93 10000 2.1 60 08:21 18.04.2020
4719 Clouds 15 1013 93 10000 2.1 30 07:38 18.04.2020
4720 Clouds 15 1013 93 10000 2.1 30 07:19 18.04.2020
4721 Clouds 17 1013 93 10000 2.6 30 06:30 18.04.2020
4722 Clouds 17 1013 93 10000 2.6 20 05:43 18.04.2020
4723 Clouds 17 1013 93 10000 2.6 20 04:47 18.04.2020
4724 Clouds 17 1013 93 10000 2.6 20 04:47 18.04.2020
4725 Clouds 17 1013 93 10000 2.6 20 04:28 18.04.2020
4726 Clouds 17 1014 93 10000 2.6 40 02:57 18.04.2020
4727 Clouds 17 1014 93 10000 2.6 30 02:37 18.04.2020
4728 Clouds 17 1014 93 10000 2.6 30 02:19 18.04.2020
4729 Clouds 17 1014 87 10000 2.6 60 01:36 18.04.2020
4730 Clouds 17 1015 87 10000 3.1 50 00:51 18.04.2020
4731 Clouds 17 1015 87 10000 3.1 50 00:24 18.04.2020
4732 Clouds 17 1015 87 10000 3.1 50 23:57 17.04.2020
4733 Clouds 17 1015 87 10000 3.1 50 23:38 17.04.2020
4734 Clouds 17 1015 87 10000 3.1 50 23:19 17.04.2020
4735 Clouds 17 1015 87 10000 3.1 30 22:56 17.04.2020
4736 Clouds 18 1013 72 10000 7.2 360 22:37 17.04.2020
4737 Clouds 18 1013 72 10000 7.2 360 22:19 17.04.2020
4738 Clouds 18 1013 72 10000 7.2 360 21:43 17.04.2020
4739 Clouds 18 1013 72 10000 7.2 360 21:22 17.04.2020
4740 Clouds 19 1013 68 10000 7.2 360 20:58 17.04.2020
4741 Clouds 19 1013 68 10000 7.2 360 20:38 17.04.2020
4742 Clouds 19 1013 68 10000 7.2 360 20:19 17.04.2020
4743 Clouds 19 1013 68 10000 7.2 360 20:19 17.04.2020
4744 Clouds 19 1013 68 10000 8.2 20 19:58 17.04.2020
4745 Clouds 20 1014 56 10000 6.2 360 19:40 17.04.2020
4746 Clouds 20 1013 68 10000 8.2 360 19:22 17.04.2020
4747 Clouds 20 1013 68 10000 8.2 360 18:44 17.04.2020
4748 Clouds 21 1013 68 10000 8.2 360 18:24 17.04.2020
4749 Clouds 21 1013 68 10000 8.2 360 18:24 17.04.2020
4750 Clouds 21 1013 68 10000 8.2 360 18:24 17.04.2020
4751 Clouds 21 1013 64 10000 9.3 360 17:55 17.04.2020
4752 Clouds 21 1013 64 10000 9.3 360 17:36 17.04.2020
4753 Clouds 21 1013 64 10000 9.3 360 17:18 17.04.2020
4754 Clouds 21 1013 64 10000 9.3 360 17:18 17.04.2020
4755 Clouds 21 1014 60 10000 9.3 340 16:42 17.04.2020
4756 Clouds 21 1014 60 10000 9.3 340 16:41 17.04.2020
4757 Clouds 21 1014 60 10000 9.3 340 16:22 17.04.2020
4758 Clouds 21 1014 60 10000 9.3 340 16:22 17.04.2020
4759 Clouds 22 1015 44 10000 2.6 320 15:41 17.04.2020
4760 Clouds 22 1015 64 10000 8.2 320 15:23 17.04.2020
4761 Clouds 21 1015 64 10000 8.2 320 14:57 17.04.2020
4762 Clouds 21 1015 64 10000 8.2 320 14:38 17.04.2020
4763 Clouds 21 1015 64 10000 8.2 320 14:20 17.04.2020
4764 Clouds 21 1016 60 10000 7.2 320 13:41 17.04.2020
4765 Clouds 21 1016 60 10000 7.2 320 13:22 17.04.2020
4766 Clouds 21 1016 64 10000 4.1 300 12:59 17.04.2020
4767 Clouds 21 1016 64 10000 4.1 300 12:41 17.04.2020
4768 Clouds 21 1016 64 10000 4.1 300 12:22 17.04.2020
4769 Clouds 19 1016 72 10000 2.1 300 11:40 17.04.2020
4770 Clouds 19 1016 72 10000 2.1 300 11:19 17.04.2020
4771 Clouds 17 1016 77 10000 2.1 220 10:55 17.04.2020
4772 Clouds 17 1016 77 10000 2.1 220 10:37 17.04.2020
4773 Clouds 17 1016 77 10000 2.1 220 10:18 17.04.2020
4774 Clouds 16 1016 87 10000 3.1 180 09:40 17.04.2020
4775 Clouds 16 1016 87 10000 3.1 180 09:20 17.04.2020
4776 Clouds 15 1016 87 10000 1 260 08:56 17.04.2020
4777 Clouds 15 1016 87 10000 1 260 08:37 17.04.2020
4778 Clouds 15 1016 93 10000 1 240 08:18 17.04.2020
4779 Clouds 15 1015 93 10000 1 0 07:43 17.04.2020
4780 Clouds 15 1015 93 10000 1 0 07:20 17.04.2020
4781 Clouds 15 1015 93 10000 1 0 06:45 17.04.2020
4782 Clouds 16 1015 93 10000 1 0 06:21 17.04.2020
4783 Clouds 16 1016 93 10000 1 130 03:37 17.04.2020
4784 Clouds 15 1016 93 10000 1 130 03:18 17.04.2020
4785 Clouds 15 1017 87 10000 1.5 150 01:55 17.04.2020
4786 Clouds 16 1017 87 10000 1.5 140 01:23 17.04.2020
4787 Clouds 17 1017 87 10000 1 0 00:28 17.04.2020
4788 Clouds 17 1017 87 10000 2.1 10 23:56 16.04.2020
4789 Clouds 18 1017 82 10000 2.1 350 23:38 16.04.2020
4790 Clouds 18 1017 82 10000 2.1 350 23:19 16.04.2020
4791 Clouds 18 1017 82 10000 1.5 30 22:55 16.04.2020
4792 Clouds 18 1015 88 10000 7.2 280 22:36 16.04.2020
4793 Clouds 18 1015 88 10000 7.2 280 22:18 16.04.2020
4794 Clouds 18 1015 88 10000 7.2 280 21:41 16.04.2020
4795 Clouds 18 1015 88 10000 7.2 280 21:20 16.04.2020
4796 Clouds 19 1015 77 10000 8.2 300 20:57 16.04.2020
4797 Clouds 19 1015 77 10000 8.2 300 20:38 16.04.2020
4798 Clouds 20 1014 72 10000 8.2 280 20:19 16.04.2020
4799 Clouds 21 1014 72 10000 8.2 280 19:40 16.04.2020
4800 Clouds 21 1014 64 10000 8.2 300 19:20 16.04.2020
4801 Clouds 21 1014 64 10000 8.2 300 18:58 16.04.2020
4802 Clouds 21 1014 64 10000 8.2 300 18:39 16.04.2020
4803 Clouds 22 1014 56 10000 8.2 300 18:21 16.04.2020
4804 Clouds 22 1014 56 10000 8.2 300 17:55 16.04.2020
4805 Clouds 22 1014 56 10000 8.2 300 17:37 16.04.2020
4806 Clouds 22 1014 56 10000 8.2 300 17:18 16.04.2020
4807 Clouds 23 1015 46 10000 8.2 300 16:41 16.04.2020
4808 Clouds 23 1015 46 10000 8.2 300 16:19 16.04.2020
4809 Clouds 23 1015 46 10000 9.3 300 15:45 16.04.2020
4810 Clouds 23 1015 46 10000 9.3 300 15:19 16.04.2020
4811 Clouds 22 1015 46 10000 8.2 300 14:58 16.04.2020
4812 Clouds 22 1015 46 10000 8.2 300 14:39 16.04.2020
4813 Clouds 23 1015 41 10000 4.1 220 14:19 16.04.2020
4814 Clouds 24 1015 41 10000 4.1 220 13:57 16.04.2020
4815 Clouds 23 1015 41 10000 4.1 220 13:37 16.04.2020
4816 Clouds 23 1015 41 10000 4.1 220 13:37 16.04.2020
4817 Clouds 23 1015 41 10000 4.1 220 13:19 16.04.2020
4818 Clouds 22 1015 40 10000 4.1 220 12:56 16.04.2020
4819 Clouds 21 1015 40 10000 4.1 220 12:37 16.04.2020
4820 Clouds 21 1015 43 10000 5.1 220 12:19 16.04.2020
4821 Clouds 21 1015 43 10000 5.1 220 12:19 16.04.2020
4822 Clouds 21 1015 43 10000 5.1 220 11:55 16.04.2020
4823 Clouds 21 1015 43 10000 5.1 220 11:36 16.04.2020
4824 Clouds 19 1015 59 10000 5.1 180 11:18 16.04.2020
4825 Clouds 19 1015 59 10000 5.1 180 11:18 16.04.2020
4826 Clouds 18 1015 59 10000 5.1 180 10:40 16.04.2020
4827 Clouds 18 1015 59 10000 5.1 180 10:19 16.04.2020
4828 Clouds 15 1015 72 10000 4.1 180 09:58 16.04.2020
4829 Clouds 15 1015 72 10000 4.1 180 09:38 16.04.2020
4830 Clear 14 1015 72 10000 4.1 180 09:19 16.04.2020
4831 Clear 14 1015 72 10000 4.1 180 09:19 16.04.2020
4832 Mist 12 1016 93 3000 2.6 170 08:42 16.04.2020
4833 Mist 12 1016 93 3000 2.6 170 08:23 16.04.2020
4834 Clear 11 1015 93 10000 2.6 170 07:46 16.04.2020
4835 Clear 11 1015 93 10000 2.6 170 07:28 16.04.2020
4836 Clear 11 1015 93 10000 2.6 170 07:28 16.04.2020
4837 Clear 11 1015 93 10000 2.6 170 06:46 16.04.2020
4838 Clear 11 1015 93 10000 2.6 170 06:27 16.04.2020
4839 Mist 10 1016 93 5000 1 0 05:59 16.04.2020
4840 Clear 11 1016 93 10000 2.1 190 04:44 16.04.2020
4841 Clouds 15 1016 93 10000 2.1 140 03:25 16.04.2020
4842 Clouds 15 1016 87 10000 1.5 150 02:55 16.04.2020
4843 Clouds 15 1016 87 10000 1 0 02:33 16.04.2020
4844 Clouds 16 1017 87 10000 1.5 160 01:21 16.04.2020
4845 Clouds 16 1017 82 10000 1 130 00:38 16.04.2020
4846 Clouds 17 1017 82 10000 1.5 120 00:18 16.04.2020
4847 Clouds 17 1017 77 10000 1.5 30 23:43 15.04.2020
4848 Clouds 17 1017 77 10000 1.5 30 23:22 15.04.2020
4849 Clouds 18 1017 72 10000 2.1 10 22:58 15.04.2020
4850 Clouds 18 1014 72 10000 4.1 260 22:37 15.04.2020
4851 Clouds 18 1014 72 10000 4.1 260 22:19 15.04.2020
4852 Clouds 18 1014 72 10000 4.1 260 21:41 15.04.2020
4853 Clouds 18 1014 72 10000 4.1 260 21:23 15.04.2020
4854 Clouds 19 1014 68 10000 6.2 280 20:59 15.04.2020
4855 Clouds 19 1014 68 10000 6.2 280 20:41 15.04.2020
4856 Clouds 19 1014 68 10000 6.2 280 20:22 15.04.2020
4857 Clouds 20 1013 52 10000 8.2 280 19:57 15.04.2020
4858 Clouds 21 1013 52 10000 8.2 280 19:39 15.04.2020
4859 Clouds 21 1014 43 10000 6.7 270 19:18 15.04.2020
4860 Clouds 21 1014 49 10000 4.6 290 18:40 15.04.2020
4861 Clouds 21 1013 60 10000 8.2 300 18:22 15.04.2020
4862 Clouds 21 1013 60 10000 8.2 300 17:55 15.04.2020
4863 Clouds 21 1013 60 10000 8.2 300 17:37 15.04.2020
4864 Clouds 21 1013 60 10000 8.2 300 17:18 15.04.2020
4865 Clouds 20 1014 68 10000 8.2 300 16:55 15.04.2020
4866 Clouds 21 1014 68 10000 8.2 300 16:36 15.04.2020
4867 Clouds 21 1014 68 10000 8.2 300 16:18 15.04.2020
4868 Clouds 21 1014 52 10000 6.2 280 15:55 15.04.2020
4869 Clouds 21 1014 52 10000 6.2 280 15:37 15.04.2020
4870 Clouds 21 1014 52 10000 6.2 280 15:18 15.04.2020
4871 Clouds 21 1014 60 10000 8.2 280 14:54 15.04.2020
4872 Clouds 20 1014 60 10000 8.2 280 14:36 15.04.2020
4873 Clouds 21 1014 52 10000 5.1 240 14:18 15.04.2020
4874 Clouds 21 1014 52 10000 5.1 240 13:40 15.04.2020
4875 Clouds 21 1014 52 10000 5.1 240 13:21 15.04.2020
4876 Clouds 20 1014 60 10000 6.2 220 12:59 15.04.2020
4877 Clouds 20 1014 60 10000 6.2 220 12:41 15.04.2020
4878 Clouds 20 1014 60 10000 6.2 220 12:22 15.04.2020
4879 Clouds 18 1013 72 10000 3.1 240 11:58 15.04.2020
4880 Clouds 18 1013 72 10000 3.1 240 11:38 15.04.2020
4881 Clouds 18 1013 72 10000 3.1 240 11:20 15.04.2020
4882 Clouds 17 1012 77 10000 6.2 180 10:38 15.04.2020
4883 Clouds 17 1012 77 10000 6.2 180 10:20 15.04.2020
4884 Clouds 16 1012 82 10000 5.1 180 09:57 15.04.2020
4885 Clouds 16 1012 82 10000 5.1 180 09:38 15.04.2020
4886 Clouds 16 1012 82 10000 5.1 180 09:20 15.04.2020
4887 Clouds 15 1011 87 10000 5.1 200 08:55 15.04.2020
4888 Clouds 15 1011 87 10000 5.1 200 08:36 15.04.2020
4889 Clouds 15 1012 93 10000 6.2 200 08:18 15.04.2020
4890 Clouds 14 1012 100 10000 5.7 210 07:45 15.04.2020
4891 Clouds 14 1012 100 10000 5.7 210 07:27 15.04.2020
4892 Clouds 16 1012 100 10000 5.7 210 06:25 15.04.2020
4893 Clouds 16 1012 100 10000 5.7 210 05:49 15.04.2020
4894 Rain 17 1011 77 10000 6.2 220 04:48 15.04.2020
4895 Rain 17 1011 77 10000 6.2 220 04:22 15.04.2020
4896 Clouds 16 1011 82 10000 3.1 180 03:22 15.04.2020
4897 Clouds 16 1011 82 10000 3.1 180 02:49 15.04.2020
4898 Clouds 17 1011 72 10000 3.6 220 01:52 15.04.2020
4899 Clouds 16 1011 76 10000 3.1 190 01:25 15.04.2020
4900 Clouds 17 1011 72 10000 6.2 220 00:49 15.04.2020
4901 Clouds 17 1011 72 10000 6.2 220 00:27 15.04.2020
4902 Clouds 17 1011 72 10000 5.7 230 23:56 14.04.2020
4903 Clouds 18 1012 72 10000 7.7 240 23:38 14.04.2020
4904 Clouds 18 1012 72 10000 7.7 240 23:20 14.04.2020
4905 Clouds 18 1011 68 10000 7.7 250 22:56 14.04.2020
4906 Clouds 18 1088 72 10000 2.1 320 22:38 14.04.2020
4907 Clouds 18 1088 72 10000 2.1 320 22:20 14.04.2020
4908 Clouds 18 1088 72 10000 2.1 320 22:20 14.04.2020
4909 Clouds 18 1088 72 10000 2.1 320 21:56 14.04.2020
4910 Clouds 18 1088 72 10000 2.1 320 21:38 14.04.2020
4911 Clouds 18 1088 72 10000 2.1 320 21:19 14.04.2020
4912 Clouds 19 1008 68 10000 4.1 280 20:55 14.04.2020
4913 Clouds 19 1008 68 10000 4.1 280 20:36 14.04.2020
4914 Clouds 19 1008 68 10000 4.1 280 20:36 14.04.2020
4915 Clouds 19 1008 68 10000 4.1 280 20:18 14.04.2020
4916 Clouds 19 1009 68 10000 6.2 320 19:41 14.04.2020
4917 Clouds 20 1008 64 10000 6.2 280 19:22 14.04.2020
4918 Clouds 20 1008 64 10000 6.2 280 18:57 14.04.2020
4919 Clouds 20 1008 64 10000 6.2 280 18:39 14.04.2020
4920 Clouds 20 1008 64 10000 6.2 280 18:21 14.04.2020
4921 Clouds 20 1008 64 10000 7.2 280 17:58 14.04.2020
4922 Clouds 20 1008 64 10000 7.2 280 17:38 14.04.2020
4923 Clouds 20 1008 64 10000 7.2 280 17:19 14.04.2020
4924 Clouds 20 1008 64 10000 7.2 280 17:19 14.04.2020
4925 Clouds 21 1009 60 10000 6.2 280 16:55 14.04.2020
4926 Clouds 21 1009 60 10000 6.2 280 16:37 14.04.2020
4927 Clouds 21 1009 60 10000 6.2 280 16:19 14.04.2020
4928 Clouds 21 1009 60 10000 7.2 280 15:42 14.04.2020
4929 Clouds 21 1009 60 10000 7.2 280 15:23 14.04.2020
4930 Clouds 22 1009 40 10000 8.2 280 14:59 14.04.2020
4931 Clouds 22 1009 40 10000 8.2 280 14:41 14.04.2020
4932 Clouds 22 1009 40 10000 8.2 280 14:22 14.04.2020
4933 Clouds 21 1010 43 10000 6.2 240 13:58 14.04.2020
4934 Clouds 21 1010 43 10000 6.2 240 13:40 14.04.2020
4935 Clouds 20 1010 43 10000 6.2 240 13:21 14.04.2020
4936 Clouds 20 1010 49 10000 7.2 200 12:42 14.04.2020
4937 Clouds 20 1010 49 10000 7.2 200 12:22 14.04.2020
4938 Clouds 19 1009 59 10000 8.2 200 11:57 14.04.2020
4939 Clouds 19 1009 59 10000 8.2 200 11:39 14.04.2020
4940 Clouds 19 1009 59 10000 8.2 200 11:20 14.04.2020
4941 Clouds 16 1010 72 10000 6.2 180 10:47 14.04.2020
4942 Clouds 16 1010 72 10000 6.2 180 10:28 14.04.2020
4943 Clouds 15 1010 77 10000 6.2 180 09:58 14.04.2020
4944 Clouds 15 1010 77 10000 6.2 180 09:40 14.04.2020
4945 Rain 15 1010 77 0 5.81 180 09:22 14.04.2020
4946 Clouds 14 1009 82 10000 6.2 200 08:44 14.04.2020
4947 Clouds 14 1009 82 10000 6.2 200 08:24 14.04.2020
4948 Clouds 13 1010 93 10000 3.6 170 07:57 14.04.2020
4949 Clouds 13 1010 93 10000 2.6 180 07:34 14.04.2020
4950 Clouds 13 1010 93 10000 3.1 180 06:57 14.04.2020
4951 Clouds 12 1010 93 10000 3.1 170 06:33 14.04.2020
4952 Rain 12 1010 93 10000 2.6 170 04:49 14.04.2020
4953 Clear 12 1011 93 10000 3.1 180 03:22 14.04.2020
4954 Clear 12 1011 93 10000 2.6 200 02:19 14.04.2020
4955 Clear 12 1011 93 10000 2.1 180 01:26 14.04.2020
4956 Clear 13 1012 87 10000 2.6 230 00:49 14.04.2020
4957 Clouds 15 1012 87 10000 2.6 210 00:23 14.04.2020
4958 Clouds 14 1012 82 10000 1.5 280 23:55 13.04.2020
4959 Clouds 15 1012 82 10000 1.5 280 23:36 13.04.2020
4960 Clouds 15 1011 76 10000 2.1 280 23:18 13.04.2020
4961 Clouds 16 1011 67 10000 2.1 300 22:41 13.04.2020
4962 Clouds 17 1010 63 10000 5.7 280 22:22 13.04.2020
4963 Clouds 17 1010 63 10000 5.7 280 21:57 13.04.2020
4964 Clouds 18 1010 63 10000 5.7 280 21:38 13.04.2020
4965 Clouds 18 1010 63 10000 5.7 280 21:20 13.04.2020
4966 Clouds 19 1009 59 10000 6.7 280 20:56 13.04.2020
4967 Clouds 19 1009 59 10000 6.7 280 20:38 13.04.2020
4968 Clouds 19 1009 59 10000 6.7 280 20:19 13.04.2020
4969 Clouds 19 1009 55 10000 8.7 280 19:54 13.04.2020
4970 Clouds 19 1009 55 10000 8.7 280 19:36 13.04.2020
4971 Clouds 20 1009 60 10000 7.7 260 19:18 13.04.2020
4972 Clouds 20 1009 60 10000 7.7 260 18:54 13.04.2020
4973 Clouds 20 1009 60 10000 7.7 260 18:36 13.04.2020
4974 Clouds 20 1010 64 10000 6.2 300 18:18 13.04.2020
4975 Clouds 20 1010 64 10000 6.2 300 17:54 13.04.2020
4976 Clouds 20 1010 64 10000 6.2 300 17:36 13.04.2020
4977 Clouds 20 1010 60 10000 5.7 320 17:18 13.04.2020
4978 Clouds 20 1010 60 10000 5.7 320 16:55 13.04.2020
4979 Clouds 20 1010 60 10000 5.7 320 16:36 13.04.2020
4980 Clouds 20 1010 60 10000 6.7 320 16:18 13.04.2020
4981 Clouds 20 1010 60 10000 6.7 320 15:43 13.04.2020
4982 Clouds 20 1010 60 10000 6.7 320 15:25 13.04.2020
4983 Clouds 20 1011 60 10000 6.2 280 14:56 13.04.2020
4984 Clouds 20 1011 60 10000 6.2 280 14:38 13.04.2020
4985 Clouds 20 1011 60 10000 6.2 280 14:20 13.04.2020
4986 Clouds 18 1011 68 10000 5.1 280 13:55 13.04.2020
4987 Clouds 18 1011 68 10000 5.1 280 13:55 13.04.2020
4988 Clouds 19 1011 68 10000 5.1 280 13:37 13.04.2020
4989 Clouds 20 1011 68 10000 5.1 280 13:19 13.04.2020
4990 Clouds 20 1011 68 10000 6.2 300 12:57 13.04.2020
4991 Clouds 20 1011 68 10000 6.2 300 12:57 13.04.2020
4992 Clouds 20 1011 68 10000 6.2 300 12:38 13.04.2020
4993 Clouds 19 1011 72 10000 4.1 260 12:19 13.04.2020
4994 Clouds 19 1011 72 10000 4.1 260 11:43 13.04.2020
4995 Clouds 19 1011 72 10000 4.1 260 11:19 13.04.2020
4996 Clouds 19 1011 72 10000 4.1 260 11:19 13.04.2020
4997 Clouds 17 1011 77 10000 2.1 320 10:56 13.04.2020
4998 Clouds 16 1011 77 10000 2.1 320 10:38 13.04.2020
4999 Clouds 16 1011 77 10000 2.1 320 10:20 13.04.2020
5000 Clouds 15 1011 82 10000 2.1 300 09:55 13.04.2020
5001 Clouds 15 1011 82 10000 2.1 300 09:36 13.04.2020
5002 Clouds 15 1011 82 10000 2.1 300 09:18 13.04.2020
5003 Clouds 16 1011 82 10000 4.6 300 08:43 13.04.2020
5004 Clouds 15 1011 82 10000 4.6 300 08:25 13.04.2020
5005 Clouds 16 1012 100 10000 2.1 300 07:42 13.04.2020
5006 Clouds 16 1012 100 10000 2.1 300 07:24 13.04.2020
5007 Clouds 16 1012 100 10000 2.6 290 06:47 13.04.2020
5008 Clouds 17 1012 100 10000 2.6 290 06:29 13.04.2020
5009 Clouds 17 1012 100 9000 3.1 300 05:40 13.04.2020
5010 Clouds 17 1012 100 9000 3.1 300 05:18 13.04.2020
5011 Rain 17 1012 100 10000 3.1 280 04:28 13.04.2020
5012 Clouds 17 1012 100 10000 3.1 280 03:50 13.04.2020
5013 Clouds 17 1013 100 10000 2.6 300 03:31 13.04.2020
5014 Clouds 16 1013 100 10000 3.1 230 02:39 13.04.2020
5015 Clouds 16 1013 100 10000 2.6 260 01:45 13.04.2020
5016 Clouds 16 1013 100 10000 2.6 260 01:25 13.04.2020
5017 Clouds 16 1013 100 10000 2.6 230 00:44 13.04.2020
5018 Clouds 16 1013 100 10000 2.6 230 00:23 13.04.2020
5019 Clouds 16 1014 100 10000 2.6 250 23:49 12.04.2020
5020 Clouds 16 1014 100 10000 2.6 240 23:26 12.04.2020
5021 Clouds 17 1013 93 10000 2.6 260 22:59 12.04.2020
5022 Clouds 17 1012 77 10000 4.6 280 22:38 12.04.2020
5023 Clouds 17 1012 77 10000 4.6 280 22:19 12.04.2020
5024 Clouds 17 1012 77 10000 4.6 280 21:55 12.04.2020
5025 Clouds 18 1012 77 10000 4.6 280 21:36 12.04.2020
5026 Clouds 18 1012 72 10000 7.2 280 21:18 12.04.2020
5027 Clouds 19 1012 72 10000 7.2 280 20:41 12.04.2020
5028 Clouds 19 1012 72 10000 7.2 280 20:23 12.04.2020
5029 Clouds 19 1012 64 10000 4.6 300 19:57 12.04.2020
5030 Clouds 19 1012 64 10000 4.6 300 19:38 12.04.2020
5031 Clouds 19 1012 68 10000 7.2 300 19:18 12.04.2020
5032 Clouds 19 1012 68 10000 7.2 300 18:41 12.04.2020
5033 Clouds 19 1012 68 10000 7.2 300 18:23 12.04.2020
5034 Clouds 20 1012 64 10000 6.7 300 17:59 12.04.2020
5035 Clouds 20 1012 64 10000 6.7 300 17:41 12.04.2020
5036 Clouds 20 1012 64 10000 6.7 300 17:23 12.04.2020
5037 Clouds 20 1012 60 10000 4.1 320 16:58 12.04.2020
5038 Clouds 20 1012 60 10000 4.1 320 16:39 12.04.2020
5039 Clouds 20 1012 60 10000 4.1 320 16:20 12.04.2020
5040 Clouds 20 1013 64 10000 3.6 300 15:49 12.04.2020
5041 Clouds 19 1013 64 10000 3.6 300 15:30 12.04.2020
5042 Clouds 19 1013 64 10000 4.1 300 14:55 12.04.2020
5043 Clouds 19 1013 64 10000 4.1 300 14:36 12.04.2020
5044 Clouds 19 1014 68 10000 3.6 300 14:18 12.04.2020
5045 Clouds 18 1014 68 10000 3.6 300 13:42 12.04.2020
5046 Clouds 18 1014 68 10000 3.6 300 13:23 12.04.2020
5047 Clouds 18 1014 77 10000 2.1 260 12:55 12.04.2020
5048 Clouds 18 1014 77 10000 2.1 260 12:37 12.04.2020
5049 Clouds 18 1013 77 10000 3.6 280 12:18 12.04.2020
5050 Clouds 18 1013 77 10000 3.6 280 11:55 12.04.2020
5051 Clouds 18 1013 77 10000 3.6 280 11:36 12.04.2020
5052 Clouds 18 1013 77 10000 4.1 340 11:18 12.04.2020
5053 Clouds 18 1013 77 10000 4.1 340 10:54 12.04.2020
5054 Clouds 17 1013 77 10000 4.1 340 10:36 12.04.2020
5055 Clouds 17 1013 82 10000 3.6 320 10:18 12.04.2020
5056 Clouds 17 1013 82 10000 3.6 320 09:40 12.04.2020
5057 Clouds 17 1013 82 10000 3.6 320 09:40 12.04.2020
5058 Clouds 17 1013 82 10000 3.6 320 09:21 12.04.2020
5059 Clouds 17 1013 82 10000 2.1 360 08:52 12.04.2020
5060 Clouds 16 1013 82 10000 2.1 360 08:33 12.04.2020
5061 Clouds 15 1014 93 10000 2.1 250 07:58 12.04.2020
5062 Clouds 15 1014 87 10000 2.1 230 07:40 12.04.2020
5063 Clouds 15 1013 87 10000 2.1 220 07:18 12.04.2020
5064 Clouds 15 1014 93 10000 2.1 220 06:33 12.04.2020
5065 Clouds 16 1014 87 10000 2.1 230 05:51 12.04.2020
5066 Clouds 16 1014 93 10000 2.1 220 05:29 12.04.2020
5067 Clouds 16 1015 87 10000 1.5 220 03:43 12.04.2020
5068 Clouds 16 1015 87 10000 1.5 220 03:19 12.04.2020
5069 Clouds 16 1015 93 10000 2.1 210 02:34 12.04.2020
5070 Clouds 16 1016 93 10000 1 290 01:48 12.04.2020
5071 Clouds 17 1016 87 10000 2.1 280 00:57 12.04.2020
5072 Clouds 17 1016 87 10000 2.1 280 00:57 12.04.2020
5073 Clouds 17 1016 87 10000 2.1 270 00:39 12.04.2020
5074 Clouds 17 1016 87 10000 2.1 270 00:19 12.04.2020
5075 Clouds 17 1016 82 10000 2.1 290 23:46 11.04.2020
5076 Clouds 17 1016 82 10000 2.1 290 23:25 11.04.2020
5077 Clouds 17 1016 82 10000 2.1 300 22:42 11.04.2020
5078 Clouds 17 1014 72 10000 4.1 320 22:23 11.04.2020
5079 Clouds 18 1014 72 10000 4.1 320 21:57 11.04.2020
5080 Clouds 18 1014 72 10000 4.1 320 21:38 11.04.2020
5081 Clouds 18 1014 72 10000 4.1 320 21:38 11.04.2020
5082 Clouds 18 1014 72 10000 4.1 320 21:19 11.04.2020
5083 Clouds 18 1014 77 10000 4.1 320 20:58 11.04.2020
5084 Clouds 18 1014 77 10000 4.1 320 20:40 11.04.2020
5085 Clouds 18 1014 77 10000 4.1 320 20:21 11.04.2020
5086 Clouds 18 1014 77 10000 4.1 320 20:21 11.04.2020
5087 Clouds 19 1014 72 10000 5.1 300 19:58 11.04.2020
5088 Clouds 19 1014 72 10000 5.1 300 19:40 11.04.2020
5089 Clouds 19 1014 72 10000 5.1 300 19:20 11.04.2020
5090 Clouds 19 1014 72 10000 3.1 320 18:58 11.04.2020
5091 Clouds 19 1014 72 10000 3.1 320 18:39 11.04.2020
5092 Clouds 19 1014 72 10000 3.1 320 18:21 11.04.2020
5093 Clouds 20 1015 60 10000 6.2 330 17:59 11.04.2020
5094 Clouds 20 1015 56 10000 5.7 350 17:41 11.04.2020
5095 Clouds 20 1015 60 10000 6.2 300 17:21 11.04.2020
5096 Clouds 20 1015 60 10000 6.2 300 16:58 11.04.2020
5097 Clouds 20 1015 60 10000 6.2 300 16:40 11.04.2020
5098 Clouds 20 1015 60 10000 6.2 300 16:20 11.04.2020
5099 Clouds 20 1015 60 10000 6.2 300 16:20 11.04.2020
5100 Clouds 20 1015 64 10000 4.1 340 15:39 11.04.2020
5101 Clouds 20 1015 64 10000 4.1 340 15:19 11.04.2020
5102 Clouds 20 1016 64 10000 4.1 340 14:43 11.04.2020
5103 Clouds 20 1016 64 10000 4.1 340 14:43 11.04.2020
5104 Clouds 20 1016 64 10000 4.1 340 14:25 11.04.2020
5105 Clouds 20 1016 64 10000 6.2 360 13:59 11.04.2020
5106 Clouds 20 1017 64 10000 4.1 330 13:40 11.04.2020
5107 Clouds 20 1017 64 10000 6.2 360 13:20 11.04.2020
5108 Clouds 20 1017 64 10000 6.2 360 12:43 11.04.2020
5109 Clouds 20 1017 64 10000 6.2 360 12:21 11.04.2020
5110 Clouds 18 1017 72 8000 4.1 360 11:58 11.04.2020
5111 Clouds 18 1017 72 8000 4.1 360 11:39 11.04.2020
5112 Clouds 17 1017 72 8000 4.1 360 11:19 11.04.2020
5113 Clouds 17 1017 77 8000 5.1 360 10:55 11.04.2020
5114 Clouds 17 1017 77 8000 5.1 360 10:36 11.04.2020
5115 Clouds 17 1017 77 8000 5.1 360 10:36 11.04.2020
5116 Clouds 17 1016 77 8000 4.1 360 10:18 11.04.2020
5117 Clouds 17 1016 77 8000 4.1 360 09:40 11.04.2020
5118 Clouds 17 1016 77 8000 4.1 360 09:22 11.04.2020
5119 Clouds 17 1016 77 8000 4.1 360 08:51 11.04.2020
5120 Clouds 17 1016 77 8000 4.1 360 08:29 11.04.2020
5121 Clouds 16 1017 87 10000 3.1 20 07:56 11.04.2020
5122 Clouds 16 1016 87 10000 2.6 30 07:38 11.04.2020
5123 Clouds 16 1016 87 10000 2.6 30 07:19 11.04.2020
5124 Clouds 16 1017 87 10000 3.6 40 06:35 11.04.2020
5125 Clouds 17 1017 87 10000 3.6 30 05:56 11.04.2020
5126 Clouds 18 1018 82 10000 3.1 20 03:48 11.04.2020
5127 Clouds 17 1018 87 10000 3.1 20 02:50 11.04.2020
5128 Clouds 17 1019 93 10000 3.6 30 01:26 11.04.2020
5129 Clouds 17 1019 93 10000 3.6 40 00:54 11.04.2020
5130 Clouds 17 1019 93 10000 4.6 20 00:36 11.04.2020
5131 Clouds 17 1019 93 10000 4.1 30 00:18 11.04.2020
5132 Clouds 18 1019 88 10000 3.6 50 23:41 10.04.2020
5133 Clouds 18 1019 88 10000 3.6 50 23:19 10.04.2020
5134 Clouds 18 1019 88 10000 4.1 30 22:55 10.04.2020
5135 Clouds 18 1017 82 10000 5.1 20 22:37 10.04.2020
5136 Clouds 18 1017 82 10000 5.1 20 22:18 10.04.2020
5137 Clouds 18 1017 82 10000 5.1 20 22:18 10.04.2020
5138 Clouds 18 1017 82 10000 5.1 20 21:41 10.04.2020
5139 Clouds 18 1017 82 10000 5.1 20 21:21 10.04.2020
5140 Clouds 18 1017 82 10000 6.2 20 20:57 10.04.2020
5141 Clouds 18 1017 82 10000 6.2 20 20:38 10.04.2020
5142 Clouds 18 1017 82 10000 6.2 20 20:19 10.04.2020
5143 Clouds 19 1017 72 10000 6.2 20 19:54 10.04.2020
5144 Clouds 19 1017 72 10000 6.2 20 19:36 10.04.2020
5145 Clouds 19 1017 72 10000 8.2 20 19:18 10.04.2020
5146 Clouds 19 1017 72 10000 8.2 20 18:55 10.04.2020
5147 Clouds 19 1017 72 10000 8.2 20 18:36 10.04.2020
5148 Clouds 20 1017 68 10000 8.2 360 18:18 10.04.2020
5149 Clouds 20 1017 68 10000 8.2 360 17:56 10.04.2020
5150 Clouds 20 1017 68 10000 8.2 360 17:37 10.04.2020
5151 Clouds 20 1017 68 10000 8.2 360 17:18 10.04.2020
5152 Clouds 21 1018 68 10000 9.3 360 16:41 10.04.2020
5153 Clouds 21 1018 68 10000 9.3 360 16:23 10.04.2020
5154 Clouds 21 1018 64 10000 8.2 340 15:58 10.04.2020
5155 Clouds 21 1018 64 10000 8.2 340 15:39 10.04.2020
5156 Clouds 21 1018 64 10000 8.2 340 15:20 10.04.2020
5157 Clouds 21 1018 64 10000 8.2 340 14:58 10.04.2020
5158 Clouds 21 1018 64 10000 8.2 340 14:39 10.04.2020
5159 Clouds 21 1018 64 10000 8.2 340 14:39 10.04.2020
5160 Clouds 21 1018 64 10000 8.2 340 14:20 10.04.2020
5161 Clouds 20 1019 68 10000 6.2 20 13:45 10.04.2020
5162 Clouds 20 1019 68 10000 6.2 20 13:22 10.04.2020
5163 Clouds 20 1020 68 10000 5.1 60 12:56 10.04.2020
5164 Clouds 20 1020 68 10000 5.1 60 12:37 10.04.2020
5165 Clouds 20 1019 72 10000 6.2 20 12:19 10.04.2020
5166 Clouds 19 1019 72 10000 6.2 20 11:42 10.04.2020
5167 Clouds 19 1019 72 10000 6.2 20 11:24 10.04.2020
5168 Clouds 18 1019 82 10000 6.2 20 10:57 10.04.2020
5169 Clouds 18 1019 82 10000 6.2 20 10:38 10.04.2020
5170 Clouds 18 1019 82 10000 6.2 20 10:19 10.04.2020
5171 Clouds 17 1019 82 10000 5.1 20 09:43 10.04.2020
5172 Clouds 17 1019 82 10000 5.1 20 09:21 10.04.2020
5173 Clouds 17 1019 82 10000 2.1 360 08:48 10.04.2020
5174 Clouds 16 1019 82 10000 2.1 360 08:27 10.04.2020
5175 Clouds 16 1019 82 10000 2.1 360 08:27 10.04.2020
5176 Clouds 16 1019 93 10000 2.6 360 07:54 10.04.2020
5177 Clouds 17 1019 93 10000 2.1 340 07:36 10.04.2020
5178 Clouds 17 1019 88 10000 2.1 350 07:18 10.04.2020
5179 Clouds 17 1019 82 10000 1.5 20 06:31 10.04.2020
5180 Clouds 16 1019 87 10000 1.5 50 05:59 10.04.2020
5181 Clouds 16 1019 93 10000 2.6 20 05:25 10.04.2020
5182 Clouds 16 1019 93 10000 2.1 350 04:53 10.04.2020
5183 Clouds 16 1020 100 10000 3.1 360 03:34 10.04.2020
5184 Clouds 16 1020 100 10000 2.6 350 02:51 10.04.2020
5185 Clouds 17 1020 93 10000 2.6 350 02:32 10.04.2020
5186 Clouds 16 1020 93 10000 2.6 350 01:43 10.04.2020
5187 Clouds 17 1020 93 10000 2.6 350 01:25 10.04.2020
5188 Clouds 17 1021 93 10000 2.6 350 00:45 10.04.2020
5189 Clouds 17 1021 93 10000 2.6 350 00:20 10.04.2020
5190 Clouds 17 1021 93 10000 2.6 350 00:20 10.04.2020
5191 Clouds 17 1020 88 10000 2.6 350 23:41 09.04.2020
5192 Clouds 18 1020 88 10000 2.6 350 23:23 09.04.2020
5193 Clouds 18 1020 88 10000 2.6 350 22:57 09.04.2020
5194 Clouds 18 1018 77 10000 4.1 360 22:38 09.04.2020
5195 Clouds 18 1018 77 10000 4.1 360 22:20 09.04.2020
5196 Clouds 18 1018 77 10000 4.1 360 21:38 09.04.2020
5197 Clouds 18 1018 77 10000 4.1 360 21:20 09.04.2020
5198 Clouds 19 1018 72 10000 4.1 360 20:47 09.04.2020
5199 Clouds 19 1018 72 10000 4.1 360 20:23 09.04.2020
5200 Clouds 20 1018 68 10000 5.1 360 19:59 09.04.2020
5201 Clouds 20 1018 68 10000 5.1 360 19:38 09.04.2020
5202 Clouds 20 1017 68 10000 6.2 340 19:20 09.04.2020
5203 Clouds 20 1017 68 10000 6.2 340 18:42 09.04.2020
5204 Clouds 20 1017 68 10000 6.2 340 18:21 09.04.2020
5205 Clouds 21 1017 72 10000 8.2 360 17:43 09.04.2020
5206 Clouds 21 1017 72 10000 8.2 360 17:25 09.04.2020
5207 Clouds 21 1017 68 10000 6.2 340 17:00 09.04.2020
5208 Clouds 21 1017 68 10000 6.2 340 16:39 09.04.2020
5209 Clouds 21 1017 68 10000 6.2 340 16:19 09.04.2020
5210 Clouds 21 1018 68 10000 6.2 320 15:56 09.04.2020
5211 Clouds 21 1018 68 10000 6.2 320 15:37 09.04.2020
5212 Clouds 21 1018 68 10000 6.2 320 15:19 09.04.2020
5213 Clouds 21 1018 68 10000 5.1 320 14:42 09.04.2020
5214 Clouds 21 1018 68 10000 5.1 320 14:21 09.04.2020
5215 Clouds 21 1019 72 10000 5.1 300 13:57 09.04.2020
5216 Clouds 20 1019 72 10000 5.1 300 13:39 09.04.2020
5217 Clouds 20 1019 72 10000 5.1 300 13:21 09.04.2020
5218 Clouds 20 1019 77 10000 3.1 320 12:43 09.04.2020
5219 Clouds 20 1019 77 10000 3.1 320 12:24 09.04.2020
5220 Clouds 18 1019 88 10000 3.1 280 11:59 09.04.2020
5221 Clouds 18 1019 88 10000 3.1 280 11:41 09.04.2020
5222 Clouds 18 1019 88 10000 3.1 280 11:20 09.04.2020
5223 Clouds 18 1019 88 10000 3.1 280 11:20 09.04.2020
5224 Clouds 18 1019 88 10000 3.1 280 11:20 09.04.2020
5225 Clouds 18 1018 82 10000 3.1 280 10:58 09.04.2020
5226 Clouds 18 1018 82 10000 3.1 280 10:40 09.04.2020
5227 Clouds 18 1018 82 10000 3.1 280 10:20 09.04.2020
5228 Clouds 17 1018 88 10000 3.1 280 09:56 09.04.2020
5229 Clouds 17 1018 88 10000 3.1 280 09:38 09.04.2020
5230 Clouds 17 1018 88 10000 3.1 280 09:20 09.04.2020
5231 Clouds 16 1017 93 8000 1 0 08:44 09.04.2020
5232 Clouds 16 1017 93 8000 1 0 08:23 09.04.2020
5233 Clouds 16 1017 93 8000 0.5 0 07:55 09.04.2020
5234 Clouds 16 1017 93 8000 1.5 270 07:27 09.04.2020
5235 Clouds 17 1017 93 8000 1.5 290 06:55 09.04.2020
5236 Clouds 16 1017 93 8000 2.6 320 05:59 09.04.2020
5237 Clouds 16 1017 93 8000 2.6 320 05:39 09.04.2020
5238 Clouds 16 1017 93 8000 2.1 330 03:50 09.04.2020
5239 Clouds 16 1018 93 10000 1 330 02:27 09.04.2020
5240 Clouds 17 1019 100 10000 1 300 01:40 09.04.2020
5241 Clouds 16 1019 100 10000 1 300 01:20 09.04.2020
5242 Clouds 17 1019 93 10000 2.1 320 00:41 09.04.2020
5243 Clouds 17 1019 93 10000 2.1 320 00:20 09.04.2020
5244 Clouds 17 1019 93 10000 2.1 320 23:58 08.04.2020
5245 Clouds 18 1019 88 10000 1.5 320 23:40 08.04.2020
5246 Clouds 18 1019 88 10000 1.5 320 23:20 08.04.2020
5247 Clouds 18 1018 88 10000 2.6 340 22:43 08.04.2020
5248 Clouds 18 1017 88 6000 2.1 360 22:24 08.04.2020
5249 Clouds 18 1017 88 6000 2.1 360 21:56 08.04.2020
5250 Clouds 18 1017 88 6000 2.1 360 21:38 08.04.2020
5251 Clouds 19 1017 82 8000 4.1 360 21:19 08.04.2020
5252 Clouds 19 1017 82 8000 4.1 360 20:57 08.04.2020
5253 Clouds 20 1017 82 8000 4.1 360 20:38 08.04.2020
5254 Clouds 20 1017 77 10000 4.1 360 20:20 08.04.2020
5255 Clouds 20 1017 77 10000 4.1 360 19:42 08.04.2020
5256 Clouds 20 1017 77 10000 5.7 340 19:22 08.04.2020
5257 Clouds 21 1017 49 10000 5.1 360 18:59 08.04.2020
5258 Clouds 21 1017 49 10000 5.1 360 18:40 08.04.2020
5259 Clouds 21 1017 72 10000 5.1 340 18:22 08.04.2020
5260 Clouds 21 1017 72 10000 5.1 340 17:44 08.04.2020
5261 Clouds 21 1017 72 10000 5.1 340 17:22 08.04.2020
5262 Clouds 21 1017 72 10000 5.1 340 17:22 08.04.2020
5263 Clouds 22 1017 60 10000 3.6 360 16:59 08.04.2020
5264 Clouds 22 1017 60 10000 3.6 360 16:41 08.04.2020
5265 Clouds 22 1017 60 10000 3.6 340 16:22 08.04.2020
5266 Clouds 22 1017 60 10000 3.6 340 15:55 08.04.2020
5267 Clouds 22 1017 60 10000 3.6 340 15:36 08.04.2020
5268 Clouds 22 1018 64 10000 4.1 360 15:18 08.04.2020
5269 Clouds 22 1018 64 10000 4.1 360 14:41 08.04.2020
5270 Clouds 22 1018 64 10000 4.1 360 14:23 08.04.2020
5271 Clouds 21 1018 64 6000 4.1 40 13:45 08.04.2020
5272 Clouds 21 1018 64 6000 4.1 40 13:22 08.04.2020
5273 Clouds 21 1019 73 6000 4.1 40 12:59 08.04.2020
5274 Clouds 21 1019 73 6000 4.1 40 12:41 08.04.2020
5275 Clouds 19 1018 82 5000 2.6 20 12:18 08.04.2020
5276 Clouds 19 1018 82 5000 2.6 20 12:18 08.04.2020
5277 Clouds 19 1018 82 5000 2.6 20 11:54 08.04.2020
5278 Clouds 19 1018 82 5000 2.6 20 11:36 08.04.2020
5279 Mist 18 1019 93 3000 3.1 20 11:18 08.04.2020
5280 Mist 18 1019 93 3000 3.1 20 10:41 08.04.2020
5281 Mist 17 1019 93 3000 3.1 20 10:22 08.04.2020
5282 Mist 17 1018 100 3000 1.5 360 09:59 08.04.2020
5283 Mist 16 1018 100 3000 1.5 360 09:41 08.04.2020
5284 Mist 16 1018 100 3000 1.5 360 09:19 08.04.2020
5285 Fog 15 1019 100 800 1.5 30 08:58 08.04.2020
5286 Clouds 15 1019 100 5000 2.1 30 08:40 08.04.2020
5287 Clouds 15 1019 100 5000 2.1 30 08:21 08.04.2020
5288 Clouds 15 1019 100 6000 2.1 80 07:43 08.04.2020
5289 Clouds 15 1019 100 6000 2.1 80 07:22 08.04.2020
5290 Mist 15 1019 100 3000 2.6 50 06:41 08.04.2020
5291 Mist 16 1020 100 3000 2.6 20 05:30 08.04.2020
5292 Clouds 17 1021 100 8000 2.6 40 03:20 08.04.2020
5293 Clouds 17 1021 100 10000 2.6 30 02:38 08.04.2020
5294 Clouds 17 1021 100 10000 3.1 30 02:18 08.04.2020
5295 Clouds 17 1021 100 10000 3.1 30 01:28 08.04.2020
5296 Clouds 17 1022 93 10000 2.1 40 00:50 08.04.2020
5297 Clouds 17 1022 93 10000 3.6 30 00:32 08.04.2020
5298 Clouds 18 1022 88 10000 3.6 40 23:57 07.04.2020
5299 Clouds 18 1021 88 10000 3.1 30 23:38 07.04.2020
5300 Clouds 18 1021 88 10000 3.1 30 23:19 07.04.2020
5301 Clouds 18 1021 93 10000 5.1 30 22:56 07.04.2020
5302 Clouds 18 1019 82 10000 5.7 40 22:38 07.04.2020
5303 Clouds 18 1019 82 10000 5.7 40 22:19 07.04.2020
5304 Clouds 18 1019 82 10000 5.7 40 21:54 07.04.2020
5305 Clouds 18 1019 82 10000 5.7 40 21:36 07.04.2020
5306 Clouds 19 1019 77 10000 7.2 40 21:18 07.04.2020
5307 Clouds 19 1019 77 10000 7.2 40 20:41 07.04.2020
5308 Clouds 20 1019 77 10000 7.2 40 20:21 07.04.2020
5309 Clouds 21 1019 64 10000 6.7 30 19:58 07.04.2020
5310 Clouds 21 1019 68 10000 7.2 360 19:38 07.04.2020
5311 Clouds 21 1019 68 10000 7.2 360 19:20 07.04.2020
5312 Clouds 21 1019 68 10000 7.2 360 18:59 07.04.2020
5313 Clouds 21 1019 68 10000 7.2 360 18:41 07.04.2020
5314 Clouds 21 1019 64 10000 8.7 20 18:21 07.04.2020
5315 Clouds 21 1019 64 10000 8.7 20 17:55 07.04.2020
5316 Clouds 21 1019 64 10000 8.7 20 17:37 07.04.2020
5317 Clouds 21 1020 64 10000 8.7 20 17:19 07.04.2020
5318 Clouds 21 1020 64 10000 8.7 20 16:43 07.04.2020
5319 Clouds 21 1020 68 10000 7.2 360 16:25 07.04.2020
5320 Clouds 22 1020 68 10000 7.2 360 15:44 07.04.2020
5321 Clouds 22 1020 68 10000 7.2 360 15:26 07.04.2020
5322 Clouds 22 1021 64 10000 5.1 60 14:56 07.04.2020
5323 Clouds 21 1021 64 10000 5.1 60 14:38 07.04.2020
5324 Clouds 21 1021 64 10000 5.1 60 14:19 07.04.2020
5325 Clouds 21 1021 64 10000 4.1 40 13:42 07.04.2020
5326 Clouds 20 1021 64 10000 4.1 40 13:19 07.04.2020
5327 Clouds 20 1021 72 10000 4.6 20 12:57 07.04.2020
5328 Clouds 19 1021 72 10000 4.6 20 12:38 07.04.2020
5329 Clouds 19 1021 77 10000 4.6 20 12:20 07.04.2020
5330 Clouds 19 1021 77 10000 4.6 20 11:57 07.04.2020
5331 Clouds 19 1021 77 10000 4.6 20 11:38 07.04.2020
5332 Clouds 19 1021 77 10000 4.6 20 11:19 07.04.2020
5333 Clouds 17 1021 77 10000 3.6 40 10:39 07.04.2020
5334 Clouds 17 1021 77 10000 3.6 40 10:20 07.04.2020
5335 Clouds 16 1021 100 10000 0.5 100 09:54 07.04.2020
5336 Clouds 15 1021 100 10000 0.5 100 09:36 07.04.2020
5337 Clouds 15 1021 87 10000 1 80 09:18 07.04.2020
5338 Clouds 15 1021 87 10000 1 80 08:39 07.04.2020
5339 Clouds 15 1021 87 10000 1 80 08:20 07.04.2020
5340 Clouds 15 1021 100 10000 3.1 60 07:44 07.04.2020
5341 Clouds 15 1021 100 10000 3.1 60 07:44 07.04.2020
5342 Clouds 15 1021 100 10000 3.1 60 07:26 07.04.2020
5343 Clouds 15 1021 100 10000 3.1 60 06:52 07.04.2020
5344 Clouds 16 1021 100 10000 4.6 50 06:26 07.04.2020
5345 Clouds 17 1021 100 10000 4.1 40 05:54 07.04.2020
5346 Clouds 17 1021 100 10000 4.6 30 05:25 07.04.2020
5347 Clouds 17 1021 100 6000 2.6 30 03:36 07.04.2020
5348 Clouds 17 1022 100 10000 2.6 40 03:18 07.04.2020
5349 Clouds 17 1022 100 10000 2.6 20 02:36 07.04.2020
5350 Clouds 17 1022 93 10000 2.6 40 01:34 07.04.2020
5351 Clouds 17 1022 93 10000 2.6 40 00:54 07.04.2020
5352 Clouds 17 1022 93 10000 2.6 40 00:25 07.04.2020
5353 Clouds 18 1022 88 10000 2.6 40 23:41 06.04.2020
5354 Clouds 18 1022 88 10000 2.6 40 23:21 06.04.2020
5355 Clouds 18 1022 88 10000 2.6 30 22:54 06.04.2020
5356 Clouds 18 1020 82 10000 4.1 20 22:36 06.04.2020
5357 Clouds 18 1020 82 10000 4.1 20 22:36 06.04.2020
5358 Clouds 18 1020 82 10000 4.1 20 22:18 06.04.2020
5359 Clouds 18 1020 82 10000 4.1 20 21:42 06.04.2020
5360 Clouds 18 1020 82 10000 4.1 20 21:20 06.04.2020
5361 Clouds 19 1020 77 10000 5.1 20 20:57 06.04.2020
5362 Clouds 20 1020 77 10000 5.1 20 20:39 06.04.2020
5363 Clouds 20 1020 77 10000 5.1 20 20:21 06.04.2020
5364 Clouds 20 1022 72 8000 3.6 360 19:57 06.04.2020
5365 Clouds 20 1022 72 8000 3.6 360 19:38 06.04.2020
5366 Clouds 21 1020 73 10000 7.2 360 19:20 06.04.2020
5367 Clouds 21 1020 73 10000 7.2 360 18:43 06.04.2020
5368 Clouds 21 1020 73 10000 7.2 360 18:23 06.04.2020
5369 Clouds 21 1020 68 10000 7.2 20 17:57 06.04.2020
5370 Clouds 21 1020 68 10000 7.2 20 17:39 06.04.2020
5371 Clouds 21 1020 64 10000 7.7 340 17:18 06.04.2020
5372 Clouds 21 1020 64 10000 7.7 340 16:48 06.04.2020
5373 Clouds 21 1020 64 10000 7.7 340 16:30 06.04.2020
5374 Clouds 22 1021 68 10000 6.2 320 14:49 06.04.2020
5375 Clouds 22 1021 68 10000 6.2 320 14:49 06.04.2020
5376 Clouds 22 1021 68 10000 6.2 320 14:49 06.04.2020
5377 Clouds 22 1021 68 10000 6.2 320 14:49 06.04.2020
5378 Clouds 22 1021 68 10000 6.2 320 14:49 06.04.2020
5379 Clouds 21 1021 68 8000 3.1 300 13:45 06.04.2020
5380 Clouds 21 1021 68 8000 3.1 300 13:45 06.04.2020
5381 Clouds 21 1021 68 8000 3.1 300 13:22 06.04.2020
5382 Clouds 22 1021 68 8000 5.1 320 12:46 06.04.2020
5383 Clouds 21 1021 68 8000 5.1 320 12:19 06.04.2020
5384 Clouds 21 1021 68 8000 5.1 320 12:19 06.04.2020
5385 Clouds 19 1021 77 6000 3.1 260 11:40 06.04.2020
5386 Clouds 19 1021 77 6000 3.1 260 11:18 06.04.2020
5387 Clouds 19 1020 77 6000 2.1 240 10:39 06.04.2020
5388 Clouds 19 1020 77 6000 2.1 240 10:39 06.04.2020
5389 Clouds 19 1020 77 6000 2.1 240 10:39 06.04.2020
5390 Clouds 19 1020 77 6000 2.1 240 10:38 06.04.2020
5391 Clouds 19 1020 77 6000 2.1 240 10:38 06.04.2020
5392 Clouds 19 1020 77 6000 2.1 240 10:20 06.04.2020
5393 Clouds 19 1020 77 6000 2.1 240 10:20 06.04.2020
5394 Clouds 19 1020 77 6000 2.1 240 10:20 06.04.2020
5395 Clouds 19 1020 77 6000 2.1 240 10:20 06.04.2020
5396 Clouds 19 1020 77 6000 2.1 240 10:20 06.04.2020
5397 Clouds 18 1020 82 6000 1.5 220 09:40 06.04.2020
5398 Clouds 18 1020 82 6000 1.5 220 09:40 06.04.2020
5399 Clouds 17 1020 82 6000 1.5 220 09:19 06.04.2020
5400 Clouds 18 1019 77 6000 2.1 240 08:44 06.04.2020
5401 Clouds 18 1019 77 6000 2.1 240 08:44 06.04.2020
5402 Clouds 18 1019 77 6000 2.1 240 08:44 06.04.2020
5403 Clouds 18 1019 77 6000 2.1 240 08:44 06.04.2020
5404 Clouds 18 1019 77 6000 2.1 240 08:44 06.04.2020
5405 Clouds 18 1019 77 6000 2.1 240 08:23 06.04.2020
5406 Clouds 17 1019 93 10000 2.1 230 07:23 06.04.2020
5407 Clouds 17 1019 93 10000 2.1 230 07:23 06.04.2020
5408 Clouds 17 1019 93 10000 2.1 230 07:23 06.04.2020
5409 Clouds 17 1019 93 10000 2.1 230 07:23 06.04.2020
5410 Clouds 17 1019 88 10000 2.1 240 06:27 06.04.2020
5411 Clouds 17 1019 88 10000 2.1 210 05:51 06.04.2020
5412 Clouds 17 1020 93 10000 1.5 200 03:57 06.04.2020
5413 Clouds 17 1020 88 10000 1 0 02:52 06.04.2020
5414 Clouds 17 1020 88 10000 1.5 210 01:55 06.04.2020
5415 Clouds 17 1020 93 10000 1.5 160 00:55 06.04.2020
5416 Clouds 17 1020 93 10000 1.5 150 00:28 06.04.2020
5417 Clouds 17 1020 93 10000 1.5 150 00:28 06.04.2020
5418 Clouds 17 1020 93 10000 0.5 0 23:52 05.04.2020
5419 Clouds 17 1020 93 10000 1.5 10 23:33 05.04.2020
5420 Clouds 19 1020 93 10000 1.5 360 22:58 05.04.2020
5421 Clouds 19 1020 93 10000 1.5 360 22:58 05.04.2020
5422 Clouds 19 1020 93 10000 1.5 360 22:40 05.04.2020
5423 Clouds 19 1017 72 10000 6.2 320 22:22 05.04.2020
5424 Clouds 19 1017 72 10000 6.2 320 21:59 05.04.2020
5425 Clouds 19 1017 72 10000 6.2 320 21:41 05.04.2020
5426 Clouds 19 1017 72 10000 6.2 320 21:41 05.04.2020
5427 Clouds 20 1017 72 10000 6.2 320 21:23 05.04.2020
5428 Clouds 20 1017 72 10000 5.7 280 20:24 05.04.2020
5429 Clouds 20 1017 72 10000 8.2 320 19:43 05.04.2020
5430 Clouds 20 1017 72 10000 8.2 320 19:23 05.04.2020
5431 Clouds 22 1016 60 10000 7.7 300 18:48 05.04.2020
5432 Clouds 22 1016 60 10000 7.7 300 18:48 05.04.2020
5433 Clouds 22 1016 60 10000 7.7 300 18:18 05.04.2020
5434 Clouds 22 1016 60 10000 7.7 300 17:46 05.04.2020
5435 Clouds 22 1016 60 10000 7.7 300 17:46 05.04.2020
5436 Clouds 22 1016 60 10000 7.7 300 17:46 05.04.2020
5437 Clouds 22 1016 60 10000 7.7 300 17:46 05.04.2020
5438 Clouds 22 1016 60 10000 7.7 300 17:46 05.04.2020
5439 Clouds 22 1016 60 10000 7.7 300 17:22 05.04.2020
5440 Clouds 22 1016 64 6000 8.2 300 16:47 05.04.2020
5441 Clouds 22 1016 64 6000 8.2 300 16:19 05.04.2020
5442 Clouds 22 1017 60 6000 8.2 320 15:45 05.04.2020
5443 Clouds 22 1017 60 6000 8.2 320 15:45 05.04.2020
5444 Clouds 22 1017 60 6000 8.2 320 15:25 05.04.2020
5445 Clouds 22 1017 60 6000 8.2 320 15:25 05.04.2020
5446 Clouds 22 1017 64 10000 5.1 300 14:48 05.04.2020
5447 Clouds 22 1017 64 10000 5.1 300 14:48 05.04.2020
5448 Clouds 22 1017 64 10000 5.1 300 14:48 05.04.2020
5449 Clouds 22 1017 64 10000 5.1 300 14:48 05.04.2020
5450 Clouds 22 1017 64 10000 5.1 300 14:48 05.04.2020
5451 Clouds 22 1017 60 8000 5.7 240 13:59 05.04.2020
5452 Clouds 22 1017 60 8000 5.7 240 13:40 05.04.2020
5453 Clouds 22 1017 60 8000 5.7 240 13:40 05.04.2020
5454 Clouds 22 1017 60 8000 5.7 240 13:40 05.04.2020
5455 Clouds 22 1017 60 8000 5.7 240 13:40 05.04.2020
5456 Clouds 22 1017 60 8000 5.7 240 13:40 05.04.2020
5457 Clouds 20 1017 64 8000 4.1 220 12:00 05.04.2020
5458 -273 0 0 0 0 0 12:00 05.04.2020
5459 Clouds 20 1017 64 8000 4.1 220 12:00 05.04.2020
5460 Clouds 19 1017 64 8000 4.1 220 11:39 05.04.2020
5461 Clouds 19 1017 64 8000 4.1 220 11:19 05.04.2020
5462 Clouds 18 1017 72 6000 5.1 200 10:47 05.04.2020
5463 Clouds 17 1017 72 6000 5.1 200 10:22 05.04.2020
5464 Clouds 17 1017 72 6000 5.1 200 10:22 05.04.2020
5465 Clouds 15 1016 77 6000 5.1 180 09:53 05.04.2020
5466 Clouds 14 1016 77 6000 5.1 180 09:26 05.04.2020
5467 Clouds 14 1016 77 6000 5.1 180 09:26 05.04.2020
5468 Clouds 14 1016 77 6000 5.1 180 09:26 05.04.2020
5469 Clouds 14 1016 77 6000 5.1 180 09:26 05.04.2020
5470 Clouds 14 1016 77 6000 5.1 180 09:26 05.04.2020
5471 Clouds 13 1015 93 6000 2.6 180 08:18 05.04.2020
5472 Clouds 13 1015 93 10000 0.5 0 05:37 05.04.2020
5473 Clouds 13 1015 93 10000 0.5 0 05:37 05.04.2020
5474 Clouds 13 1015 93 10000 0.5 0 05:37 05.04.2020
5475 Clouds 13 1015 93 10000 0.5 0 04:29 05.04.2020
5476 Clouds 13 1015 93 10000 0.5 0 04:29 05.04.2020
5477 Clouds 14 1015 100 9000 0.5 0 03:27 05.04.2020
5478 Mist 14 1015 93 4700 1.5 120 02:18 05.04.2020
5479 Clouds 15 1015 93 10000 1.5 80 01:42 05.04.2020
5480 Clouds 15 1015 87 10000 1 40 01:18 05.04.2020
5481 Clouds 15 1015 87 10000 1 40 01:18 05.04.2020
5482 Clouds 15 1016 87 10000 1.5 60 00:37 05.04.2020
5483 Clouds 15 1016 87 10000 1.5 60 00:18 05.04.2020
5484 Clouds 16 1016 82 10000 1 50 23:41 04.04.2020
5485 Clouds 16 1016 82 10000 1.5 340 23:21 04.04.2020
5486 Clouds 16 1016 82 10000 1 0 22:57 04.04.2020
5487 Clouds 16 1015 82 10000 1.5 350 22:39 04.04.2020
5488 Clouds 17 1013 77 8000 2.6 300 22:19 04.04.2020
5489 Clouds 18 1013 77 8000 2.6 300 21:57 04.04.2020
5490 Clouds 18 1013 77 8000 2.6 300 21:38 04.04.2020
5491 Clouds 18 1013 77 8000 2.6 300 21:19 04.04.2020
5492 Clouds 18 1013 77 6000 2.6 300 20:54 04.04.2020
5493 Clouds 19 1013 77 6000 2.6 300 20:36 04.04.2020
5494 Clouds 19 1013 77 6000 2.6 300 20:18 04.04.2020
5495 Clouds 19 1012 72 8000 4.6 300 19:40 04.04.2020
5496 Clouds 19 1012 72 8000 4.6 300 19:20 04.04.2020
5497 Clouds 21 1012 68 8000 4.6 340 18:59 04.04.2020
5498 Clouds 21 1012 68 8000 4.6 340 18:59 04.04.2020
5499 Clouds 21 1012 68 8000 4.6 340 18:39 04.04.2020
5500 Clouds 21 1012 68 8000 4.6 340 18:21 04.04.2020
5501 Clouds 20 1011 64 8000 6.2 320 17:58 04.04.2020
5502 Clouds 20 1011 64 8000 6.2 320 17:38 04.04.2020
5503 Clouds 20 1011 64 8000 6.2 320 17:19 04.04.2020
5504 Clouds 21 1012 68 8000 7.2 300 16:45 04.04.2020
5505 Clouds 22 1012 68 8000 7.2 300 16:27 04.04.2020
5506 Clouds 21 1012 68 8000 5.1 300 15:59 04.04.2020
5507 Clouds 21 1012 68 8000 5.1 300 15:39 04.04.2020
5508 Clouds 21 1012 68 8000 5.1 300 15:19 04.04.2020
5509 Clouds 21 1012 68 8000 5.1 300 15:19 04.04.2020
5510 Clouds 21 1012 64 8000 4.6 300 14:54 04.04.2020
5511 Clouds 21 1012 64 8000 4.6 300 14:36 04.04.2020
5512 Clouds 21 1012 64 8000 4.6 300 14:18 04.04.2020
5513 Clouds 20 1012 72 8000 4.1 300 13:42 04.04.2020
5514 Clouds 20 1012 72 8000 4.1 300 13:21 04.04.2020
5515 Clouds 20 1012 72 8000 4.1 300 13:21 04.04.2020
5516 Clouds 18 1011 82 10000 4.1 280 12:58 04.04.2020
5517 Clouds 18 1011 82 10000 4.1 280 12:40 04.04.2020
5518 Clouds 18 1011 82 10000 4.1 280 12:20 04.04.2020
5519 Clouds 17 1011 82 8000 5.7 240 11:42 04.04.2020
5520 Clouds 17 1011 82 8000 5.7 240 11:23 04.04.2020
5521 Clouds 16 1009 72 8000 5.7 240 10:59 04.04.2020
5522 Clouds 16 1009 72 8000 5.7 240 10:40 04.04.2020
5523 Clouds 16 1009 72 8000 5.7 240 10:22 04.04.2020
5524 Clouds 16 1009 72 8000 2.6 200 09:56 04.04.2020
5525 Clouds 16 1009 72 8000 2.6 200 09:38 04.04.2020
5526 Clouds 16 1009 72 8000 2.6 200 09:20 04.04.2020
5527 Clouds 15 1008 72 10000 1.5 200 08:43 04.04.2020
5528 Clouds 15 1008 72 10000 1.5 200 08:23 04.04.2020
5529 Clouds 14 1009 82 10000 2.6 220 07:57 04.04.2020
5530 Clouds 14 1008 87 10000 2.1 230 07:38 04.04.2020
5531 Clouds 14 1008 87 10000 2.1 230 07:20 04.04.2020
5532 Clouds 13 1008 93 10000 1.5 220 06:29 04.04.2020
5533 Clouds 15 1008 93 10000 0.5 0 05:52 04.04.2020
5534 Clouds 15 1008 93 10000 0.5 0 05:32 04.04.2020
5535 Clouds 15 1008 93 10000 1.5 120 04:34 04.04.2020
5536 Clouds 15 1008 93 10000 2.6 100 03:56 04.04.2020
5537 Clouds 15 1009 100 10000 2.1 150 03:29 04.04.2020
5538 Clouds 15 1009 100 10000 1.5 130 02:45 04.04.2020
5539 Clouds 15 1010 100 10000 0.5 130 02:25 04.04.2020
5540 Clouds 15 1010 93 10000 1.5 180 01:27 04.04.2020
5541 Clouds 15 1010 87 10000 1.5 110 00:58 04.04.2020
5542 Clouds 16 1010 87 10000 2.1 50 00:31 04.04.2020
5543 Clouds 16 1010 87 10000 3.1 40 23:57 03.04.2020
5544 Clouds 16 1010 82 10000 3.6 30 23:38 03.04.2020
5545 Clouds 16 1010 82 10000 3.6 30 23:19 03.04.2020
5546 Clouds 16 1010 82 10000 3.6 30 23:19 03.04.2020
5547 Clouds 17 1010 77 10000 3.6 30 22:40 03.04.2020
5548 Clouds 17 1009 67 10000 7.2 20 22:19 03.04.2020
5549 Clouds 17 1009 67 10000 7.2 20 22:19 03.04.2020
5550 Clouds 17 1009 67 10000 7.2 20 21:57 03.04.2020
5551 Clouds 17 1009 67 10000 7.2 20 21:38 03.04.2020
5552 Clouds 17 1009 67 10000 7.2 20 21:20 03.04.2020
5553 Clouds 17 1009 72 10000 7.2 20 20:55 03.04.2020
5554 Clouds 17 1009 72 10000 7.2 20 20:36 03.04.2020
5555 Clouds 17 1009 72 10000 7.2 20 20:18 03.04.2020
5556 Clouds 17 1009 72 10000 7.2 20 20:18 03.04.2020
5557 Clouds 19 1009 59 10000 7.2 40 19:55 03.04.2020
5558 Clouds 19 1009 59 10000 7.2 40 19:36 03.04.2020
5559 Clouds 19 1009 59 10000 7.2 40 19:18 03.04.2020
5560 Clouds 19 1009 59 10000 8.2 40 18:56 03.04.2020
5561 Clouds 19 1009 59 10000 8.2 40 18:38 03.04.2020
5562 Clouds 19 1009 59 10000 8.2 40 18:20 03.04.2020
5563 Clouds 20 1009 59 10000 10.3 20 17:40 03.04.2020
5564 Clouds 20 1009 59 10000 10.3 20 17:19 03.04.2020
5565 Clouds 20 1010 55 10000 9.3 40 16:55 03.04.2020
5566 Clouds 20 1010 55 10000 9.3 40 16:36 03.04.2020
5567 Clouds 20 1010 55 10000 9.3 40 16:18 03.04.2020
5568 Clouds 20 1011 55 10000 10.3 20 15:41 03.04.2020
5569 Clouds 20 1011 55 10000 10.3 20 15:22 03.04.2020
5570 Clouds 19 1012 59 10000 4.1 60 14:58 03.04.2020
5571 Clouds 17 1013 59 0 4.92 60 14:40 03.04.2020
5572 Clouds 17 1013 59 10000 5.1 60 14:21 03.04.2020
5573 Clouds 17 1013 59 10000 5.1 60 13:46 03.04.2020
5574 Clouds 17 1013 59 10000 5.1 60 13:27 03.04.2020
5575 Clouds 17 1014 59 10000 6.2 60 12:57 03.04.2020
5576 Clouds 17 1014 59 10000 6.2 60 12:39 03.04.2020
5577 Clear 17 1014 59 10000 6.2 60 12:18 03.04.2020
5578 Clear 16 1014 59 10000 8.2 60 11:55 03.04.2020
5579 Clear 16 1014 59 10000 8.2 60 11:55 03.04.2020
5580 Clear 15 1014 59 10000 8.2 60 11:37 03.04.2020
5581 Clear 15 1014 59 10000 8.2 60 11:18 03.04.2020
5582 Clear 14 1014 71 10000 5.1 100 10:56 03.04.2020
5583 Clear 13 1014 71 10000 5.1 100 10:37 03.04.2020
5584 Clear 13 1014 71 10000 5.1 100 10:19 03.04.2020
5585 Clear 10 1014 87 10000 3.1 120 09:55 03.04.2020
5586 Clear 9 1014 87 10000 3.1 120 09:37 03.04.2020
5587 Clear 9 1014 87 10000 3.1 120 09:37 03.04.2020
5588 Clear 9 1014 87 10000 3.1 120 09:18 03.04.2020
5589 Clear 9 1014 87 10000 2.1 140 08:43 03.04.2020
5590 Clear 9 1014 87 10000 2.1 140 08:23 03.04.2020
5591 Clear 5 1014 100 10000 2.1 100 07:51 03.04.2020
5592 Clear 5 1014 100 10000 2.6 100 07:33 03.04.2020
5593 Clear 6 1014 100 8000 2.6 100 06:57 03.04.2020
5594 Clear 6 1014 100 8000 2.6 80 06:27 03.04.2020
5595 Clear 7 1015 93 9000 2.1 130 05:42 03.04.2020
5596 Clear 9 1016 93 10000 2.1 140 03:52 03.04.2020
5597 Clear 9 1016 100 10000 2.1 110 03:31 03.04.2020
5598 Clear 12 1017 100 8000 2.1 110 02:31 03.04.2020
5599 Clear 13 1018 93 8000 2.6 110 01:24 03.04.2020
5600 Clear 13 1018 93 10000 2.1 140 00:46 03.04.2020
5601 Clear 14 1018 81 10000 1 0 00:27 03.04.2020
5602 Clear 14 1018 87 10000 1.5 30 23:43 02.04.2020
5603 Clear 14 1018 81 10000 1.5 10 23:24 02.04.2020
5604 Clear 14 1018 76 10000 2.6 20 23:00 02.04.2020
5605 Clear 14 1018 76 10000 2.6 20 22:41 02.04.2020
5606 Clouds 15 1016 67 10000 4.1 360 22:22 02.04.2020
5607 Clouds 15 1016 67 10000 4.1 360 21:57 02.04.2020
5608 Clouds 15 1016 67 10000 4.1 360 21:37 02.04.2020
5609 Clouds 15 1016 67 10000 4.1 360 21:18 02.04.2020
5610 Clouds 16 1016 55 10000 5.1 360 20:44 02.04.2020
5611 Clouds 17 1016 55 10000 5.1 360 20:24 02.04.2020
5612 Clouds 17 1016 52 10000 5.1 320 19:57 02.04.2020
5613 Clouds 18 1016 52 10000 5.1 320 19:38 02.04.2020
5614 Clouds 18 1016 52 10000 5.1 320 19:19 02.04.2020
5615 Clouds 18 1016 52 10000 9.3 340 18:42 02.04.2020
5616 Clouds 18 1016 55 10000 6.2 340 18:21 02.04.2020
5617 Clouds 18 1016 55 10000 6.2 340 17:59 02.04.2020
5618 Clouds 18 1016 55 10000 6.2 340 17:59 02.04.2020
5619 Clouds 18 1016 55 10000 6.2 340 17:40 02.04.2020
5620 Clouds 18 1016 55 10000 6.2 340 17:22 02.04.2020
5621 Clouds 18 1016 55 10000 6.2 340 16:57 02.04.2020
5622 Clouds 17 1016 55 10000 6.2 340 16:39 02.04.2020
5623 Clouds 18 1016 55 10000 6.2 340 16:21 02.04.2020
5624 Clouds 17 1017 55 10000 7.2 280 15:56 02.04.2020
5625 Clouds 18 1017 55 10000 7.2 280 15:38 02.04.2020
5626 Clouds 18 1017 55 10000 7.2 280 15:38 02.04.2020
5627 Clouds 18 1017 55 10000 7.2 280 15:18 02.04.2020
5628 Clouds 18 1017 55 10000 7.2 280 15:18 02.04.2020
5629 Clouds 17 1017 72 10000 5.1 260 14:55 02.04.2020
5630 Clouds 16 1017 72 10000 5.1 260 14:37 02.04.2020
5631 Clouds 16 1017 72 10000 5.1 260 14:18 02.04.2020
5632 Clouds 15 1017 87 10000 6.2 240 13:40 02.04.2020
5633 Clouds 14 1017 87 10000 6.2 240 13:21 02.04.2020
5634 Rain 14 1017 87 8000 4.1 280 12:57 02.04.2020
5635 Rain 14 1017 87 8000 4.1 280 12:39 02.04.2020
5636 Rain 14 1017 87 8000 4.1 280 12:19 02.04.2020
5637 Rain 14 1017 87 8000 4.1 280 12:19 02.04.2020
5638 Rain 14 1017 87 8000 4.1 280 12:19 02.04.2020
5639 Rain 14 1017 87 8000 4.1 280 12:19 02.04.2020
5640 Rain 15 1016 72 10000 5.1 280 11:57 02.04.2020
5641 Rain 15 1016 72 10000 5.1 280 11:38 02.04.2020
5642 Rain 14 1016 72 10000 5.1 280 11:19 02.04.2020
5643 Rain 14 1016 72 10000 5.1 280 11:19 02.04.2020
5644 Clouds 14 1015 71 10000 2.1 180 10:55 02.04.2020
5645 Clouds 13 1015 71 10000 2.1 180 10:37 02.04.2020
5646 Clouds 13 1015 71 10000 2.1 180 10:19 02.04.2020
5647 Clouds 13 1015 71 10000 4.1 200 09:55 02.04.2020
5648 Clouds 12 1015 71 10000 4.1 200 09:37 02.04.2020
5649 Clouds 12 1015 71 10000 4.1 200 09:18 02.04.2020
5650 Clouds 11 1015 76 10000 4.1 200 08:45 02.04.2020
5651 Clouds 11 1015 100 10000 3.6 210 08:26 02.04.2020
5652 Clouds 10 1015 100 10000 4.1 210 07:45 02.04.2020
5653 Clouds 11 1015 93 10000 4.1 210 07:20 02.04.2020
5654 Clouds 11 1015 93 10000 3.1 210 06:58 02.04.2020
5655 Clouds 11 1015 93 10000 3.6 210 06:21 02.04.2020
5656 Clouds 10 1015 100 10000 3.1 210 05:45 02.04.2020
5657 Clouds 9 1016 100 10000 2.6 220 04:35 02.04.2020
5658 Clouds 13 1017 100 10000 2.6 210 01:51 02.04.2020
5659 Clouds 13 1017 93 10000 2.6 230 00:48 02.04.2020
5660 Clouds 13 1017 93 10000 2.6 230 00:27 02.04.2020
5661 Clouds 14 1017 93 10000 2.1 250 23:57 01.04.2020
5662 Clouds 14 1017 87 10000 2.1 260 23:37 01.04.2020
5663 Clouds 14 1017 87 10000 2.1 260 23:37 01.04.2020
5664 Clouds 14 1017 87 10000 2.1 260 23:18 01.04.2020
5665 Clouds 14 1017 87 10000 2.1 260 23:18 01.04.2020
5666 Clouds 15 1017 82 10000 2.1 280 22:40 01.04.2020
5667 Clouds 15 1015 63 10000 5.1 280 22:22 01.04.2020
5668 Clouds 15 1015 63 10000 5.1 280 21:55 01.04.2020
5669 Clouds 16 1015 63 10000 5.1 280 21:37 01.04.2020
5670 Clouds 16 1015 63 10000 5.1 280 21:18 01.04.2020
5671 Clouds 17 1015 59 10000 6.2 300 20:54 01.04.2020
5672 Clouds 17 1015 59 10000 6.2 300 20:54 01.04.2020
5673 Clouds 17 1015 59 10000 6.2 300 20:54 01.04.2020
5674 Clouds 17 1015 59 10000 6.2 300 20:36 01.04.2020
5675 Clouds 17 1015 59 10000 6.2 300 20:18 01.04.2020
5676 Clouds 18 1015 59 10000 5.1 280 19:41 01.04.2020
5677 Clouds 18 1015 59 10000 5.1 280 19:21 01.04.2020
5678 Clouds 19 1015 55 10000 4.1 320 18:46 01.04.2020
5679 Clouds 19 1015 55 10000 4.1 320 18:27 01.04.2020
5680 Clouds 18 1014 59 10000 5.1 320 17:59 01.04.2020
5681 Clouds 18 1014 59 10000 5.1 320 17:59 01.04.2020
5682 Clouds 18 1014 59 10000 5.1 320 17:39 01.04.2020
5683 Clouds 18 1014 59 10000 5.1 320 17:21 01.04.2020
5684 Clouds 18 1014 59 10000 5.1 320 17:21 01.04.2020
5685 Clouds 18 1014 59 10000 5.1 340 16:59 01.04.2020
5686 Clouds 18 1014 59 10000 5.1 340 16:41 01.04.2020
5687 Clouds 18 1014 59 10000 5.1 340 16:22 01.04.2020
5688 Clouds 18 1015 68 10000 3.1 320 15:58 01.04.2020
5689 Clouds 18 1015 68 10000 3.1 320 15:38 01.04.2020
5690 Clouds 18 1015 68 10000 3.1 320 15:38 01.04.2020
5691 Clouds 18 1015 68 10000 3.1 320 15:20 01.04.2020
5692 Clouds 17 1015 63 10000 5.1 260 14:57 01.04.2020
5693 Clouds 17 1015 63 10000 5.1 260 14:38 01.04.2020
5694 Clouds 17 1015 63 10000 5.1 260 14:19 01.04.2020
5695 Clouds 17 1015 63 10000 5.1 260 14:19 01.04.2020
5696 Rain 15 1016 77 6000 2.1 220 13:57 01.04.2020
5697 Rain 15 1016 77 6000 2.1 220 13:37 01.04.2020
5698 Rain 15 1016 77 6000 2.1 220 13:18 01.04.2020
5699 Clouds 16 1015 67 10000 4.1 240 12:54 01.04.2020
5700 Clouds 17 1015 67 10000 4.1 240 12:36 01.04.2020
5701 Clouds 17 1015 67 10000 4.1 240 12:18 01.04.2020
5702 Clouds 17 1015 67 10000 6.2 220 11:40 01.04.2020
5703 Clouds 16 1015 67 10000 6.2 220 11:21 01.04.2020
5704 Clouds 15 1015 82 10000 2.1 220 10:58 01.04.2020
5705 Clouds 15 1015 82 10000 2.1 220 10:37 01.04.2020
5706 Clouds 14 1015 82 10000 2.1 220 10:18 01.04.2020
5707 Clouds 14 1014 87 10000 3.1 220 09:55 01.04.2020
5708 Clouds 14 1014 87 10000 3.1 220 09:37 01.04.2020
5709 Clouds 13 1014 87 10000 3.1 220 09:18 01.04.2020
5710 Clouds 13 1014 87 10000 3.1 220 09:18 01.04.2020
5711 Clouds 13 1014 87 10000 3.1 220 08:40 01.04.2020
5712 Clouds 13 1014 87 10000 3.1 220 08:18 01.04.2020
5713 Clouds 13 1015 100 10000 3.6 230 07:43 01.04.2020
5714 Clouds 13 1014 100 10000 4.6 240 07:21 01.04.2020
5715 Clouds 13 1014 100 10000 4.1 240 06:48 01.04.2020
5716 Clouds 13 1014 100 10000 3.6 230 06:24 01.04.2020
5717 Clouds 15 1014 100 10000 4.1 230 05:56 01.04.2020
5718 Rain 15 1014 100 10000 4.1 230 04:30 01.04.2020
5719 Clouds 15 1014 100 10000 5.7 250 03:28 01.04.2020
5720 Rain 16 1014 100 10000 6.2 270 02:49 01.04.2020
5721 Clouds 16 1014 93 10000 6.7 240 01:56 01.04.2020
5722 Clouds 16 1014 93 10000 5.1 230 01:37 01.04.2020
5723 Clouds 16 1014 93 10000 5.1 230 01:18 01.04.2020
5724 Clouds 15 1014 100 10000 3.6 230 00:43 01.04.2020
5725 Clouds 16 1013 93 10000 4.1 230 00:18 01.04.2020
5726 Clouds 16 1013 93 10000 4.6 240 23:41 31.03.2020
5727 Clouds 16 1013 87 10000 3.6 240 23:23 31.03.2020
5728 Clouds 16 1013 93 10000 3.6 250 22:57 31.03.2020
5729 Clouds 16 1012 87 10000 3.1 260 22:36 31.03.2020
5730 Clouds 16 1011 72 10000 6.2 260 22:18 31.03.2020
5731 Clouds 16 1011 72 10000 6.2 260 21:55 31.03.2020
5732 Clouds 16 1011 72 10000 6.2 260 21:55 31.03.2020
5733 Clouds 17 1011 72 10000 6.2 260 21:37 31.03.2020
5734 Clouds 17 1011 72 10000 6.2 260 21:19 31.03.2020
5735 Clouds 18 1010 59 10000 7.2 260 20:54 31.03.2020
5736 Clouds 19 1010 59 10000 7.2 260 20:36 31.03.2020
5737 Clouds 19 1010 63 10000 8.2 280 20:18 31.03.2020
5738 Clouds 19 1010 63 10000 8.2 280 19:41 31.03.2020
5739 Clouds 19 1010 63 10000 8.2 280 19:22 31.03.2020
5740 Clouds 19 1009 63 10000 11.8 280 18:55 31.03.2020
5741 Clouds 19 1009 63 10000 11.8 280 18:37 31.03.2020
5742 Clouds 19 1009 63 10000 11.8 280 18:18 31.03.2020
5743 Clouds 20 1009 60 10000 10.8 280 17:54 31.03.2020
5744 Clouds 19 1010 72 10000 10.3 240 17:36 31.03.2020
5745 Clouds 19 1009 60 10000 8.7 260 17:18 31.03.2020
5746 Clouds 20 1009 60 10000 8.7 260 16:38 31.03.2020
5747 Clouds 20 1009 60 10000 8.7 260 16:19 31.03.2020
5748 Clouds 18 1009 63 10000 9.8 260 15:57 31.03.2020
5749 Clouds 18 1009 63 10000 9.8 260 15:38 31.03.2020
5750 Clouds 19 1009 63 10000 9.8 260 15:19 31.03.2020
5751 Clouds 18 1009 63 10000 10.8 280 14:56 31.03.2020
5752 Clouds 17 1009 63 10000 10.8 280 14:38 31.03.2020
5753 Clouds 18 1009 63 10000 10.8 280 14:18 31.03.2020
5754 Clouds 18 1010 77 10000 9.3 250 13:42 31.03.2020
5755 Clouds 18 1008 63 10000 8.2 240 13:19 31.03.2020
5756 Clouds 18 1008 63 10000 8.2 240 12:55 31.03.2020
5757 Clouds 18 1008 63 10000 8.2 240 12:37 31.03.2020
5758 Clouds 18 1008 63 10000 8.2 240 12:18 31.03.2020
5759 Clouds 17 1008 77 10000 6.2 220 11:38 31.03.2020
5760 Clouds 17 1008 77 10000 6.2 220 11:19 31.03.2020
5761 Clouds 17 1008 77 10000 7.2 220 10:57 31.03.2020
5762 Clouds 16 1008 77 10000 7.2 220 10:39 31.03.2020
5763 Clouds 16 1008 77 10000 7.2 220 10:21 31.03.2020
5764 Clouds 15 1008 87 10000 4.1 220 09:56 31.03.2020
5765 Clouds 15 1008 87 10000 4.1 220 09:37 31.03.2020
5766 Clouds 15 1008 87 10000 4.1 220 09:37 31.03.2020
5767 Clouds 15 1008 87 10000 4.1 220 09:19 31.03.2020
5768 Clouds 15 1007 82 10000 5.1 220 08:55 31.03.2020
5769 Clouds 15 1007 82 10000 5.1 220 08:37 31.03.2020
5770 Clouds 15 1007 82 10000 5.1 220 08:18 31.03.2020
5771 Clouds 13 1008 100 10000 8.2 230 07:44 31.03.2020
5772 Clouds 13 1008 100 10000 8.2 230 07:25 31.03.2020
5773 Clouds 14 1008 100 10000 9.8 240 06:59 31.03.2020
5774 Clouds 15 1007 93 10000 8.2 220 06:41 31.03.2020
5775 Clouds 16 1008 93 10000 8.2 220 05:44 31.03.2020
5776 Rain 16 1008 100 10000 8.2 230 05:24 31.03.2020
5777 Clouds 16 1009 100 10000 7.2 240 02:56 31.03.2020
5778 Clouds 17 1009 93 10000 8.7 240 01:47 31.03.2020
5779 Clouds 16 1009 100 10000 6.7 220 01:22 31.03.2020
5780 Clouds 16 1009 100 7000 7.2 240 00:43 31.03.2020
5781 Clouds 17 1009 93 7000 11.3 240 00:23 31.03.2020
5782 Clouds 17 1009 77 10000 11.3 230 23:40 30.03.2020
5783 Clouds 18 1009 68 10000 9.3 240 23:20 30.03.2020
5784 Clouds 17 1009 72 10000 7.7 230 22:57 30.03.2020
5785 Clouds 18 1009 63 10000 6.7 240 22:38 30.03.2020
5786 Rain 18 1008 72 10000 5.1 260 22:19 30.03.2020
5787 Rain 18 1008 72 10000 5.1 260 21:57 30.03.2020
5788 Rain 18 1008 72 10000 5.1 260 21:38 30.03.2020
5789 Clear 18 1008 72 10000 5.1 260 21:20 30.03.2020
5790 Clouds 19 1008 68 10000 8.2 260 20:58 30.03.2020
5791 Clouds 19 1008 68 10000 8.2 260 20:38 30.03.2020
5792 Clouds 19 1008 68 10000 8.2 260 20:19 30.03.2020
5793 Clouds 19 1008 68 10000 8.2 260 20:19 30.03.2020
5794 Clouds 19 1008 63 10000 5.1 280 19:41 30.03.2020
5795 Clouds 20 1008 63 10000 5.1 280 19:23 30.03.2020
5796 Clear 21 1008 52 10000 8.2 300 18:59 30.03.2020
5797 Clear 21 1008 52 10000 8.2 300 18:41 30.03.2020
5798 Clear 20 1008 52 10000 8.2 300 18:22 30.03.2020
5799 Clear 20 1010 55 10000 7.2 340 17:57 30.03.2020
5800 Clear 20 1010 55 10000 7.2 340 17:39 30.03.2020
5801 Clear 20 1010 55 10000 7.2 340 17:19 30.03.2020
5802 Clouds 20 1010 55 10000 8.7 300 16:57 30.03.2020
5803 Clouds 20 1010 55 10000 8.7 300 16:39 30.03.2020
5804 Clouds 20 1010 55 10000 8.7 300 16:20 30.03.2020
5805 Clouds 20 1011 49 10000 8.2 320 15:55 30.03.2020
5806 Clouds 20 1011 49 10000 8.2 320 15:37 30.03.2020
5807 Clouds 20 1011 49 10000 8.2 320 15:18 30.03.2020
5808 Clouds 19 1011 52 10000 6.2 320 14:55 30.03.2020
5809 Clouds 19 1011 52 10000 6.2 320 14:36 30.03.2020
5810 Clouds 20 1011 52 10000 6.2 320 14:18 30.03.2020
5811 Clouds 20 1012 49 10000 4.6 300 13:44 30.03.2020
5812 Clouds 20 1012 49 10000 4.6 300 13:21 30.03.2020
5813 Clouds 18 1013 45 10000 3.1 200 12:59 30.03.2020
5814 Clouds 18 1013 45 10000 3.1 200 12:41 30.03.2020
5815 Clouds 18 1013 45 10000 3.1 200 12:19 30.03.2020
5816 Clouds 16 1014 63 10000 3.1 180 11:57 30.03.2020
5817 Clouds 16 1014 63 10000 3.1 180 11:38 30.03.2020
5818 Clouds 16 1014 63 10000 3.1 180 11:20 30.03.2020
5819 Clouds 13 1013 76 10000 3.6 180 10:40 30.03.2020
5820 Clouds 13 1013 76 10000 3.6 180 10:22 30.03.2020
5821 Clouds 10 1013 81 10000 3.1 180 09:56 30.03.2020
5822 Clouds 9 1013 81 10000 3.1 180 09:38 30.03.2020
5823 Clear 9 1013 81 10000 3.1 180 09:19 30.03.2020
5824 Clear 9 1013 81 10000 3.1 180 09:19 30.03.2020
5825 Clear 8 1013 87 10000 1.5 160 08:42 30.03.2020
5826 Clear 8 1013 87 10000 1.5 160 08:22 30.03.2020
5827 Clear 4 1014 93 10000 2.1 190 07:49 30.03.2020
5828 Clear 5 1014 93 10000 2.1 190 07:31 30.03.2020
5829 Clear 6 1014 93 8000 1 220 06:56 30.03.2020
5830 Clear 6 1014 93 8000 1 240 06:32 30.03.2020
5831 Clear 5 1015 93 10000 1 210 05:54 30.03.2020
5832 Clear 6 1015 93 10000 1.5 210 05:22 30.03.2020
5833 Clear 8 1015 93 10000 1 140 04:23 30.03.2020
5834 Clear 8 1015 93 10000 1.5 140 03:44 30.03.2020
5835 Clear 9 1016 93 10000 2.1 140 02:42 30.03.2020
5836 Clear 10 1017 87 10000 1.5 130 01:44 30.03.2020
5837 Clear 13 1018 81 10000 1.5 140 00:50 30.03.2020
5838 Clear 13 1018 87 10000 1.5 130 00:23 30.03.2020
5839 Clear 14 1018 81 10000 1 150 23:42 29.03.2020
5840 Clear 15 1018 76 10000 2.1 350 23:24 29.03.2020
5841 Clear 15 1018 76 10000 2.1 350 22:58 29.03.2020
5842 Clear 15 1018 76 10000 2.1 360 22:38 29.03.2020
5843 Clear 15 1017 67 10000 4.1 300 22:19 29.03.2020
5844 Clear 15 1017 67 10000 4.1 300 21:56 29.03.2020
5845 Clear 16 1017 67 10000 4.1 300 21:36 29.03.2020
5846 Clouds 16 1017 67 10000 4.1 300 21:18 29.03.2020
5847 Clouds 17 1017 59 10000 4.6 320 20:54 29.03.2020
5848 Clouds 17 1017 59 10000 4.6 320 20:54 29.03.2020
5849 Clouds 17 1017 59 10000 4.6 320 20:36 29.03.2020
5850 Clouds 17 1017 59 10000 4.6 320 20:18 29.03.2020
5851 Clouds 18 1017 55 10000 4.1 320 19:42 29.03.2020
5852 Clouds 18 1017 55 10000 4.1 320 19:24 29.03.2020
5853 Clouds 18 1017 59 10000 8.2 360 18:58 29.03.2020
5854 Clouds 18 1017 59 10000 8.2 360 18:40 29.03.2020
5855 Clouds 18 1017 59 10000 8.2 360 18:20 29.03.2020
5856 Clouds 18 1017 59 10000 8.2 360 18:20 29.03.2020
5857 Clouds 19 1017 55 10000 6.7 320 17:57 29.03.2020
5858 Clouds 19 1017 55 10000 6.7 320 17:39 29.03.2020
5859 Clouds 19 1017 55 10000 6.7 320 17:20 29.03.2020
5860 Clouds 18 1017 48 10000 5.1 340 16:57 29.03.2020
5861 Clouds 18 1017 48 10000 5.1 340 16:39 29.03.2020
5862 Clouds 18 1017 48 10000 5.1 340 16:39 29.03.2020
5863 Clouds 18 1017 48 10000 5.1 340 16:20 29.03.2020
5864 Clouds 18 1018 52 10000 6.2 360 15:43 29.03.2020
5865 Clouds 18 1018 52 10000 6.2 360 15:25 29.03.2020
5866 Clouds 18 1018 55 0 5.1 340 14:59 29.03.2020
5867 Clouds 18 1018 55 0 5.1 340 14:40 29.03.2020
5868 Clouds 18 1018 55 0 5.1 340 14:21 29.03.2020
5869 Clouds 19 1018 52 10000 1 80 13:59 29.03.2020
5870 Clouds 18 1018 52 10000 1 80 13:41 29.03.2020
5871 Clouds 17 1018 52 10000 1 80 13:21 29.03.2020
5872 Clouds 17 1019 63 10000 2.1 40 12:57 29.03.2020
5873 Clouds 16 1019 63 10000 2.1 40 12:38 29.03.2020
5874 Clouds 16 1019 63 10000 2.1 40 12:19 29.03.2020
5875 Clouds 16 1018 67 10000 1.5 160 11:57 29.03.2020
5876 Clouds 16 1018 67 10000 1.5 160 11:57 29.03.2020
5877 Clouds 16 1018 67 10000 1.5 160 11:37 29.03.2020
5878 Clouds 16 1018 67 10000 1.5 160 11:19 29.03.2020
5879 Clouds 13 1018 76 10000 2.1 180 10:39 29.03.2020
5880 Clouds 13 1018 76 10000 2.1 180 10:19 29.03.2020
5881 Clouds 11 1018 81 10000 3.1 180 09:54 29.03.2020
5882 Clouds 10 1018 81 10000 3.1 180 09:36 29.03.2020
5883 Clouds 10 1018 81 10000 3.1 180 09:18 29.03.2020
5884 Clouds 10 1017 81 10000 2.1 180 08:41 29.03.2020
5885 Clouds 10 1017 81 10000 2.1 180 08:22 29.03.2020
5886 Clouds 8 1018 93 10000 0.5 200 07:45 29.03.2020
5887 Clouds 8 1017 93 10000 1 180 07:22 29.03.2020
5888 Clouds 8 1018 93 10000 1 0 05:59 29.03.2020
5889 Clouds 8 1018 100 10000 2.1 130 04:56 29.03.2020
5890 Clouds 9 1019 93 10000 1.5 140 03:37 29.03.2020
5891 Clear 13 1019 93 10000 1.5 140 01:57 29.03.2020
5892 Clear 13 1019 93 10000 1.5 170 01:37 29.03.2020
5893 Clear 13 1019 93 10000 1.5 170 01:19 29.03.2020
5894 Clear 13 1019 93 10000 2.1 160 00:39 29.03.2020
5895 Clear 14 1019 87 10000 1 150 23:59 28.03.2020
5896 Clear 14 1019 87 10000 0.3 148 23:40 28.03.2020
5897 Clear 14 1019 87 10000 0.3 148 23:22 28.03.2020
5898 Clear 14 1019 81 10000 1 30 22:42 28.03.2020
5899 Clear 14 1018 81 10000 2.6 360 22:22 28.03.2020
5900 Clear 14 1018 81 10000 3.1 350 21:57 28.03.2020
5901 Clear 15 1018 71 10000 2.6 360 21:39 28.03.2020
5902 Clear 15 1016 59 10000 4.1 360 21:19 28.03.2020
5903 Clear 16 1016 59 10000 4.1 360 20:54 28.03.2020
5904 Clear 16 1016 59 10000 4.1 360 20:36 28.03.2020
5905 Clear 16 1016 59 10000 4.1 360 20:36 28.03.2020
5906 Clouds 16 1016 59 10000 4.1 360 20:18 28.03.2020
5907 Clouds 17 1016 59 10000 5.1 360 19:54 28.03.2020
5908 Clouds 17 1016 59 10000 5.1 360 19:36 28.03.2020
5909 Clouds 17 1016 59 10000 5.1 360 19:18 28.03.2020
5910 Clouds 17 1015 55 10000 7.2 20 18:39 28.03.2020
5911 Clouds 17 1015 55 10000 7.2 20 18:20 28.03.2020
5912 Clouds 18 1015 55 10000 7.2 40 17:40 28.03.2020
5913 Clouds 18 1015 55 10000 7.2 40 17:22 28.03.2020
5914 Clouds 19 1015 52 10000 6.2 360 16:57 28.03.2020
5915 Clouds 19 1015 52 10000 6.2 360 16:38 28.03.2020
5916 Clouds 19 1015 52 10000 6.2 360 16:18 28.03.2020
5917 Clouds 19 1015 52 10000 7.2 20 15:40 28.03.2020
5918 Clouds 19 1015 52 10000 7.2 20 15:19 28.03.2020
5919 Clouds 19 1015 55 10000 5.7 340 14:57 28.03.2020
5920 Clouds 18 1015 55 10000 5.7 340 14:39 28.03.2020
5921 Clouds 18 1015 55 10000 5.7 340 14:20 28.03.2020
5922 Clouds 18 1015 55 10000 5.7 340 13:42 28.03.2020
5923 Clouds 18 1015 55 10000 5.7 340 13:23 28.03.2020
5924 Clouds 18 1015 55 10000 4.1 20 12:41 28.03.2020
5925 Clouds 18 1015 55 10000 4.1 20 12:22 28.03.2020
5926 Clouds 17 1016 63 10000 4.6 360 11:43 28.03.2020
5927 Clouds 17 1016 63 10000 4.6 360 11:24 28.03.2020
5928 Clouds 16 1015 77 10000 1.5 340 10:58 28.03.2020
5929 Clouds 16 1015 77 10000 1.5 340 10:38 28.03.2020
5930 Clouds 16 1015 77 10000 1.5 340 10:19 28.03.2020
5931 Clouds 14 1014 87 8000 2.1 140 09:43 28.03.2020
5932 Clouds 14 1014 87 8000 2.1 140 09:24 28.03.2020
5933 Clouds 13 1014 87 8000 1.5 180 08:57 28.03.2020
5934 Clouds 12 1014 87 8000 1.5 180 08:39 28.03.2020
5935 Clouds 12 1014 87 8000 1.5 180 08:39 28.03.2020
5936 Clouds 12 1014 87 8000 1.5 180 08:20 28.03.2020
5937 Clouds 12 1013 87 6000 1.5 140 07:44 28.03.2020
5938 Clouds 11 1014 100 10000 1 0 06:59 28.03.2020
5939 Clouds 9 1013 100 10000 1.5 180 06:35 28.03.2020
5940 Clouds 9 1013 100 10000 1.5 190 05:43 28.03.2020
5941 Clouds 9 1013 100 10000 2.1 180 05:21 28.03.2020
5942 Clouds 9 1013 100 10000 2.6 180 04:41 28.03.2020
5943 Clouds 10 1013 93 10000 1.5 240 03:54 28.03.2020
5944 Clouds 10 1014 100 10000 2.1 180 02:21 28.03.2020
5945 Clouds 10 1014 100 10000 1 200 01:30 28.03.2020
5946 Clouds 12 1014 93 10000 0.5 300 00:59 28.03.2020
5947 Clouds 12 1014 93 10000 1.5 320 00:36 28.03.2020
5948 Clouds 12 1014 93 10000 1 0 23:57 27.03.2020
5949 Clouds 13 1014 93 10000 1.5 340 23:39 27.03.2020
5950 Clouds 13 1014 93 10000 1.5 340 23:21 27.03.2020
5951 Clouds 13 1014 87 10000 2.1 330 22:56 27.03.2020
5952 Clouds 14 1013 87 10000 2.1 320 22:37 27.03.2020
5953 Clouds 14 1013 87 10000 2.1 320 22:37 27.03.2020
5954 Clouds 14 1013 87 10000 2.1 320 22:19 27.03.2020
5955 Clouds 14 1013 87 10000 3.1 340 21:44 27.03.2020
5956 Clouds 17 1011 52 10000 4.1 360 21:25 27.03.2020
5957 Clouds 18 1011 52 10000 4.1 360 20:59 27.03.2020
5958 Clouds 18 1011 52 10000 4.1 360 20:41 27.03.2020
5959 Clouds 16 1011 63 10000 5.7 360 20:20 27.03.2020
5960 Clouds 17 1011 63 10000 5.7 360 19:58 27.03.2020
5961 Clouds 17 1011 63 10000 5.7 360 19:39 27.03.2020
5962 -273 0 0 0 0 0 19:20 27.03.2020
5963 Clouds 18 1011 63 10000 4.1 360 18:44 27.03.2020
5964 Clouds 18 1011 63 10000 4.1 360 18:25 27.03.2020
5965 Clouds 18 1010 63 10000 6.2 340 17:58 27.03.2020
5966 Clouds 18 1010 63 10000 6.2 340 17:39 27.03.2020
5967 Clouds 18 1010 63 10000 6.2 340 17:19 27.03.2020
5968 Clouds 19 1010 55 10000 7.2 20 16:44 27.03.2020
5969 Clouds 19 1010 55 10000 7.2 20 16:25 27.03.2020
5970 Clouds 19 1011 52 10000 6.2 360 15:55 27.03.2020
5971 Clouds 19 1011 52 10000 6.2 360 15:37 27.03.2020
5972 Clouds 20 1011 52 10000 6.2 360 15:19 27.03.2020
5973 Clouds 19 1011 55 6000 3.6 60 14:43 27.03.2020
5974 Clouds 19 1011 55 6000 3.6 60 14:24 27.03.2020
5975 Clouds 19 1011 59 10000 3.1 40 13:55 27.03.2020
5976 Clouds 19 1011 59 10000 3.1 40 13:36 27.03.2020
5977 Clouds 19 1011 59 10000 3.1 40 13:18 27.03.2020
5978 Clouds 19 1011 59 10000 3.1 40 13:18 27.03.2020
5979 Clouds 18 1012 72 6000 3.6 60 12:42 27.03.2020
5980 Clouds 18 1012 72 6000 3.6 60 12:19 27.03.2020
5981 Clouds 16 1011 77 6000 3.1 20 11:55 27.03.2020
5982 Clouds 16 1011 77 6000 3.1 20 11:36 27.03.2020
5983 Clouds 16 1011 77 6000 3.1 20 11:18 27.03.2020
5984 Clouds 16 1011 77 6000 2.1 40 10:42 27.03.2020
5985 Clouds 16 1011 77 6000 2.1 40 10:22 27.03.2020
5986 Clouds 16 1011 77 6000 2.1 40 10:22 27.03.2020
5987 Clouds 15 1011 82 6000 2.1 20 09:59 27.03.2020
5988 Clouds 15 1011 82 6000 2.1 20 09:40 27.03.2020
5989 Clouds 15 1011 82 6000 2.1 20 09:22 27.03.2020
5990 Clouds 15 1010 82 6000 2.6 20 08:59 27.03.2020
5991 Clouds 15 1010 82 6000 2.6 20 08:40 27.03.2020
5992 Clouds 15 1010 82 6000 2.6 20 08:22 27.03.2020
5993 Clouds 15 1010 82 6000 2.1 360 07:57 27.03.2020
5994 Clouds 15 1010 82 6000 2.1 360 07:57 27.03.2020
5995 Clouds 15 1010 82 6000 2.1 360 07:38 27.03.2020
5996 Clouds 15 1010 82 6000 2.1 360 07:20 27.03.2020
5997 Clouds 14 1011 84 0 1.62 37 06:39 27.03.2020
5998 Clouds 14 1011 84 0 1.62 37 05:45 27.03.2020
5999 Clouds 14 1011 83 0 1.14 6 03:26 27.03.2020
6000 Clouds 14 1012 81 0 1.64 47 01:55 27.03.2020
6001 Clouds 17 1011 72 0 8.94 20 01:18 27.03.2020
6002 Clouds 17 1011 72 0 8.94 20 00:38 27.03.2020
6003 Clouds 17 1011 72 0 8.94 20 00:19 27.03.2020
6004 Clouds 17 1011 72 0 8.94 20 23:37 26.03.2020
6005 Clouds 17 1011 72 0 8.94 20 23:18 26.03.2020
6006 Clouds 17 1011 72 0 8.94 20 22:56 26.03.2020
6007 Clouds 17 1011 72 0 8.94 20 22:36 26.03.2020
6008 Clouds 17 1011 72 0 8.94 20 22:18 26.03.2020
6009 Clouds 17 1011 72 0 8.94 20 21:40 26.03.2020
6010 Clouds 17 1011 72 10000 9.3 20 21:21 26.03.2020
6011 Clouds 17 1011 72 10000 9.3 20 21:21 26.03.2020
6012 Clouds 17 1011 72 10000 9.3 20 20:58 26.03.2020
6013 Clouds 17 1011 72 10000 9.3 20 20:39 26.03.2020
6014 Clouds 17 1011 72 10000 9.3 20 20:21 26.03.2020
6015 Clouds 17 1011 72 10000 9.3 20 19:58 26.03.2020
6016 Clouds 17 1011 72 10000 9.3 20 19:39 26.03.2020
6017 Clouds 17 1011 72 10000 9.3 20 19:20 26.03.2020
6018 Clouds 18 1011 68 10000 7.2 40 18:58 26.03.2020
6019 Clouds 18 1011 68 10000 7.2 40 18:39 26.03.2020
6020 Clouds 18 1011 68 10000 7.2 40 18:21 26.03.2020
6021 Clouds 19 1011 63 10000 9.3 20 17:44 26.03.2020
6022 Clouds 19 1011 63 10000 9.3 20 17:19 26.03.2020
6023 Clouds 19 1012 63 10000 6.2 40 16:47 26.03.2020
6024 Clouds 19 1012 56 10000 7.2 20 16:28 26.03.2020
6025 Clouds 20 1012 56 10000 7.2 20 15:59 26.03.2020
6026 Clouds 20 1012 56 10000 7.2 20 15:41 26.03.2020
6027 Clouds 20 1012 56 10000 7.2 20 15:22 26.03.2020
6028 Clouds 19 1013 63 10000 7.2 360 14:58 26.03.2020
6029 Clouds 19 1013 63 10000 7.2 360 14:39 26.03.2020
6030 Clouds 19 1013 63 10000 7.2 360 14:19 26.03.2020
6031 Clouds 20 1014 60 10000 5.1 360 13:44 26.03.2020
6032 Clouds 20 1014 60 10000 5.1 360 13:24 26.03.2020
6033 Clear 19 1014 59 8000 4.1 40 12:58 26.03.2020
6034 Clear 19 1014 59 8000 4.1 40 12:38 26.03.2020
6035 Clear 19 1014 59 8000 4.1 40 12:20 26.03.2020
6036 Clear 18 1014 68 6000 3.1 20 11:46 26.03.2020
6037 Clear 18 1014 68 6000 3.1 20 11:22 26.03.2020
6038 Clear 17 1014 77 10000 3.1 60 10:56 26.03.2020
6039 Clear 17 1014 77 10000 3.1 60 10:56 26.03.2020
6040 Clear 17 1014 77 10000 3.1 60 10:56 26.03.2020
6041 Clear 17 1014 77 10000 3.1 60 10:38 26.03.2020
6042 Clear 17 1014 77 10000 3.1 60 10:19 26.03.2020
6043 Clear 15 1014 93 6000 1 140 09:44 26.03.2020
6044 Clear 15 1014 93 6000 1 140 09:20 26.03.2020
6045 Clear 11 1014 93 6000 1 180 08:55 26.03.2020
6046 Clear 11 1014 93 6000 1 180 08:37 26.03.2020
6047 Clear 11 1014 93 6000 1 180 08:18 26.03.2020
6048 Clear 12 1013 93 10000 2.1 180 07:44 26.03.2020
6049 Clear 12 1013 93 10000 2.1 180 07:21 26.03.2020
6050 Clear 13 1013 79 0 2.16 70 06:56 26.03.2020
6051 Clear 13 1013 79 0 2.16 70 05:59 26.03.2020
6052 Clear 16 1014 82 0 4.02 20 04:49 26.03.2020
6053 Clear 16 1014 82 0 4.02 20 03:44 26.03.2020
6054 Clear 16 1014 82 0 4.02 20 02:55 26.03.2020
6055 Clear 16 1014 82 0 4.02 20 01:50 26.03.2020
6056 Clear 16 1014 82 0 4.02 20 00:53 26.03.2020
6057 Clear 16 1014 82 0 4.02 20 00:20 26.03.2020
6058 Clear 16 1014 82 0 4.02 20 23:40 25.03.2020
6059 Clear 16 1014 82 0 4.02 20 23:20 25.03.2020
6060 Clear 16 1014 82 0 4.02 20 22:41 25.03.2020
6061 Clear 16 1014 82 0 4.02 20 22:21 25.03.2020
6062 Clear 16 1014 82 0 4.02 20 21:56 25.03.2020
6063 Clear 16 1014 82 0 4.02 20 21:38 25.03.2020
6064 Clouds 16 1014 82 10000 4.1 20 21:19 25.03.2020
6065 Clouds 16 1014 82 10000 4.1 20 20:55 25.03.2020
6066 Clear 17 1014 72 0 5.81 20 20:37 25.03.2020
6067 Clouds 17 1014 72 10000 6.2 20 20:18 25.03.2020
6068 Clouds 17 1014 72 10000 6.2 20 19:43 25.03.2020
6069 Clouds 17 1014 72 10000 6.2 20 19:23 25.03.2020
6070 Clouds 18 1014 63 10000 6.2 20 18:57 25.03.2020
6071 Clouds 18 1014 63 10000 6.2 20 18:57 25.03.2020
6072 Clouds 18 1014 63 10000 6.2 20 18:39 25.03.2020
6073 Clouds 18 1014 63 10000 6.2 20 18:21 25.03.2020
6074 Clouds 19 1014 63 10000 6.2 340 17:55 25.03.2020
6075 Clouds 19 1014 63 10000 6.2 340 17:37 25.03.2020
6076 Clouds 19 1014 63 10000 6.2 340 17:18 25.03.2020
6077 Clouds 19 1014 59 10000 7.2 20 16:43 25.03.2020
6078 Clouds 19 1014 59 10000 7.2 20 16:24 25.03.2020
6079 Clouds 20 1014 56 10000 6.2 20 15:59 25.03.2020
6080 Clouds 20 1014 56 10000 6.2 20 15:40 25.03.2020
6081 Clouds 20 1014 56 10000 6.2 20 15:19 25.03.2020
6082 Clouds 20 1014 56 10000 6.2 20 15:19 25.03.2020
6083 Clouds 19 1014 63 10000 6.2 360 14:42 25.03.2020
6084 Clouds 19 1014 63 10000 6.2 360 14:22 25.03.2020
6085 Clouds 19 1015 59 10000 5.1 340 13:56 25.03.2020
6086 Clouds 19 1015 59 10000 5.1 340 13:38 25.03.2020
6087 Clouds 19 1015 59 10000 5.1 340 13:19 25.03.2020
6088 Clouds 18 1015 63 10000 4.1 340 12:37 25.03.2020
6089 Clouds 18 1015 63 10000 4.1 340 12:19 25.03.2020
6090 Clouds 17 1015 67 10000 3.1 180 11:55 25.03.2020
6091 Clouds 17 1015 67 10000 3.1 180 11:36 25.03.2020
6092 Clouds 17 1015 67 10000 3.1 180 11:18 25.03.2020
6093 Clouds 15 1015 77 10000 4.1 200 10:55 25.03.2020
6094 Clouds 15 1015 77 10000 4.1 200 10:36 25.03.2020
6095 Clouds 15 1015 77 10000 4.1 200 10:18 25.03.2020
6096 Clouds 12 1014 87 10000 4.1 200 09:42 25.03.2020
6097 Clouds 12 1014 87 10000 4.1 200 09:22 25.03.2020
6098 Clouds 11 1014 87 10000 3.1 180 08:56 25.03.2020
6099 Clouds 11 1014 87 10000 3.1 180 08:38 25.03.2020
6100 Clouds 11 1014 87 10000 3.1 180 08:38 25.03.2020
6101 Rain 11 1014 87 10000 3.1 180 08:19 25.03.2020
6102 Rain 12 1013 87 10000 5.1 180 07:39 25.03.2020
6103 Rain 12 1013 87 10000 5.1 180 07:20 25.03.2020
6104 Rain 12 1013 87 10000 5.1 180 07:20 25.03.2020
6105 Rain 13 1013 85 0 2.04 221 06:46 25.03.2020
6106 Rain 13 1013 85 0 2.04 221 06:25 25.03.2020
6107 Rain 13 1013 85 0 2.04 221 05:50 25.03.2020
6108 Rain 15 1010 82 0 1.79 20 04:59 25.03.2020
6109 Rain 15 1010 82 0 1.79 20 04:39 25.03.2020
6110 Rain 15 1010 82 0 1.79 20 03:36 25.03.2020
6111 Clouds 15 1010 82 0 1.79 20 01:58 25.03.2020
6112 Clouds 15 1010 82 0 1.79 20 01:21 25.03.2020
6113 Rain 15 1010 82 0 1.79 20 00:48 25.03.2020
6114 Rain 15 1010 82 0 1.79 20 00:19 25.03.2020
6115 Rain 15 1010 82 0 1.79 20 23:45 24.03.2020
6116 Rain 15 1010 82 0 1.79 20 23:25 24.03.2020
6117 Rain 15 1010 82 0 1.79 20 22:56 24.03.2020
6118 Rain 15 1010 82 0 1.79 20 22:37 24.03.2020
6119 Rain 15 1010 82 0 1.79 20 22:19 24.03.2020
6120 Rain 15 1010 82 0 1.79 20 21:55 24.03.2020
6121 Rain 15 1010 82 0 1.79 20 21:37 24.03.2020
6122 Clouds 15 1010 82 10000 2.1 20 21:18 24.03.2020
6123 Clouds 15 1010 82 10000 2.1 20 20:43 24.03.2020
6124 Clouds 15 1010 82 10000 2.1 20 20:24 24.03.2020
6125 Clouds 16 1009 77 10000 6.2 20 19:59 24.03.2020
6126 Clouds 16 1009 77 10000 6.2 20 19:41 24.03.2020
6127 Clouds 16 1009 77 10000 6.2 20 19:19 24.03.2020
6128 Clouds 15 1009 82 10000 5.1 320 18:55 24.03.2020
6129 Clouds 15 1009 82 10000 5.1 320 18:36 24.03.2020
6130 Clouds 15 1009 82 10000 5.1 320 18:18 24.03.2020
6131 Clouds 15 1008 77 10000 7.7 320 17:42 24.03.2020
6132 Clouds 15 1008 77 10000 7.7 320 17:23 24.03.2020
6133 Clouds 16 1009 72 10000 5.7 330 16:58 24.03.2020
6134 Clouds 16 1008 67 10000 7.2 300 16:40 24.03.2020
6135 Clouds 16 1008 67 10000 7.2 300 16:22 24.03.2020
6136 Clouds 18 1008 67 10000 7.7 310 15:58 24.03.2020
6137 Clouds 18 1007 63 10000 6.2 340 15:37 24.03.2020
6138 Clouds 18 1007 63 10000 6.2 340 15:19 24.03.2020
6139 Clouds 19 1008 55 10000 4.1 310 14:43 24.03.2020
6140 Clouds 20 1007 60 10000 6.2 320 14:19 24.03.2020
6141 Clouds 18 1008 68 10000 4.1 300 13:44 24.03.2020
6142 Clouds 18 1008 68 10000 4.1 300 13:24 24.03.2020
6143 Clouds 18 1008 68 10000 5.7 300 12:57 24.03.2020
6144 Clouds 18 1008 68 10000 5.7 300 12:37 24.03.2020
6145 Clouds 18 1008 68 10000 5.7 300 12:19 24.03.2020
6146 Clouds 18 1007 68 10000 5.1 300 11:40 24.03.2020
6147 Clouds 17 1007 68 10000 5.1 300 11:20 24.03.2020
6148 Clouds 16 1008 77 10000 3.1 320 10:43 24.03.2020
6149 Clouds 15 1000 67 10000 5.1 20 10:20 24.03.2020
6150 Clouds 15 1000 67 10000 5.1 20 10:20 24.03.2020
6151 Clouds 15 1007 93 10000 0.5 0 09:59 24.03.2020
6152 Clouds 15 1007 93 10000 0.5 0 09:41 24.03.2020
6153 Clouds 15 1007 72 10000 5.1 360 09:22 24.03.2020
6154 Clouds 14 1006 77 10000 3.6 340 08:39 24.03.2020
6155 Clouds 14 1006 77 10000 3.6 340 08:21 24.03.2020
6156 Clouds 14 1007 100 10000 2.1 260 07:50 24.03.2020
6157 Clouds 14 1006 77 10000 4.6 360 07:25 24.03.2020
6158 Clouds 13 1006 100 10000 2.1 320 06:58 24.03.2020
6159 Clouds 13 1006 100 10000 2.1 320 06:58 24.03.2020
6160 Clouds 14 1006 93 10000 2.6 350 06:31 24.03.2020
6161 Clouds 14 1007 93 10000 1 0 05:27 24.03.2020
6162 Clouds 14 1007 93 10000 3.1 350 04:31 24.03.2020
6163 Rain 14 1007 93 10000 2.1 340 03:18 24.03.2020
6164 Clouds 15 1008 87 10000 2.1 30 01:49 24.03.2020
6165 Clouds 15 1008 87 10000 4.6 350 00:49 24.03.2020
6166 Clouds 15 1008 87 10000 3.1 360 00:26 24.03.2020
6167 Clouds 15 1008 82 10000 3.1 10 23:46 23.03.2020
6168 Clouds 15 1008 82 10000 4.1 10 23:26 23.03.2020
6169 Clouds 15 1008 82 10000 5.1 360 22:56 23.03.2020
6170 Clouds 15 1008 82 10000 4.6 10 22:37 23.03.2020
6171 Clouds 15 1008 82 10000 4.6 10 22:19 23.03.2020
6172 Clouds 15 1008 82 10000 5.1 20 21:44 23.03.2020
6173 Clouds 15 1008 82 10000 5.7 10 21:21 23.03.2020
6174 Clouds 15 1008 82 10000 6.7 10 20:58 23.03.2020
6175 Clouds 15 1008 82 10000 6.7 10 20:40 23.03.2020
6176 Clouds 16 1007 72 10000 8.2 40 20:22 23.03.2020
6177 Clouds 16 1007 72 10000 7.2 20 19:46 23.03.2020
6178 Clouds 16 1007 67 10000 7.2 40 19:28 23.03.2020
6179 Clouds 17 1007 67 10000 9.3 20 18:59 23.03.2020
6180 Clouds 17 1006 63 10000 9.8 20 18:41 23.03.2020
6181 Clouds 17 1006 63 10000 9.8 20 18:22 23.03.2020
6182 Clouds 17 1006 59 10000 8.7 20 17:56 23.03.2020
6183 Clouds 17 1006 63 10000 9.8 20 17:37 23.03.2020
6184 Clouds 17 1006 63 10000 9.8 20 17:18 23.03.2020
6185 Clouds 18 1006 55 10000 9.8 10 16:43 23.03.2020
6186 Clouds 18 1007 63 10000 9.8 20 16:24 23.03.2020
6187 Clouds 18 1007 52 10000 8.7 10 15:42 23.03.2020
6188 Clouds 18 1007 52 10000 8.7 10 15:42 23.03.2020
6189 Clouds 18 1007 68 10000 8.2 40 15:20 23.03.2020
6190 Clouds 18 1008 48 10000 7.7 20 14:55 23.03.2020
6191 Clouds 18 1008 63 10000 8.7 20 14:36 23.03.2020
6192 Clouds 18 1008 63 10000 8.7 20 14:18 23.03.2020
6193 Clouds 17 1008 48 10000 6.7 30 13:41 23.03.2020
6194 Clouds 17 1009 63 10000 8.7 60 13:22 23.03.2020
6195 Clouds 18 1009 52 10000 6.7 20 12:55 23.03.2020
6196 Clouds 18 1009 55 10000 6.2 40 12:37 23.03.2020
6197 Clouds 18 1009 55 10000 6.2 40 12:19 23.03.2020
6198 Clouds 16 1009 59 10000 4.6 40 11:42 23.03.2020
6199 Clouds 16 1009 59 10000 4.6 40 11:21 23.03.2020
6200 Clouds 16 1010 72 10000 6.2 40 10:58 23.03.2020
6201 Clouds 15 1009 67 10000 3.6 80 10:39 23.03.2020
6202 Clouds 15 1009 67 10000 3.6 80 10:21 23.03.2020
6203 Clouds 13 1010 82 10000 3.1 40 09:48 23.03.2020
6204 Clouds 13 1010 87 10000 1 320 09:21 23.03.2020
6205 Clouds 13 1010 87 10000 1 320 09:21 23.03.2020
6206 Clouds 10 1010 100 10000 1 360 08:58 23.03.2020
6207 Clouds 9 1010 100 10000 1 200 08:37 23.03.2020
6208 Clouds 9 1010 100 10000 1 200 08:19 23.03.2020
6209 Clouds 9 1010 100 10000 1.5 70 07:48 23.03.2020
6210 Clouds 9 1009 100 10000 2.1 180 07:29 23.03.2020
6211 Clouds 5 1009 100 5000 1.5 110 06:52 23.03.2020
6212 Clouds 6 1010 100 10000 3.1 140 06:20 23.03.2020
6213 Clouds 7 1009 100 10000 0.5 0 05:34 23.03.2020
6214 Clouds 9 1010 100 10000 1 150 03:45 23.03.2020
6215 Clouds 12 1011 100 10000 1.5 110 02:37 23.03.2020
6216 Clouds 13 1012 100 10000 1.5 100 01:34 23.03.2020
6217 Clear 12 1012 93 10000 2.1 90 00:40 23.03.2020
6218 Clear 13 1012 93 10000 2.1 60 23:53 22.03.2020
6219 Clear 13 1012 93 10000 1.5 40 23:27 22.03.2020
6220 Clear 14 1012 87 10000 1.5 40 22:56 22.03.2020
6221 Clear 14 1012 82 10000 2.1 60 22:36 22.03.2020
6222 Clear 14 1012 82 10000 2.1 60 22:18 22.03.2020
6223 Clear 15 1012 76 10000 2.6 20 21:39 22.03.2020
6224 Clear 15 1012 76 10000 2.6 20 21:20 22.03.2020
6225 Clouds 15 1012 76 10000 2.6 20 20:56 22.03.2020
6226 Clouds 15 1011 67 10000 3.6 300 20:38 22.03.2020
6227 Clouds 15 1011 67 10000 3.6 300 20:20 22.03.2020
6228 Clouds 16 1011 67 10000 4.6 10 19:55 22.03.2020
6229 Clouds 16 1011 63 10000 4.6 360 19:37 22.03.2020
6230 Clouds 16 1011 63 10000 4.6 360 19:18 22.03.2020
6231 Clouds 17 1011 67 10000 5.7 350 18:55 22.03.2020
6232 Clouds 17 1011 63 10000 5.1 300 18:37 22.03.2020
6233 Clouds 17 1011 63 10000 5.1 300 18:18 22.03.2020
6234 Clouds 18 1011 52 10000 5.1 340 17:55 22.03.2020
6235 Clouds 17 1011 59 10000 5.1 300 17:36 22.03.2020
6236 Clouds 17 1011 59 10000 5.1 300 17:18 22.03.2020
6237 Clouds 18 1011 52 10000 4.6 330 16:41 22.03.2020
6238 Clouds 17 1011 59 10000 7.2 320 16:22 22.03.2020
6239 Clouds 18 1011 52 10000 4.1 330 15:59 22.03.2020
6240 Clouds 17 1011 55 10000 3.1 240 15:39 22.03.2020
6241 Clouds 16 1012 63 10000 4.1 320 14:47 22.03.2020
6242 Clouds 16 1013 63 10000 3.6 330 14:20 22.03.2020
6243 Clouds 16 1013 82 10000 5.7 330 13:58 22.03.2020
6244 Clouds 16 1013 82 10000 5.7 330 13:40 22.03.2020
6245 Clouds 16 1013 67 10000 5.1 20 13:19 22.03.2020
6246 Clouds 15 1014 77 10000 2.6 0 12:44 22.03.2020
6247 Clouds 15 1014 77 10000 2.6 0 12:44 22.03.2020
6248 Clouds 14 1013 87 10000 3.6 220 12:22 22.03.2020
6249 Clouds 14 1013 87 10000 3.6 220 12:22 22.03.2020
6250 Clouds 14 1014 87 10000 3.6 280 11:58 22.03.2020
6251 Clouds 14 1013 87 10000 2.1 220 11:39 22.03.2020
6252 Clouds 14 1013 87 10000 2.1 220 11:20 22.03.2020
6253 Clouds 13 1014 93 6000 4.6 260 10:43 22.03.2020
6254 Clouds 13 1013 93 6000 5.1 220 10:24 22.03.2020
6255 Clouds 12 1014 93 10000 4.1 230 09:55 22.03.2020
6256 Rain 12 1013 93 6000 5.1 180 09:36 22.03.2020
6257 Rain 12 1013 93 6000 5.1 180 09:18 22.03.2020
6258 Clouds 12 1014 100 10000 5.1 220 08:41 22.03.2020
6259 Clouds 12 1013 93 6000 3.6 200 08:21 22.03.2020
6260 Clouds 12 1013 100 8000 4.1 220 07:50 22.03.2020
6261 Rain 12 1013 93 2000 2.6 220 07:19 22.03.2020
6262 Clouds 11 1013 100 10000 3.6 220 05:56 22.03.2020
6263 Clouds 12 1013 93 10000 3.1 230 04:58 22.03.2020
6264 Clouds 12 1015 93 10000 5.7 230 02:50 22.03.2020
6265 Clouds 12 1015 93 10000 4.6 230 01:22 22.03.2020
6266 Clouds 12 1015 93 10000 4.6 230 01:22 22.03.2020
6267 Clouds 12 1016 93 10000 5.1 230 00:39 22.03.2020
6268 Clouds 12 1016 93 10000 5.1 230 00:21 22.03.2020
6269 Clouds 13 1016 93 10000 3.1 220 23:41 21.03.2020
6270 Clouds 13 1016 93 10000 3.1 220 23:41 21.03.2020
6271 Clouds 14 1016 93 10000 3.1 220 23:19 21.03.2020
6272 Clouds 14 1016 82 10000 3.6 240 22:38 21.03.2020
6273 Clouds 14 1016 82 10000 3.6 240 22:20 21.03.2020
6274 Clouds 14 1016 82 10000 4.1 240 21:59 21.03.2020
6275 Clouds 14 1016 82 10000 4.1 240 21:40 21.03.2020
6276 Clouds 15 1016 71 10000 4.1 260 21:22 21.03.2020
6277 Clouds 15 1016 71 10000 6.2 280 20:46 21.03.2020
6278 Clouds 16 1015 63 10000 6.2 280 20:23 21.03.2020
6279 Clouds 16 1016 67 10000 6.2 280 19:57 21.03.2020
6280 Clouds 16 1016 67 10000 6.2 280 19:39 21.03.2020
6281 Clouds 16 1015 63 10000 7.2 280 19:21 21.03.2020
6282 Clouds 17 1015 55 10000 7.2 280 18:54 21.03.2020
6283 Clouds 18 1014 52 10000 7.2 280 18:36 21.03.2020
6284 Clouds 18 1014 52 10000 7.2 280 18:18 21.03.2020
6285 Clouds 18 1015 48 10000 7.2 280 17:43 21.03.2020
6286 Clouds 18 1014 48 10000 7.2 260 17:23 21.03.2020
6287 Clouds 18 1015 45 10000 7.2 280 16:57 21.03.2020
6288 Clouds 18 1015 52 10000 11.3 280 16:39 21.03.2020
6289 Clouds 18 1015 52 10000 11.3 280 16:18 21.03.2020
6290 Clouds 18 1015 52 10000 11.3 280 16:18 21.03.2020
6291 Clouds 18 1015 39 10000 7.7 270 15:42 21.03.2020
6292 Clouds 18 1015 52 10000 11.3 280 15:23 21.03.2020
6293 Clouds 18 1016 39 10000 7.2 260 14:58 21.03.2020
6294 Clouds 18 1016 39 10000 7.2 260 14:40 21.03.2020
6295 Clouds 18 1016 52 10000 11.8 280 14:20 21.03.2020
6296 Clouds 18 1017 42 10000 7.2 240 13:59 21.03.2020
6297 Clouds 18 1017 42 10000 7.2 240 13:40 21.03.2020
6298 Clouds 17 1017 45 10000 7.2 280 13:22 21.03.2020
6299 Clouds 17 1017 51 10000 6.7 250 12:59 21.03.2020
6300 Clouds 17 1017 48 10000 7.2 240 12:38 21.03.2020
6301 Clouds 17 1017 48 10000 7.2 240 12:19 21.03.2020
6302 Clouds 17 1018 59 10000 6.2 260 11:56 21.03.2020
6303 Clouds 16 1017 55 10000 6.2 240 11:38 21.03.2020
6304 Clouds 16 1017 55 10000 6.2 240 11:19 21.03.2020
6305 Clouds 15 1018 67 10000 5.1 260 10:57 21.03.2020
6306 Clouds 15 1017 67 10000 4.1 240 10:38 21.03.2020
6307 Clouds 15 1017 67 10000 4.1 240 10:19 21.03.2020
6308 Clouds 12 1018 93 10000 3.6 220 09:56 21.03.2020
6309 Clouds 12 1017 81 10000 3.1 200 09:37 21.03.2020
6310 Clouds 12 1017 81 10000 3.1 200 09:19 21.03.2020
6311 Clouds 11 1017 93 10000 3.1 210 08:43 21.03.2020
6312 Clouds 10 1010 93 10000 4.1 220 08:24 21.03.2020
6313 Clouds 10 1017 100 10000 2.6 220 07:45 21.03.2020
6314 Rain 10 1009 87 8000 2.1 320 07:27 21.03.2020
6315 Clouds 10 1017 100 10000 3.1 210 06:48 21.03.2020
6316 Clouds 11 1017 100 10000 2.6 210 06:28 21.03.2020
6317 Clouds 12 1017 100 10000 2.1 220 05:48 21.03.2020
6318 Clouds 12 1017 100 10000 2.6 280 04:47 21.03.2020
6319 Clouds 13 1018 93 10000 2.6 270 02:55 21.03.2020
6320 Clouds 13 1018 100 10000 2.6 250 02:33 21.03.2020
6321 Clouds 13 1018 100 10000 2.6 250 01:33 21.03.2020
6322 Clouds 14 1018 93 10000 2.1 280 00:56 21.03.2020
6323 Clouds 14 1018 100 10000 2.1 230 00:37 21.03.2020
6324 Clouds 14 1018 100 10000 1.5 270 23:53 20.03.2020
6325 Clouds 15 1018 93 10000 1.5 290 23:28 20.03.2020
6326 Clouds 15 1017 100 10000 2.6 310 22:59 20.03.2020
6327 Clouds 15 1017 100 10000 2.6 310 22:59 20.03.2020
6328 Clouds 15 1017 100 10000 2.6 310 22:40 20.03.2020
6329 Clouds 15 1017 100 10000 2.6 310 22:21 20.03.2020
6330 Clouds 15 1017 100 10000 3.1 320 21:56 20.03.2020
6331 Clouds 15 1016 100 10000 3.1 320 21:38 20.03.2020
6332 Clouds 15 1016 100 10000 3.1 320 21:18 20.03.2020
6333 Clouds 15 1016 93 10000 5.7 320 20:57 20.03.2020
6334 Clouds 16 1016 100 10000 4.1 320 20:38 20.03.2020
6335 Clouds 16 1016 100 10000 4.1 320 20:18 20.03.2020
6336 Clouds 15 1016 100 10000 4.1 320 19:45 20.03.2020
6337 Clouds 16 1015 93 10000 4.6 320 19:19 20.03.2020
6338 Clouds 16 1015 93 10000 5.1 320 18:55 20.03.2020
6339 Clouds 16 1014 100 10000 7.2 320 18:37 20.03.2020
6340 Clouds 17 1014 100 10000 7.2 320 18:19 20.03.2020
6341 Clouds 17 1014 100 10000 7.2 320 18:19 20.03.2020
6342 Rain 17 1014 93 10000 6.7 320 17:39 20.03.2020
6343 Rain 18 1014 93 10000 6.7 320 17:21 20.03.2020
6344 Clouds 18 1014 77 10000 6.2 320 16:58 20.03.2020
6345 Clouds 18 1014 72 10000 6.7 330 16:40 20.03.2020
6346 Clouds 18 1014 72 10000 6.7 330 16:18 20.03.2020
6347 Clouds 18 1014 77 10000 7.2 330 15:42 20.03.2020
6348 Clouds 18 1014 77 10000 7.2 320 15:22 20.03.2020
6349 Clouds 18 1014 88 10000 6.2 320 14:56 20.03.2020
6350 Clouds 18 1014 77 6000 6.7 320 14:37 20.03.2020
6351 Clouds 18 1014 77 6000 6.7 320 14:18 20.03.2020
6352 Clouds 19 1014 100 10000 4.6 320 13:43 20.03.2020
6353 Clouds 19 1015 64 8000 6.2 360 13:19 20.03.2020
6354 Clouds 16 1014 100 6000 6.2 300 12:41 20.03.2020
6355 Clouds 16 1014 100 6000 6.2 300 12:23 20.03.2020
6356 Clouds 17 1014 100 8000 3.1 280 11:58 20.03.2020
6357 Clouds 17 1013 88 6000 4.1 300 11:38 20.03.2020
6358 Clouds 17 1013 88 6000 4.1 300 11:19 20.03.2020
6359 Rain 16 1014 93 4000 3.6 240 10:42 20.03.2020
6360 Clouds 16 1013 93 6000 2.1 220 10:21 20.03.2020
6361 Clouds 15 1014 87 10000 4.1 220 09:59 20.03.2020
6362 Clouds 15 1014 87 10000 4.1 220 09:59 20.03.2020
6363 Clouds 15 1014 87 10000 4.1 220 09:41 20.03.2020
6364 Clouds 15 1012 93 6000 3.1 200 09:19 20.03.2020
6365 Clouds 14 1013 82 10000 3.1 210 08:43 20.03.2020
6366 Clouds 14 1012 87 8000 3.6 200 08:22 20.03.2020
6367 Clouds 14 1012 87 8000 3.6 200 08:22 20.03.2020
6368 Clouds 14 1012 82 10000 3.1 200 07:55 20.03.2020
6369 Clouds 14 1011 87 10000 3.1 180 07:37 20.03.2020
6370 Clouds 14 1011 87 10000 3.1 180 07:18 20.03.2020
6371 Clouds 14 1012 82 10000 4.1 220 06:41 20.03.2020
6372 Clouds 13 1012 81 10000 2.1 180 04:52 20.03.2020
6373 Clouds 14 1012 81 10000 2.1 180 03:40 20.03.2020
6374 Clouds 15 1012 82 10000 4.1 210 02:20 20.03.2020
6375 Clouds 16 1013 93 10000 3.1 220 00:59 20.03.2020
6376 Clouds 16 1013 93 10000 2.6 260 00:31 20.03.2020
6377 Clouds 16 1013 93 10000 2.1 220 23:49 19.03.2020
6378 Clouds 16 1012 93 10000 3.1 210 23:30 19.03.2020
6379 Clouds 16 1012 93 10000 3.1 170 22:57 19.03.2020
6380 Clouds 16 1012 87 10000 1.5 230 22:38 19.03.2020
6381 Clouds 16 1012 87 10000 1.5 230 22:20 19.03.2020
6382 Clouds 16 1012 87 10000 1.5 240 21:42 19.03.2020
6383 Clouds 16 1012 87 10000 2.6 310 21:20 19.03.2020
6384 Clouds 16 1011 87 10000 2.1 290 20:59 19.03.2020
6385 Clouds 17 1011 87 10000 2.1 290 20:41 19.03.2020
6386 Clouds 17 1010 82 5000 4.1 280 20:23 19.03.2020
6387 Clouds 18 1011 82 10000 4.6 320 19:55 19.03.2020
6388 Clouds 18 1010 77 5000 4.1 300 19:37 19.03.2020
6389 Clouds 18 1010 77 5000 4.1 300 19:19 19.03.2020
6390 Clouds 18 1010 77 0 3.6 320 18:55 19.03.2020
6391 Clouds 18 1009 77 5000 4.1 280 18:37 19.03.2020
6392 Clouds 18 1009 77 5000 4.1 280 18:37 19.03.2020
6393 Clouds 18 1009 77 5000 4.1 280 18:19 19.03.2020
6394 Clouds 19 1009 77 5000 6.2 280 17:41 19.03.2020
6395 Clouds 19 1009 77 5000 6.2 280 17:19 19.03.2020
6396 Clouds 19 1010 72 5000 4.1 280 16:44 19.03.2020
6397 Clouds 19 1010 72 5000 4.1 280 16:24 19.03.2020
6398 Clouds 18 1010 72 0 3.6 320 15:46 19.03.2020
6399 Clouds 18 1010 82 5000 5.1 260 15:28 19.03.2020
6400 Clouds 18 1011 59 10000 5.1 280 14:59 19.03.2020
6401 Clouds 18 1011 59 10000 5.1 280 14:40 19.03.2020
6402 Clouds 18 1010 72 5000 5.1 340 14:20 19.03.2020
6403 Clouds 19 1011 59 10000 3.6 260 13:41 19.03.2020
6404 Clouds 19 1010 68 5000 5.1 320 13:19 19.03.2020
6405 Clouds 19 1011 59 10000 4.1 230 12:56 19.03.2020
6406 Clouds 18 1010 63 5000 3.6 260 12:38 19.03.2020
6407 Clouds 18 1010 63 5000 3.6 260 12:19 19.03.2020
6408 Clouds 16 1010 77 5000 3.6 140 11:42 19.03.2020
6409 Clouds 16 1010 77 5000 3.6 140 11:23 19.03.2020
6410 Clouds 15 1011 82 8000 3.1 220 10:57 19.03.2020
6411 Clouds 15 1010 77 5000 4.1 140 10:37 19.03.2020
6412 Clouds 15 1010 77 5000 4.1 140 10:18 19.03.2020
6413 Clouds 14 1010 93 5000 3.1 170 09:44 19.03.2020
6414 Clouds 14 1009 87 5000 3.6 140 09:26 19.03.2020
6415 Clouds 14 1010 100 10000 2.1 160 08:57 19.03.2020
6416 Clouds 14 1009 100 10000 2.1 140 08:38 19.03.2020
6417 Clouds 14 1009 100 10000 2.1 140 08:18 19.03.2020
6418 Clouds 15 1009 93 10000 1.5 90 07:43 19.03.2020
6419 Clouds 15 1009 87 5000 2.1 60 07:22 19.03.2020
6420 Clouds 14 1010 93 10000 2.1 60 06:29 19.03.2020
6421 Clouds 14 1010 100 10000 2.1 10 05:25 19.03.2020
6422 Clouds 14 1010 100 10000 3.1 10 04:51 19.03.2020
6423 Clouds 14 1010 93 10000 3.1 20 04:22 19.03.2020
6424 Clouds 14 1012 100 10000 2.1 30 02:34 19.03.2020
6425 Clouds 14 1013 93 10000 2.6 60 00:55 19.03.2020
6426 Clouds 15 1013 82 10000 2.1 30 00:20 19.03.2020
6427 Clouds 15 1014 82 10000 1.5 30 23:45 18.03.2020
6428 Clouds 15 1014 82 10000 2.1 10 23:26 18.03.2020
6429 Clouds 15 1014 82 10000 2.1 30 22:43 18.03.2020
6430 Clouds 15 1013 82 10000 3.1 20 22:24 18.03.2020
6431 Clouds 15 1014 82 10000 3.1 40 21:59 18.03.2020
6432 Clouds 15 1014 82 10000 3.1 40 21:40 18.03.2020
6433 Clouds 15 1012 76 10000 5.1 340 21:21 18.03.2020
6434 Clouds 15 1012 76 10000 5.1 340 21:21 18.03.2020
6435 Clouds 15 1013 76 10000 3.1 60 20:56 18.03.2020
6436 Clouds 15 1013 76 10000 4.1 350 20:38 18.03.2020
6437 Clouds 15 1013 76 10000 4.1 350 20:19 18.03.2020
6438 Clouds 15 1012 76 10000 3.1 350 19:42 18.03.2020
6439 Clouds 16 1013 67 10000 3.1 300 19:21 18.03.2020
6440 Clouds 16 1013 72 10000 3.6 330 18:59 18.03.2020
6441 Clouds 16 1012 67 10000 7.2 320 18:40 18.03.2020
6442 Clouds 16 1012 67 10000 7.2 320 18:19 18.03.2020
6443 Clouds 16 1012 62 10000 3.6 360 17:57 18.03.2020
6444 Clouds 16 1012 63 10000 8.2 340 17:39 18.03.2020
6445 Clouds 16 1012 63 10000 8.2 340 17:19 18.03.2020
6446 Clouds 16 1013 59 10000 4.1 340 16:54 18.03.2020
6447 Clouds 16 1012 63 10000 8.2 340 16:36 18.03.2020
6448 Clouds 16 1012 63 10000 8.2 340 16:18 18.03.2020
6449 Clouds 17 1013 59 10000 4.6 350 15:44 18.03.2020
6450 Clouds 17 1013 55 10000 5.1 350 15:20 18.03.2020
6451 Clouds 17 1013 55 10000 4.6 330 14:44 18.03.2020
6452 Clouds 17 1012 59 10000 3.1 300 14:21 18.03.2020
6453 Clouds 17 1013 48 10000 3.6 320 13:42 18.03.2020
6454 Clouds 17 1013 51 10000 5.1 360 13:20 18.03.2020
6455 Clouds 17 1013 51 10000 2.1 0 12:59 18.03.2020
6456 Clouds 17 1013 59 10000 4.1 320 12:41 18.03.2020
6457 Clouds 17 1013 59 10000 4.1 320 12:19 18.03.2020
6458 Clouds 16 1014 63 10000 3.1 320 11:39 18.03.2020
6459 Clouds 16 1014 63 10000 3.1 320 11:20 18.03.2020
6460 Clouds 15 1014 55 10000 1 0 10:58 18.03.2020
6461 Clouds 14 1014 67 10000 2.1 320 10:38 18.03.2020
6462 Clouds 14 1014 67 10000 2.1 320 10:20 18.03.2020
6463 Clouds 13 1013 71 10000 3.6 230 09:43 18.03.2020
6464 Clouds 12 1013 71 10000 2.1 180 09:25 18.03.2020
6465 Clouds 12 1013 93 10000 1 0 08:56 18.03.2020
6466 Clouds 11 1013 76 10000 2.1 180 08:38 18.03.2020
6467 Clouds 11 1013 76 10000 2.1 180 08:20 18.03.2020
6468 Clouds 10 1014 93 10000 1.5 90 07:44 18.03.2020
6469 Clouds 11 1013 76 10000 2.1 140 07:26 18.03.2020
6470 Clouds 10 1013 93 10000 2.1 180 06:44 18.03.2020
6471 Clouds 10 1013 93 10000 1.5 160 06:20 18.03.2020
6472 Clouds 10 1013 93 10000 1 210 05:34 18.03.2020
6473 Clouds 11 1013 93 10000 1.5 180 04:24 18.03.2020
6474 Clouds 11 1014 100 10000 2.1 150 02:44 18.03.2020
6475 Clouds 11 1014 93 8000 2.1 120 01:48 18.03.2020
6476 Clouds 11 1014 93 7000 2.6 110 01:26 18.03.2020
6477 Clouds 11 1015 93 10000 1.5 90 00:24 18.03.2020
6478 Clouds 12 1015 87 10000 1.5 50 23:48 17.03.2020
6479 Clouds 12 1015 87 10000 2.1 50 23:27 17.03.2020
6480 Clouds 12 1015 87 10000 2.1 60 22:57 17.03.2020
6481 Clouds 12 1015 87 10000 3.1 60 22:37 17.03.2020
6482 Clouds 12 1015 87 10000 3.1 60 22:19 17.03.2020
6483 Clouds 13 1015 81 10000 2.1 50 21:39 17.03.2020
6484 Clouds 13 1015 87 10000 2.6 30 21:21 17.03.2020
6485 Clouds 13 1015 81 10000 3.6 360 20:40 17.03.2020
6486 Clouds 13 1014 71 10000 5.1 360 20:22 17.03.2020
6487 Clouds 13 1014 81 10000 5.7 350 19:59 17.03.2020
6488 Clouds 13 1014 81 10000 5.7 350 19:40 17.03.2020
6489 Clouds 13 1014 71 10000 5.1 360 19:18 17.03.2020
6490 Clouds 15 1014 62 10000 4.1 330 18:56 17.03.2020
6491 Clouds 15 1014 67 10000 6.2 300 18:37 17.03.2020
6492 Clouds 15 1014 67 10000 6.2 300 18:19 17.03.2020
6493 Clouds 15 1014 62 10000 7.2 260 17:40 17.03.2020
6494 Clouds 15 1014 62 10000 7.2 260 17:40 17.03.2020
6495 Clouds 15 1014 62 10000 7.2 260 17:21 17.03.2020
6496 Clouds 15 1014 54 10000 4.1 310 16:55 17.03.2020
6497 Clouds 15 1014 58 10000 5.1 260 16:37 17.03.2020
6498 Clouds 15 1014 58 10000 5.1 260 16:18 17.03.2020
6499 Clouds 16 1015 54 10000 4.1 280 15:43 17.03.2020
6500 Clouds 16 1015 55 10000 5.1 300 15:20 17.03.2020
6501 Clouds 16 1015 48 10000 3.6 260 14:42 17.03.2020
6502 Clouds 16 1015 48 10000 6.2 280 14:21 17.03.2020
6503 Clouds 16 1016 44 10000 2.1 280 13:44 17.03.2020
6504 Clouds 16 1016 55 10000 6.2 280 13:26 17.03.2020
6505 Clouds 16 1017 51 10000 3.1 250 12:58 17.03.2020
6506 Clouds 16 1017 51 10000 5.1 280 12:40 17.03.2020
6507 Clouds 16 1017 51 10000 5.1 280 12:21 17.03.2020
6508 Clouds 16 1018 47 10000 3.1 250 11:46 17.03.2020
6509 Clouds 16 1018 47 10000 3.1 250 11:46 17.03.2020
6510 Clouds 16 1017 44 10000 2.1 240 11:28 17.03.2020
6511 Clouds 14 1018 51 10000 4.1 220 10:58 17.03.2020
6512 Clouds 14 1018 51 10000 4.1 220 10:58 17.03.2020
6513 Clouds 14 1018 51 10000 4.1 220 10:38 17.03.2020
6514 Clouds 15 1018 51 10000 4.1 220 10:20 17.03.2020
6515 Clouds 12 1018 71 10000 3.1 200 09:57 17.03.2020
6516 Clouds 11 1017 62 10000 4.1 200 09:39 17.03.2020
6517 Clouds 10 1017 62 10000 4.1 200 09:18 17.03.2020
6518 Clouds 9 1018 87 10000 3.1 210 08:43 17.03.2020
6519 Clouds 8 1017 66 10000 4.1 180 08:21 17.03.2020
6520 Clouds 7 1018 93 10000 3.1 200 07:50 17.03.2020
6521 Clouds 7 1017 70 10000 4.1 200 07:26 17.03.2020
6522 Clouds 4 1018 93 10000 2.1 180 06:58 17.03.2020
6523 Clouds 5 1018 86 10000 2.6 210 06:33 17.03.2020
6524 Clouds 5 1018 93 10000 2.6 220 05:46 17.03.2020
6525 Clouds 7 1018 87 10000 1.5 190 03:36 17.03.2020
6526 Clouds 10 1019 81 10000 2.1 190 02:45 17.03.2020
6527 Clouds 10 1019 81 10000 2.6 170 01:42 17.03.2020
6528 Clouds 11 1020 87 10000 2.1 160 01:24 17.03.2020
6529 Clouds 11 1020 81 10000 0.5 0 00:25 17.03.2020
6530 Clouds 11 1020 75 10000 1 0 23:45 16.03.2020
6531 Clouds 11 1021 75 10000 0.5 0 23:23 16.03.2020
6532 Clouds 13 1020 62 10000 1.5 50 22:40 16.03.2020
6533 Clouds 13 1020 62 10000 1.5 50 22:22 16.03.2020
6534 Clouds 13 1020 62 10000 1.5 70 21:55 16.03.2020
6535 Clouds 13 1020 58 10000 2.6 30 21:36 16.03.2020
6536 Clouds 14 1020 58 10000 2.6 30 21:18 16.03.2020
6537 Clouds 14 1020 58 10000 3.6 20 20:43 16.03.2020
6538 Clouds 14 1019 50 10000 3.1 20 20:24 16.03.2020
6539 Clouds 14 1019 58 10000 5.1 10 19:56 16.03.2020
6540 Clouds 15 1019 47 10000 7.2 360 19:37 16.03.2020
6541 Clouds 15 1019 47 10000 7.2 360 19:18 16.03.2020
6542 Clouds 15 1019 51 10000 6.2 20 18:41 16.03.2020
6543 Clouds 15 1019 51 10000 6.2 20 18:20 16.03.2020
6544 Clouds 15 1019 54 10000 6.2 20 17:46 16.03.2020
6545 Clouds 15 1019 51 10000 8.2 20 17:26 16.03.2020
6546 Clouds 16 1019 54 10000 5.1 10 16:58 16.03.2020
6547 Clouds 16 1019 51 10000 8.2 40 16:40 16.03.2020
6548 Clouds 16 1019 51 10000 8.2 40 16:22 16.03.2020
6549 Clouds 16 1019 58 10000 6.2 10 15:43 16.03.2020
6550 Clouds 15 1019 48 10000 9.3 20 15:24 16.03.2020
6551 Clouds 15 1019 62 10000 6.2 20 14:48 16.03.2020
6552 Clouds 15 1019 51 10000 7.2 20 14:24 16.03.2020
6553 Clouds 15 1020 71 10000 6.2 20 13:53 16.03.2020
6554 Clouds 15 1020 58 10000 7.2 20 13:29 16.03.2020
6555 Clouds 15 1020 72 10000 6.2 20 12:58 16.03.2020
6556 Clouds 16 1020 63 10000 8.2 20 12:40 16.03.2020
6557 Clouds 16 1020 63 10000 8.2 20 12:20 16.03.2020
6558 Clouds 16 1020 63 10000 8.2 20 12:20 16.03.2020
6559 Clouds 15 1020 72 10000 7.2 10 11:44 16.03.2020
6560 Clouds 15 1020 72 10000 7.7 20 11:26 16.03.2020
6561 Clouds 15 1020 76 10000 7.2 10 10:45 16.03.2020
6562 Clouds 15 1019 67 10000 8.2 20 10:25 16.03.2020
6563 Clouds 15 1019 82 10000 6.7 10 09:59 16.03.2020
6564 Clouds 15 1019 82 10000 6.7 10 09:40 16.03.2020
6565 Clouds 14 1018 72 10000 6.7 360 09:20 16.03.2020
6566 Clouds 15 1018 93 10000 7.2 10 08:43 16.03.2020
6567 Clouds 15 1017 72 10000 10.8 360 08:23 16.03.2020
6568 Clouds 15 1017 93 10000 3.1 360 07:44 16.03.2020
6569 Clouds 15 1016 77 10000 6.7 360 07:21 16.03.2020
6570 Clouds 15 1017 93 10000 2.6 350 06:46 16.03.2020
6571 Rain 15 1017 93 10000 2.1 330 06:22 16.03.2020
6572 Rain 14 1016 100 10000 1 320 04:26 16.03.2020
6573 Clouds 16 1017 87 10000 2.1 330 01:49 16.03.2020
6574 Clouds 16 1017 87 10000 2.1 320 00:48 16.03.2020
6575 Clouds 16 1017 82 10000 3.1 320 00:28 16.03.2020
6576 Clouds 16 1017 82 10000 3.1 330 23:41 15.03.2020
6577 Clouds 16 1017 82 10000 3.1 320 23:19 15.03.2020
6578 Clouds 16 1017 82 10000 2.6 320 22:42 15.03.2020
6579 Clouds 16 1017 82 10000 2.6 320 22:42 15.03.2020
6580 Clouds 16 1017 82 10000 3.1 330 22:22 15.03.2020
6581 Clouds 17 1017 82 10000 2.6 330 21:40 15.03.2020
6582 Clouds 16 1017 82 10000 2.6 320 21:22 15.03.2020
6583 Clouds 17 1016 77 10000 2.6 330 20:58 15.03.2020
6584 Clouds 17 1016 77 10000 2.6 330 20:58 15.03.2020
6585 Clouds 17 1016 77 10000 2.6 330 20:40 15.03.2020
6586 Clouds 17 1015 72 10000 3.1 320 20:20 15.03.2020
6587 Clouds 17 1016 77 10000 4.6 330 19:56 15.03.2020
6588 Clouds 17 1015 72 10000 3.6 320 19:38 15.03.2020
6589 Clouds 17 1015 72 10000 3.6 320 19:19 15.03.2020
6590 Clouds 18 1016 72 10000 5.1 330 18:55 15.03.2020
6591 Clouds 18 1015 63 10000 4.1 260 18:36 15.03.2020
6592 Clouds 18 1015 63 10000 4.1 260 18:18 15.03.2020
6593 Clouds 19 1014 63 10000 7.2 320 17:40 15.03.2020
6594 Clouds 19 1014 63 10000 7.2 320 17:20 15.03.2020
6595 Clouds 19 1015 63 10000 5.1 320 16:56 15.03.2020
6596 Clouds 19 1014 60 10000 6.2 340 16:37 15.03.2020
6597 Clouds 19 1014 60 10000 6.2 340 16:18 15.03.2020
6598 Clouds 20 1015 60 10000 4.6 340 15:43 15.03.2020
6599 Clouds 19 1015 60 10000 7.2 320 15:25 15.03.2020
6600 Clouds 18 1016 68 10000 4.1 350 14:47 15.03.2020
6601 Clouds 18 1016 63 10000 6.2 320 14:28 15.03.2020
6602 Clouds 18 1017 72 10000 3.1 330 13:59 15.03.2020
6603 Clouds 18 1017 72 10000 3.1 330 13:40 15.03.2020
6604 Clouds 18 1017 68 10000 4.1 260 13:21 15.03.2020
6605 Clouds 17 1017 77 10000 2.6 320 12:58 15.03.2020
6606 Clouds 17 1017 72 10000 3.6 340 12:38 15.03.2020
6607 Clouds 17 1017 72 10000 3.6 340 12:20 15.03.2020
6608 Clouds 17 1017 82 10000 2.1 310 11:42 15.03.2020
6609 Clouds 17 1017 72 10000 1.5 360 11:22 15.03.2020
6610 Clouds 16 1017 87 10000 2.1 340 10:57 15.03.2020
6611 Clouds 16 1016 72 10000 3.1 360 10:38 15.03.2020
6612 Clouds 16 1016 72 10000 3.1 360 10:20 15.03.2020
6613 Clouds 16 1016 87 7000 2.6 10 09:42 15.03.2020
6614 Clouds 16 1016 77 10000 3.1 20 09:22 15.03.2020
6615 Clouds 16 1016 87 6000 2.6 30 08:55 15.03.2020
6616 Clouds 15 1015 77 10000 2.6 20 08:36 15.03.2020
6617 Clouds 15 1015 77 10000 2.6 20 08:18 15.03.2020
6618 Clouds 15 1015 93 10000 2.6 30 07:44 15.03.2020
6619 Clouds 15 1015 93 7000 2.1 30 06:55 15.03.2020
6620 Clouds 15 1015 93 7000 1 0 06:34 15.03.2020
6621 Clouds 15 1015 93 6000 1.5 100 05:43 15.03.2020
6622 Clouds 15 1015 93 10000 2.6 40 04:47 15.03.2020
6623 Clouds 15 1015 93 10000 2.6 10 04:28 15.03.2020
6624 Clouds 14 1015 100 10000 3.1 360 03:54 15.03.2020
6625 Clouds 15 1017 87 10000 2.1 110 02:47 15.03.2020
6626 Clouds 15 1017 87 10000 1.5 40 01:40 15.03.2020
6627 Clouds 15 1017 87 10000 1 0 00:47 15.03.2020
6628 Clouds 15 1017 93 10000 2.1 60 00:27 15.03.2020
6629 Clouds 15 1017 87 10000 2.1 90 23:56 14.03.2020
6630 Clouds 15 1018 87 10000 2.1 90 23:37 14.03.2020
6631 Clouds 15 1018 87 10000 2.1 90 23:18 14.03.2020
6632 Clouds 15 1018 87 10000 2.1 40 22:44 14.03.2020
6633 Clouds 15 1018 82 10000 2.6 30 22:26 14.03.2020
6634 Clouds 16 1018 82 10000 3.1 20 21:57 14.03.2020
6635 Clouds 16 1017 82 10000 2.6 20 21:36 14.03.2020
6636 Clouds 16 1017 82 10000 2.6 20 21:18 14.03.2020
6637 Clouds 16 1017 87 10000 2.6 10 20:59 14.03.2020
6638 Clouds 16 1017 87 10000 2.6 10 20:40 14.03.2020
6639 Clouds 16 1016 72 10000 6.2 20 20:19 14.03.2020
6640 Clouds 17 1017 82 10000 4.6 20 19:44 14.03.2020
6641 Clouds 17 1016 72 10000 6.2 20 19:25 14.03.2020
6642 Clouds 17 1016 72 10000 4.6 10 18:56 14.03.2020
6643 Clouds 17 1016 72 10000 5.1 340 18:37 14.03.2020
6644 Clouds 17 1016 72 10000 5.1 340 18:19 14.03.2020
6645 Clouds 18 1016 68 10000 5.1 360 17:39 14.03.2020
6646 Clouds 18 1016 68 10000 5.1 360 17:20 14.03.2020
6647 Clouds 19 1016 63 10000 6.2 360 16:41 14.03.2020
6648 Clouds 19 1016 63 10000 6.2 360 16:23 14.03.2020
6649 Clouds 19 1016 63 10000 6.2 360 16:23 14.03.2020
6650 Clouds 19 1016 60 10000 4.6 360 15:58 14.03.2020
6651 Clouds 19 1017 63 10000 5.1 360 15:27 14.03.2020
6652 Clouds 19 1017 60 10000 4.1 350 14:58 14.03.2020
6653 Clouds 19 1018 59 10000 6.2 360 14:37 14.03.2020
6654 Clouds 19 1018 59 10000 6.2 360 14:18 14.03.2020
6655 Clouds 19 1018 60 10000 1.5 10 13:42 14.03.2020
6656 Clouds 19 1019 59 10000 7.2 360 13:24 14.03.2020
6657 Clouds 19 1019 63 10000 2.1 340 12:57 14.03.2020
6658 Clouds 18 1019 68 10000 2.1 330 12:38 14.03.2020
6659 Clouds 17 1019 68 10000 2.1 330 12:19 14.03.2020
6660 Clouds 17 1019 67 8000 4.1 60 11:42 14.03.2020
6661 Clouds 17 1019 67 8000 4.1 60 11:24 14.03.2020
6662 Clouds 17 1019 72 10000 2.1 90 10:46 14.03.2020
6663 Clouds 16 1019 67 8000 3.1 20 10:27 14.03.2020
6664 Clouds 16 1019 82 10000 2.6 70 09:58 14.03.2020
6665 Clouds 16 1019 82 1000